<?xml version='1.0' encoding='UTF-8'?><gpx version="1.1" creator="JPX - https://github.com/jenetics/jpx" xmlns="http://www.topografix.com/GPX/1/1"><trk><trkseg><trkpt lat="45.3575322" lon="9.7833312"><ele>74.0</ele><time>2026-04-04T12:03:17.759Z</time></trkpt><trkpt lat="45.3574603" lon="9.7833334"><ele>74.0</ele><time>2026-04-04T12:03:22.027Z</time></trkpt><trkpt lat="45.3574648" lon="9.7832414"><ele>74.0</ele><time>2026-04-04T12:04:28.032Z</time></trkpt><trkpt lat="45.3574783" lon="9.7831367"><ele>74.0</ele><time>2026-04-04T12:04:32.988Z</time></trkpt><trkpt lat="45.35757" lon="9.7831567"><ele>74.0</ele><time>2026-04-04T12:04:38.626Z</time></trkpt><trkpt lat="45.3575583" lon="9.7830617"><ele>74.0</ele><time>2026-04-04T12:04:39.987Z</time></trkpt><trkpt lat="45.35754" lon="9.7829667"><ele>74.0</ele><time>2026-04-04T12:04:41.987Z</time></trkpt><trkpt lat="45.35757" lon="9.78308"><ele>74.0</ele><time>2026-04-04T12:06:47.986Z</time></trkpt><trkpt lat="45.357505" lon="9.7830583"><ele>74.0</ele><time>2026-04-04T12:06:53.987Z</time></trkpt><trkpt lat="45.3575683" lon="9.783035"><ele>74.0</ele><time>2026-04-04T12:07:09.987Z</time></trkpt><trkpt lat="45.3575033" lon="9.783045"><ele>74.0</ele><time>2026-04-04T12:07:19.987Z</time></trkpt><trkpt lat="45.3574617" lon="9.7829667"><ele>74.0</ele><time>2026-04-04T12:07:34.987Z</time></trkpt><trkpt lat="45.357395" lon="9.7829183"><ele>74.0</ele><time>2026-04-04T12:07:38.987Z</time></trkpt><trkpt lat="45.35733" lon="9.78293"><ele>74.0</ele><time>2026-04-04T12:07:41.986Z</time></trkpt><trkpt lat="45.3572467" lon="9.7829567"><ele>73.85714285714286</ele><time>2026-04-04T12:07:44.986Z</time></trkpt><trkpt lat="45.3571833" lon="9.7829667"><ele>73.71428571428571</ele><time>2026-04-04T12:07:46.987Z</time></trkpt><trkpt lat="45.3571167" lon="9.7829867"><ele>73.57142857142857</ele><time>2026-04-04T12:07:48.986Z</time></trkpt><trkpt lat="45.35705" lon="9.7829983"><ele>73.42857142857143</ele><time>2026-04-04T12:07:50.987Z</time></trkpt><trkpt lat="45.35698" lon="9.783005"><ele>73.28571428571429</ele><time>2026-04-04T12:07:52.987Z</time></trkpt><trkpt lat="45.3569133" lon="9.783015"><ele>73.14285714285714</ele><time>2026-04-04T12:07:54.987Z</time></trkpt><trkpt lat="45.3568467" lon="9.7830267"><ele>73.0</ele><time>2026-04-04T12:07:56.987Z</time></trkpt><trkpt lat="45.3567767" lon="9.7830267"><ele>73.0</ele><time>2026-04-04T12:07:58.987Z</time></trkpt><trkpt lat="45.3567" lon="9.7830383"><ele>73.0</ele><time>2026-04-04T12:08:00.987Z</time></trkpt><trkpt lat="45.35663" lon="9.7830583"><ele>73.0</ele><time>2026-04-04T12:08:02.987Z</time></trkpt><trkpt lat="45.3565617" lon="9.783065"><ele>73.0</ele><time>2026-04-04T12:08:04.987Z</time></trkpt><trkpt lat="45.356495" lon="9.78307"><ele>73.0</ele><time>2026-04-04T12:08:06.987Z</time></trkpt><trkpt lat="45.3564317" lon="9.7830817"><ele>73.0</ele><time>2026-04-04T12:08:08.987Z</time></trkpt><trkpt lat="45.3563417" lon="9.7830917"><ele>73.0</ele><time>2026-04-04T12:08:11.986Z</time></trkpt><trkpt lat="45.356255" lon="9.7831"><ele>73.0</ele><time>2026-04-04T12:08:14.987Z</time></trkpt><trkpt lat="45.3561683" lon="9.7831167"><ele>73.0</ele><time>2026-04-04T12:08:17.987Z</time></trkpt><trkpt lat="45.3560867" lon="9.7831267"><ele>73.0</ele><time>2026-04-04T12:08:20.987Z</time></trkpt><trkpt lat="45.3560083" lon="9.7830667"><ele>73.0</ele><time>2026-04-04T12:08:23.987Z</time></trkpt><trkpt lat="45.3559917" lon="9.7829717"><ele>73.0</ele><time>2026-04-04T12:08:25.987Z</time></trkpt><trkpt lat="45.3559717" lon="9.7828683"><ele>73.0</ele><time>2026-04-04T12:08:27.987Z</time></trkpt><trkpt lat="45.355955" lon="9.7827567"><ele>73.0</ele><time>2026-04-04T12:08:29.986Z</time></trkpt><trkpt lat="45.3559333" lon="9.7826417"><ele>73.0</ele><time>2026-04-04T12:08:31.987Z</time></trkpt><trkpt lat="45.355915" lon="9.7825233"><ele>73.0</ele><time>2026-04-04T12:08:33.987Z</time></trkpt><trkpt lat="45.3558933" lon="9.7824117"><ele>73.0</ele><time>2026-04-04T12:08:35.986Z</time></trkpt><trkpt lat="45.355885" lon="9.7822967"><ele>73.0</ele><time>2026-04-04T12:08:37.987Z</time></trkpt><trkpt lat="45.3558717" lon="9.782185"><ele>73.0</ele><time>2026-04-04T12:08:39.987Z</time></trkpt><trkpt lat="45.3558633" lon="9.7820717"><ele>73.0</ele><time>2026-04-04T12:08:41.987Z</time></trkpt><trkpt lat="45.3558533" lon="9.7819517"><ele>73.0</ele><time>2026-04-04T12:08:43.987Z</time></trkpt><trkpt lat="45.3558433" lon="9.7818333"><ele>73.0</ele><time>2026-04-04T12:08:45.987Z</time></trkpt><trkpt lat="45.35583" lon="9.7817283"><ele>73.0</ele><time>2026-04-04T12:08:47.987Z</time></trkpt><trkpt lat="45.3558183" lon="9.7816117"><ele>73.0</ele><time>2026-04-04T12:08:49.987Z</time></trkpt><trkpt lat="45.3558133" lon="9.7814883"><ele>73.0</ele><time>2026-04-04T12:08:51.987Z</time></trkpt><trkpt lat="45.3557983" lon="9.78137"><ele>73.0</ele><time>2026-04-04T12:08:53.987Z</time></trkpt><trkpt lat="45.3557817" lon="9.7812533"><ele>73.0</ele><time>2026-04-04T12:08:55.987Z</time></trkpt><trkpt lat="45.3557567" lon="9.7811417"><ele>73.0</ele><time>2026-04-04T12:08:57.986Z</time></trkpt><trkpt lat="45.35574" lon="9.781025"><ele>73.0</ele><time>2026-04-04T12:08:59.987Z</time></trkpt><trkpt lat="45.3557217" lon="9.7809217"><ele>73.0</ele><time>2026-04-04T12:09:01.987Z</time></trkpt><trkpt lat="45.3557" lon="9.7808117"><ele>73.0</ele><time>2026-04-04T12:09:03.987Z</time></trkpt><trkpt lat="45.355675" lon="9.7807"><ele>73.0</ele><time>2026-04-04T12:09:05.987Z</time></trkpt><trkpt lat="45.3556583" lon="9.7805817"><ele>73.0</ele><time>2026-04-04T12:09:07.987Z</time></trkpt><trkpt lat="45.355645" lon="9.7804683"><ele>73.0</ele><time>2026-04-04T12:09:09.987Z</time></trkpt><trkpt lat="45.3556483" lon="9.780365"><ele>73.0</ele><time>2026-04-04T12:09:12.987Z</time></trkpt><trkpt lat="45.3556133" lon="9.7802583"><ele>73.0</ele><time>2026-04-04T12:09:20.987Z</time></trkpt><trkpt lat="45.35558" lon="9.7801233"><ele>73.0</ele><time>2026-04-04T12:09:23.987Z</time></trkpt><trkpt lat="45.3555683" lon="9.7799983"><ele>72.8</ele><time>2026-04-04T12:09:25.987Z</time></trkpt><trkpt lat="45.355545" lon="9.779875"><ele>72.6</ele><time>2026-04-04T12:09:27.987Z</time></trkpt><trkpt lat="45.35552" lon="9.779735"><ele>72.4</ele><time>2026-04-04T12:09:29.987Z</time></trkpt><trkpt lat="45.3555017" lon="9.7796033"><ele>72.2</ele><time>2026-04-04T12:09:31.987Z</time></trkpt><trkpt lat="45.3554733" lon="9.7794867"><ele>72.0</ele><time>2026-04-04T12:09:33.987Z</time></trkpt><trkpt lat="45.355445" lon="9.779375"><ele>72.16666666666667</ele><time>2026-04-04T12:09:35.987Z</time></trkpt><trkpt lat="45.35542" lon="9.7792583"><ele>72.33333333333333</ele><time>2026-04-04T12:09:37.987Z</time></trkpt><trkpt lat="45.355405" lon="9.7791467"><ele>72.5</ele><time>2026-04-04T12:09:39.986Z</time></trkpt><trkpt lat="45.3553833" lon="9.7790283"><ele>72.66666666666666</ele><time>2026-04-04T12:09:41.987Z</time></trkpt><trkpt lat="45.3553767" lon="9.778905"><ele>72.83333333333333</ele><time>2026-04-04T12:09:43.987Z</time></trkpt><trkpt lat="45.3553683" lon="9.7787917"><ele>73.0</ele><time>2026-04-04T12:09:45.987Z</time></trkpt><trkpt lat="45.3553733" lon="9.7786683"><ele>73.0</ele><time>2026-04-04T12:09:47.987Z</time></trkpt><trkpt lat="45.3553967" lon="9.7785417"><ele>73.0</ele><time>2026-04-04T12:09:49.987Z</time></trkpt><trkpt lat="45.3554367" lon="9.77842"><ele>73.0</ele><time>2026-04-04T12:09:51.987Z</time></trkpt><trkpt lat="45.3554667" lon="9.7782983"><ele>73.0</ele><time>2026-04-04T12:09:53.987Z</time></trkpt><trkpt lat="45.3555167" lon="9.77818"><ele>73.0</ele><time>2026-04-04T12:09:55.987Z</time></trkpt><trkpt lat="45.3555817" lon="9.7780717"><ele>73.0</ele><time>2026-04-04T12:09:57.987Z</time></trkpt><trkpt lat="45.3556367" lon="9.7779717"><ele>73.0</ele><time>2026-04-04T12:09:59.987Z</time></trkpt><trkpt lat="45.35567" lon="9.7778617"><ele>73.0</ele><time>2026-04-04T12:10:01.987Z</time></trkpt><trkpt lat="45.3556833" lon="9.7777383"><ele>73.0</ele><time>2026-04-04T12:10:03.987Z</time></trkpt><trkpt lat="45.355705" lon="9.777605"><ele>73.0</ele><time>2026-04-04T12:10:05.987Z</time></trkpt><trkpt lat="45.35575" lon="9.7774783"><ele>73.0</ele><time>2026-04-04T12:10:07.987Z</time></trkpt><trkpt lat="45.355805" lon="9.7773617"><ele>73.0</ele><time>2026-04-04T12:10:09.987Z</time></trkpt><trkpt lat="45.3558533" lon="9.7772333"><ele>73.0</ele><time>2026-04-04T12:10:11.987Z</time></trkpt><trkpt lat="45.3559067" lon="9.77712"><ele>73.0</ele><time>2026-04-04T12:10:13.987Z</time></trkpt><trkpt lat="45.3559633" lon="9.7769983"><ele>73.0</ele><time>2026-04-04T12:10:15.987Z</time></trkpt><trkpt lat="45.3560167" lon="9.7768783"><ele>73.0</ele><time>2026-04-04T12:10:17.987Z</time></trkpt><trkpt lat="45.3560683" lon="9.7767667"><ele>73.0</ele><time>2026-04-04T12:10:19.986Z</time></trkpt><trkpt lat="45.3561233" lon="9.776655"><ele>73.0</ele><time>2026-04-04T12:10:21.987Z</time></trkpt><trkpt lat="45.3561783" lon="9.77655"><ele>73.0</ele><time>2026-04-04T12:10:23.987Z</time></trkpt><trkpt lat="45.356235" lon="9.7764517"><ele>73.0</ele><time>2026-04-04T12:10:25.987Z</time></trkpt><trkpt lat="45.356305" lon="9.7763917"><ele>73.0</ele><time>2026-04-04T12:10:27.987Z</time></trkpt><trkpt lat="45.3563983" lon="9.7764067"><ele>73.0</ele><time>2026-04-04T12:10:29.986Z</time></trkpt><trkpt lat="45.3564933" lon="9.7764233"><ele>73.0</ele><time>2026-04-04T12:10:31.987Z</time></trkpt><trkpt lat="45.356585" lon="9.7764217"><ele>73.0</ele><time>2026-04-04T12:10:33.987Z</time></trkpt><trkpt lat="45.35668" lon="9.77642"><ele>73.0</ele><time>2026-04-04T12:10:35.987Z</time></trkpt><trkpt lat="45.35678" lon="9.7764233"><ele>73.0</ele><time>2026-04-04T12:10:37.986Z</time></trkpt><trkpt lat="45.3568733" lon="9.7764167"><ele>73.0</ele><time>2026-04-04T12:10:39.987Z</time></trkpt><trkpt lat="45.35697" lon="9.776435"><ele>73.0</ele><time>2026-04-04T12:10:41.986Z</time></trkpt><trkpt lat="45.3570583" lon="9.7764333"><ele>73.0</ele><time>2026-04-04T12:10:43.987Z</time></trkpt><trkpt lat="45.3571417" lon="9.7764233"><ele>73.0</ele><time>2026-04-04T12:10:45.987Z</time></trkpt><trkpt lat="45.3572317" lon="9.77642"><ele>73.16666666666666</ele><time>2026-04-04T12:10:47.987Z</time></trkpt><trkpt lat="45.3573117" lon="9.7763767"><ele>73.33333333333333</ele><time>2026-04-04T12:10:49.987Z</time></trkpt><trkpt lat="45.3573317" lon="9.7762533"><ele>73.5</ele><time>2026-04-04T12:10:51.987Z</time></trkpt><trkpt lat="45.3573317" lon="9.77612"><ele>73.66666666666667</ele><time>2026-04-04T12:10:53.987Z</time></trkpt><trkpt lat="45.3573233" lon="9.7759917"><ele>73.83333333333334</ele><time>2026-04-04T12:10:55.987Z</time></trkpt><trkpt lat="45.3573283" lon="9.77587"><ele>74.0</ele><time>2026-04-04T12:10:57.987Z</time></trkpt><trkpt lat="45.35734" lon="9.7757567"><ele>74.0</ele><time>2026-04-04T12:10:59.987Z</time></trkpt><trkpt lat="45.3573483" lon="9.7756267"><ele>74.0</ele><time>2026-04-04T12:11:01.987Z</time></trkpt><trkpt lat="45.357345" lon="9.77549"><ele>74.0</ele><time>2026-04-04T12:11:03.987Z</time></trkpt><trkpt lat="45.3573433" lon="9.7753833"><ele>74.0</ele><time>2026-04-04T12:11:05.987Z</time></trkpt><trkpt lat="45.3573317" lon="9.7752933"><ele>74.0</ele><time>2026-04-04T12:11:07.987Z</time></trkpt><trkpt lat="45.3573283" lon="9.775185"><ele>74.0</ele><time>2026-04-04T12:11:10.987Z</time></trkpt><trkpt lat="45.357335" lon="9.77507"><ele>74.0</ele><time>2026-04-04T12:11:13.987Z</time></trkpt><trkpt lat="45.3573417" lon="9.7749567"><ele>74.0</ele><time>2026-04-04T12:11:16.987Z</time></trkpt><trkpt lat="45.3573617" lon="9.7748633"><ele>74.0</ele><time>2026-04-04T12:11:18.987Z</time></trkpt><trkpt lat="45.3573717" lon="9.774765"><ele>74.0</ele><time>2026-04-04T12:11:21.987Z</time></trkpt><trkpt lat="45.3574233" lon="9.7746783"><ele>74.0</ele><time>2026-04-04T12:11:25.987Z</time></trkpt><trkpt lat="45.3575117" lon="9.77469"><ele>74.0</ele><time>2026-04-04T12:11:28.987Z</time></trkpt><trkpt lat="45.357605" lon="9.7746917"><ele>74.0</ele><time>2026-04-04T12:11:31.987Z</time></trkpt><trkpt lat="45.357675" lon="9.7746867"><ele>74.0</ele><time>2026-04-04T12:11:33.987Z</time></trkpt><trkpt lat="45.3577417" lon="9.7746917"><ele>74.0</ele><time>2026-04-04T12:11:35.986Z</time></trkpt><trkpt lat="45.357815" lon="9.7747067"><ele>74.0</ele><time>2026-04-04T12:11:37.987Z</time></trkpt><trkpt lat="45.35789" lon="9.77472"><ele>74.0</ele><time>2026-04-04T12:11:39.987Z</time></trkpt><trkpt lat="45.3579633" lon="9.77473"><ele>74.0</ele><time>2026-04-04T12:11:41.987Z</time></trkpt><trkpt lat="45.3580367" lon="9.7747367"><ele>74.0</ele><time>2026-04-04T12:11:43.987Z</time></trkpt><trkpt lat="45.3581117" lon="9.77474"><ele>74.0</ele><time>2026-04-04T12:11:45.987Z</time></trkpt><trkpt lat="45.358185" lon="9.7747483"><ele>74.0</ele><time>2026-04-04T12:11:47.987Z</time></trkpt><trkpt lat="45.35825" lon="9.7747467"><ele>74.0</ele><time>2026-04-04T12:11:49.987Z</time></trkpt><trkpt lat="45.3583333" lon="9.77474"><ele>74.0</ele><time>2026-04-04T12:11:52.987Z</time></trkpt><trkpt lat="45.358365" lon="9.774655"><ele>74.0</ele><time>2026-04-04T12:11:55.987Z</time></trkpt><trkpt lat="45.3583617" lon="9.7745567"><ele>74.0</ele><time>2026-04-04T12:11:57.987Z</time></trkpt><trkpt lat="45.358355" lon="9.7744367"><ele>74.0</ele><time>2026-04-04T12:11:59.987Z</time></trkpt><trkpt lat="45.3583533" lon="9.7743133"><ele>74.0</ele><time>2026-04-04T12:12:01.987Z</time></trkpt><trkpt lat="45.3583517" lon="9.774195"><ele>74.0</ele><time>2026-04-04T12:12:03.987Z</time></trkpt><trkpt lat="45.3583567" lon="9.7740733"><ele>74.0</ele><time>2026-04-04T12:12:05.987Z</time></trkpt><trkpt lat="45.3583633" lon="9.7739433"><ele>74.0</ele><time>2026-04-04T12:12:07.987Z</time></trkpt><trkpt lat="45.35837" lon="9.7738167"><ele>74.0</ele><time>2026-04-04T12:12:09.987Z</time></trkpt><trkpt lat="45.3583717" lon="9.7736917"><ele>74.0</ele><time>2026-04-04T12:12:11.987Z</time></trkpt><trkpt lat="45.358375" lon="9.77357"><ele>74.0</ele><time>2026-04-04T12:12:13.986Z</time></trkpt><trkpt lat="45.35838" lon="9.773445"><ele>74.0</ele><time>2026-04-04T12:12:15.986Z</time></trkpt><trkpt lat="45.3583833" lon="9.7733217"><ele>74.0</ele><time>2026-04-04T12:12:17.986Z</time></trkpt><trkpt lat="45.358385" lon="9.7731933"><ele>74.0</ele><time>2026-04-04T12:12:19.986Z</time></trkpt><trkpt lat="45.358395" lon="9.7730683"><ele>74.0</ele><time>2026-04-04T12:12:21.986Z</time></trkpt><trkpt lat="45.3584" lon="9.7729433"><ele>74.0</ele><time>2026-04-04T12:12:23.985Z</time></trkpt><trkpt lat="45.3584033" lon="9.77282"><ele>74.0</ele><time>2026-04-04T12:12:25.985Z</time></trkpt><trkpt lat="45.3584067" lon="9.7726917"><ele>74.0</ele><time>2026-04-04T12:12:27.986Z</time></trkpt><trkpt lat="45.3584117" lon="9.77256"><ele>74.0</ele><time>2026-04-04T12:12:29.986Z</time></trkpt><trkpt lat="45.3584133" lon="9.7724283"><ele>74.0</ele><time>2026-04-04T12:12:31.985Z</time></trkpt><trkpt lat="45.3584167" lon="9.7723067"><ele>74.0</ele><time>2026-04-04T12:12:33.986Z</time></trkpt><trkpt lat="45.3584167" lon="9.7721783"><ele>73.8</ele><time>2026-04-04T12:12:35.986Z</time></trkpt><trkpt lat="45.3584167" lon="9.7720433"><ele>73.60000000000001</ele><time>2026-04-04T12:12:37.986Z</time></trkpt><trkpt lat="45.35842" lon="9.7718917"><ele>73.4</ele><time>2026-04-04T12:12:39.986Z</time></trkpt><trkpt lat="45.358425" lon="9.77175"><ele>73.2</ele><time>2026-04-04T12:12:41.986Z</time></trkpt><trkpt lat="45.3584283" lon="9.7716083"><ele>73.0</ele><time>2026-04-04T12:12:43.986Z</time></trkpt><trkpt lat="45.3584317" lon="9.7714683"><ele>72.8</ele><time>2026-04-04T12:12:45.986Z</time></trkpt><trkpt lat="45.3584333" lon="9.7713283"><ele>72.6</ele><time>2026-04-04T12:12:47.986Z</time></trkpt><trkpt lat="45.3584367" lon="9.7711933"><ele>72.4</ele><time>2026-04-04T12:12:49.985Z</time></trkpt><trkpt lat="45.35844" lon="9.7710583"><ele>72.2</ele><time>2026-04-04T12:12:51.986Z</time></trkpt><trkpt lat="45.3584467" lon="9.7709267"><ele>72.0</ele><time>2026-04-04T12:12:53.986Z</time></trkpt><trkpt lat="45.3584517" lon="9.7707983"><ele>72.0</ele><time>2026-04-04T12:12:55.986Z</time></trkpt><trkpt lat="45.3584533" lon="9.77066"><ele>72.0</ele><time>2026-04-04T12:12:57.986Z</time></trkpt><trkpt lat="45.358455" lon="9.77053"><ele>72.0</ele><time>2026-04-04T12:12:59.986Z</time></trkpt><trkpt lat="45.35846" lon="9.7703967"><ele>72.0</ele><time>2026-04-04T12:13:01.986Z</time></trkpt><trkpt lat="45.3584617" lon="9.770255"><ele>72.0</ele><time>2026-04-04T12:13:03.986Z</time></trkpt><trkpt lat="45.3584633" lon="9.7701217"><ele>72.0</ele><time>2026-04-04T12:13:05.986Z</time></trkpt><trkpt lat="45.3584667" lon="9.7699833"><ele>72.0</ele><time>2026-04-04T12:13:07.986Z</time></trkpt><trkpt lat="45.3584683" lon="9.769845"><ele>72.0</ele><time>2026-04-04T12:13:09.986Z</time></trkpt><trkpt lat="45.3584783" lon="9.7697183"><ele>72.0</ele><time>2026-04-04T12:13:11.985Z</time></trkpt><trkpt lat="45.3584817" lon="9.7695783"><ele>72.0</ele><time>2026-04-04T12:13:13.986Z</time></trkpt><trkpt lat="45.358485" lon="9.76944"><ele>72.2</ele><time>2026-04-04T12:13:15.986Z</time></trkpt><trkpt lat="45.3584933" lon="9.769305"><ele>72.4</ele><time>2026-04-04T12:13:17.986Z</time></trkpt><trkpt lat="45.3585017" lon="9.7691683"><ele>72.6</ele><time>2026-04-04T12:13:19.986Z</time></trkpt><trkpt lat="45.3585067" lon="9.7690283"><ele>72.8</ele><time>2026-04-04T12:13:21.986Z</time></trkpt><trkpt lat="45.358515" lon="9.7688917"><ele>73.0</ele><time>2026-04-04T12:13:23.986Z</time></trkpt><trkpt lat="45.3585133" lon="9.76876"><ele>73.0</ele><time>2026-04-04T12:13:25.986Z</time></trkpt><trkpt lat="45.3585167" lon="9.7686233"><ele>73.0</ele><time>2026-04-04T12:13:27.986Z</time></trkpt><trkpt lat="45.358525" lon="9.768485"><ele>73.0</ele><time>2026-04-04T12:13:29.986Z</time></trkpt><trkpt lat="45.358535" lon="9.7683433"><ele>73.0</ele><time>2026-04-04T12:13:31.985Z</time></trkpt><trkpt lat="45.3585417" lon="9.768205"><ele>73.0</ele><time>2026-04-04T12:13:33.986Z</time></trkpt><trkpt lat="45.3585433" lon="9.76806"><ele>73.0</ele><time>2026-04-04T12:13:35.986Z</time></trkpt><trkpt lat="45.35855" lon="9.7679183"><ele>73.0</ele><time>2026-04-04T12:13:37.986Z</time></trkpt><trkpt lat="45.3585517" lon="9.7677733"><ele>73.0</ele><time>2026-04-04T12:13:39.986Z</time></trkpt><trkpt lat="45.35856" lon="9.767635"><ele>73.0</ele><time>2026-04-04T12:13:41.985Z</time></trkpt><trkpt lat="45.3585683" lon="9.7674867"><ele>73.0</ele><time>2026-04-04T12:13:43.986Z</time></trkpt><trkpt lat="45.3585717" lon="9.767335"><ele>72.8</ele><time>2026-04-04T12:13:45.986Z</time></trkpt><trkpt lat="45.358575" lon="9.76719"><ele>72.6</ele><time>2026-04-04T12:13:47.986Z</time></trkpt><trkpt lat="45.3585833" lon="9.7670467"><ele>72.4</ele><time>2026-04-04T12:13:49.986Z</time></trkpt><trkpt lat="45.3585883" lon="9.7669017"><ele>72.2</ele><time>2026-04-04T12:13:51.986Z</time></trkpt><trkpt lat="45.358595" lon="9.766765"><ele>72.0</ele><time>2026-04-04T12:13:53.986Z</time></trkpt><trkpt lat="45.358595" lon="9.766615"><ele>72.0</ele><time>2026-04-04T12:13:55.986Z</time></trkpt><trkpt lat="45.358595" lon="9.7664683"><ele>72.0</ele><time>2026-04-04T12:13:57.985Z</time></trkpt><trkpt lat="45.3585967" lon="9.766315"><ele>72.0</ele><time>2026-04-04T12:13:59.985Z</time></trkpt><trkpt lat="45.3585983" lon="9.76616"><ele>72.0</ele><time>2026-04-04T12:14:01.986Z</time></trkpt><trkpt lat="45.358605" lon="9.7660067"><ele>72.0</ele><time>2026-04-04T12:14:03.986Z</time></trkpt><trkpt lat="45.358605" lon="9.7658483"><ele>72.2</ele><time>2026-04-04T12:14:05.986Z</time></trkpt><trkpt lat="45.3586117" lon="9.7656917"><ele>72.4</ele><time>2026-04-04T12:14:07.986Z</time></trkpt><trkpt lat="45.3586167" lon="9.76553"><ele>72.6</ele><time>2026-04-04T12:14:09.986Z</time></trkpt><trkpt lat="45.3586183" lon="9.765375"><ele>72.8</ele><time>2026-04-04T12:14:11.986Z</time></trkpt><trkpt lat="45.3586267" lon="9.7652183"><ele>73.0</ele><time>2026-04-04T12:14:13.986Z</time></trkpt><trkpt lat="45.3586317" lon="9.7650667"><ele>72.6</ele><time>2026-04-04T12:14:15.986Z</time></trkpt><trkpt lat="45.3586367" lon="9.7649183"><ele>72.19999999999999</ele><time>2026-04-04T12:14:17.986Z</time></trkpt><trkpt lat="45.3586383" lon="9.7647633"><ele>71.8</ele><time>2026-04-04T12:14:19.986Z</time></trkpt><trkpt lat="45.3586433" lon="9.764615"><ele>71.39999999999999</ele><time>2026-04-04T12:14:21.986Z</time></trkpt><trkpt lat="45.358645" lon="9.7644633"><ele>71.0</ele><time>2026-04-04T12:14:23.986Z</time></trkpt><trkpt lat="45.35865" lon="9.7643167"><ele>71.0</ele><time>2026-04-04T12:14:25.986Z</time></trkpt><trkpt lat="45.3586533" lon="9.7641683"><ele>71.0</ele><time>2026-04-04T12:14:27.985Z</time></trkpt><trkpt lat="45.3586567" lon="9.76402"><ele>71.0</ele><time>2026-04-04T12:14:29.986Z</time></trkpt><trkpt lat="45.3586617" lon="9.763875"><ele>71.0</ele><time>2026-04-04T12:14:31.986Z</time></trkpt><trkpt lat="45.3586683" lon="9.7637267"><ele>71.0</ele><time>2026-04-04T12:14:33.986Z</time></trkpt><trkpt lat="45.3586783" lon="9.763585"><ele>71.6</ele><time>2026-04-04T12:14:35.986Z</time></trkpt><trkpt lat="45.3586817" lon="9.7634333"><ele>72.19999999999999</ele><time>2026-04-04T12:14:37.986Z</time></trkpt><trkpt lat="45.358685" lon="9.76328"><ele>72.80000000000001</ele><time>2026-04-04T12:14:39.986Z</time></trkpt><trkpt lat="45.35869" lon="9.7631283"><ele>73.4</ele><time>2026-04-04T12:14:41.986Z</time></trkpt><trkpt lat="45.358695" lon="9.762985"><ele>74.0</ele><time>2026-04-04T12:14:43.986Z</time></trkpt><trkpt lat="45.3586983" lon="9.762845"><ele>74.0</ele><time>2026-04-04T12:14:45.986Z</time></trkpt><trkpt lat="45.3587017" lon="9.762705"><ele>74.0</ele><time>2026-04-04T12:14:47.986Z</time></trkpt><trkpt lat="45.3587017" lon="9.762565"><ele>74.0</ele><time>2026-04-04T12:14:49.985Z</time></trkpt><trkpt lat="45.3587033" lon="9.762425"><ele>74.0</ele><time>2026-04-04T12:14:51.986Z</time></trkpt><trkpt lat="45.358705" lon="9.762295"><ele>74.0</ele><time>2026-04-04T12:14:53.985Z</time></trkpt><trkpt lat="45.3587167" lon="9.762185"><ele>73.83333333333334</ele><time>2026-04-04T12:14:55.986Z</time></trkpt><trkpt lat="45.358715" lon="9.7620733"><ele>73.66666666666667</ele><time>2026-04-04T12:14:57.986Z</time></trkpt><trkpt lat="45.3587217" lon="9.7619633"><ele>73.5</ele><time>2026-04-04T12:14:59.986Z</time></trkpt><trkpt lat="45.3587267" lon="9.761835"><ele>73.33333333333333</ele><time>2026-04-04T12:15:01.986Z</time></trkpt><trkpt lat="45.3587317" lon="9.7617017"><ele>73.16666666666666</ele><time>2026-04-04T12:15:03.986Z</time></trkpt><trkpt lat="45.358735" lon="9.761565"><ele>73.0</ele><time>2026-04-04T12:15:05.986Z</time></trkpt><trkpt lat="45.3587417" lon="9.7614233"><ele>72.8</ele><time>2026-04-04T12:15:07.986Z</time></trkpt><trkpt lat="45.358745" lon="9.7612833"><ele>72.6</ele><time>2026-04-04T12:15:09.986Z</time></trkpt><trkpt lat="45.3587467" lon="9.7611367"><ele>72.4</ele><time>2026-04-04T12:15:11.986Z</time></trkpt><trkpt lat="45.3587433" lon="9.7609867"><ele>72.2</ele><time>2026-04-04T12:15:13.985Z</time></trkpt><trkpt lat="45.3587417" lon="9.76084"><ele>72.0</ele><time>2026-04-04T12:15:15.986Z</time></trkpt><trkpt lat="45.3587417" lon="9.7606967"><ele>72.0</ele><time>2026-04-04T12:15:17.986Z</time></trkpt><trkpt lat="45.3587433" lon="9.7605533"><ele>72.0</ele><time>2026-04-04T12:15:19.986Z</time></trkpt><trkpt lat="45.3587467" lon="9.7604117"><ele>72.0</ele><time>2026-04-04T12:15:21.986Z</time></trkpt><trkpt lat="45.3587533" lon="9.760265"><ele>72.0</ele><time>2026-04-04T12:15:23.986Z</time></trkpt><trkpt lat="45.3587533" lon="9.76011"><ele>72.0</ele><time>2026-04-04T12:15:25.986Z</time></trkpt><trkpt lat="45.3587567" lon="9.759965"><ele>72.0</ele><time>2026-04-04T12:15:27.986Z</time></trkpt><trkpt lat="45.3587633" lon="9.7598183"><ele>72.0</ele><time>2026-04-04T12:15:29.985Z</time></trkpt><trkpt lat="45.3587667" lon="9.7596667"><ele>72.0</ele><time>2026-04-04T12:15:31.986Z</time></trkpt><trkpt lat="45.3587717" lon="9.7595233"><ele>72.0</ele><time>2026-04-04T12:15:33.986Z</time></trkpt><trkpt lat="45.3587817" lon="9.759385"><ele>72.0</ele><time>2026-04-04T12:15:35.986Z</time></trkpt><trkpt lat="45.3587917" lon="9.7592417"><ele>72.0</ele><time>2026-04-04T12:15:37.986Z</time></trkpt><trkpt lat="45.3587983" lon="9.7590967"><ele>72.0</ele><time>2026-04-04T12:15:39.985Z</time></trkpt><trkpt lat="45.3588033" lon="9.7589483"><ele>72.0</ele><time>2026-04-04T12:15:41.986Z</time></trkpt><trkpt lat="45.3588083" lon="9.7588017"><ele>72.0</ele><time>2026-04-04T12:15:43.986Z</time></trkpt><trkpt lat="45.35881" lon="9.7586567"><ele>72.0</ele><time>2026-04-04T12:15:45.985Z</time></trkpt><trkpt lat="45.35881" lon="9.7585083"><ele>72.0</ele><time>2026-04-04T12:15:47.986Z</time></trkpt><trkpt lat="45.3588033" lon="9.7583517"><ele>72.0</ele><time>2026-04-04T12:15:49.986Z</time></trkpt><trkpt lat="45.3588117" lon="9.7581967"><ele>72.0</ele><time>2026-04-04T12:15:51.986Z</time></trkpt><trkpt lat="45.3588183" lon="9.7580517"><ele>72.0</ele><time>2026-04-04T12:15:53.986Z</time></trkpt><trkpt lat="45.3588283" lon="9.7579083"><ele>72.0</ele><time>2026-04-04T12:15:55.986Z</time></trkpt><trkpt lat="45.358855" lon="9.7577733"><ele>72.2</ele><time>2026-04-04T12:15:57.986Z</time></trkpt><trkpt lat="45.3588983" lon="9.7576567"><ele>72.4</ele><time>2026-04-04T12:15:59.986Z</time></trkpt><trkpt lat="45.3589133" lon="9.7575233"><ele>72.6</ele><time>2026-04-04T12:16:01.986Z</time></trkpt><trkpt lat="45.3589233" lon="9.7573817"><ele>72.8</ele><time>2026-04-04T12:16:03.986Z</time></trkpt><trkpt lat="45.358925" lon="9.75724"><ele>73.0</ele><time>2026-04-04T12:16:05.986Z</time></trkpt><trkpt lat="45.3589317" lon="9.7571033"><ele>73.0</ele><time>2026-04-04T12:16:07.986Z</time></trkpt><trkpt lat="45.3589333" lon="9.7569683"><ele>73.0</ele><time>2026-04-04T12:16:09.986Z</time></trkpt><trkpt lat="45.358935" lon="9.7568333"><ele>73.0</ele><time>2026-04-04T12:16:11.986Z</time></trkpt><trkpt lat="45.3589383" lon="9.7566933"><ele>73.0</ele><time>2026-04-04T12:16:13.986Z</time></trkpt><trkpt lat="45.35894" lon="9.756555"><ele>73.0</ele><time>2026-04-04T12:16:15.986Z</time></trkpt><trkpt lat="45.35894" lon="9.7564167"><ele>73.0</ele><time>2026-04-04T12:16:17.986Z</time></trkpt><trkpt lat="45.3589417" lon="9.7562783"><ele>73.0</ele><time>2026-04-04T12:16:19.986Z</time></trkpt><trkpt lat="45.3589467" lon="9.7561383"><ele>73.0</ele><time>2026-04-04T12:16:21.986Z</time></trkpt><trkpt lat="45.3589483" lon="9.7559983"><ele>73.0</ele><time>2026-04-04T12:16:23.986Z</time></trkpt><trkpt lat="45.35895" lon="9.7558583"><ele>73.0</ele><time>2026-04-04T12:16:25.985Z</time></trkpt><trkpt lat="45.358955" lon="9.755715"><ele>73.0</ele><time>2026-04-04T12:16:27.986Z</time></trkpt><trkpt lat="45.35896" lon="9.7555717"><ele>73.0</ele><time>2026-04-04T12:16:29.986Z</time></trkpt><trkpt lat="45.358965" lon="9.7554333"><ele>73.0</ele><time>2026-04-04T12:16:31.986Z</time></trkpt><trkpt lat="45.3589667" lon="9.7553017"><ele>73.0</ele><time>2026-04-04T12:16:33.985Z</time></trkpt><trkpt lat="45.3589717" lon="9.7551633"><ele>73.0</ele><time>2026-04-04T12:16:35.986Z</time></trkpt><trkpt lat="45.3589733" lon="9.7550233"><ele>72.8</ele><time>2026-04-04T12:16:37.986Z</time></trkpt><trkpt lat="45.3589767" lon="9.754885"><ele>72.6</ele><time>2026-04-04T12:16:39.986Z</time></trkpt><trkpt lat="45.3589717" lon="9.75475"><ele>72.4</ele><time>2026-04-04T12:16:41.986Z</time></trkpt><trkpt lat="45.3589767" lon="9.754615"><ele>72.2</ele><time>2026-04-04T12:16:43.986Z</time></trkpt><trkpt lat="45.3589733" lon="9.75448"><ele>72.0</ele><time>2026-04-04T12:16:45.986Z</time></trkpt><trkpt lat="45.3589567" lon="9.7543483"><ele>72.0</ele><time>2026-04-04T12:16:47.986Z</time></trkpt><trkpt lat="45.358945" lon="9.7541983"><ele>72.0</ele><time>2026-04-04T12:16:49.986Z</time></trkpt><trkpt lat="45.3589417" lon="9.7540317"><ele>72.0</ele><time>2026-04-04T12:16:51.986Z</time></trkpt><trkpt lat="45.3589467" lon="9.75386"><ele>72.0</ele><time>2026-04-04T12:16:53.986Z</time></trkpt><trkpt lat="45.3589633" lon="9.7537067"><ele>72.0</ele><time>2026-04-04T12:16:55.986Z</time></trkpt><trkpt lat="45.3589867" lon="9.753565"><ele>72.0</ele><time>2026-04-04T12:16:57.986Z</time></trkpt><trkpt lat="45.35899" lon="9.753405"><ele>72.0</ele><time>2026-04-04T12:16:59.986Z</time></trkpt><trkpt lat="45.359005" lon="9.7532467"><ele>72.0</ele><time>2026-04-04T12:17:01.986Z</time></trkpt><trkpt lat="45.35903" lon="9.753095"><ele>72.0</ele><time>2026-04-04T12:17:03.986Z</time></trkpt><trkpt lat="45.3590533" lon="9.7529517"><ele>72.4</ele><time>2026-04-04T12:17:05.986Z</time></trkpt><trkpt lat="45.3590817" lon="9.752805"><ele>72.80000000000001</ele><time>2026-04-04T12:17:07.985Z</time></trkpt><trkpt lat="45.3591083" lon="9.752655"><ele>73.2</ele><time>2026-04-04T12:17:09.985Z</time></trkpt><trkpt lat="45.35914" lon="9.7525067"><ele>73.60000000000001</ele><time>2026-04-04T12:17:11.985Z</time></trkpt><trkpt lat="45.3591717" lon="9.7523617"><ele>74.0</ele><time>2026-04-04T12:17:13.985Z</time></trkpt><trkpt lat="45.3592067" lon="9.7522167"><ele>74.2</ele><time>2026-04-04T12:17:15.985Z</time></trkpt><trkpt lat="45.35924" lon="9.75207"><ele>74.4</ele><time>2026-04-04T12:17:17.985Z</time></trkpt><trkpt lat="45.3592783" lon="9.7519283"><ele>74.6</ele><time>2026-04-04T12:17:19.985Z</time></trkpt><trkpt lat="45.3593133" lon="9.75178"><ele>74.8</ele><time>2026-04-04T12:17:21.985Z</time></trkpt><trkpt lat="45.3593483" lon="9.7516283"><ele>75.0</ele><time>2026-04-04T12:17:23.985Z</time></trkpt><trkpt lat="45.3593833" lon="9.75149"><ele>75.0</ele><time>2026-04-04T12:17:25.985Z</time></trkpt><trkpt lat="45.35942" lon="9.75134"><ele>75.0</ele><time>2026-04-04T12:17:27.985Z</time></trkpt><trkpt lat="45.35945" lon="9.751195"><ele>75.0</ele><time>2026-04-04T12:17:29.985Z</time></trkpt><trkpt lat="45.3594833" lon="9.751055"><ele>75.0</ele><time>2026-04-04T12:17:31.985Z</time></trkpt><trkpt lat="45.3595183" lon="9.7509133"><ele>75.0</ele><time>2026-04-04T12:17:33.985Z</time></trkpt><trkpt lat="45.3595533" lon="9.7507767"><ele>75.0</ele><time>2026-04-04T12:17:35.985Z</time></trkpt><trkpt lat="45.359595" lon="9.7506483"><ele>75.0</ele><time>2026-04-04T12:17:37.984Z</time></trkpt><trkpt lat="45.3596283" lon="9.7505267"><ele>75.0</ele><time>2026-04-04T12:17:39.985Z</time></trkpt><trkpt lat="45.35965" lon="9.7504167"><ele>75.0</ele><time>2026-04-04T12:17:41.985Z</time></trkpt><trkpt lat="45.3596767" lon="9.7502967"><ele>75.0</ele><time>2026-04-04T12:17:43.985Z</time></trkpt><trkpt lat="45.3597067" lon="9.750155"><ele>75.0</ele><time>2026-04-04T12:17:45.985Z</time></trkpt><trkpt lat="45.35974" lon="9.7500033"><ele>75.0</ele><time>2026-04-04T12:17:47.985Z</time></trkpt><trkpt lat="45.3597717" lon="9.7498583"><ele>75.0</ele><time>2026-04-04T12:17:49.985Z</time></trkpt><trkpt lat="45.3598067" lon="9.7497117"><ele>75.0</ele><time>2026-04-04T12:17:51.985Z</time></trkpt><trkpt lat="45.3598383" lon="9.749565"><ele>75.0</ele><time>2026-04-04T12:17:53.985Z</time></trkpt><trkpt lat="45.3598683" lon="9.7494167"><ele>75.0</ele><time>2026-04-04T12:17:55.985Z</time></trkpt><trkpt lat="45.3599033" lon="9.7492717"><ele>75.0</ele><time>2026-04-04T12:17:57.985Z</time></trkpt><trkpt lat="45.3599383" lon="9.749125"><ele>75.0</ele><time>2026-04-04T12:17:59.985Z</time></trkpt><trkpt lat="45.3599717" lon="9.7489783"><ele>75.0</ele><time>2026-04-04T12:18:01.984Z</time></trkpt><trkpt lat="45.3600083" lon="9.7488317"><ele>75.0</ele><time>2026-04-04T12:18:03.985Z</time></trkpt><trkpt lat="45.360045" lon="9.74868"><ele>75.4</ele><time>2026-04-04T12:18:05.985Z</time></trkpt><trkpt lat="45.3600817" lon="9.7485317"><ele>75.8</ele><time>2026-04-04T12:18:07.985Z</time></trkpt><trkpt lat="45.360115" lon="9.7483867"><ele>76.2</ele><time>2026-04-04T12:18:09.985Z</time></trkpt><trkpt lat="45.36015" lon="9.7482433"><ele>76.6</ele><time>2026-04-04T12:18:11.985Z</time></trkpt><trkpt lat="45.3601833" lon="9.7481033"><ele>77.0</ele><time>2026-04-04T12:18:13.985Z</time></trkpt><trkpt lat="45.3602183" lon="9.747955"><ele>77.0</ele><time>2026-04-04T12:18:15.985Z</time></trkpt><trkpt lat="45.3602567" lon="9.7477983"><ele>77.0</ele><time>2026-04-04T12:18:17.985Z</time></trkpt><trkpt lat="45.36029" lon="9.7476483"><ele>77.0</ele><time>2026-04-04T12:18:19.985Z</time></trkpt><trkpt lat="45.3603283" lon="9.7474983"><ele>77.0</ele><time>2026-04-04T12:18:21.985Z</time></trkpt><trkpt lat="45.360365" lon="9.7473483"><ele>76.8</ele><time>2026-04-04T12:18:23.985Z</time></trkpt><trkpt lat="45.3604" lon="9.7472"><ele>76.6</ele><time>2026-04-04T12:18:25.985Z</time></trkpt><trkpt lat="45.36044" lon="9.74706"><ele>76.39999999999999</ele><time>2026-04-04T12:18:27.985Z</time></trkpt><trkpt lat="45.3604783" lon="9.7469283"><ele>76.2</ele><time>2026-04-04T12:18:29.985Z</time></trkpt><trkpt lat="45.360515" lon="9.7468233"><ele>76.0</ele><time>2026-04-04T12:18:31.985Z</time></trkpt><trkpt lat="45.3605283" lon="9.7467217"><ele>75.39999999999999</ele><time>2026-04-04T12:18:33.985Z</time></trkpt><trkpt lat="45.3605483" lon="9.7465917"><ele>74.8</ele><time>2026-04-04T12:18:35.985Z</time></trkpt><trkpt lat="45.3605767" lon="9.7464383"><ele>74.19999999999999</ele><time>2026-04-04T12:18:37.985Z</time></trkpt><trkpt lat="45.3606067" lon="9.7462767"><ele>73.6</ele><time>2026-04-04T12:18:39.985Z</time></trkpt><trkpt lat="45.3606417" lon="9.7461117"><ele>73.0</ele><time>2026-04-04T12:18:41.985Z</time></trkpt><trkpt lat="45.3606783" lon="9.7459533"><ele>73.0</ele><time>2026-04-04T12:18:43.985Z</time></trkpt><trkpt lat="45.3607133" lon="9.745805"><ele>73.0</ele><time>2026-04-04T12:18:45.985Z</time></trkpt><trkpt lat="45.36075" lon="9.7456483"><ele>73.0</ele><time>2026-04-04T12:18:47.985Z</time></trkpt><trkpt lat="45.3607867" lon="9.7454883"><ele>73.0</ele><time>2026-04-04T12:18:49.985Z</time></trkpt><trkpt lat="45.3608233" lon="9.74533"><ele>73.75</ele><time>2026-04-04T12:18:51.985Z</time></trkpt><trkpt lat="45.36086" lon="9.7451683"><ele>74.5</ele><time>2026-04-04T12:18:53.985Z</time></trkpt><trkpt lat="45.3608933" lon="9.7450067"><ele>75.25</ele><time>2026-04-04T12:18:55.985Z</time></trkpt><trkpt lat="45.36093" lon="9.74485"><ele>76.0</ele><time>2026-04-04T12:18:57.985Z</time></trkpt><trkpt lat="45.360965" lon="9.7446917"><ele>76.0</ele><time>2026-04-04T12:18:59.985Z</time></trkpt><trkpt lat="45.3609983" lon="9.7445333"><ele>76.0</ele><time>2026-04-04T12:19:01.985Z</time></trkpt><trkpt lat="45.3610317" lon="9.74438"><ele>76.0</ele><time>2026-04-04T12:19:03.985Z</time></trkpt><trkpt lat="45.3610683" lon="9.7442267"><ele>76.0</ele><time>2026-04-04T12:19:05.985Z</time></trkpt><trkpt lat="45.3611017" lon="9.7440733"><ele>76.0</ele><time>2026-04-04T12:19:07.985Z</time></trkpt><trkpt lat="45.3611383" lon="9.7439183"><ele>76.0</ele><time>2026-04-04T12:19:09.985Z</time></trkpt><trkpt lat="45.3611817" lon="9.74377"><ele>76.0</ele><time>2026-04-04T12:19:11.985Z</time></trkpt><trkpt lat="45.3612333" lon="9.7436267"><ele>76.0</ele><time>2026-04-04T12:19:13.985Z</time></trkpt><trkpt lat="45.3612767" lon="9.743475"><ele>76.0</ele><time>2026-04-04T12:19:15.985Z</time></trkpt><trkpt lat="45.3613167" lon="9.7433367"><ele>76.0</ele><time>2026-04-04T12:19:17.985Z</time></trkpt><trkpt lat="45.3613483" lon="9.743215"><ele>76.0</ele><time>2026-04-04T12:19:19.985Z</time></trkpt><trkpt lat="45.3613783" lon="9.7430933"><ele>76.0</ele><time>2026-04-04T12:19:21.985Z</time></trkpt><trkpt lat="45.3614117" lon="9.7429617"><ele>76.0</ele><time>2026-04-04T12:19:23.985Z</time></trkpt><trkpt lat="45.3614417" lon="9.7428183"><ele>75.8</ele><time>2026-04-04T12:19:25.985Z</time></trkpt><trkpt lat="45.3614767" lon="9.742665"><ele>75.6</ele><time>2026-04-04T12:19:27.985Z</time></trkpt><trkpt lat="45.3615067" lon="9.7425133"><ele>75.4</ele><time>2026-04-04T12:19:29.985Z</time></trkpt><trkpt lat="45.3615367" lon="9.7423633"><ele>75.2</ele><time>2026-04-04T12:19:31.985Z</time></trkpt><trkpt lat="45.361565" lon="9.742215"><ele>75.0</ele><time>2026-04-04T12:19:33.985Z</time></trkpt><trkpt lat="45.3616" lon="9.742065"><ele>75.0</ele><time>2026-04-04T12:19:35.985Z</time></trkpt><trkpt lat="45.3616467" lon="9.7419233"><ele>75.0</ele><time>2026-04-04T12:19:37.985Z</time></trkpt><trkpt lat="45.361695" lon="9.741775"><ele>75.0</ele><time>2026-04-04T12:19:39.985Z</time></trkpt><trkpt lat="45.3617417" lon="9.7416367"><ele>75.0</ele><time>2026-04-04T12:19:41.985Z</time></trkpt><trkpt lat="45.3617833" lon="9.7415167"><ele>75.0</ele><time>2026-04-04T12:19:43.985Z</time></trkpt><trkpt lat="45.36182" lon="9.741405"><ele>74.83333333333333</ele><time>2026-04-04T12:19:45.985Z</time></trkpt><trkpt lat="45.361855" lon="9.7413033"><ele>74.66666666666667</ele><time>2026-04-04T12:19:47.985Z</time></trkpt><trkpt lat="45.3618733" lon="9.7412033"><ele>74.5</ele><time>2026-04-04T12:19:49.985Z</time></trkpt><trkpt lat="45.3618867" lon="9.7411033"><ele>74.33333333333334</ele><time>2026-04-04T12:19:51.985Z</time></trkpt><trkpt lat="45.3619017" lon="9.74098"><ele>74.16666666666667</ele><time>2026-04-04T12:19:53.985Z</time></trkpt><trkpt lat="45.3619283" lon="9.7408283"><ele>74.0</ele><time>2026-04-04T12:19:55.985Z</time></trkpt><trkpt lat="45.3619567" lon="9.7406667"><ele>73.75</ele><time>2026-04-04T12:19:57.985Z</time></trkpt><trkpt lat="45.361985" lon="9.7405"><ele>73.5</ele><time>2026-04-04T12:19:59.985Z</time></trkpt><trkpt lat="45.3620183" lon="9.7403383"><ele>73.25</ele><time>2026-04-04T12:20:01.985Z</time></trkpt><trkpt lat="45.3620567" lon="9.740185"><ele>73.0</ele><time>2026-04-04T12:20:03.985Z</time></trkpt><trkpt lat="45.362095" lon="9.7400317"><ele>73.75</ele><time>2026-04-04T12:20:05.985Z</time></trkpt><trkpt lat="45.3621267" lon="9.739875"><ele>74.5</ele><time>2026-04-04T12:20:07.985Z</time></trkpt><trkpt lat="45.3621567" lon="9.7397233"><ele>75.25</ele><time>2026-04-04T12:20:09.985Z</time></trkpt><trkpt lat="45.36219" lon="9.739565"><ele>76.0</ele><time>2026-04-04T12:20:11.985Z</time></trkpt><trkpt lat="45.3622267" lon="9.73941"><ele>76.0</ele><time>2026-04-04T12:20:13.985Z</time></trkpt><trkpt lat="45.3622617" lon="9.7392567"><ele>76.0</ele><time>2026-04-04T12:20:15.985Z</time></trkpt><trkpt lat="45.3622933" lon="9.7390983"><ele>76.0</ele><time>2026-04-04T12:20:17.985Z</time></trkpt><trkpt lat="45.3623267" lon="9.738945"><ele>76.0</ele><time>2026-04-04T12:20:19.985Z</time></trkpt><trkpt lat="45.362365" lon="9.738795"><ele>76.0</ele><time>2026-04-04T12:20:21.985Z</time></trkpt><trkpt lat="45.3624017" lon="9.738635"><ele>76.0</ele><time>2026-04-04T12:20:23.985Z</time></trkpt><trkpt lat="45.362445" lon="9.7384733"><ele>76.0</ele><time>2026-04-04T12:20:25.985Z</time></trkpt><trkpt lat="45.3624817" lon="9.7383233"><ele>76.0</ele><time>2026-04-04T12:20:27.985Z</time></trkpt><trkpt lat="45.3625167" lon="9.7381767"><ele>76.0</ele><time>2026-04-04T12:20:29.985Z</time></trkpt><trkpt lat="45.362555" lon="9.7380333"><ele>76.0</ele><time>2026-04-04T12:20:31.985Z</time></trkpt><trkpt lat="45.3625967" lon="9.7378883"><ele>76.0</ele><time>2026-04-04T12:20:33.985Z</time></trkpt><trkpt lat="45.362635" lon="9.7377483"><ele>76.0</ele><time>2026-04-04T12:20:35.985Z</time></trkpt><trkpt lat="45.3626717" lon="9.7376033"><ele>76.0</ele><time>2026-04-04T12:20:37.985Z</time></trkpt><trkpt lat="45.36271" lon="9.7374533"><ele>76.0</ele><time>2026-04-04T12:20:39.985Z</time></trkpt><trkpt lat="45.362745" lon="9.7373017"><ele>76.0</ele><time>2026-04-04T12:20:41.985Z</time></trkpt><trkpt lat="45.3627783" lon="9.7371567"><ele>76.0</ele><time>2026-04-04T12:20:43.985Z</time></trkpt><trkpt lat="45.362805" lon="9.7370067"><ele>76.0</ele><time>2026-04-04T12:20:45.985Z</time></trkpt><trkpt lat="45.3628367" lon="9.7368567"><ele>76.0</ele><time>2026-04-04T12:20:47.985Z</time></trkpt><trkpt lat="45.3628667" lon="9.7367083"><ele>76.0</ele><time>2026-04-04T12:20:49.985Z</time></trkpt><trkpt lat="45.3629017" lon="9.7365583"><ele>76.0</ele><time>2026-04-04T12:20:51.985Z</time></trkpt><trkpt lat="45.3629383" lon="9.7364033"><ele>76.0</ele><time>2026-04-04T12:20:53.985Z</time></trkpt><trkpt lat="45.362975" lon="9.7362517"><ele>76.0</ele><time>2026-04-04T12:20:55.985Z</time></trkpt><trkpt lat="45.36301" lon="9.7360983"><ele>76.0</ele><time>2026-04-04T12:20:57.985Z</time></trkpt><trkpt lat="45.3630433" lon="9.7359533"><ele>76.0</ele><time>2026-04-04T12:20:59.985Z</time></trkpt><trkpt lat="45.3630783" lon="9.7358117"><ele>76.0</ele><time>2026-04-04T12:21:01.985Z</time></trkpt><trkpt lat="45.3631167" lon="9.7356683"><ele>76.0</ele><time>2026-04-04T12:21:03.985Z</time></trkpt><trkpt lat="45.3631533" lon="9.735545"><ele>76.0</ele><time>2026-04-04T12:21:05.984Z</time></trkpt><trkpt lat="45.3631883" lon="9.73543"><ele>76.0</ele><time>2026-04-04T12:21:07.985Z</time></trkpt><trkpt lat="45.3632067" lon="9.7352917"><ele>76.0</ele><time>2026-04-04T12:21:09.985Z</time></trkpt><trkpt lat="45.3632367" lon="9.7351567"><ele>76.0</ele><time>2026-04-04T12:21:11.985Z</time></trkpt><trkpt lat="45.3632767" lon="9.7350133"><ele>76.0</ele><time>2026-04-04T12:21:13.985Z</time></trkpt><trkpt lat="45.3633133" lon="9.7348733"><ele>76.0</ele><time>2026-04-04T12:21:15.985Z</time></trkpt><trkpt lat="45.3633467" lon="9.7347267"><ele>76.0</ele><time>2026-04-04T12:21:17.985Z</time></trkpt><trkpt lat="45.363385" lon="9.7345783"><ele>76.0</ele><time>2026-04-04T12:21:19.985Z</time></trkpt><trkpt lat="45.36342" lon="9.7344217"><ele>76.0</ele><time>2026-04-04T12:21:21.985Z</time></trkpt><trkpt lat="45.3634567" lon="9.734265"><ele>76.0</ele><time>2026-04-04T12:21:23.985Z</time></trkpt><trkpt lat="45.363495" lon="9.7341117"><ele>76.0</ele><time>2026-04-04T12:21:25.985Z</time></trkpt><trkpt lat="45.3635333" lon="9.7339583"><ele>76.0</ele><time>2026-04-04T12:21:27.985Z</time></trkpt><trkpt lat="45.36357" lon="9.7338067"><ele>76.0</ele><time>2026-04-04T12:21:29.983Z</time></trkpt><trkpt lat="45.36361" lon="9.73366"><ele>76.0</ele><time>2026-04-04T12:21:31.984Z</time></trkpt><trkpt lat="45.363655" lon="9.7335283"><ele>76.0</ele><time>2026-04-04T12:21:33.984Z</time></trkpt><trkpt lat="45.363695" lon="9.733405"><ele>76.0</ele><time>2026-04-04T12:21:35.984Z</time></trkpt><trkpt lat="45.3637283" lon="9.7332933"><ele>76.0</ele><time>2026-04-04T12:21:37.984Z</time></trkpt><trkpt lat="45.36376" lon="9.7331867"><ele>76.0</ele><time>2026-04-04T12:21:39.984Z</time></trkpt><trkpt lat="45.3637883" lon="9.7330733"><ele>76.0</ele><time>2026-04-04T12:21:41.984Z</time></trkpt><trkpt lat="45.3638033" lon="9.7329683"><ele>76.0</ele><time>2026-04-04T12:21:43.984Z</time></trkpt><trkpt lat="45.3638217" lon="9.7328483"><ele>76.0</ele><time>2026-04-04T12:21:45.984Z</time></trkpt><trkpt lat="45.36384" lon="9.73269"><ele>76.0</ele><time>2026-04-04T12:21:47.984Z</time></trkpt><trkpt lat="45.3638767" lon="9.7325133"><ele>76.0</ele><time>2026-04-04T12:21:49.984Z</time></trkpt><trkpt lat="45.3638933" lon="9.7324267"><ele>76.0</ele><time>2026-04-04T12:21:50.984Z</time></trkpt><trkpt lat="45.3639317" lon="9.7322567"><ele>76.0</ele><time>2026-04-04T12:21:52.984Z</time></trkpt><trkpt lat="45.3639483" lon="9.732165"><ele>76.0</ele><time>2026-04-04T12:21:53.984Z</time></trkpt><trkpt lat="45.363985" lon="9.7319983"><ele>75.75</ele><time>2026-04-04T12:21:55.984Z</time></trkpt><trkpt lat="45.36402" lon="9.7318417"><ele>75.5</ele><time>2026-04-04T12:21:57.984Z</time></trkpt><trkpt lat="45.3640617" lon="9.73168"><ele>75.25</ele><time>2026-04-04T12:21:59.984Z</time></trkpt><trkpt lat="45.3640983" lon="9.7315233"><ele>75.0</ele><time>2026-04-04T12:22:01.984Z</time></trkpt><trkpt lat="45.3641383" lon="9.7313667"><ele>75.0</ele><time>2026-04-04T12:22:03.984Z</time></trkpt><trkpt lat="45.3641717" lon="9.7312183"><ele>75.0</ele><time>2026-04-04T12:22:05.983Z</time></trkpt><trkpt lat="45.36421" lon="9.7310683"><ele>75.0</ele><time>2026-04-04T12:22:07.984Z</time></trkpt><trkpt lat="45.364255" lon="9.7309233"><ele>75.0</ele><time>2026-04-04T12:22:09.983Z</time></trkpt><trkpt lat="45.36429" lon="9.7307833"><ele>75.0</ele><time>2026-04-04T12:22:11.984Z</time></trkpt><trkpt lat="45.3643233" lon="9.7306417"><ele>74.8</ele><time>2026-04-04T12:22:13.984Z</time></trkpt><trkpt lat="45.36435" lon="9.7305033"><ele>74.6</ele><time>2026-04-04T12:22:15.984Z</time></trkpt><trkpt lat="45.364385" lon="9.730345"><ele>74.4</ele><time>2026-04-04T12:22:17.984Z</time></trkpt><trkpt lat="45.3644217" lon="9.7301933"><ele>74.2</ele><time>2026-04-04T12:22:19.984Z</time></trkpt><trkpt lat="45.3644583" lon="9.7300317"><ele>74.0</ele><time>2026-04-04T12:22:21.984Z</time></trkpt><trkpt lat="45.3644883" lon="9.7298717"><ele>74.0</ele><time>2026-04-04T12:22:23.984Z</time></trkpt><trkpt lat="45.3645217" lon="9.7297133"><ele>74.0</ele><time>2026-04-04T12:22:25.984Z</time></trkpt><trkpt lat="45.3645567" lon="9.7295667"><ele>74.0</ele><time>2026-04-04T12:22:27.984Z</time></trkpt><trkpt lat="45.3645833" lon="9.72941"><ele>74.0</ele><time>2026-04-04T12:22:29.984Z</time></trkpt><trkpt lat="45.3646217" lon="9.729255"><ele>74.0</ele><time>2026-04-04T12:22:31.984Z</time></trkpt><trkpt lat="45.364665" lon="9.7290967"><ele>74.0</ele><time>2026-04-04T12:22:33.984Z</time></trkpt><trkpt lat="45.3647033" lon="9.728945"><ele>74.0</ele><time>2026-04-04T12:22:35.984Z</time></trkpt><trkpt lat="45.364735" lon="9.728795"><ele>74.0</ele><time>2026-04-04T12:22:37.984Z</time></trkpt><trkpt lat="45.3647733" lon="9.7286433"><ele>74.25</ele><time>2026-04-04T12:22:39.984Z</time></trkpt><trkpt lat="45.364815" lon="9.7284917"><ele>74.5</ele><time>2026-04-04T12:22:41.984Z</time></trkpt><trkpt lat="45.3648517" lon="9.7283317"><ele>74.75</ele><time>2026-04-04T12:22:43.984Z</time></trkpt><trkpt lat="45.3648867" lon="9.7281833"><ele>75.0</ele><time>2026-04-04T12:22:45.984Z</time></trkpt><trkpt lat="45.3649233" lon="9.7280383"><ele>75.0</ele><time>2026-04-04T12:22:47.983Z</time></trkpt><trkpt lat="45.3649533" lon="9.72789"><ele>75.0</ele><time>2026-04-04T12:22:49.984Z</time></trkpt><trkpt lat="45.36499" lon="9.7277333"><ele>75.0</ele><time>2026-04-04T12:22:51.984Z</time></trkpt><trkpt lat="45.3650333" lon="9.7275867"><ele>75.0</ele><time>2026-04-04T12:22:53.984Z</time></trkpt><trkpt lat="45.3650683" lon="9.727445"><ele>75.0</ele><time>2026-04-04T12:22:55.984Z</time></trkpt><trkpt lat="45.3651033" lon="9.7273033"><ele>74.8</ele><time>2026-04-04T12:22:57.984Z</time></trkpt><trkpt lat="45.36513" lon="9.7271567"><ele>74.6</ele><time>2026-04-04T12:22:59.983Z</time></trkpt><trkpt lat="45.3651617" lon="9.7270233"><ele>74.4</ele><time>2026-04-04T12:23:01.984Z</time></trkpt><trkpt lat="45.3651917" lon="9.7268883"><ele>74.2</ele><time>2026-04-04T12:23:03.984Z</time></trkpt><trkpt lat="45.3652233" lon="9.726735"><ele>74.0</ele><time>2026-04-04T12:23:05.983Z</time></trkpt><trkpt lat="45.3652567" lon="9.7265733"><ele>74.0</ele><time>2026-04-04T12:23:07.984Z</time></trkpt><trkpt lat="45.3652983" lon="9.726415"><ele>74.0</ele><time>2026-04-04T12:23:09.984Z</time></trkpt><trkpt lat="45.3653367" lon="9.72627"><ele>74.0</ele><time>2026-04-04T12:23:11.984Z</time></trkpt><trkpt lat="45.3653683" lon="9.7261133"><ele>74.0</ele><time>2026-04-04T12:23:13.984Z</time></trkpt><trkpt lat="45.3654067" lon="9.72596"><ele>74.0</ele><time>2026-04-04T12:23:15.984Z</time></trkpt><trkpt lat="45.36544" lon="9.7258083"><ele>74.0</ele><time>2026-04-04T12:23:17.984Z</time></trkpt><trkpt lat="45.3654733" lon="9.72565"><ele>74.0</ele><time>2026-04-04T12:23:19.984Z</time></trkpt><trkpt lat="45.3655133" lon="9.725495"><ele>74.0</ele><time>2026-04-04T12:23:21.984Z</time></trkpt><trkpt lat="45.3655583" lon="9.725345"><ele>73.75</ele><time>2026-04-04T12:23:23.984Z</time></trkpt><trkpt lat="45.3655883" lon="9.7251817"><ele>73.5</ele><time>2026-04-04T12:23:25.984Z</time></trkpt><trkpt lat="45.3656233" lon="9.7250233"><ele>73.25</ele><time>2026-04-04T12:23:27.984Z</time></trkpt><trkpt lat="45.36566" lon="9.72486"><ele>73.0</ele><time>2026-04-04T12:23:29.984Z</time></trkpt><trkpt lat="45.3656983" lon="9.7247017"><ele>73.0</ele><time>2026-04-04T12:23:31.983Z</time></trkpt><trkpt lat="45.3657333" lon="9.7245483"><ele>73.0</ele><time>2026-04-04T12:23:33.984Z</time></trkpt><trkpt lat="45.3657717" lon="9.7243917"><ele>73.0</ele><time>2026-04-04T12:23:35.983Z</time></trkpt><trkpt lat="45.3658067" lon="9.7242367"><ele>73.0</ele><time>2026-04-04T12:23:37.984Z</time></trkpt><trkpt lat="45.3658467" lon="9.724085"><ele>73.0</ele><time>2026-04-04T12:23:39.984Z</time></trkpt><trkpt lat="45.3658867" lon="9.7239233"><ele>73.0</ele><time>2026-04-04T12:23:41.984Z</time></trkpt><trkpt lat="45.3659283" lon="9.723765"><ele>73.0</ele><time>2026-04-04T12:23:43.984Z</time></trkpt><trkpt lat="45.3659717" lon="9.7236183"><ele>73.0</ele><time>2026-04-04T12:23:45.984Z</time></trkpt><trkpt lat="45.3660117" lon="9.7234617"><ele>73.0</ele><time>2026-04-04T12:23:47.984Z</time></trkpt><trkpt lat="45.36605" lon="9.723305"><ele>73.0</ele><time>2026-04-04T12:23:49.984Z</time></trkpt><trkpt lat="45.3660833" lon="9.72315"><ele>73.0</ele><time>2026-04-04T12:23:51.984Z</time></trkpt><trkpt lat="45.36613" lon="9.722995"><ele>73.0</ele><time>2026-04-04T12:23:53.984Z</time></trkpt><trkpt lat="45.36617" lon="9.72284"><ele>73.0</ele><time>2026-04-04T12:23:55.984Z</time></trkpt><trkpt lat="45.3662017" lon="9.72268"><ele>73.0</ele><time>2026-04-04T12:23:57.984Z</time></trkpt><trkpt lat="45.36624" lon="9.72253"><ele>73.0</ele><time>2026-04-04T12:23:59.984Z</time></trkpt><trkpt lat="45.3662817" lon="9.72237"><ele>73.0</ele><time>2026-04-04T12:24:01.984Z</time></trkpt><trkpt lat="45.3663167" lon="9.7222083"><ele>73.0</ele><time>2026-04-04T12:24:03.984Z</time></trkpt><trkpt lat="45.3663483" lon="9.7220467"><ele>73.0</ele><time>2026-04-04T12:24:05.984Z</time></trkpt><trkpt lat="45.3663817" lon="9.7218883"><ele>73.0</ele><time>2026-04-04T12:24:07.984Z</time></trkpt><trkpt lat="45.3664267" lon="9.72173"><ele>73.0</ele><time>2026-04-04T12:24:09.984Z</time></trkpt><trkpt lat="45.3664633" lon="9.721575"><ele>73.0</ele><time>2026-04-04T12:24:11.984Z</time></trkpt><trkpt lat="45.3665" lon="9.721415"><ele>73.0</ele><time>2026-04-04T12:24:13.983Z</time></trkpt><trkpt lat="45.36654" lon="9.7212617"><ele>73.0</ele><time>2026-04-04T12:24:15.984Z</time></trkpt><trkpt lat="45.3665767" lon="9.7211033"><ele>73.0</ele><time>2026-04-04T12:24:17.984Z</time></trkpt><trkpt lat="45.3666117" lon="9.7209517"><ele>73.0</ele><time>2026-04-04T12:24:19.984Z</time></trkpt><trkpt lat="45.3666533" lon="9.7207917"><ele>73.0</ele><time>2026-04-04T12:24:21.984Z</time></trkpt><trkpt lat="45.3666917" lon="9.7206333"><ele>73.0</ele><time>2026-04-04T12:24:23.984Z</time></trkpt><trkpt lat="45.366725" lon="9.7204833"><ele>73.0</ele><time>2026-04-04T12:24:25.984Z</time></trkpt><trkpt lat="45.3667617" lon="9.7203283"><ele>72.8</ele><time>2026-04-04T12:24:27.984Z</time></trkpt><trkpt lat="45.3667917" lon="9.7201817"><ele>72.6</ele><time>2026-04-04T12:24:29.984Z</time></trkpt><trkpt lat="45.3668317" lon="9.72004"><ele>72.4</ele><time>2026-04-04T12:24:31.983Z</time></trkpt><trkpt lat="45.366865" lon="9.7198967"><ele>72.2</ele><time>2026-04-04T12:24:33.984Z</time></trkpt><trkpt lat="45.3669" lon="9.7197467"><ele>72.0</ele><time>2026-04-04T12:24:35.984Z</time></trkpt><trkpt lat="45.3669317" lon="9.7196083"><ele>72.0</ele><time>2026-04-04T12:24:37.984Z</time></trkpt><trkpt lat="45.3669633" lon="9.7194683"><ele>72.0</ele><time>2026-04-04T12:24:39.984Z</time></trkpt><trkpt lat="45.3669933" lon="9.7193433"><ele>72.0</ele><time>2026-04-04T12:24:41.984Z</time></trkpt><trkpt lat="45.3670167" lon="9.71926"><ele>72.0</ele><time>2026-04-04T12:24:43.984Z</time></trkpt><trkpt lat="45.3670633" lon="9.7191633"><ele>72.0</ele><time>2026-04-04T12:24:52.984Z</time></trkpt><trkpt lat="45.3670717" lon="9.7190383"><ele>72.0</ele><time>2026-04-04T12:24:55.984Z</time></trkpt><trkpt lat="45.3671033" lon="9.7189183"><ele>72.2</ele><time>2026-04-04T12:24:57.984Z</time></trkpt><trkpt lat="45.3671367" lon="9.7187883"><ele>72.4</ele><time>2026-04-04T12:24:59.984Z</time></trkpt><trkpt lat="45.3671617" lon="9.718665"><ele>72.6</ele><time>2026-04-04T12:25:01.984Z</time></trkpt><trkpt lat="45.36717" lon="9.7185533"><ele>72.8</ele><time>2026-04-04T12:25:03.984Z</time></trkpt><trkpt lat="45.367225" lon="9.7184467"><ele>73.0</ele><time>2026-04-04T12:25:05.984Z</time></trkpt><trkpt lat="45.36725" lon="9.7183083"><ele>73.2</ele><time>2026-04-04T12:25:07.984Z</time></trkpt><trkpt lat="45.367275" lon="9.7181717"><ele>73.4</ele><time>2026-04-04T12:25:09.984Z</time></trkpt><trkpt lat="45.367305" lon="9.7180383"><ele>73.60000000000001</ele><time>2026-04-04T12:25:11.984Z</time></trkpt><trkpt lat="45.3673333" lon="9.7179117"><ele>73.8</ele><time>2026-04-04T12:25:13.984Z</time></trkpt><trkpt lat="45.3673667" lon="9.717785"><ele>74.0</ele><time>2026-04-04T12:25:15.984Z</time></trkpt><trkpt lat="45.3673983" lon="9.7176533"><ele>74.0</ele><time>2026-04-04T12:25:17.984Z</time></trkpt><trkpt lat="45.3674333" lon="9.71753"><ele>74.0</ele><time>2026-04-04T12:25:19.984Z</time></trkpt><trkpt lat="45.3674617" lon="9.7174017"><ele>74.0</ele><time>2026-04-04T12:25:21.984Z</time></trkpt><trkpt lat="45.367485" lon="9.7172683"><ele>74.0</ele><time>2026-04-04T12:25:23.983Z</time></trkpt><trkpt lat="45.3675183" lon="9.7171417"><ele>74.0</ele><time>2026-04-04T12:25:25.983Z</time></trkpt><trkpt lat="45.3675517" lon="9.7170133"><ele>74.60000000000001</ele><time>2026-04-04T12:25:27.983Z</time></trkpt><trkpt lat="45.3675833" lon="9.7168917"><ele>75.2</ele><time>2026-04-04T12:25:29.983Z</time></trkpt><trkpt lat="45.3676133" lon="9.7167633"><ele>75.80000000000001</ele><time>2026-04-04T12:25:31.983Z</time></trkpt><trkpt lat="45.367645" lon="9.716645"><ele>76.4</ele><time>2026-04-04T12:25:33.983Z</time></trkpt><trkpt lat="45.367675" lon="9.71651"><ele>77.0</ele><time>2026-04-04T12:25:35.983Z</time></trkpt><trkpt lat="45.3676833" lon="9.7163717"><ele>77.0</ele><time>2026-04-04T12:25:37.983Z</time></trkpt><trkpt lat="45.367705" lon="9.7162383"><ele>77.0</ele><time>2026-04-04T12:25:39.983Z</time></trkpt><trkpt lat="45.36774" lon="9.7161067"><ele>77.0</ele><time>2026-04-04T12:25:41.983Z</time></trkpt><trkpt lat="45.367775" lon="9.7159683"><ele>77.0</ele><time>2026-04-04T12:25:43.983Z</time></trkpt><trkpt lat="45.36781" lon="9.715825"><ele>77.0</ele><time>2026-04-04T12:25:45.983Z</time></trkpt><trkpt lat="45.3678383" lon="9.7156833"><ele>77.2</ele><time>2026-04-04T12:25:47.983Z</time></trkpt><trkpt lat="45.36787" lon="9.7155433"><ele>77.4</ele><time>2026-04-04T12:25:49.982Z</time></trkpt><trkpt lat="45.3679" lon="9.7153983"><ele>77.6</ele><time>2026-04-04T12:25:51.983Z</time></trkpt><trkpt lat="45.3679367" lon="9.71525"><ele>77.8</ele><time>2026-04-04T12:25:53.983Z</time></trkpt><trkpt lat="45.3679683" lon="9.7150983"><ele>78.0</ele><time>2026-04-04T12:25:55.983Z</time></trkpt><trkpt lat="45.3680067" lon="9.714955"><ele>77.4</ele><time>2026-04-04T12:25:57.983Z</time></trkpt><trkpt lat="45.36804" lon="9.7148117"><ele>76.8</ele><time>2026-04-04T12:25:59.983Z</time></trkpt><trkpt lat="45.3680717" lon="9.7146733"><ele>76.2</ele><time>2026-04-04T12:26:01.983Z</time></trkpt><trkpt lat="45.3681083" lon="9.714525"><ele>75.6</ele><time>2026-04-04T12:26:03.983Z</time></trkpt><trkpt lat="45.3681483" lon="9.7143933"><ele>75.0</ele><time>2026-04-04T12:26:05.983Z</time></trkpt><trkpt lat="45.3681783" lon="9.7142533"><ele>75.0</ele><time>2026-04-04T12:26:07.983Z</time></trkpt><trkpt lat="45.36821" lon="9.71411"><ele>75.0</ele><time>2026-04-04T12:26:09.983Z</time></trkpt><trkpt lat="45.36824" lon="9.7139667"><ele>75.0</ele><time>2026-04-04T12:26:11.983Z</time></trkpt><trkpt lat="45.3682767" lon="9.71382"><ele>75.0</ele><time>2026-04-04T12:26:13.983Z</time></trkpt><trkpt lat="45.3683083" lon="9.7136683"><ele>75.0</ele><time>2026-04-04T12:26:15.983Z</time></trkpt><trkpt lat="45.36834" lon="9.7135217"><ele>75.0</ele><time>2026-04-04T12:26:17.983Z</time></trkpt><trkpt lat="45.3683733" lon="9.7133767"><ele>75.0</ele><time>2026-04-04T12:26:19.983Z</time></trkpt><trkpt lat="45.3684083" lon="9.7132333"><ele>75.0</ele><time>2026-04-04T12:26:21.983Z</time></trkpt><trkpt lat="45.36844" lon="9.7130883"><ele>75.0</ele><time>2026-04-04T12:26:23.983Z</time></trkpt><trkpt lat="45.368475" lon="9.7129433"><ele>75.0</ele><time>2026-04-04T12:26:25.983Z</time></trkpt><trkpt lat="45.3685083" lon="9.7127983"><ele>74.6</ele><time>2026-04-04T12:26:27.983Z</time></trkpt><trkpt lat="45.3685433" lon="9.7126517"><ele>74.2</ele><time>2026-04-04T12:26:29.983Z</time></trkpt><trkpt lat="45.3685733" lon="9.7125133"><ele>73.8</ele><time>2026-04-04T12:26:31.983Z</time></trkpt><trkpt lat="45.3686133" lon="9.712365"><ele>73.4</ele><time>2026-04-04T12:26:33.983Z</time></trkpt><trkpt lat="45.36865" lon="9.712215"><ele>73.0</ele><time>2026-04-04T12:26:35.983Z</time></trkpt><trkpt lat="45.3686833" lon="9.7120717"><ele>73.0</ele><time>2026-04-04T12:26:37.983Z</time></trkpt><trkpt lat="45.3687167" lon="9.7119317"><ele>73.0</ele><time>2026-04-04T12:26:39.983Z</time></trkpt><trkpt lat="45.368745" lon="9.711785"><ele>73.0</ele><time>2026-04-04T12:26:41.983Z</time></trkpt><trkpt lat="45.3687817" lon="9.71164"><ele>73.0</ele><time>2026-04-04T12:26:43.983Z</time></trkpt><trkpt lat="45.3688167" lon="9.7114917"><ele>73.0</ele><time>2026-04-04T12:26:45.983Z</time></trkpt><trkpt lat="45.36885" lon="9.711345"><ele>73.4</ele><time>2026-04-04T12:26:47.983Z</time></trkpt><trkpt lat="45.3688883" lon="9.7111967"><ele>73.8</ele><time>2026-04-04T12:26:49.983Z</time></trkpt><trkpt lat="45.36892" lon="9.7110483"><ele>74.2</ele><time>2026-04-04T12:26:51.983Z</time></trkpt><trkpt lat="45.3689567" lon="9.710905"><ele>74.6</ele><time>2026-04-04T12:26:53.982Z</time></trkpt><trkpt lat="45.3689933" lon="9.7107633"><ele>75.0</ele><time>2026-04-04T12:26:55.983Z</time></trkpt><trkpt lat="45.3690233" lon="9.7106217"><ele>75.16666666666667</ele><time>2026-04-04T12:26:57.983Z</time></trkpt><trkpt lat="45.3690533" lon="9.710495"><ele>75.33333333333333</ele><time>2026-04-04T12:26:59.983Z</time></trkpt><trkpt lat="45.3690833" lon="9.710385"><ele>75.5</ele><time>2026-04-04T12:27:01.983Z</time></trkpt><trkpt lat="45.36913" lon="9.7102833"><ele>75.66666666666666</ele><time>2026-04-04T12:27:04.983Z</time></trkpt><trkpt lat="45.3691467" lon="9.71019"><ele>75.83333333333333</ele><time>2026-04-04T12:27:07.983Z</time></trkpt><trkpt lat="45.3691717" lon="9.71009"><ele>76.0</ele><time>2026-04-04T12:27:10.983Z</time></trkpt><trkpt lat="45.3692167" lon="9.7099833"><ele>75.66666666666666</ele><time>2026-04-04T12:27:13.983Z</time></trkpt><trkpt lat="45.3692167" lon="9.709885"><ele>75.33333333333333</ele><time>2026-04-04T12:27:15.983Z</time></trkpt><trkpt lat="45.3692417" lon="9.7097617"><ele>75.0</ele><time>2026-04-04T12:27:18.983Z</time></trkpt><trkpt lat="45.3692617" lon="9.7096633"><ele>74.66666666666667</ele><time>2026-04-04T12:27:20.983Z</time></trkpt><trkpt lat="45.3692867" lon="9.7095417"><ele>74.33333333333334</ele><time>2026-04-04T12:27:22.983Z</time></trkpt><trkpt lat="45.3693133" lon="9.7094233"><ele>74.0</ele><time>2026-04-04T12:27:24.983Z</time></trkpt><trkpt lat="45.3693367" lon="9.7093017"><ele>74.0</ele><time>2026-04-04T12:27:26.983Z</time></trkpt><trkpt lat="45.3693567" lon="9.7091767"><ele>74.0</ele><time>2026-04-04T12:27:28.983Z</time></trkpt><trkpt lat="45.3693717" lon="9.7090533"><ele>74.0</ele><time>2026-04-04T12:27:30.983Z</time></trkpt><trkpt lat="45.369395" lon="9.7089283"><ele>74.0</ele><time>2026-04-04T12:27:32.983Z</time></trkpt><trkpt lat="45.36945" lon="9.7088267"><ele>74.0</ele><time>2026-04-04T12:27:34.983Z</time></trkpt><trkpt lat="45.369515" lon="9.7087433"><ele>74.0</ele><time>2026-04-04T12:27:36.983Z</time></trkpt><trkpt lat="45.3695983" lon="9.7087333"><ele>74.0</ele><time>2026-04-04T12:27:38.983Z</time></trkpt><trkpt lat="45.3696683" lon="9.708825"><ele>74.0</ele><time>2026-04-04T12:27:40.983Z</time></trkpt><trkpt lat="45.369735" lon="9.7089217"><ele>74.0</ele><time>2026-04-04T12:27:42.983Z</time></trkpt><trkpt lat="45.369815" lon="9.7090267"><ele>74.0</ele><time>2026-04-04T12:27:44.983Z</time></trkpt><trkpt lat="45.3698933" lon="9.7091117"><ele>74.0</ele><time>2026-04-04T12:27:46.983Z</time></trkpt><trkpt lat="45.36998" lon="9.70919"><ele>73.8</ele><time>2026-04-04T12:27:48.983Z</time></trkpt><trkpt lat="45.3700767" lon="9.7092567"><ele>73.60000000000001</ele><time>2026-04-04T12:27:50.983Z</time></trkpt><trkpt lat="45.3701683" lon="9.70931"><ele>73.4</ele><time>2026-04-04T12:27:52.983Z</time></trkpt><trkpt lat="45.3702567" lon="9.709355"><ele>73.2</ele><time>2026-04-04T12:27:54.983Z</time></trkpt><trkpt lat="45.3703467" lon="9.7094083"><ele>73.0</ele><time>2026-04-04T12:27:56.983Z</time></trkpt><trkpt lat="45.3704433" lon="9.70944"><ele>73.4</ele><time>2026-04-04T12:27:58.983Z</time></trkpt><trkpt lat="45.3705383" lon="9.7094717"><ele>73.8</ele><time>2026-04-04T12:28:00.983Z</time></trkpt><trkpt lat="45.3706417" lon="9.7094883"><ele>74.2</ele><time>2026-04-04T12:28:02.983Z</time></trkpt><trkpt lat="45.3707417" lon="9.7094983"><ele>74.6</ele><time>2026-04-04T12:28:04.983Z</time></trkpt><trkpt lat="45.3708283" lon="9.709505"><ele>75.0</ele><time>2026-04-04T12:28:06.983Z</time></trkpt><trkpt lat="45.3709267" lon="9.709515"><ele>75.0</ele><time>2026-04-04T12:28:08.982Z</time></trkpt><trkpt lat="45.3710267" lon="9.7095267"><ele>75.0</ele><time>2026-04-04T12:28:10.983Z</time></trkpt><trkpt lat="45.3711283" lon="9.7095417"><ele>75.0</ele><time>2026-04-04T12:28:12.983Z</time></trkpt><trkpt lat="45.37123" lon="9.7095483"><ele>75.0</ele><time>2026-04-04T12:28:14.983Z</time></trkpt><trkpt lat="45.3713267" lon="9.7095483"><ele>75.0</ele><time>2026-04-04T12:28:16.983Z</time></trkpt><trkpt lat="45.3714083" lon="9.7095733"><ele>75.4</ele><time>2026-04-04T12:28:18.983Z</time></trkpt><trkpt lat="45.3714967" lon="9.7096433"><ele>75.8</ele><time>2026-04-04T12:28:20.983Z</time></trkpt><trkpt lat="45.3715833" lon="9.7097333"><ele>76.2</ele><time>2026-04-04T12:28:22.983Z</time></trkpt><trkpt lat="45.37168" lon="9.709775"><ele>76.6</ele><time>2026-04-04T12:28:24.983Z</time></trkpt><trkpt lat="45.3717767" lon="9.7098133"><ele>77.0</ele><time>2026-04-04T12:28:26.983Z</time></trkpt><trkpt lat="45.3718767" lon="9.709865"><ele>77.0</ele><time>2026-04-04T12:28:28.983Z</time></trkpt><trkpt lat="45.371965" lon="9.7098983"><ele>77.0</ele><time>2026-04-04T12:28:30.983Z</time></trkpt><trkpt lat="45.3720583" lon="9.709925"><ele>77.0</ele><time>2026-04-04T12:28:32.983Z</time></trkpt><trkpt lat="45.3721583" lon="9.7098633"><ele>77.0</ele><time>2026-04-04T12:28:34.983Z</time></trkpt><trkpt lat="45.3722533" lon="9.7098"><ele>77.0</ele><time>2026-04-04T12:28:36.983Z</time></trkpt><trkpt lat="45.3723333" lon="9.7097717"><ele>76.2</ele><time>2026-04-04T12:28:38.982Z</time></trkpt><trkpt lat="45.3724233" lon="9.7097133"><ele>75.4</ele><time>2026-04-04T12:28:40.983Z</time></trkpt><trkpt lat="45.372525" lon="9.70966"><ele>74.6</ele><time>2026-04-04T12:28:42.983Z</time></trkpt><trkpt lat="45.3726317" lon="9.7096217"><ele>73.8</ele><time>2026-04-04T12:28:44.983Z</time></trkpt><trkpt lat="45.372735" lon="9.70957"><ele>73.0</ele><time>2026-04-04T12:28:46.983Z</time></trkpt><trkpt lat="45.37284" lon="9.709525"><ele>73.0</ele><time>2026-04-04T12:28:48.983Z</time></trkpt><trkpt lat="45.3729417" lon="9.70949"><ele>73.0</ele><time>2026-04-04T12:28:50.983Z</time></trkpt><trkpt lat="45.3730467" lon="9.7094667"><ele>73.0</ele><time>2026-04-04T12:28:52.983Z</time></trkpt><trkpt lat="45.3731517" lon="9.7094383"><ele>73.0</ele><time>2026-04-04T12:28:54.983Z</time></trkpt><trkpt lat="45.3732617" lon="9.7094183"><ele>73.0</ele><time>2026-04-04T12:28:56.983Z</time></trkpt><trkpt lat="45.373325" lon="9.70941"><ele>72.75</ele><time>2026-04-04T12:28:57.983Z</time></trkpt><trkpt lat="45.373445" lon="9.709405"><ele>72.5</ele><time>2026-04-04T12:28:59.983Z</time></trkpt><trkpt lat="45.3735533" lon="9.7094"><ele>72.25</ele><time>2026-04-04T12:29:01.983Z</time></trkpt><trkpt lat="45.3736583" lon="9.7094017"><ele>72.0</ele><time>2026-04-04T12:29:03.983Z</time></trkpt><trkpt lat="45.3737783" lon="9.7093883"><ele>72.0</ele><time>2026-04-04T12:29:05.982Z</time></trkpt><trkpt lat="45.3738917" lon="9.709385"><ele>72.0</ele><time>2026-04-04T12:29:07.982Z</time></trkpt><trkpt lat="45.3739983" lon="9.7093933"><ele>72.0</ele><time>2026-04-04T12:29:09.981Z</time></trkpt><trkpt lat="45.3741067" lon="9.7093933"><ele>72.0</ele><time>2026-04-04T12:29:11.982Z</time></trkpt><trkpt lat="45.3742117" lon="9.709395"><ele>72.0</ele><time>2026-04-04T12:29:13.982Z</time></trkpt><trkpt lat="45.3743167" lon="9.7093933"><ele>72.0</ele><time>2026-04-04T12:29:15.981Z</time></trkpt><trkpt lat="45.37442" lon="9.7093933"><ele>72.0</ele><time>2026-04-04T12:29:17.982Z</time></trkpt><trkpt lat="45.3745183" lon="9.7093883"><ele>72.0</ele><time>2026-04-04T12:29:19.982Z</time></trkpt><trkpt lat="45.37462" lon="9.7093517"><ele>72.0</ele><time>2026-04-04T12:29:21.982Z</time></trkpt><trkpt lat="45.374665" lon="9.709225"><ele>72.0</ele><time>2026-04-04T12:29:23.982Z</time></trkpt><trkpt lat="45.374645" lon="9.7090767"><ele>72.0</ele><time>2026-04-04T12:29:25.982Z</time></trkpt><trkpt lat="45.3746267" lon="9.7089417"><ele>72.0</ele><time>2026-04-04T12:29:27.982Z</time></trkpt><trkpt lat="45.374615" lon="9.7087983"><ele>72.0</ele><time>2026-04-04T12:29:29.982Z</time></trkpt><trkpt lat="45.3745967" lon="9.708655"><ele>72.0</ele><time>2026-04-04T12:29:31.981Z</time></trkpt><trkpt lat="45.3745833" lon="9.7085067"><ele>72.0</ele><time>2026-04-04T12:29:33.982Z</time></trkpt><trkpt lat="45.3745917" lon="9.70837"><ele>72.0</ele><time>2026-04-04T12:29:35.982Z</time></trkpt><trkpt lat="45.3746667" lon="9.708275"><ele>72.0</ele><time>2026-04-04T12:29:37.982Z</time></trkpt><trkpt lat="45.3747583" lon="9.70822"><ele>72.0</ele><time>2026-04-04T12:29:39.982Z</time></trkpt><trkpt lat="45.374855" lon="9.7081617"><ele>72.0</ele><time>2026-04-04T12:29:41.982Z</time></trkpt><trkpt lat="45.3749483" lon="9.708095"><ele>72.0</ele><time>2026-04-04T12:29:43.982Z</time></trkpt><trkpt lat="45.3750417" lon="9.7080317"><ele>72.0</ele><time>2026-04-04T12:29:45.982Z</time></trkpt><trkpt lat="45.3751383" lon="9.7079617"><ele>72.0</ele><time>2026-04-04T12:29:47.982Z</time></trkpt><trkpt lat="45.375235" lon="9.7078967"><ele>72.0</ele><time>2026-04-04T12:29:49.982Z</time></trkpt><trkpt lat="45.3753283" lon="9.707825"><ele>72.0</ele><time>2026-04-04T12:29:51.982Z</time></trkpt><trkpt lat="45.3754167" lon="9.7077483"><ele>72.0</ele><time>2026-04-04T12:29:53.982Z</time></trkpt><trkpt lat="45.375495" lon="9.70765"><ele>72.4</ele><time>2026-04-04T12:29:55.982Z</time></trkpt><trkpt lat="45.3755567" lon="9.707545"><ele>72.80000000000001</ele><time>2026-04-04T12:29:57.982Z</time></trkpt><trkpt lat="45.3756" lon="9.70742"><ele>73.2</ele><time>2026-04-04T12:29:59.982Z</time></trkpt><trkpt lat="45.3756567" lon="9.7073067"><ele>73.60000000000001</ele><time>2026-04-04T12:30:01.982Z</time></trkpt><trkpt lat="45.3757433" lon="9.707295"><ele>74.0</ele><time>2026-04-04T12:30:03.982Z</time></trkpt><trkpt lat="45.3758367" lon="9.7073567"><ele>74.0</ele><time>2026-04-04T12:30:05.982Z</time></trkpt><trkpt lat="45.3759283" lon="9.7074083"><ele>74.0</ele><time>2026-04-04T12:30:07.982Z</time></trkpt><trkpt lat="45.3760233" lon="9.707455"><ele>74.0</ele><time>2026-04-04T12:30:09.982Z</time></trkpt><trkpt lat="45.3761167" lon="9.707515"><ele>74.0</ele><time>2026-04-04T12:30:11.982Z</time></trkpt><trkpt lat="45.37621" lon="9.707585"><ele>74.0</ele><time>2026-04-04T12:30:13.982Z</time></trkpt><trkpt lat="45.3762983" lon="9.7076583"><ele>73.8</ele><time>2026-04-04T12:30:15.982Z</time></trkpt><trkpt lat="45.3763817" lon="9.70774"><ele>73.60000000000001</ele><time>2026-04-04T12:30:17.982Z</time></trkpt><trkpt lat="45.3764617" lon="9.7078233"><ele>73.4</ele><time>2026-04-04T12:30:19.982Z</time></trkpt><trkpt lat="45.3765317" lon="9.7079233"><ele>73.2</ele><time>2026-04-04T12:30:21.982Z</time></trkpt><trkpt lat="45.3766167" lon="9.7079933"><ele>73.0</ele><time>2026-04-04T12:30:23.982Z</time></trkpt><trkpt lat="45.37671" lon="9.708015"><ele>73.0</ele><time>2026-04-04T12:30:25.982Z</time></trkpt><trkpt lat="45.3767933" lon="9.7080783"><ele>73.0</ele><time>2026-04-04T12:30:27.982Z</time></trkpt><trkpt lat="45.3768383" lon="9.7081967"><ele>73.0</ele><time>2026-04-04T12:30:29.982Z</time></trkpt><trkpt lat="45.376875" lon="9.7083283"><ele>73.0</ele><time>2026-04-04T12:30:31.982Z</time></trkpt><trkpt lat="45.3769117" lon="9.7084633"><ele>73.0</ele><time>2026-04-04T12:30:33.982Z</time></trkpt><trkpt lat="45.3769517" lon="9.7085933"><ele>73.2</ele><time>2026-04-04T12:30:35.982Z</time></trkpt><trkpt lat="45.3770033" lon="9.7087217"><ele>73.4</ele><time>2026-04-04T12:30:37.982Z</time></trkpt><trkpt lat="45.3770617" lon="9.7088483"><ele>73.60000000000001</ele><time>2026-04-04T12:30:39.982Z</time></trkpt><trkpt lat="45.37712" lon="9.7089667"><ele>73.8</ele><time>2026-04-04T12:30:41.982Z</time></trkpt><trkpt lat="45.3771867" lon="9.7090817"><ele>74.0</ele><time>2026-04-04T12:30:43.982Z</time></trkpt><trkpt lat="45.3772483" lon="9.7091933"><ele>74.4</ele><time>2026-04-04T12:30:45.982Z</time></trkpt><trkpt lat="45.3773067" lon="9.7093083"><ele>74.80000000000001</ele><time>2026-04-04T12:30:47.982Z</time></trkpt><trkpt lat="45.3773767" lon="9.7094217"><ele>75.19999999999999</ele><time>2026-04-04T12:30:49.982Z</time></trkpt><trkpt lat="45.3774333" lon="9.709535"><ele>75.6</ele><time>2026-04-04T12:30:51.982Z</time></trkpt><trkpt lat="45.3775117" lon="9.7096433"><ele>76.0</ele><time>2026-04-04T12:30:53.982Z</time></trkpt><trkpt lat="45.377585" lon="9.70974"><ele>76.0</ele><time>2026-04-04T12:30:55.982Z</time></trkpt><trkpt lat="45.3776633" lon="9.7098317"><ele>76.0</ele><time>2026-04-04T12:30:57.982Z</time></trkpt><trkpt lat="45.37774" lon="9.7099183"><ele>76.0</ele><time>2026-04-04T12:30:59.982Z</time></trkpt><trkpt lat="45.377825" lon="9.7099983"><ele>76.0</ele><time>2026-04-04T12:31:01.982Z</time></trkpt><trkpt lat="45.37791" lon="9.710065"><ele>76.0</ele><time>2026-04-04T12:31:03.982Z</time></trkpt><trkpt lat="45.3779817" lon="9.71014"><ele>76.0</ele><time>2026-04-04T12:31:05.982Z</time></trkpt><trkpt lat="45.3780683" lon="9.71021"><ele>76.0</ele><time>2026-04-04T12:31:07.982Z</time></trkpt><trkpt lat="45.3781567" lon="9.7102783"><ele>76.0</ele><time>2026-04-04T12:31:09.982Z</time></trkpt><trkpt lat="45.3782483" lon="9.7103383"><ele>76.0</ele><time>2026-04-04T12:31:11.982Z</time></trkpt><trkpt lat="45.3783417" lon="9.7104167"><ele>76.0</ele><time>2026-04-04T12:31:13.982Z</time></trkpt><trkpt lat="45.3784233" lon="9.7104883"><ele>76.0</ele><time>2026-04-04T12:31:15.982Z</time></trkpt><trkpt lat="45.3785133" lon="9.7105517"><ele>76.0</ele><time>2026-04-04T12:31:17.982Z</time></trkpt><trkpt lat="45.3785817" lon="9.7105767"><ele>76.0</ele><time>2026-04-04T12:31:19.982Z</time></trkpt><trkpt lat="45.378645" lon="9.7106067"><ele>76.0</ele><time>2026-04-04T12:31:22.982Z</time></trkpt><trkpt lat="45.3787267" lon="9.7105833"><ele>76.0</ele><time>2026-04-04T12:31:26.982Z</time></trkpt><trkpt lat="45.3788167" lon="9.7106083"><ele>76.0</ele><time>2026-04-04T12:31:29.982Z</time></trkpt><trkpt lat="45.3788883" lon="9.71059"><ele>76.16666666666666</ele><time>2026-04-04T12:31:32.982Z</time></trkpt><trkpt lat="45.3789733" lon="9.710565"><ele>76.33333333333333</ele><time>2026-04-04T12:31:35.981Z</time></trkpt><trkpt lat="45.379045" lon="9.7105583"><ele>76.5</ele><time>2026-04-04T12:31:37.982Z</time></trkpt><trkpt lat="45.3791167" lon="9.7105417"><ele>76.66666666666667</ele><time>2026-04-04T12:31:39.982Z</time></trkpt><trkpt lat="45.3791933" lon="9.7105117"><ele>76.83333333333334</ele><time>2026-04-04T12:31:41.982Z</time></trkpt><trkpt lat="45.3792717" lon="9.7105233"><ele>77.0</ele><time>2026-04-04T12:31:43.982Z</time></trkpt><trkpt lat="45.37935" lon="9.71052"><ele>77.0</ele><time>2026-04-04T12:31:45.982Z</time></trkpt><trkpt lat="45.379425" lon="9.710475"><ele>77.0</ele><time>2026-04-04T12:31:47.982Z</time></trkpt><trkpt lat="45.379495" lon="9.7104933"><ele>77.0</ele><time>2026-04-04T12:31:49.982Z</time></trkpt><trkpt lat="45.3795717" lon="9.710425"><ele>77.0</ele><time>2026-04-04T12:31:54.982Z</time></trkpt><trkpt lat="45.37963" lon="9.7103817"><ele>77.0</ele><time>2026-04-04T12:31:56.982Z</time></trkpt><trkpt lat="45.3796933" lon="9.7103383"><ele>77.0</ele><time>2026-04-04T12:31:58.982Z</time></trkpt><trkpt lat="45.3797883" lon="9.7102733"><ele>76.8</ele><time>2026-04-04T12:32:00.982Z</time></trkpt><trkpt lat="45.3798817" lon="9.71021"><ele>76.6</ele><time>2026-04-04T12:32:02.982Z</time></trkpt><trkpt lat="45.37997" lon="9.71013"><ele>76.39999999999999</ele><time>2026-04-04T12:32:04.982Z</time></trkpt><trkpt lat="45.3800467" lon="9.7100483"><ele>76.2</ele><time>2026-04-04T12:32:06.982Z</time></trkpt><trkpt lat="45.3801283" lon="9.7099883"><ele>76.0</ele><time>2026-04-04T12:32:08.982Z</time></trkpt><trkpt lat="45.3802217" lon="9.70992"><ele>76.0</ele><time>2026-04-04T12:32:10.982Z</time></trkpt><trkpt lat="45.3802867" lon="9.7098567"><ele>76.0</ele><time>2026-04-04T12:32:12.982Z</time></trkpt><trkpt lat="45.38037" lon="9.70987"><ele>76.0</ele><time>2026-04-04T12:32:15.982Z</time></trkpt><trkpt lat="45.38043" lon="9.7098233"><ele>76.0</ele><time>2026-04-04T12:32:17.982Z</time></trkpt><trkpt lat="45.38049" lon="9.70974"><ele>76.0</ele><time>2026-04-04T12:32:19.982Z</time></trkpt><trkpt lat="45.3805317" lon="9.7096567"><ele>76.0</ele><time>2026-04-04T12:32:21.982Z</time></trkpt><trkpt lat="45.3805967" lon="9.709645"><ele>75.83333333333333</ele><time>2026-04-04T12:32:23.982Z</time></trkpt><trkpt lat="45.3806883" lon="9.7096067"><ele>75.66666666666666</ele><time>2026-04-04T12:32:26.982Z</time></trkpt><trkpt lat="45.3807517" lon="9.7095767"><ele>75.5</ele><time>2026-04-04T12:32:28.982Z</time></trkpt><trkpt lat="45.380835" lon="9.7095183"><ele>75.33333333333333</ele><time>2026-04-04T12:32:31.982Z</time></trkpt><trkpt lat="45.3809117" lon="9.7094617"><ele>75.16666666666667</ele><time>2026-04-04T12:32:34.982Z</time></trkpt><trkpt lat="45.3809817" lon="9.709485"><ele>75.0</ele><time>2026-04-04T12:32:37.982Z</time></trkpt><trkpt lat="45.38105" lon="9.7094617"><ele>75.2</ele><time>2026-04-04T12:32:41.982Z</time></trkpt><trkpt lat="45.381125" lon="9.7093883"><ele>75.4</ele><time>2026-04-04T12:32:45.982Z</time></trkpt><trkpt lat="45.38127" lon="9.7093033"><ele>75.6</ele><time>2026-04-04T12:33:06.981Z</time></trkpt><trkpt lat="45.38135" lon="9.709295"><ele>75.8</ele><time>2026-04-04T12:33:12.981Z</time></trkpt><trkpt lat="45.3814217" lon="9.7092683"><ele>76.0</ele><time>2026-04-04T12:33:16.981Z</time></trkpt><trkpt lat="45.3814883" lon="9.7092333"><ele>76.16666666666666</ele><time>2026-04-04T12:33:20.981Z</time></trkpt><trkpt lat="45.38156" lon="9.7091833"><ele>76.33333333333333</ele><time>2026-04-04T12:33:24.981Z</time></trkpt><trkpt lat="45.3816433" lon="9.7091483"><ele>76.5</ele><time>2026-04-04T12:33:27.981Z</time></trkpt><trkpt lat="45.3817133" lon="9.7091267"><ele>76.66666666666667</ele><time>2026-04-04T12:33:30.981Z</time></trkpt><trkpt lat="45.3818017" lon="9.7091267"><ele>76.83333333333334</ele><time>2026-04-04T12:33:33.981Z</time></trkpt><trkpt lat="45.3818933" lon="9.709125"><ele>77.0</ele><time>2026-04-04T12:33:36.981Z</time></trkpt><trkpt lat="45.3819717" lon="9.7091033"><ele>77.0</ele><time>2026-04-04T12:33:39.981Z</time></trkpt><trkpt lat="45.382035" lon="9.7091"><ele>77.0</ele><time>2026-04-04T12:33:42.981Z</time></trkpt><trkpt lat="45.3821233" lon="9.7091367"><ele>77.0</ele><time>2026-04-04T12:33:45.981Z</time></trkpt><trkpt lat="45.38219" lon="9.7091367"><ele>77.0</ele><time>2026-04-04T12:33:47.981Z</time></trkpt><trkpt lat="45.38225" lon="9.7090917"><ele>77.0</ele><time>2026-04-04T12:33:49.981Z</time></trkpt><trkpt lat="45.3823183" lon="9.7090717"><ele>77.0</ele><time>2026-04-04T12:33:51.981Z</time></trkpt><trkpt lat="45.3823933" lon="9.7090583"><ele>77.0</ele><time>2026-04-04T12:33:53.981Z</time></trkpt><trkpt lat="45.382465" lon="9.7090583"><ele>76.66666666666667</ele><time>2026-04-04T12:33:55.981Z</time></trkpt><trkpt lat="45.3825367" lon="9.709055"><ele>76.33333333333334</ele><time>2026-04-04T12:33:57.981Z</time></trkpt><trkpt lat="45.38261" lon="9.7090683"><ele>76.0</ele><time>2026-04-04T12:33:59.981Z</time></trkpt><trkpt lat="45.3826833" lon="9.7091117"><ele>75.66666666666667</ele><time>2026-04-04T12:34:02.981Z</time></trkpt><trkpt lat="45.3827683" lon="9.70915"><ele>75.33333333333333</ele><time>2026-04-04T12:34:05.981Z</time></trkpt><trkpt lat="45.3828667" lon="9.7091783"><ele>75.0</ele><time>2026-04-04T12:34:08.981Z</time></trkpt><trkpt lat="45.3829383" lon="9.7092317"><ele>75.0</ele><time>2026-04-04T12:34:10.98Z</time></trkpt><trkpt lat="45.3829967" lon="9.7093117"><ele>75.0</ele><time>2026-04-04T12:34:12.981Z</time></trkpt><trkpt lat="45.38306" lon="9.7093433"><ele>75.0</ele><time>2026-04-04T12:34:14.981Z</time></trkpt><trkpt lat="45.3831283" lon="9.7093483"><ele>75.0</ele><time>2026-04-04T12:34:16.981Z</time></trkpt><trkpt lat="45.3832067" lon="9.7093533"><ele>75.0</ele><time>2026-04-04T12:34:18.981Z</time></trkpt><trkpt lat="45.383285" lon="9.7093667"><ele>75.0</ele><time>2026-04-04T12:34:21.981Z</time></trkpt><trkpt lat="45.3833733" lon="9.709405"><ele>75.83333333333333</ele><time>2026-04-04T12:34:24.981Z</time></trkpt><trkpt lat="45.38345" lon="9.7094433"><ele>76.66666666666667</ele><time>2026-04-04T12:34:26.981Z</time></trkpt><trkpt lat="45.383525" lon="9.709475"><ele>77.5</ele><time>2026-04-04T12:34:28.981Z</time></trkpt><trkpt lat="45.3835833" lon="9.7095567"><ele>78.33333333333334</ele><time>2026-04-04T12:34:30.981Z</time></trkpt><trkpt lat="45.3836383" lon="9.7096483"><ele>79.16666666666667</ele><time>2026-04-04T12:34:32.981Z</time></trkpt><trkpt lat="45.3836633" lon="9.7097533"><ele>80.0</ele><time>2026-04-04T12:34:34.981Z</time></trkpt><trkpt lat="45.38367" lon="9.7098667"><ele>80.0</ele><time>2026-04-04T12:34:36.981Z</time></trkpt><trkpt lat="45.383725" lon="9.7099183"><ele>80.0</ele><time>2026-04-04T12:34:38.981Z</time></trkpt><trkpt lat="45.383785" lon="9.70996"><ele>80.0</ele><time>2026-04-04T12:34:40.981Z</time></trkpt><trkpt lat="45.3838217" lon="9.71004"><ele>80.0</ele><time>2026-04-04T12:34:42.98Z</time></trkpt><trkpt lat="45.38386" lon="9.7101267"><ele>80.0</ele><time>2026-04-04T12:34:44.981Z</time></trkpt><trkpt lat="45.3838517" lon="9.7102233"><ele>80.0</ele><time>2026-04-04T12:34:46.981Z</time></trkpt><trkpt lat="45.3838417" lon="9.7103167"><ele>80.0</ele><time>2026-04-04T12:34:48.981Z</time></trkpt><trkpt lat="45.38389" lon="9.7103783"><ele>79.5</ele><time>2026-04-04T12:34:50.981Z</time></trkpt><trkpt lat="45.3839533" lon="9.7104133"><ele>79.0</ele><time>2026-04-04T12:34:52.981Z</time></trkpt><trkpt lat="45.383975" lon="9.7105033"><ele>78.5</ele><time>2026-04-04T12:34:54.981Z</time></trkpt><trkpt lat="45.3840133" lon="9.71059"><ele>78.0</ele><time>2026-04-04T12:34:56.981Z</time></trkpt><trkpt lat="45.3840667" lon="9.7106617"><ele>77.5</ele><time>2026-04-04T12:34:58.981Z</time></trkpt><trkpt lat="45.3841083" lon="9.7107617"><ele>77.0</ele><time>2026-04-04T12:35:00.981Z</time></trkpt><trkpt lat="45.3841117" lon="9.7108867"><ele>77.0</ele><time>2026-04-04T12:35:02.981Z</time></trkpt><trkpt lat="45.3840917" lon="9.7110033"><ele>77.0</ele><time>2026-04-04T12:35:04.981Z</time></trkpt><trkpt lat="45.384155" lon="9.71105"><ele>77.0</ele><time>2026-04-04T12:35:06.981Z</time></trkpt><trkpt lat="45.38419" lon="9.7111517"><ele>77.0</ele><time>2026-04-04T12:35:09.981Z</time></trkpt><trkpt lat="45.3842183" lon="9.7112867"><ele>77.0</ele><time>2026-04-04T12:35:12.981Z</time></trkpt><trkpt lat="45.384215" lon="9.711395"><ele>77.0</ele><time>2026-04-04T12:35:14.981Z</time></trkpt><trkpt lat="45.3842117" lon="9.7115333"><ele>76.83333333333334</ele><time>2026-04-04T12:35:17.981Z</time></trkpt><trkpt lat="45.3842283" lon="9.7116533"><ele>76.66666666666667</ele><time>2026-04-04T12:35:19.981Z</time></trkpt><trkpt lat="45.38424" lon="9.711755"><ele>76.5</ele><time>2026-04-04T12:35:23.98Z</time></trkpt><trkpt lat="45.384235" lon="9.7118483"><ele>76.33333333333333</ele><time>2026-04-04T12:35:27.981Z</time></trkpt><trkpt lat="45.3842183" lon="9.7119417"><ele>76.16666666666666</ele><time>2026-04-04T12:35:29.98Z</time></trkpt><trkpt lat="45.3841917" lon="9.7120467"><ele>76.0</ele><time>2026-04-04T12:35:31.981Z</time></trkpt><trkpt lat="45.384175" lon="9.7121717"><ele>76.39999999999999</ele><time>2026-04-04T12:35:33.981Z</time></trkpt><trkpt lat="45.3841767" lon="9.7123133"><ele>76.8</ele><time>2026-04-04T12:35:35.98Z</time></trkpt><trkpt lat="45.384175" lon="9.712465"><ele>77.19999999999999</ele><time>2026-04-04T12:35:37.981Z</time></trkpt><trkpt lat="45.38417" lon="9.7126183"><ele>77.6</ele><time>2026-04-04T12:35:39.981Z</time></trkpt><trkpt lat="45.38417" lon="9.7127617"><ele>78.0</ele><time>2026-04-04T12:35:41.981Z</time></trkpt><trkpt lat="45.3841667" lon="9.7128833"><ele>78.33333333333333</ele><time>2026-04-04T12:35:43.981Z</time></trkpt><trkpt lat="45.384165" lon="9.71301"><ele>78.66666666666667</ele><time>2026-04-04T12:35:45.981Z</time></trkpt><trkpt lat="45.38418" lon="9.713135"><ele>79.0</ele><time>2026-04-04T12:35:47.981Z</time></trkpt><trkpt lat="45.3842283" lon="9.7132417"><ele>79.33333333333334</ele><time>2026-04-04T12:35:49.98Z</time></trkpt><trkpt lat="45.38429" lon="9.71333"><ele>79.66666666666667</ele><time>2026-04-04T12:35:51.981Z</time></trkpt><trkpt lat="45.3843233" lon="9.71343"><ele>80.0</ele><time>2026-04-04T12:35:53.981Z</time></trkpt><trkpt lat="45.3844017" lon="9.7134917"><ele>80.0</ele><time>2026-04-04T12:35:56.981Z</time></trkpt><trkpt lat="45.3844617" lon="9.71354"><ele>80.0</ele><time>2026-04-04T12:35:59.981Z</time></trkpt><trkpt lat="45.384535" lon="9.713595"><ele>80.0</ele><time>2026-04-04T12:36:02.981Z</time></trkpt><trkpt lat="45.3846283" lon="9.7136217"><ele>80.0</ele><time>2026-04-04T12:36:05.981Z</time></trkpt><trkpt lat="45.384705" lon="9.7136517"><ele>80.0</ele><time>2026-04-04T12:36:07.98Z</time></trkpt><trkpt lat="45.384785" lon="9.7136733"><ele>80.0</ele><time>2026-04-04T12:36:09.981Z</time></trkpt><trkpt lat="45.3848617" lon="9.7137017"><ele>79.16666666666667</ele><time>2026-04-04T12:36:11.981Z</time></trkpt><trkpt lat="45.3849483" lon="9.7137133"><ele>78.33333333333334</ele><time>2026-04-04T12:36:13.981Z</time></trkpt><trkpt lat="45.3850367" lon="9.7137233"><ele>77.5</ele><time>2026-04-04T12:36:15.98Z</time></trkpt><trkpt lat="45.3851233" lon="9.7137383"><ele>76.66666666666667</ele><time>2026-04-04T12:36:17.981Z</time></trkpt><trkpt lat="45.38521" lon="9.7137467"><ele>75.83333333333333</ele><time>2026-04-04T12:36:19.981Z</time></trkpt><trkpt lat="45.3853083" lon="9.7137517"><ele>75.0</ele><time>2026-04-04T12:36:21.981Z</time></trkpt><trkpt lat="45.3853967" lon="9.71375"><ele>75.0</ele><time>2026-04-04T12:36:23.981Z</time></trkpt><trkpt lat="45.38548" lon="9.7137783"><ele>75.0</ele><time>2026-04-04T12:36:25.981Z</time></trkpt><trkpt lat="45.3855567" lon="9.7138667"><ele>75.0</ele><time>2026-04-04T12:36:27.981Z</time></trkpt><trkpt lat="45.385635" lon="9.7138883"><ele>75.0</ele><time>2026-04-04T12:36:29.981Z</time></trkpt><trkpt lat="45.3857083" lon="9.7138817"><ele>75.0</ele><time>2026-04-04T12:36:31.981Z</time></trkpt><trkpt lat="45.38579" lon="9.7138667"><ele>75.0</ele><time>2026-04-04T12:36:33.981Z</time></trkpt><trkpt lat="45.38588" lon="9.7138583"><ele>75.0</ele><time>2026-04-04T12:36:35.981Z</time></trkpt><trkpt lat="45.385965" lon="9.713845"><ele>75.0</ele><time>2026-04-04T12:36:37.98Z</time></trkpt><trkpt lat="45.3860417" lon="9.7138283"><ele>75.0</ele><time>2026-04-04T12:36:39.981Z</time></trkpt><trkpt lat="45.386115" lon="9.7138133"><ele>75.0</ele><time>2026-04-04T12:36:41.981Z</time></trkpt><trkpt lat="45.3862" lon="9.713785"><ele>75.0</ele><time>2026-04-04T12:36:43.981Z</time></trkpt><trkpt lat="45.38627" lon="9.71376"><ele>75.0</ele><time>2026-04-04T12:36:45.981Z</time></trkpt><trkpt lat="45.38634" lon="9.7137267"><ele>75.0</ele><time>2026-04-04T12:36:47.981Z</time></trkpt><trkpt lat="45.3864183" lon="9.7136783"><ele>75.0</ele><time>2026-04-04T12:36:49.981Z</time></trkpt><trkpt lat="45.3864883" lon="9.7136333"><ele>75.0</ele><time>2026-04-04T12:36:51.981Z</time></trkpt><trkpt lat="45.386565" lon="9.7135883"><ele>75.0</ele><time>2026-04-04T12:36:53.981Z</time></trkpt><trkpt lat="45.3866433" lon="9.7135283"><ele>75.0</ele><time>2026-04-04T12:36:55.981Z</time></trkpt><trkpt lat="45.3867017" lon="9.71343"><ele>75.0</ele><time>2026-04-04T12:36:57.981Z</time></trkpt><trkpt lat="45.3867683" lon="9.7133533"><ele>75.0</ele><time>2026-04-04T12:36:59.981Z</time></trkpt><trkpt lat="45.3868483" lon="9.7132933"><ele>75.0</ele><time>2026-04-04T12:37:01.981Z</time></trkpt><trkpt lat="45.386935" lon="9.7132333"><ele>75.0</ele><time>2026-04-04T12:37:03.98Z</time></trkpt><trkpt lat="45.387015" lon="9.713165"><ele>75.0</ele><time>2026-04-04T12:37:05.981Z</time></trkpt><trkpt lat="45.3871" lon="9.7131267"><ele>75.0</ele><time>2026-04-04T12:37:07.981Z</time></trkpt><trkpt lat="45.3871917" lon="9.7131067"><ele>75.2</ele><time>2026-04-04T12:37:09.979Z</time></trkpt><trkpt lat="45.3872867" lon="9.7131017"><ele>75.4</ele><time>2026-04-04T12:37:11.98Z</time></trkpt><trkpt lat="45.38739" lon="9.713095"><ele>75.6</ele><time>2026-04-04T12:37:13.98Z</time></trkpt><trkpt lat="45.3874967" lon="9.713095"><ele>75.8</ele><time>2026-04-04T12:37:15.98Z</time></trkpt><trkpt lat="45.3875983" lon="9.7130783"><ele>76.0</ele><time>2026-04-04T12:37:17.979Z</time></trkpt><trkpt lat="45.3876917" lon="9.7130133"><ele>76.0</ele><time>2026-04-04T12:37:19.98Z</time></trkpt><trkpt lat="45.3877217" lon="9.712885"><ele>76.0</ele><time>2026-04-04T12:37:21.98Z</time></trkpt><trkpt lat="45.3877283" lon="9.7127483"><ele>76.0</ele><time>2026-04-04T12:37:23.98Z</time></trkpt><trkpt lat="45.3877433" lon="9.71261"><ele>76.0</ele><time>2026-04-04T12:37:25.98Z</time></trkpt><trkpt lat="45.387775" lon="9.7124867"><ele>76.0</ele><time>2026-04-04T12:37:27.98Z</time></trkpt><trkpt lat="45.3878317" lon="9.7123717"><ele>76.2</ele><time>2026-04-04T12:37:29.98Z</time></trkpt><trkpt lat="45.3879" lon="9.7122533"><ele>76.39999999999999</ele><time>2026-04-04T12:37:31.98Z</time></trkpt><trkpt lat="45.387975" lon="9.7121567"><ele>76.6</ele><time>2026-04-04T12:37:33.98Z</time></trkpt><trkpt lat="45.3880517" lon="9.7120483"><ele>76.8</ele><time>2026-04-04T12:37:35.98Z</time></trkpt><trkpt lat="45.3881183" lon="9.71194"><ele>77.0</ele><time>2026-04-04T12:37:37.98Z</time></trkpt><trkpt lat="45.3881683" lon="9.7118167"><ele>76.6</ele><time>2026-04-04T12:37:39.98Z</time></trkpt><trkpt lat="45.3882267" lon="9.7117"><ele>76.2</ele><time>2026-04-04T12:37:41.98Z</time></trkpt><trkpt lat="45.3882967" lon="9.71159"><ele>75.8</ele><time>2026-04-04T12:37:43.98Z</time></trkpt><trkpt lat="45.3883733" lon="9.71149"><ele>75.4</ele><time>2026-04-04T12:37:45.98Z</time></trkpt><trkpt lat="45.38845" lon="9.711395"><ele>75.0</ele><time>2026-04-04T12:37:47.98Z</time></trkpt><trkpt lat="45.3885267" lon="9.7113"><ele>75.0</ele><time>2026-04-04T12:37:49.98Z</time></trkpt><trkpt lat="45.3886117" lon="9.7112033"><ele>75.0</ele><time>2026-04-04T12:37:51.979Z</time></trkpt><trkpt lat="45.3887" lon="9.7111183"><ele>75.0</ele><time>2026-04-04T12:37:53.98Z</time></trkpt><trkpt lat="45.3887917" lon="9.71104"><ele>75.0</ele><time>2026-04-04T12:37:55.98Z</time></trkpt><trkpt lat="45.3888917" lon="9.7110183"><ele>75.0</ele><time>2026-04-04T12:37:57.98Z</time></trkpt><trkpt lat="45.38898" lon="9.7110883"><ele>75.6</ele><time>2026-04-04T12:37:59.98Z</time></trkpt><trkpt lat="45.389055" lon="9.7112033"><ele>76.2</ele><time>2026-04-04T12:38:01.98Z</time></trkpt><trkpt lat="45.3891083" lon="9.7113167"><ele>76.8</ele><time>2026-04-04T12:38:03.98Z</time></trkpt><trkpt lat="45.3891617" lon="9.7114017"><ele>77.4</ele><time>2026-04-04T12:38:05.98Z</time></trkpt><trkpt lat="45.3892267" lon="9.7115133"><ele>78.0</ele><time>2026-04-04T12:38:07.98Z</time></trkpt><trkpt lat="45.3893" lon="9.711655"><ele>78.0</ele><time>2026-04-04T12:38:09.98Z</time></trkpt><trkpt lat="45.3893617" lon="9.7117933"><ele>78.0</ele><time>2026-04-04T12:38:11.979Z</time></trkpt><trkpt lat="45.389405" lon="9.7119383"><ele>78.0</ele><time>2026-04-04T12:38:13.98Z</time></trkpt><trkpt lat="45.389425" lon="9.7120917"><ele>78.0</ele><time>2026-04-04T12:38:15.98Z</time></trkpt><trkpt lat="45.3894333" lon="9.7122533"><ele>78.0</ele><time>2026-04-04T12:38:17.98Z</time></trkpt><trkpt lat="45.3894433" lon="9.7124183"><ele>78.0</ele><time>2026-04-04T12:38:19.98Z</time></trkpt><trkpt lat="45.3894567" lon="9.7125783"><ele>78.0</ele><time>2026-04-04T12:38:21.98Z</time></trkpt><trkpt lat="45.3894583" lon="9.7127433"><ele>78.0</ele><time>2026-04-04T12:38:23.98Z</time></trkpt><trkpt lat="45.3894683" lon="9.7128983"><ele>78.0</ele><time>2026-04-04T12:38:25.98Z</time></trkpt><trkpt lat="45.3894767" lon="9.7130483"><ele>78.0</ele><time>2026-04-04T12:38:27.98Z</time></trkpt><trkpt lat="45.3895417" lon="9.7131683"><ele>78.0</ele><time>2026-04-04T12:38:29.98Z</time></trkpt><trkpt lat="45.3896033" lon="9.713205"><ele>78.0</ele><time>2026-04-04T12:38:30.98Z</time></trkpt><trkpt lat="45.3896617" lon="9.71326"><ele>78.0</ele><time>2026-04-04T12:38:31.98Z</time></trkpt><trkpt lat="45.389715" lon="9.7133217"><ele>78.0</ele><time>2026-04-04T12:38:32.98Z</time></trkpt><trkpt lat="45.38976" lon="9.7133867"><ele>78.0</ele><time>2026-04-04T12:38:33.98Z</time></trkpt><trkpt lat="45.3898533" lon="9.7135067"><ele>78.0</ele><time>2026-04-04T12:38:35.98Z</time></trkpt><trkpt lat="45.3899517" lon="9.7136083"><ele>78.0</ele><time>2026-04-04T12:38:37.98Z</time></trkpt><trkpt lat="45.390055" lon="9.71372"><ele>78.0</ele><time>2026-04-04T12:38:39.98Z</time></trkpt><trkpt lat="45.390105" lon="9.7137767"><ele>78.0</ele><time>2026-04-04T12:38:40.98Z</time></trkpt><trkpt lat="45.3901633" lon="9.713825"><ele>78.0</ele><time>2026-04-04T12:38:41.98Z</time></trkpt><trkpt lat="45.39027" lon="9.7138783"><ele>78.0</ele><time>2026-04-04T12:38:43.98Z</time></trkpt><trkpt lat="45.3903333" lon="9.713915"><ele>78.0</ele><time>2026-04-04T12:38:44.98Z</time></trkpt><trkpt lat="45.3904017" lon="9.7139667"><ele>78.0</ele><time>2026-04-04T12:38:45.98Z</time></trkpt><trkpt lat="45.3904683" lon="9.7140017"><ele>78.0</ele><time>2026-04-04T12:38:46.98Z</time></trkpt><trkpt lat="45.3905383" lon="9.7140317"><ele>78.0</ele><time>2026-04-04T12:38:47.98Z</time></trkpt><trkpt lat="45.3906117" lon="9.7140517"><ele>78.0</ele><time>2026-04-04T12:38:48.98Z</time></trkpt><trkpt lat="45.3906833" lon="9.7140733"><ele>78.0</ele><time>2026-04-04T12:38:49.98Z</time></trkpt><trkpt lat="45.390755" lon="9.714085"><ele>78.0</ele><time>2026-04-04T12:38:50.98Z</time></trkpt><trkpt lat="45.3908333" lon="9.7140883"><ele>78.0</ele><time>2026-04-04T12:38:51.98Z</time></trkpt><trkpt lat="45.3909033" lon="9.7140917"><ele>77.83333333333333</ele><time>2026-04-04T12:38:52.98Z</time></trkpt><trkpt lat="45.390975" lon="9.7141017"><ele>77.66666666666667</ele><time>2026-04-04T12:38:53.98Z</time></trkpt><trkpt lat="45.3910567" lon="9.714095"><ele>77.5</ele><time>2026-04-04T12:38:54.98Z</time></trkpt><trkpt lat="45.3911333" lon="9.7140833"><ele>77.33333333333334</ele><time>2026-04-04T12:38:55.98Z</time></trkpt><trkpt lat="45.3912167" lon="9.7140767"><ele>77.16666666666667</ele><time>2026-04-04T12:38:56.98Z</time></trkpt><trkpt lat="45.3912883" lon="9.71405"><ele>77.0</ele><time>2026-04-04T12:38:57.979Z</time></trkpt><trkpt lat="45.3913617" lon="9.7140167"><ele>77.0</ele><time>2026-04-04T12:38:58.98Z</time></trkpt><trkpt lat="45.3914417" lon="9.71399"><ele>77.0</ele><time>2026-04-04T12:38:59.98Z</time></trkpt><trkpt lat="45.3915117" lon="9.7139583"><ele>77.0</ele><time>2026-04-04T12:39:00.98Z</time></trkpt><trkpt lat="45.3915883" lon="9.7139267"><ele>77.0</ele><time>2026-04-04T12:39:01.98Z</time></trkpt><trkpt lat="45.3916633" lon="9.7138933"><ele>77.0</ele><time>2026-04-04T12:39:02.98Z</time></trkpt><trkpt lat="45.391735" lon="9.71387"><ele>77.0</ele><time>2026-04-04T12:39:03.98Z</time></trkpt><trkpt lat="45.3918067" lon="9.71385"><ele>77.0</ele><time>2026-04-04T12:39:04.98Z</time></trkpt><trkpt lat="45.39188" lon="9.7138233"><ele>77.0</ele><time>2026-04-04T12:39:05.98Z</time></trkpt><trkpt lat="45.3919433" lon="9.7137767"><ele>77.0</ele><time>2026-04-04T12:39:06.98Z</time></trkpt><trkpt lat="45.392005" lon="9.7137233"><ele>77.0</ele><time>2026-04-04T12:39:07.98Z</time></trkpt><trkpt lat="45.39206" lon="9.7136717"><ele>77.0</ele><time>2026-04-04T12:39:08.98Z</time></trkpt><trkpt lat="45.3921083" lon="9.7136083"><ele>77.0</ele><time>2026-04-04T12:39:09.98Z</time></trkpt><trkpt lat="45.392145" lon="9.713535"><ele>77.0</ele><time>2026-04-04T12:39:10.98Z</time></trkpt><trkpt lat="45.39217" lon="9.71345"><ele>77.0</ele><time>2026-04-04T12:39:11.98Z</time></trkpt><trkpt lat="45.3922067" lon="9.7133683"><ele>77.0</ele><time>2026-04-04T12:39:12.98Z</time></trkpt><trkpt lat="45.39228" lon="9.7132617"><ele>77.0</ele><time>2026-04-04T12:39:14.98Z</time></trkpt><trkpt lat="45.3923517" lon="9.713165"><ele>77.0</ele><time>2026-04-04T12:39:16.98Z</time></trkpt><trkpt lat="45.3924067" lon="9.71305"><ele>77.0</ele><time>2026-04-04T12:39:18.98Z</time></trkpt><trkpt lat="45.392455" lon="9.7129317"><ele>77.0</ele><time>2026-04-04T12:39:20.98Z</time></trkpt><trkpt lat="45.3925083" lon="9.712805"><ele>77.0</ele><time>2026-04-04T12:39:22.98Z</time></trkpt><trkpt lat="45.39256" lon="9.712675"><ele>77.0</ele><time>2026-04-04T12:39:24.98Z</time></trkpt><trkpt lat="45.3926133" lon="9.71255"><ele>77.0</ele><time>2026-04-04T12:39:26.98Z</time></trkpt><trkpt lat="45.3926583" lon="9.71242"><ele>77.0</ele><time>2026-04-04T12:39:28.98Z</time></trkpt><trkpt lat="45.3926983" lon="9.712285"><ele>77.2</ele><time>2026-04-04T12:39:30.98Z</time></trkpt><trkpt lat="45.392745" lon="9.7121567"><ele>77.4</ele><time>2026-04-04T12:39:32.98Z</time></trkpt><trkpt lat="45.3927867" lon="9.7120333"><ele>77.6</ele><time>2026-04-04T12:39:34.98Z</time></trkpt><trkpt lat="45.3928233" lon="9.7119033"><ele>77.8</ele><time>2026-04-04T12:39:36.98Z</time></trkpt><trkpt lat="45.39285" lon="9.7117733"><ele>78.0</ele><time>2026-04-04T12:39:38.98Z</time></trkpt><trkpt lat="45.39287" lon="9.7116717"><ele>78.0</ele><time>2026-04-04T12:39:40.98Z</time></trkpt><trkpt lat="45.3928917" lon="9.7115833"><ele>78.0</ele><time>2026-04-04T12:39:42.98Z</time></trkpt><trkpt lat="45.3929067" lon="9.711475"><ele>78.0</ele><time>2026-04-04T12:39:45.98Z</time></trkpt><trkpt lat="45.3929017" lon="9.7115683"><ele>78.0</ele><time>2026-04-04T12:42:40.979Z</time></trkpt><trkpt lat="45.3928933" lon="9.7116617"><ele>78.0</ele><time>2026-04-04T12:42:43.979Z</time></trkpt><trkpt lat="45.392865" lon="9.7117683"><ele>78.0</ele><time>2026-04-04T12:42:46.979Z</time></trkpt><trkpt lat="45.3928383" lon="9.71189"><ele>78.0</ele><time>2026-04-04T12:42:49.979Z</time></trkpt><trkpt lat="45.392805" lon="9.7120083"><ele>78.0</ele><time>2026-04-04T12:42:52.979Z</time></trkpt><trkpt lat="45.39278" lon="9.7120933"><ele>78.0</ele><time>2026-04-04T12:42:55.979Z</time></trkpt><trkpt lat="45.39278" lon="9.7120033"><ele>78.0</ele><time>2026-04-04T12:43:11.979Z</time></trkpt><trkpt lat="45.3928233" lon="9.7118883"><ele>78.0</ele><time>2026-04-04T12:43:14.979Z</time></trkpt><trkpt lat="45.3928467" lon="9.7117967"><ele>78.0</ele><time>2026-04-04T12:43:16.979Z</time></trkpt><trkpt lat="45.3928717" lon="9.7116867"><ele>78.0</ele><time>2026-04-04T12:43:19.979Z</time></trkpt><trkpt lat="45.39289" lon="9.711595"><ele>78.0</ele><time>2026-04-04T12:43:21.979Z</time></trkpt><trkpt lat="45.392905" lon="9.7114933"><ele>78.0</ele><time>2026-04-04T12:43:23.978Z</time></trkpt><trkpt lat="45.39292" lon="9.711385"><ele>78.0</ele><time>2026-04-04T12:43:25.979Z</time></trkpt><trkpt lat="45.3929367" lon="9.7112733"><ele>78.0</ele><time>2026-04-04T12:43:27.979Z</time></trkpt><trkpt lat="45.3929467" lon="9.7111633"><ele>78.0</ele><time>2026-04-04T12:43:29.979Z</time></trkpt><trkpt lat="45.3929583" lon="9.7110517"><ele>78.0</ele><time>2026-04-04T12:43:31.979Z</time></trkpt><trkpt lat="45.3929667" lon="9.710945"><ele>78.0</ele><time>2026-04-04T12:43:33.979Z</time></trkpt><trkpt lat="45.3929817" lon="9.7108283"><ele>78.2</ele><time>2026-04-04T12:43:35.979Z</time></trkpt><trkpt lat="45.3929967" lon="9.7106833"><ele>78.4</ele><time>2026-04-04T12:43:37.979Z</time></trkpt><trkpt lat="45.3930017" lon="9.7105433"><ele>78.60000000000001</ele><time>2026-04-04T12:43:39.979Z</time></trkpt><trkpt lat="45.393" lon="9.7104067"><ele>78.8</ele><time>2026-04-04T12:43:41.979Z</time></trkpt><trkpt lat="45.3929933" lon="9.7102767"><ele>79.0</ele><time>2026-04-04T12:43:43.979Z</time></trkpt><trkpt lat="45.3929783" lon="9.7101417"><ele>79.0</ele><time>2026-04-04T12:43:45.979Z</time></trkpt><trkpt lat="45.39297" lon="9.7100133"><ele>79.0</ele><time>2026-04-04T12:43:47.979Z</time></trkpt><trkpt lat="45.392965" lon="9.7098917"><ele>79.0</ele><time>2026-04-04T12:43:49.979Z</time></trkpt><trkpt lat="45.3929617" lon="9.709765"><ele>79.0</ele><time>2026-04-04T12:43:51.979Z</time></trkpt><trkpt lat="45.3929517" lon="9.7096417"><ele>79.0</ele><time>2026-04-04T12:43:53.979Z</time></trkpt><trkpt lat="45.3929317" lon="9.709555"><ele>79.0</ele><time>2026-04-04T12:44:37.979Z</time></trkpt><trkpt lat="45.392925" lon="9.7094217"><ele>79.0</ele><time>2026-04-04T12:44:41.979Z</time></trkpt><trkpt lat="45.3929183" lon="9.7093183"><ele>79.0</ele><time>2026-04-04T12:44:43.978Z</time></trkpt><trkpt lat="45.3929067" lon="9.7092"><ele>79.0</ele><time>2026-04-04T12:44:45.979Z</time></trkpt><trkpt lat="45.3929017" lon="9.7090783"><ele>79.0</ele><time>2026-04-04T12:44:47.979Z</time></trkpt><trkpt lat="45.3929067" lon="9.7089567"><ele>79.0</ele><time>2026-04-04T12:44:49.979Z</time></trkpt><trkpt lat="45.392925" lon="9.7088383"><ele>79.0</ele><time>2026-04-04T12:44:51.979Z</time></trkpt><trkpt lat="45.392935" lon="9.708715"><ele>79.0</ele><time>2026-04-04T12:44:53.979Z</time></trkpt><trkpt lat="45.392945" lon="9.708605"><ele>79.0</ele><time>2026-04-04T12:44:55.979Z</time></trkpt><trkpt lat="45.392965" lon="9.7084933"><ele>79.0</ele><time>2026-04-04T12:44:57.979Z</time></trkpt><trkpt lat="45.39298" lon="9.7083883"><ele>79.0</ele><time>2026-04-04T12:44:59.979Z</time></trkpt><trkpt lat="45.393" lon="9.708295"><ele>79.0</ele><time>2026-04-04T12:45:01.979Z</time></trkpt><trkpt lat="45.39304" lon="9.7081917"><ele>79.0</ele><time>2026-04-04T12:45:03.979Z</time></trkpt><trkpt lat="45.3930883" lon="9.7080867"><ele>78.8</ele><time>2026-04-04T12:45:05.979Z</time></trkpt><trkpt lat="45.39317" lon="9.708005"><ele>78.60000000000001</ele><time>2026-04-04T12:45:07.979Z</time></trkpt><trkpt lat="45.3932667" lon="9.707935"><ele>78.4</ele><time>2026-04-04T12:45:09.979Z</time></trkpt><trkpt lat="45.3933467" lon="9.707855"><ele>78.2</ele><time>2026-04-04T12:45:11.979Z</time></trkpt><trkpt lat="45.393425" lon="9.7077767"><ele>78.0</ele><time>2026-04-04T12:45:13.978Z</time></trkpt><trkpt lat="45.3935017" lon="9.7077"><ele>78.0</ele><time>2026-04-04T12:45:15.979Z</time></trkpt><trkpt lat="45.3935883" lon="9.707615"><ele>78.0</ele><time>2026-04-04T12:45:17.979Z</time></trkpt><trkpt lat="45.393675" lon="9.7075317"><ele>78.0</ele><time>2026-04-04T12:45:19.979Z</time></trkpt><trkpt lat="45.3937533" lon="9.707455"><ele>78.0</ele><time>2026-04-04T12:45:21.979Z</time></trkpt><trkpt lat="45.3938333" lon="9.7073717"><ele>78.0</ele><time>2026-04-04T12:45:23.979Z</time></trkpt><trkpt lat="45.393915" lon="9.70729"><ele>78.6</ele><time>2026-04-04T12:45:25.978Z</time></trkpt><trkpt lat="45.3939983" lon="9.707215"><ele>79.19999999999999</ele><time>2026-04-04T12:45:27.979Z</time></trkpt><trkpt lat="45.394085" lon="9.7071433"><ele>79.8</ele><time>2026-04-04T12:45:29.979Z</time></trkpt><trkpt lat="45.3941717" lon="9.70708"><ele>80.39999999999999</ele><time>2026-04-04T12:45:31.979Z</time></trkpt><trkpt lat="45.3942633" lon="9.7070567"><ele>81.0</ele><time>2026-04-04T12:45:33.979Z</time></trkpt><trkpt lat="45.394365" lon="9.7070383"><ele>81.0</ele><time>2026-04-04T12:45:35.979Z</time></trkpt><trkpt lat="45.3944317" lon="9.7070133"><ele>81.0</ele><time>2026-04-04T12:45:37.978Z</time></trkpt><trkpt lat="45.3945167" lon="9.70706"><ele>81.0</ele><time>2026-04-04T12:45:40.978Z</time></trkpt><trkpt lat="45.3945217" lon="9.707165"><ele>81.0</ele><time>2026-04-04T12:47:52.978Z</time></trkpt><trkpt lat="45.3945633" lon="9.7072367"><ele>81.0</ele><time>2026-04-04T12:47:55.978Z</time></trkpt><trkpt lat="45.3946117" lon="9.7073517"><ele>81.0</ele><time>2026-04-04T12:47:58.978Z</time></trkpt><trkpt lat="45.394645" lon="9.7074367"><ele>80.83333333333333</ele><time>2026-04-04T12:48:00.977Z</time></trkpt><trkpt lat="45.394675" lon="9.70753"><ele>80.66666666666667</ele><time>2026-04-04T12:48:02.978Z</time></trkpt><trkpt lat="45.3947083" lon="9.70763"><ele>80.5</ele><time>2026-04-04T12:48:04.978Z</time></trkpt><trkpt lat="45.3947367" lon="9.7077333"><ele>80.33333333333334</ele><time>2026-04-04T12:48:06.977Z</time></trkpt><trkpt lat="45.3947583" lon="9.70784"><ele>80.16666666666667</ele><time>2026-04-04T12:48:08.978Z</time></trkpt><trkpt lat="45.3947917" lon="9.70796"><ele>80.0</ele><time>2026-04-04T12:48:10.978Z</time></trkpt><trkpt lat="45.3948283" lon="9.708085"><ele>80.0</ele><time>2026-04-04T12:48:12.978Z</time></trkpt><trkpt lat="45.39487" lon="9.70821"><ele>80.0</ele><time>2026-04-04T12:48:14.978Z</time></trkpt><trkpt lat="45.3949033" lon="9.70834"><ele>80.0</ele><time>2026-04-04T12:48:16.978Z</time></trkpt><trkpt lat="45.3949417" lon="9.7084683"><ele>80.0</ele><time>2026-04-04T12:48:18.978Z</time></trkpt><trkpt lat="45.3949767" lon="9.7085933"><ele>80.0</ele><time>2026-04-04T12:48:20.978Z</time></trkpt><trkpt lat="45.3950117" lon="9.70872"><ele>80.2</ele><time>2026-04-04T12:48:22.978Z</time></trkpt><trkpt lat="45.3950567" lon="9.70884"><ele>80.4</ele><time>2026-04-04T12:48:24.978Z</time></trkpt><trkpt lat="45.395105" lon="9.7089567"><ele>80.6</ele><time>2026-04-04T12:48:26.978Z</time></trkpt><trkpt lat="45.3951417" lon="9.7090733"><ele>80.8</ele><time>2026-04-04T12:48:28.978Z</time></trkpt><trkpt lat="45.3951967" lon="9.709155"><ele>81.0</ele><time>2026-04-04T12:48:30.978Z</time></trkpt><trkpt lat="45.395285" lon="9.7091933"><ele>81.0</ele><time>2026-04-04T12:48:32.978Z</time></trkpt><trkpt lat="45.3953583" lon="9.7092517"><ele>81.0</ele><time>2026-04-04T12:48:34.978Z</time></trkpt><trkpt lat="45.3954183" lon="9.7093133"><ele>81.0</ele><time>2026-04-04T12:48:36.978Z</time></trkpt><trkpt lat="45.3954867" lon="9.7093833"><ele>81.0</ele><time>2026-04-04T12:48:38.978Z</time></trkpt><trkpt lat="45.3955517" lon="9.70944"><ele>81.0</ele><time>2026-04-04T12:48:40.978Z</time></trkpt><trkpt lat="45.3956183" lon="9.7094833"><ele>81.0</ele><time>2026-04-04T12:48:42.978Z</time></trkpt><trkpt lat="45.3957" lon="9.7095267"><ele>81.16666666666667</ele><time>2026-04-04T12:48:44.978Z</time></trkpt><trkpt lat="45.3957817" lon="9.709565"><ele>81.33333333333333</ele><time>2026-04-04T12:48:46.978Z</time></trkpt><trkpt lat="45.3958633" lon="9.7095967"><ele>81.5</ele><time>2026-04-04T12:48:48.978Z</time></trkpt><trkpt lat="45.3959517" lon="9.70962"><ele>81.66666666666666</ele><time>2026-04-04T12:48:50.977Z</time></trkpt><trkpt lat="45.3960467" lon="9.7096333"><ele>81.83333333333333</ele><time>2026-04-04T12:48:52.977Z</time></trkpt><trkpt lat="45.396135" lon="9.7096417"><ele>82.0</ele><time>2026-04-04T12:48:54.978Z</time></trkpt><trkpt lat="45.3962233" lon="9.7096667"><ele>82.0</ele><time>2026-04-04T12:48:56.978Z</time></trkpt><trkpt lat="45.3963033" lon="9.70973"><ele>82.0</ele><time>2026-04-04T12:48:58.978Z</time></trkpt><trkpt lat="45.3963767" lon="9.7098367"><ele>82.0</ele><time>2026-04-04T12:49:00.978Z</time></trkpt><trkpt lat="45.3964117" lon="9.70997"><ele>82.0</ele><time>2026-04-04T12:49:02.978Z</time></trkpt><trkpt lat="45.3964317" lon="9.7101067"><ele>82.0</ele><time>2026-04-04T12:49:04.977Z</time></trkpt><trkpt lat="45.39645" lon="9.7102233"><ele>82.0</ele><time>2026-04-04T12:49:06.978Z</time></trkpt><trkpt lat="45.3964733" lon="9.7103533"><ele>82.0</ele><time>2026-04-04T12:49:09.978Z</time></trkpt><trkpt lat="45.3965433" lon="9.71031"><ele>82.0</ele><time>2026-04-04T12:49:14.978Z</time></trkpt><trkpt lat="45.3965767" lon="9.7102333"><ele>82.0</ele><time>2026-04-04T12:49:16.978Z</time></trkpt><trkpt lat="45.396625" lon="9.7101317"><ele>82.0</ele><time>2026-04-04T12:49:18.978Z</time></trkpt><trkpt lat="45.3966983" lon="9.7100417"><ele>82.0</ele><time>2026-04-04T12:49:20.978Z</time></trkpt><trkpt lat="45.3967817" lon="9.709995"><ele>81.6</ele><time>2026-04-04T12:49:22.978Z</time></trkpt><trkpt lat="45.3968733" lon="9.7099817"><ele>81.19999999999999</ele><time>2026-04-04T12:49:24.978Z</time></trkpt><trkpt lat="45.3969617" lon="9.7099883"><ele>80.8</ele><time>2026-04-04T12:49:26.977Z</time></trkpt><trkpt lat="45.3970317" lon="9.7100183"><ele>80.4</ele><time>2026-04-04T12:49:28.978Z</time></trkpt><trkpt lat="45.3971367" lon="9.71004"><ele>80.0</ele><time>2026-04-04T12:49:31.977Z</time></trkpt><trkpt lat="45.3972383" lon="9.7100383"><ele>80.0</ele><time>2026-04-04T12:49:33.977Z</time></trkpt><trkpt lat="45.3973167" lon="9.7100883"><ele>80.0</ele><time>2026-04-04T12:49:35.977Z</time></trkpt><trkpt lat="45.3973967" lon="9.710145"><ele>80.0</ele><time>2026-04-04T12:49:37.976Z</time></trkpt><trkpt lat="45.3974883" lon="9.7101733"><ele>80.0</ele><time>2026-04-04T12:49:39.977Z</time></trkpt><trkpt lat="45.3975783" lon="9.71018"><ele>80.0</ele><time>2026-04-04T12:49:41.977Z</time></trkpt><trkpt lat="45.3976667" lon="9.7101917"><ele>80.0</ele><time>2026-04-04T12:49:43.977Z</time></trkpt><trkpt lat="45.3977533" lon="9.7101733"><ele>80.0</ele><time>2026-04-04T12:49:45.977Z</time></trkpt><trkpt lat="45.397845" lon="9.7101617"><ele>80.0</ele><time>2026-04-04T12:49:47.977Z</time></trkpt><trkpt lat="45.3979367" lon="9.7102183"><ele>80.0</ele><time>2026-04-04T12:49:49.977Z</time></trkpt><trkpt lat="45.3980267" lon="9.71031"><ele>80.0</ele><time>2026-04-04T12:49:51.977Z</time></trkpt><trkpt lat="45.3981383" lon="9.7103467"><ele>80.0</ele><time>2026-04-04T12:49:53.977Z</time></trkpt><trkpt lat="45.39824" lon="9.7104017"><ele>80.0</ele><time>2026-04-04T12:49:55.977Z</time></trkpt><trkpt lat="45.3983167" lon="9.7105117"><ele>80.0</ele><time>2026-04-04T12:49:57.977Z</time></trkpt><trkpt lat="45.3983783" lon="9.7106167"><ele>80.0</ele><time>2026-04-04T12:49:59.977Z</time></trkpt><trkpt lat="45.3984433" lon="9.7107183"><ele>80.0</ele><time>2026-04-04T12:50:01.977Z</time></trkpt><trkpt lat="45.3985" lon="9.7108183"><ele>80.0</ele><time>2026-04-04T12:50:03.977Z</time></trkpt><trkpt lat="45.3985583" lon="9.71091"><ele>80.0</ele><time>2026-04-04T12:50:05.977Z</time></trkpt><trkpt lat="45.3986083" lon="9.7109683"><ele>80.0</ele><time>2026-04-04T12:50:07.977Z</time></trkpt><trkpt lat="45.3986667" lon="9.7109133"><ele>80.0</ele><time>2026-04-04T12:50:09.977Z</time></trkpt><trkpt lat="45.3987133" lon="9.7108383"><ele>80.0</ele><time>2026-04-04T12:50:11.977Z</time></trkpt><trkpt lat="45.3987633" lon="9.7107717"><ele>80.0</ele><time>2026-04-04T12:50:13.976Z</time></trkpt><trkpt lat="45.3988367" lon="9.7107583"><ele>80.0</ele><time>2026-04-04T12:50:15.977Z</time></trkpt><trkpt lat="45.3989067" lon="9.710795"><ele>80.0</ele><time>2026-04-04T12:50:17.977Z</time></trkpt><trkpt lat="45.3989683" lon="9.7108783"><ele>80.0</ele><time>2026-04-04T12:50:19.977Z</time></trkpt><trkpt lat="45.399015" lon="9.71099"><ele>80.0</ele><time>2026-04-04T12:50:21.977Z</time></trkpt><trkpt lat="45.3990933" lon="9.711095"><ele>80.0</ele><time>2026-04-04T12:50:23.977Z</time></trkpt><trkpt lat="45.3991833" lon="9.7111933"><ele>80.0</ele><time>2026-04-04T12:50:25.977Z</time></trkpt><trkpt lat="45.3992633" lon="9.711285"><ele>80.0</ele><time>2026-04-04T12:50:27.977Z</time></trkpt><trkpt lat="45.3993383" lon="9.7113617"><ele>80.6</ele><time>2026-04-04T12:50:29.977Z</time></trkpt><trkpt lat="45.3993983" lon="9.7114733"><ele>81.2</ele><time>2026-04-04T12:50:31.977Z</time></trkpt><trkpt lat="45.39946" lon="9.7115767"><ele>81.80000000000001</ele><time>2026-04-04T12:50:33.977Z</time></trkpt><trkpt lat="45.399515" lon="9.7116833"><ele>82.4</ele><time>2026-04-04T12:50:35.977Z</time></trkpt><trkpt lat="45.3995967" lon="9.711805"><ele>83.0</ele><time>2026-04-04T12:50:37.977Z</time></trkpt><trkpt lat="45.3996933" lon="9.7118933"><ele>82.60000000000001</ele><time>2026-04-04T12:50:39.977Z</time></trkpt><trkpt lat="45.3997783" lon="9.711985"><ele>82.2</ele><time>2026-04-04T12:50:41.977Z</time></trkpt><trkpt lat="45.399865" lon="9.7120883"><ele>81.8</ele><time>2026-04-04T12:50:43.977Z</time></trkpt><trkpt lat="45.3999583" lon="9.7121733"><ele>81.4</ele><time>2026-04-04T12:50:45.977Z</time></trkpt><trkpt lat="45.4000517" lon="9.7122267"><ele>81.0</ele><time>2026-04-04T12:50:47.977Z</time></trkpt><trkpt lat="45.4001583" lon="9.7122433"><ele>81.0</ele><time>2026-04-04T12:50:49.977Z</time></trkpt><trkpt lat="45.4002567" lon="9.7123117"><ele>81.0</ele><time>2026-04-04T12:50:51.977Z</time></trkpt><trkpt lat="45.4003633" lon="9.712365"><ele>81.0</ele><time>2026-04-04T12:50:53.977Z</time></trkpt><trkpt lat="45.4004717" lon="9.7123983"><ele>81.0</ele><time>2026-04-04T12:50:55.977Z</time></trkpt><trkpt lat="45.4005867" lon="9.71245"><ele>81.0</ele><time>2026-04-04T12:50:57.977Z</time></trkpt><trkpt lat="45.4006967" lon="9.7125033"><ele>81.0</ele><time>2026-04-04T12:50:59.976Z</time></trkpt><trkpt lat="45.4007967" lon="9.7125317"><ele>81.0</ele><time>2026-04-04T12:51:01.977Z</time></trkpt><trkpt lat="45.4009033" lon="9.7125367"><ele>81.0</ele><time>2026-04-04T12:51:03.977Z</time></trkpt><trkpt lat="45.4010083" lon="9.7125733"><ele>81.0</ele><time>2026-04-04T12:51:05.977Z</time></trkpt><trkpt lat="45.4011083" lon="9.7126133"><ele>81.0</ele><time>2026-04-04T12:51:07.977Z</time></trkpt><trkpt lat="45.4012033" lon="9.71265"><ele>81.0</ele><time>2026-04-04T12:51:09.977Z</time></trkpt><trkpt lat="45.4012917" lon="9.7127183"><ele>81.0</ele><time>2026-04-04T12:51:11.977Z</time></trkpt><trkpt lat="45.4013367" lon="9.7128317"><ele>81.0</ele><time>2026-04-04T12:51:13.976Z</time></trkpt><trkpt lat="45.4013067" lon="9.712965"><ele>81.0</ele><time>2026-04-04T12:51:15.977Z</time></trkpt><trkpt lat="45.401255" lon="9.7130983"><ele>81.0</ele><time>2026-04-04T12:51:17.977Z</time></trkpt><trkpt lat="45.40122" lon="9.7132533"><ele>81.0</ele><time>2026-04-04T12:51:19.977Z</time></trkpt><trkpt lat="45.4011617" lon="9.7133967"><ele>81.0</ele><time>2026-04-04T12:51:21.977Z</time></trkpt><trkpt lat="45.4010717" lon="9.713495"><ele>81.0</ele><time>2026-04-04T12:51:23.977Z</time></trkpt><trkpt lat="45.4009783" lon="9.7135717"><ele>81.19999999999999</ele><time>2026-04-04T12:51:25.977Z</time></trkpt><trkpt lat="45.4008817" lon="9.7136367"><ele>81.39999999999999</ele><time>2026-04-04T12:51:27.977Z</time></trkpt><trkpt lat="45.4008567" lon="9.7137667"><ele>81.6</ele><time>2026-04-04T12:51:29.977Z</time></trkpt><trkpt lat="45.4008583" lon="9.7139267"><ele>81.8</ele><time>2026-04-04T12:51:31.977Z</time></trkpt><trkpt lat="45.4008767" lon="9.7140683"><ele>82.0</ele><time>2026-04-04T12:51:33.977Z</time></trkpt><trkpt lat="45.40092" lon="9.7142083"><ele>82.0</ele><time>2026-04-04T12:51:35.977Z</time></trkpt><trkpt lat="45.4009633" lon="9.7142983"><ele>82.0</ele><time>2026-04-04T12:51:37.977Z</time></trkpt><trkpt lat="45.4010417" lon="9.7143133"><ele>82.0</ele><time>2026-04-04T12:51:39.977Z</time></trkpt><trkpt lat="45.4011267" lon="9.7142283"><ele>82.0</ele><time>2026-04-04T12:51:41.977Z</time></trkpt><trkpt lat="45.4012133" lon="9.714155"><ele>82.0</ele><time>2026-04-04T12:51:43.977Z</time></trkpt><trkpt lat="45.40128" lon="9.7140433"><ele>82.0</ele><time>2026-04-04T12:51:45.977Z</time></trkpt><trkpt lat="45.401325" lon="9.7139117"><ele>82.0</ele><time>2026-04-04T12:51:47.977Z</time></trkpt><trkpt lat="45.4013533" lon="9.7137667"><ele>82.0</ele><time>2026-04-04T12:51:49.977Z</time></trkpt><trkpt lat="45.4013817" lon="9.713605"><ele>82.0</ele><time>2026-04-04T12:51:51.977Z</time></trkpt><trkpt lat="45.401435" lon="9.71346"><ele>82.0</ele><time>2026-04-04T12:51:53.976Z</time></trkpt><trkpt lat="45.401515" lon="9.7133383"><ele>81.8</ele><time>2026-04-04T12:51:55.977Z</time></trkpt><trkpt lat="45.4015917" lon="9.7132067"><ele>81.6</ele><time>2026-04-04T12:51:57.977Z</time></trkpt><trkpt lat="45.4016883" lon="9.7131467"><ele>81.39999999999999</ele><time>2026-04-04T12:51:59.977Z</time></trkpt><trkpt lat="45.40178" lon="9.7132117"><ele>81.19999999999999</ele><time>2026-04-04T12:52:01.977Z</time></trkpt><trkpt lat="45.4018617" lon="9.7133267"><ele>81.0</ele><time>2026-04-04T12:52:03.977Z</time></trkpt><trkpt lat="45.4019467" lon="9.713445"><ele>81.0</ele><time>2026-04-04T12:52:05.976Z</time></trkpt><trkpt lat="45.4020333" lon="9.7135583"><ele>81.0</ele><time>2026-04-04T12:52:07.977Z</time></trkpt><trkpt lat="45.4021133" lon="9.7136667"><ele>81.0</ele><time>2026-04-04T12:52:09.977Z</time></trkpt><trkpt lat="45.4022017" lon="9.7137733"><ele>81.0</ele><time>2026-04-04T12:52:11.977Z</time></trkpt><trkpt lat="45.40225" lon="9.7138333"><ele>81.0</ele><time>2026-04-04T12:52:12.977Z</time></trkpt><trkpt lat="45.402295" lon="9.7138983"><ele>81.33333333333333</ele><time>2026-04-04T12:52:13.976Z</time></trkpt><trkpt lat="45.40234" lon="9.7139633"><ele>81.66666666666667</ele><time>2026-04-04T12:52:14.977Z</time></trkpt><trkpt lat="45.402385" lon="9.7140283"><ele>82.0</ele><time>2026-04-04T12:52:15.976Z</time></trkpt><trkpt lat="45.4024383" lon="9.71409"><ele>82.33333333333334</ele><time>2026-04-04T12:52:16.977Z</time></trkpt><trkpt lat="45.4025417" lon="9.7141983"><ele>82.66666666666667</ele><time>2026-04-04T12:52:18.977Z</time></trkpt><trkpt lat="45.4025983" lon="9.7142517"><ele>83.0</ele><time>2026-04-04T12:52:19.977Z</time></trkpt><trkpt lat="45.4026633" lon="9.7142917"><ele>83.0</ele><time>2026-04-04T12:52:20.976Z</time></trkpt><trkpt lat="45.4027233" lon="9.7143283"><ele>83.0</ele><time>2026-04-04T12:52:21.977Z</time></trkpt><trkpt lat="45.4028333" lon="9.7143983"><ele>83.0</ele><time>2026-04-04T12:52:23.977Z</time></trkpt><trkpt lat="45.4029283" lon="9.7144817"><ele>83.0</ele><time>2026-04-04T12:52:25.977Z</time></trkpt><trkpt lat="45.4030383" lon="9.7145633"><ele>83.0</ele><time>2026-04-04T12:52:27.977Z</time></trkpt><trkpt lat="45.4031433" lon="9.7146267"><ele>83.0</ele><time>2026-04-04T12:52:29.977Z</time></trkpt><trkpt lat="45.4032533" lon="9.71468"><ele>83.0</ele><time>2026-04-04T12:52:31.977Z</time></trkpt><trkpt lat="45.4033683" lon="9.7146883"><ele>83.0</ele><time>2026-04-04T12:52:33.977Z</time></trkpt><trkpt lat="45.4034667" lon="9.7147517"><ele>83.0</ele><time>2026-04-04T12:52:35.977Z</time></trkpt><trkpt lat="45.4035383" lon="9.71487"><ele>83.0</ele><time>2026-04-04T12:52:37.977Z</time></trkpt><trkpt lat="45.403605" lon="9.7150033"><ele>83.0</ele><time>2026-04-04T12:52:39.977Z</time></trkpt><trkpt lat="45.403675" lon="9.7151433"><ele>83.0</ele><time>2026-04-04T12:52:41.977Z</time></trkpt><trkpt lat="45.4037567" lon="9.71527"><ele>83.0</ele><time>2026-04-04T12:52:43.977Z</time></trkpt><trkpt lat="45.4038383" lon="9.7154033"><ele>83.0</ele><time>2026-04-04T12:52:45.977Z</time></trkpt><trkpt lat="45.4039333" lon="9.71551"><ele>83.4</ele><time>2026-04-04T12:52:47.977Z</time></trkpt><trkpt lat="45.4040367" lon="9.7156033"><ele>83.80000000000001</ele><time>2026-04-04T12:52:49.977Z</time></trkpt><trkpt lat="45.4040983" lon="9.71565"><ele>84.2</ele><time>2026-04-04T12:52:50.977Z</time></trkpt><trkpt lat="45.4041517" lon="9.7156983"><ele>84.6</ele><time>2026-04-04T12:52:51.977Z</time></trkpt><trkpt lat="45.4042417" lon="9.7158383"><ele>85.0</ele><time>2026-04-04T12:52:53.977Z</time></trkpt><trkpt lat="45.40427" lon="9.7159217"><ele>85.0</ele><time>2026-04-04T12:52:54.977Z</time></trkpt><trkpt lat="45.4043117" lon="9.71609"><ele>85.0</ele><time>2026-04-04T12:52:56.976Z</time></trkpt><trkpt lat="45.4043283" lon="9.71618"><ele>85.0</ele><time>2026-04-04T12:52:57.977Z</time></trkpt><trkpt lat="45.40435" lon="9.7162667"><ele>85.0</ele><time>2026-04-04T12:52:58.977Z</time></trkpt><trkpt lat="45.40437" lon="9.7163533"><ele>85.0</ele><time>2026-04-04T12:52:59.977Z</time></trkpt><trkpt lat="45.4043883" lon="9.7164417"><ele>85.0</ele><time>2026-04-04T12:53:00.977Z</time></trkpt><trkpt lat="45.404405" lon="9.7165417"><ele>85.0</ele><time>2026-04-04T12:53:02.977Z</time></trkpt><trkpt lat="45.404475" lon="9.7165183"><ele>85.0</ele><time>2026-04-04T12:53:05.977Z</time></trkpt><trkpt lat="45.4045483" lon="9.7163817"><ele>85.0</ele><time>2026-04-04T12:53:07.977Z</time></trkpt><trkpt lat="45.4045917" lon="9.7162967"><ele>85.0</ele><time>2026-04-04T12:53:08.977Z</time></trkpt><trkpt lat="45.4046333" lon="9.7162267"><ele>85.0</ele><time>2026-04-04T12:53:09.977Z</time></trkpt><trkpt lat="45.4047267" lon="9.7161117"><ele>84.8</ele><time>2026-04-04T12:53:11.977Z</time></trkpt><trkpt lat="45.4048217" lon="9.716045"><ele>84.6</ele><time>2026-04-04T12:53:13.977Z</time></trkpt><trkpt lat="45.4049133" lon="9.716025"><ele>84.4</ele><time>2026-04-04T12:53:15.977Z</time></trkpt><trkpt lat="45.4050117" lon="9.7160133"><ele>84.2</ele><time>2026-04-04T12:53:17.977Z</time></trkpt><trkpt lat="45.4050967" lon="9.7160433"><ele>84.0</ele><time>2026-04-04T12:53:19.977Z</time></trkpt><trkpt lat="45.4051533" lon="9.7161683"><ele>84.16666666666667</ele><time>2026-04-04T12:53:21.977Z</time></trkpt><trkpt lat="45.4052133" lon="9.7162567"><ele>84.33333333333333</ele><time>2026-04-04T12:53:23.977Z</time></trkpt><trkpt lat="45.4052917" lon="9.71628"><ele>84.5</ele><time>2026-04-04T12:53:25.977Z</time></trkpt><trkpt lat="45.4053817" lon="9.7163367"><ele>84.66666666666666</ele><time>2026-04-04T12:53:27.977Z</time></trkpt><trkpt lat="45.4054767" lon="9.7164283"><ele>84.83333333333333</ele><time>2026-04-04T12:53:29.977Z</time></trkpt><trkpt lat="45.4055333" lon="9.71647"><ele>85.0</ele><time>2026-04-04T12:53:30.977Z</time></trkpt><trkpt lat="45.40559" lon="9.7165133"><ele>85.0</ele><time>2026-04-04T12:53:31.977Z</time></trkpt><trkpt lat="45.405665" lon="9.71658"><ele>85.0</ele><time>2026-04-04T12:53:33.977Z</time></trkpt><trkpt lat="45.40574" lon="9.7166033"><ele>85.0</ele><time>2026-04-04T12:53:35.977Z</time></trkpt><trkpt lat="45.405815" lon="9.716655"><ele>85.0</ele><time>2026-04-04T12:53:37.977Z</time></trkpt><trkpt lat="45.4058983" lon="9.7167267"><ele>85.0</ele><time>2026-04-04T12:53:39.977Z</time></trkpt><trkpt lat="45.40596" lon="9.71683"><ele>85.0</ele><time>2026-04-04T12:53:41.977Z</time></trkpt><trkpt lat="45.40603" lon="9.7169333"><ele>84.83333333333333</ele><time>2026-04-04T12:53:43.977Z</time></trkpt><trkpt lat="45.4061117" lon="9.717035"><ele>84.66666666666666</ele><time>2026-04-04T12:53:45.977Z</time></trkpt><trkpt lat="45.4061517" lon="9.717105"><ele>84.5</ele><time>2026-04-04T12:53:46.977Z</time></trkpt><trkpt lat="45.406185" lon="9.71719"><ele>84.33333333333333</ele><time>2026-04-04T12:53:47.977Z</time></trkpt><trkpt lat="45.406225" lon="9.717355"><ele>84.16666666666667</ele><time>2026-04-04T12:53:49.976Z</time></trkpt><trkpt lat="45.4062633" lon="9.7174267"><ele>84.0</ele><time>2026-04-04T12:53:50.976Z</time></trkpt><trkpt lat="45.4063533" lon="9.71756"><ele>84.0</ele><time>2026-04-04T12:53:52.976Z</time></trkpt><trkpt lat="45.4063983" lon="9.7176417"><ele>84.0</ele><time>2026-04-04T12:53:53.976Z</time></trkpt><trkpt lat="45.40644" lon="9.7177233"><ele>84.0</ele><time>2026-04-04T12:53:54.975Z</time></trkpt><trkpt lat="45.406485" lon="9.7177967"><ele>84.0</ele><time>2026-04-04T12:53:55.976Z</time></trkpt><trkpt lat="45.4065283" lon="9.7178717"><ele>84.0</ele><time>2026-04-04T12:53:56.976Z</time></trkpt><trkpt lat="45.4065783" lon="9.7179467"><ele>84.0</ele><time>2026-04-04T12:53:57.976Z</time></trkpt><trkpt lat="45.40663" lon="9.7180233"><ele>84.0</ele><time>2026-04-04T12:53:58.976Z</time></trkpt><trkpt lat="45.406675" lon="9.718095"><ele>84.25</ele><time>2026-04-04T12:53:59.976Z</time></trkpt><trkpt lat="45.4067483" lon="9.7182183"><ele>84.5</ele><time>2026-04-04T12:54:01.976Z</time></trkpt><trkpt lat="45.4068317" lon="9.71833"><ele>84.75</ele><time>2026-04-04T12:54:03.976Z</time></trkpt><trkpt lat="45.4069267" lon="9.7184267"><ele>85.0</ele><time>2026-04-04T12:54:05.976Z</time></trkpt><trkpt lat="45.4070133" lon="9.7185483"><ele>85.0</ele><time>2026-04-04T12:54:07.976Z</time></trkpt><trkpt lat="45.4070483" lon="9.7186267"><ele>85.0</ele><time>2026-04-04T12:54:08.976Z</time></trkpt><trkpt lat="45.4071017" lon="9.7187867"><ele>85.0</ele><time>2026-04-04T12:54:10.976Z</time></trkpt><trkpt lat="45.407155" lon="9.7189117"><ele>85.0</ele><time>2026-04-04T12:54:12.976Z</time></trkpt><trkpt lat="45.4072317" lon="9.71896"><ele>85.0</ele><time>2026-04-04T12:54:14.975Z</time></trkpt><trkpt lat="45.4073283" lon="9.718965"><ele>84.4</ele><time>2026-04-04T12:54:16.976Z</time></trkpt><trkpt lat="45.4074367" lon="9.7189533"><ele>83.8</ele><time>2026-04-04T12:54:18.976Z</time></trkpt><trkpt lat="45.4075533" lon="9.71894"><ele>83.19999999999999</ele><time>2026-04-04T12:54:20.976Z</time></trkpt><trkpt lat="45.4076183" lon="9.71893"><ele>82.6</ele><time>2026-04-04T12:54:21.976Z</time></trkpt><trkpt lat="45.407735" lon="9.7189"><ele>82.0</ele><time>2026-04-04T12:54:23.976Z</time></trkpt><trkpt lat="45.40785" lon="9.7188533"><ele>82.0</ele><time>2026-04-04T12:54:25.976Z</time></trkpt><trkpt lat="45.4079583" lon="9.7188"><ele>82.0</ele><time>2026-04-04T12:54:27.976Z</time></trkpt><trkpt lat="45.408055" lon="9.7187383"><ele>82.0</ele><time>2026-04-04T12:54:29.976Z</time></trkpt><trkpt lat="45.408165" lon="9.7186633"><ele>82.0</ele><time>2026-04-04T12:54:31.976Z</time></trkpt><trkpt lat="45.40827" lon="9.71857"><ele>81.8</ele><time>2026-04-04T12:54:33.976Z</time></trkpt><trkpt lat="45.4083233" lon="9.7185167"><ele>81.6</ele><time>2026-04-04T12:54:34.976Z</time></trkpt><trkpt lat="45.4084267" lon="9.7184167"><ele>81.39999999999999</ele><time>2026-04-04T12:54:36.976Z</time></trkpt><trkpt lat="45.4084817" lon="9.7183683"><ele>81.19999999999999</ele><time>2026-04-04T12:54:37.976Z</time></trkpt><trkpt lat="45.408575" lon="9.718275"><ele>81.0</ele><time>2026-04-04T12:54:39.976Z</time></trkpt><trkpt lat="45.4086733" lon="9.7181717"><ele>81.0</ele><time>2026-04-04T12:54:41.975Z</time></trkpt><trkpt lat="45.40877" lon="9.7180683"><ele>81.0</ele><time>2026-04-04T12:54:43.976Z</time></trkpt><trkpt lat="45.4088533" lon="9.7179617"><ele>81.0</ele><time>2026-04-04T12:54:45.975Z</time></trkpt><trkpt lat="45.4089417" lon="9.7178617"><ele>81.0</ele><time>2026-04-04T12:54:47.975Z</time></trkpt><trkpt lat="45.4090367" lon="9.717765"><ele>81.16666666666667</ele><time>2026-04-04T12:54:49.976Z</time></trkpt><trkpt lat="45.4091417" lon="9.7176617"><ele>81.33333333333333</ele><time>2026-04-04T12:54:51.975Z</time></trkpt><trkpt lat="45.4092" lon="9.7176233"><ele>81.5</ele><time>2026-04-04T12:54:52.975Z</time></trkpt><trkpt lat="45.40926" lon="9.7175767"><ele>81.66666666666666</ele><time>2026-04-04T12:54:53.976Z</time></trkpt><trkpt lat="45.40932" lon="9.71754"><ele>81.83333333333333</ele><time>2026-04-04T12:54:54.976Z</time></trkpt><trkpt lat="45.4093783" lon="9.7175017"><ele>82.0</ele><time>2026-04-04T12:54:55.976Z</time></trkpt><trkpt lat="45.4094867" lon="9.7174183"><ele>82.0</ele><time>2026-04-04T12:54:57.976Z</time></trkpt><trkpt lat="45.4095433" lon="9.7173767"><ele>82.0</ele><time>2026-04-04T12:54:58.976Z</time></trkpt><trkpt lat="45.4095983" lon="9.7173317"><ele>82.0</ele><time>2026-04-04T12:54:59.976Z</time></trkpt><trkpt lat="45.4096933" lon="9.71723"><ele>82.0</ele><time>2026-04-04T12:55:01.976Z</time></trkpt><trkpt lat="45.40978" lon="9.7171183"><ele>82.0</ele><time>2026-04-04T12:55:03.976Z</time></trkpt><trkpt lat="45.4097817" lon="9.716815"><ele>82.25</ele><time>2026-04-04T12:55:06.234Z</time></trkpt><trkpt lat="45.4099067" lon="9.7168983"><ele>82.5</ele><time>2026-04-04T12:55:07.416Z</time></trkpt><trkpt lat="45.4100067" lon="9.7168683"><ele>82.75</ele><time>2026-04-04T12:55:09.488Z</time></trkpt><trkpt lat="45.41015" lon="9.7168833"><ele>83.0</ele><time>2026-04-04T12:55:11.988Z</time></trkpt><trkpt lat="45.4102633" lon="9.7169583"><ele>83.33333333333334</ele><time>2026-04-04T12:55:13.988Z</time></trkpt><trkpt lat="45.4103183" lon="9.7170283"><ele>83.66666666666667</ele><time>2026-04-04T12:55:14.988Z</time></trkpt><trkpt lat="45.410355" lon="9.717155"><ele>84.0</ele><time>2026-04-04T12:55:16.988Z</time></trkpt><trkpt lat="45.4103617" lon="9.717265"><ele>84.33333333333333</ele><time>2026-04-04T12:55:18.988Z</time></trkpt><trkpt lat="45.4103617" lon="9.7171733"><ele>84.66666666666666</ele><time>2026-04-04T12:55:24.987Z</time></trkpt><trkpt lat="45.4103433" lon="9.7170517"><ele>85.0</ele><time>2026-04-04T12:55:27.988Z</time></trkpt><trkpt lat="45.4103483" lon="9.7169283"><ele>84.6</ele><time>2026-04-04T12:55:29.988Z</time></trkpt><trkpt lat="45.410355" lon="9.7167933"><ele>84.2</ele><time>2026-04-04T12:55:31.988Z</time></trkpt><trkpt lat="45.410355" lon="9.71666"><ele>83.80000000000001</ele><time>2026-04-04T12:55:33.988Z</time></trkpt><trkpt lat="45.410345" lon="9.7165083"><ele>83.4</ele><time>2026-04-04T12:55:35.988Z</time></trkpt><trkpt lat="45.410335" lon="9.716345"><ele>83.0</ele><time>2026-04-04T12:55:37.988Z</time></trkpt><trkpt lat="45.4103283" lon="9.71616"><ele>83.0</ele><time>2026-04-04T12:55:39.988Z</time></trkpt><trkpt lat="45.4103233" lon="9.716065"><ele>83.0</ele><time>2026-04-04T12:55:40.988Z</time></trkpt><trkpt lat="45.41032" lon="9.71597"><ele>83.0</ele><time>2026-04-04T12:55:41.988Z</time></trkpt><trkpt lat="45.410315" lon="9.7158717"><ele>83.0</ele><time>2026-04-04T12:55:42.988Z</time></trkpt><trkpt lat="45.41031" lon="9.7157767"><ele>83.0</ele><time>2026-04-04T12:55:43.988Z</time></trkpt><trkpt lat="45.410305" lon="9.71568"><ele>83.0</ele><time>2026-04-04T12:55:44.988Z</time></trkpt><trkpt lat="45.410295" lon="9.71558"><ele>83.0</ele><time>2026-04-04T12:55:45.988Z</time></trkpt><trkpt lat="45.4102883" lon="9.7154817"><ele>83.0</ele><time>2026-04-04T12:55:46.987Z</time></trkpt><trkpt lat="45.4102883" lon="9.7153833"><ele>83.0</ele><time>2026-04-04T12:55:47.988Z</time></trkpt><trkpt lat="45.4102983" lon="9.7152917"><ele>83.0</ele><time>2026-04-04T12:55:48.988Z</time></trkpt><trkpt lat="45.4103783" lon="9.7151667"><ele>83.0</ele><time>2026-04-04T12:55:50.988Z</time></trkpt><trkpt lat="45.41044" lon="9.7151467"><ele>83.0</ele><time>2026-04-04T12:55:51.988Z</time></trkpt><trkpt lat="45.4105583" lon="9.7151083"><ele>83.0</ele><time>2026-04-04T12:55:53.988Z</time></trkpt><trkpt lat="45.4106717" lon="9.715085"><ele>83.83333333333334</ele><time>2026-04-04T12:55:55.988Z</time></trkpt><trkpt lat="45.4107733" lon="9.7150883"><ele>84.66666666666667</ele><time>2026-04-04T12:55:57.988Z</time></trkpt><trkpt lat="45.410865" lon="9.7150883"><ele>85.5</ele><time>2026-04-04T12:55:59.988Z</time></trkpt><trkpt lat="45.4109483" lon="9.7150933"><ele>86.33333333333333</ele><time>2026-04-04T12:56:01.988Z</time></trkpt><trkpt lat="45.4110333" lon="9.7150867"><ele>87.16666666666666</ele><time>2026-04-04T12:56:03.988Z</time></trkpt><trkpt lat="45.411115" lon="9.7150833"><ele>88.0</ele><time>2026-04-04T12:56:05.988Z</time></trkpt><trkpt lat="45.4111933" lon="9.71508"><ele>88.0</ele><time>2026-04-04T12:56:07.988Z</time></trkpt><trkpt lat="45.4112733" lon="9.715075"><ele>88.0</ele><time>2026-04-04T12:56:09.988Z</time></trkpt><trkpt lat="45.41135" lon="9.71508"><ele>88.0</ele><time>2026-04-04T12:56:11.988Z</time></trkpt><trkpt lat="45.411415" lon="9.71508"><ele>88.0</ele><time>2026-04-04T12:56:13.988Z</time></trkpt><trkpt lat="45.4114817" lon="9.7150783"><ele>88.0</ele><time>2026-04-04T12:56:15.988Z</time></trkpt><trkpt lat="45.41157" lon="9.715075"><ele>88.0</ele><time>2026-04-04T12:56:18.988Z</time></trkpt><trkpt lat="45.4116517" lon="9.71508"><ele>87.66666666666666</ele><time>2026-04-04T12:56:21.988Z</time></trkpt><trkpt lat="45.4117433" lon="9.7150833"><ele>87.33333333333333</ele><time>2026-04-04T12:56:24.987Z</time></trkpt><trkpt lat="45.4118183" lon="9.7150717"><ele>87.0</ele><time>2026-04-04T12:56:26.988Z</time></trkpt><trkpt lat="45.4118833" lon="9.7150667"><ele>86.66666666666667</ele><time>2026-04-04T12:56:28.988Z</time></trkpt><trkpt lat="45.41196" lon="9.71506"><ele>86.33333333333334</ele><time>2026-04-04T12:56:30.988Z</time></trkpt><trkpt lat="45.41204" lon="9.7150533"><ele>86.0</ele><time>2026-04-04T12:56:32.988Z</time></trkpt><trkpt lat="45.4121117" lon="9.7150567"><ele>85.71428571428572</ele><time>2026-04-04T12:56:34.988Z</time></trkpt><trkpt lat="45.4121783" lon="9.7150583"><ele>85.42857142857143</ele><time>2026-04-04T12:56:37.988Z</time></trkpt><trkpt lat="45.4122767" lon="9.71506"><ele>85.14285714285714</ele><time>2026-04-04T12:56:40.988Z</time></trkpt><trkpt lat="45.4123533" lon="9.7150567"><ele>84.85714285714286</ele><time>2026-04-04T12:56:42.988Z</time></trkpt><trkpt lat="45.4124283" lon="9.715045"><ele>84.57142857142857</ele><time>2026-04-04T12:56:44.988Z</time></trkpt><trkpt lat="45.4124733" lon="9.7149817"><ele>84.28571428571429</ele><time>2026-04-04T12:56:46.988Z</time></trkpt><trkpt lat="45.4124783" lon="9.714885"><ele>84.0</ele><time>2026-04-04T12:56:48.987Z</time></trkpt><trkpt lat="45.4124817" lon="9.714795"><ele>84.0</ele><time>2026-04-04T12:56:50.988Z</time></trkpt><trkpt lat="45.4124933" lon="9.71469"><ele>84.0</ele><time>2026-04-04T12:56:53.988Z</time></trkpt><trkpt lat="45.412545" lon="9.7146167"><ele>84.0</ele><time>2026-04-04T12:56:56.988Z</time></trkpt><trkpt lat="45.4125533" lon="9.7145"><ele>84.0</ele><time>2026-04-04T12:56:58.988Z</time></trkpt><trkpt lat="45.4125433" lon="9.71437"><ele>84.0</ele><time>2026-04-04T12:57:00.988Z</time></trkpt><trkpt lat="45.41253" lon="9.7142217"><ele>84.0</ele><time>2026-04-04T12:57:02.988Z</time></trkpt><trkpt lat="45.4125117" lon="9.7140633"><ele>84.0</ele><time>2026-04-04T12:57:04.988Z</time></trkpt><trkpt lat="45.4124967" lon="9.7138967"><ele>84.0</ele><time>2026-04-04T12:57:06.988Z</time></trkpt><trkpt lat="45.4124817" lon="9.71372"><ele>84.0</ele><time>2026-04-04T12:57:08.988Z</time></trkpt><trkpt lat="45.4124733" lon="9.7136267"><ele>84.0</ele><time>2026-04-04T12:57:09.988Z</time></trkpt><trkpt lat="45.4124517" lon="9.7134483"><ele>84.0</ele><time>2026-04-04T12:57:11.988Z</time></trkpt><trkpt lat="45.4124333" lon="9.7132783"><ele>84.0</ele><time>2026-04-04T12:57:13.987Z</time></trkpt><trkpt lat="45.4124283" lon="9.7131033"><ele>84.0</ele><time>2026-04-04T12:57:15.988Z</time></trkpt><trkpt lat="45.4124333" lon="9.71301"><ele>84.0</ele><time>2026-04-04T12:57:16.988Z</time></trkpt><trkpt lat="45.412435" lon="9.7129133"><ele>84.0</ele><time>2026-04-04T12:57:17.988Z</time></trkpt><trkpt lat="45.41243" lon="9.7128167"><ele>84.0</ele><time>2026-04-04T12:57:18.988Z</time></trkpt><trkpt lat="45.41243" lon="9.7127133"><ele>84.0</ele><time>2026-04-04T12:57:19.988Z</time></trkpt><trkpt lat="45.4124267" lon="9.7126067"><ele>83.83333333333333</ele><time>2026-04-04T12:57:20.988Z</time></trkpt><trkpt lat="45.4124333" lon="9.7124933"><ele>83.66666666666667</ele><time>2026-04-04T12:57:21.987Z</time></trkpt><trkpt lat="45.412455" lon="9.7123917"><ele>83.5</ele><time>2026-04-04T12:57:22.988Z</time></trkpt><trkpt lat="45.41249" lon="9.7122967"><ele>83.33333333333334</ele><time>2026-04-04T12:57:23.988Z</time></trkpt><trkpt lat="45.41254" lon="9.712215"><ele>83.16666666666667</ele><time>2026-04-04T12:57:24.988Z</time></trkpt><trkpt lat="45.41259" lon="9.7121383"><ele>83.0</ele><time>2026-04-04T12:57:25.988Z</time></trkpt><trkpt lat="45.41264" lon="9.7120633"><ele>83.0</ele><time>2026-04-04T12:57:26.988Z</time></trkpt><trkpt lat="45.4126883" lon="9.71199"><ele>83.0</ele><time>2026-04-04T12:57:27.988Z</time></trkpt><trkpt lat="45.4127383" lon="9.7119183"><ele>83.0</ele><time>2026-04-04T12:57:28.988Z</time></trkpt><trkpt lat="45.4127917" lon="9.7118533"><ele>83.0</ele><time>2026-04-04T12:57:29.988Z</time></trkpt><trkpt lat="45.412845" lon="9.71178"><ele>83.0</ele><time>2026-04-04T12:57:30.987Z</time></trkpt><trkpt lat="45.4128933" lon="9.711705"><ele>83.0</ele><time>2026-04-04T12:57:31.988Z</time></trkpt><trkpt lat="45.41295" lon="9.71163"><ele>83.0</ele><time>2026-04-04T12:57:32.988Z</time></trkpt><trkpt lat="45.4130067" lon="9.711555"><ele>83.42857142857143</ele><time>2026-04-04T12:57:33.988Z</time></trkpt><trkpt lat="45.41306" lon="9.71148"><ele>83.85714285714286</ele><time>2026-04-04T12:57:34.988Z</time></trkpt><trkpt lat="45.4131133" lon="9.71141"><ele>84.28571428571429</ele><time>2026-04-04T12:57:35.988Z</time></trkpt><trkpt lat="45.4131683" lon="9.7113467"><ele>84.71428571428572</ele><time>2026-04-04T12:57:36.988Z</time></trkpt><trkpt lat="45.4132217" lon="9.71128"><ele>85.14285714285714</ele><time>2026-04-04T12:57:37.987Z</time></trkpt><trkpt lat="45.4132767" lon="9.7112233"><ele>85.57142857142858</ele><time>2026-04-04T12:57:38.988Z</time></trkpt><trkpt lat="45.4133433" lon="9.7111883"><ele>86.0</ele><time>2026-04-04T12:57:39.988Z</time></trkpt><trkpt lat="45.4134133" lon="9.71117"><ele>86.0</ele><time>2026-04-04T12:57:40.988Z</time></trkpt><trkpt lat="45.413485" lon="9.711165"><ele>86.0</ele><time>2026-04-04T12:57:41.987Z</time></trkpt><trkpt lat="45.4136033" lon="9.7111917"><ele>86.0</ele><time>2026-04-04T12:57:43.988Z</time></trkpt><trkpt lat="45.4137167" lon="9.7112117"><ele>86.0</ele><time>2026-04-04T12:57:45.988Z</time></trkpt><trkpt lat="45.41382" lon="9.71115"><ele>86.0</ele><time>2026-04-04T12:57:47.988Z</time></trkpt><trkpt lat="45.4138733" lon="9.7110983"><ele>86.14285714285715</ele><time>2026-04-04T12:57:48.988Z</time></trkpt><trkpt lat="45.4139267" lon="9.7110367"><ele>86.28571428571429</ele><time>2026-04-04T12:57:49.988Z</time></trkpt><trkpt lat="45.4139817" lon="9.7109717"><ele>86.42857142857143</ele><time>2026-04-04T12:57:50.987Z</time></trkpt><trkpt lat="45.414035" lon="9.7109067"><ele>86.57142857142858</ele><time>2026-04-04T12:57:51.988Z</time></trkpt><trkpt lat="45.41409" lon="9.710845"><ele>86.71428571428572</ele><time>2026-04-04T12:57:52.988Z</time></trkpt><trkpt lat="45.4141467" lon="9.7107917"><ele>86.85714285714286</ele><time>2026-04-04T12:57:53.988Z</time></trkpt><trkpt lat="45.4142117" lon="9.7107583"><ele>87.0</ele><time>2026-04-04T12:57:54.987Z</time></trkpt><trkpt lat="45.414275" lon="9.71074"><ele>87.0</ele><time>2026-04-04T12:57:55.988Z</time></trkpt><trkpt lat="45.4144017" lon="9.7107183"><ele>87.0</ele><time>2026-04-04T12:57:57.988Z</time></trkpt><trkpt lat="45.414465" lon="9.7107033"><ele>87.0</ele><time>2026-04-04T12:57:58.988Z</time></trkpt><trkpt lat="45.4145417" lon="9.7106933"><ele>87.0</ele><time>2026-04-04T12:57:59.988Z</time></trkpt><trkpt lat="45.4146667" lon="9.710675"><ele>87.0</ele><time>2026-04-04T12:58:01.988Z</time></trkpt><trkpt lat="45.4147333" lon="9.7106667"><ele>86.71428571428571</ele><time>2026-04-04T12:58:02.987Z</time></trkpt><trkpt lat="45.4147983" lon="9.71065"><ele>86.42857142857143</ele><time>2026-04-04T12:58:03.988Z</time></trkpt><trkpt lat="45.4148617" lon="9.7106417"><ele>86.14285714285714</ele><time>2026-04-04T12:58:04.988Z</time></trkpt><trkpt lat="45.4149833" lon="9.7106383"><ele>85.85714285714286</ele><time>2026-04-04T12:58:06.988Z</time></trkpt><trkpt lat="45.4150367" lon="9.7106883"><ele>85.57142857142857</ele><time>2026-04-04T12:58:07.988Z</time></trkpt><trkpt lat="45.4150783" lon="9.7107583"><ele>85.28571428571429</ele><time>2026-04-04T12:58:08.988Z</time></trkpt><trkpt lat="45.4151217" lon="9.7108267"><ele>85.0</ele><time>2026-04-04T12:58:09.988Z</time></trkpt><trkpt lat="45.4151667" lon="9.7108983"><ele>85.0</ele><time>2026-04-04T12:58:10.988Z</time></trkpt><trkpt lat="45.41521" lon="9.7109717"><ele>85.0</ele><time>2026-04-04T12:58:11.988Z</time></trkpt><trkpt lat="45.4152533" lon="9.7110417"><ele>85.0</ele><time>2026-04-04T12:58:12.988Z</time></trkpt><trkpt lat="45.4152967" lon="9.71111"><ele>85.0</ele><time>2026-04-04T12:58:13.988Z</time></trkpt><trkpt lat="45.4153383" lon="9.7111833"><ele>85.0</ele><time>2026-04-04T12:58:14.988Z</time></trkpt><trkpt lat="45.4154033" lon="9.7113317"><ele>85.0</ele><time>2026-04-04T12:58:16.988Z</time></trkpt><trkpt lat="45.41544" lon="9.7114083"><ele>84.66666666666666</ele><time>2026-04-04T12:58:17.988Z</time></trkpt><trkpt lat="45.415475" lon="9.7114917"><ele>84.33333333333333</ele><time>2026-04-04T12:58:18.988Z</time></trkpt><trkpt lat="45.4155083" lon="9.7115717"><ele>84.0</ele><time>2026-04-04T12:58:19.988Z</time></trkpt><trkpt lat="45.4155483" lon="9.7116517"><ele>83.66666666666667</ele><time>2026-04-04T12:58:20.988Z</time></trkpt><trkpt lat="45.4155933" lon="9.7117233"><ele>83.33333333333334</ele><time>2026-04-04T12:58:21.988Z</time></trkpt><trkpt lat="45.41564" lon="9.7117883"><ele>83.0</ele><time>2026-04-04T12:58:22.988Z</time></trkpt><trkpt lat="45.4157267" lon="9.711905"><ele>82.83333333333334</ele><time>2026-04-04T12:58:24.988Z</time></trkpt><trkpt lat="45.415825" lon="9.7120083"><ele>82.66666666666667</ele><time>2026-04-04T12:58:26.988Z</time></trkpt><trkpt lat="45.41593" lon="9.712105"><ele>82.5</ele><time>2026-04-04T12:58:28.988Z</time></trkpt><trkpt lat="45.4159883" lon="9.71215"><ele>82.33333333333333</ele><time>2026-04-04T12:58:29.988Z</time></trkpt><trkpt lat="45.4160517" lon="9.7121883"><ele>82.16666666666666</ele><time>2026-04-04T12:58:30.988Z</time></trkpt><trkpt lat="45.4161117" lon="9.7122283"><ele>82.0</ele><time>2026-04-04T12:58:31.988Z</time></trkpt><trkpt lat="45.4161733" lon="9.7122683"><ele>82.0</ele><time>2026-04-04T12:58:32.988Z</time></trkpt><trkpt lat="45.4162883" lon="9.7123333"><ele>82.0</ele><time>2026-04-04T12:58:34.988Z</time></trkpt><trkpt lat="45.4164133" lon="9.7123833"><ele>82.0</ele><time>2026-04-04T12:58:36.988Z</time></trkpt><trkpt lat="45.4164783" lon="9.7124133"><ele>82.0</ele><time>2026-04-04T12:58:37.988Z</time></trkpt><trkpt lat="45.4165433" lon="9.7124333"><ele>82.0</ele><time>2026-04-04T12:58:38.988Z</time></trkpt><trkpt lat="45.41661" lon="9.712455"><ele>82.0</ele><time>2026-04-04T12:58:39.988Z</time></trkpt><trkpt lat="45.4166733" lon="9.7124717"><ele>82.0</ele><time>2026-04-04T12:58:40.988Z</time></trkpt><trkpt lat="45.4167933" lon="9.7125017"><ele>82.0</ele><time>2026-04-04T12:58:42.987Z</time></trkpt><trkpt lat="45.4169167" lon="9.71253"><ele>82.0</ele><time>2026-04-04T12:58:44.987Z</time></trkpt><trkpt lat="45.417045" lon="9.7125533"><ele>82.0</ele><time>2026-04-04T12:58:46.987Z</time></trkpt><trkpt lat="45.41711" lon="9.7125567"><ele>81.83333333333333</ele><time>2026-04-04T12:58:47.987Z</time></trkpt><trkpt lat="45.4171733" lon="9.71256"><ele>81.66666666666666</ele><time>2026-04-04T12:58:48.987Z</time></trkpt><trkpt lat="45.4172383" lon="9.7125583"><ele>81.5</ele><time>2026-04-04T12:58:49.987Z</time></trkpt><trkpt lat="45.4173033" lon="9.7125633"><ele>81.33333333333333</ele><time>2026-04-04T12:58:50.987Z</time></trkpt><trkpt lat="45.41737" lon="9.7125633"><ele>81.16666666666667</ele><time>2026-04-04T12:58:51.987Z</time></trkpt><trkpt lat="45.4174967" lon="9.7125733"><ele>81.0</ele><time>2026-04-04T12:58:53.987Z</time></trkpt><trkpt lat="45.4175617" lon="9.7125767"><ele>81.0</ele><time>2026-04-04T12:58:54.987Z</time></trkpt><trkpt lat="45.4176817" lon="9.7126233"><ele>81.0</ele><time>2026-04-04T12:58:56.987Z</time></trkpt><trkpt lat="45.4177433" lon="9.7126533"><ele>81.0</ele><time>2026-04-04T12:58:57.987Z</time></trkpt><trkpt lat="45.4178033" lon="9.7126833"><ele>81.0</ele><time>2026-04-04T12:58:58.987Z</time></trkpt><trkpt lat="45.4178933" lon="9.71279"><ele>81.0</ele><time>2026-04-04T12:59:00.987Z</time></trkpt><trkpt lat="45.4179817" lon="9.7129133"><ele>81.19999999999999</ele><time>2026-04-04T12:59:02.987Z</time></trkpt><trkpt lat="45.418065" lon="9.7130217"><ele>81.39999999999999</ele><time>2026-04-04T12:59:04.987Z</time></trkpt><trkpt lat="45.41814" lon="9.713115"><ele>81.6</ele><time>2026-04-04T12:59:06.987Z</time></trkpt><trkpt lat="45.4182133" lon="9.7132133"><ele>81.8</ele><time>2026-04-04T12:59:08.987Z</time></trkpt><trkpt lat="45.41829" lon="9.7133"><ele>82.0</ele><time>2026-04-04T12:59:10.987Z</time></trkpt><trkpt lat="45.4183667" lon="9.71338"><ele>82.0</ele><time>2026-04-04T12:59:12.987Z</time></trkpt><trkpt lat="45.4184433" lon="9.7134633"><ele>82.0</ele><time>2026-04-04T12:59:14.987Z</time></trkpt><trkpt lat="45.41852" lon="9.7135417"><ele>82.0</ele><time>2026-04-04T12:59:16.987Z</time></trkpt><trkpt lat="45.418595" lon="9.7136283"><ele>82.0</ele><time>2026-04-04T12:59:18.987Z</time></trkpt><trkpt lat="45.418655" lon="9.7137367"><ele>82.0</ele><time>2026-04-04T12:59:20.987Z</time></trkpt><trkpt lat="45.41869" lon="9.71385"><ele>82.0</ele><time>2026-04-04T12:59:22.987Z</time></trkpt><trkpt lat="45.4187217" lon="9.7139717"><ele>82.0</ele><time>2026-04-04T12:59:24.987Z</time></trkpt><trkpt lat="45.4187617" lon="9.7141"><ele>82.0</ele><time>2026-04-04T12:59:26.987Z</time></trkpt><trkpt lat="45.4188167" lon="9.7142117"><ele>82.0</ele><time>2026-04-04T12:59:28.987Z</time></trkpt><trkpt lat="45.4188833" lon="9.71431"><ele>82.0</ele><time>2026-04-04T12:59:30.986Z</time></trkpt><trkpt lat="45.4189583" lon="9.7143933"><ele>82.19999999999999</ele><time>2026-04-04T12:59:32.987Z</time></trkpt><trkpt lat="45.41903" lon="9.7144833"><ele>82.4</ele><time>2026-04-04T12:59:34.987Z</time></trkpt><trkpt lat="45.419105" lon="9.7145667"><ele>82.6</ele><time>2026-04-04T12:59:36.987Z</time></trkpt><trkpt lat="45.4191783" lon="9.71465"><ele>82.80000000000001</ele><time>2026-04-04T12:59:38.987Z</time></trkpt><trkpt lat="45.41924" lon="9.714735"><ele>83.0</ele><time>2026-04-04T12:59:40.987Z</time></trkpt><trkpt lat="45.4193" lon="9.71481"><ele>83.0</ele><time>2026-04-04T12:59:42.987Z</time></trkpt><trkpt lat="45.4193617" lon="9.71488"><ele>83.0</ele><time>2026-04-04T12:59:44.987Z</time></trkpt><trkpt lat="45.41942" lon="9.71495"><ele>83.0</ele><time>2026-04-04T12:59:46.987Z</time></trkpt><trkpt lat="45.419475" lon="9.715025"><ele>83.0</ele><time>2026-04-04T12:59:48.987Z</time></trkpt><trkpt lat="45.419535" lon="9.715095"><ele>83.0</ele><time>2026-04-04T12:59:50.987Z</time></trkpt><trkpt lat="45.4196033" lon="9.7151667"><ele>83.0</ele><time>2026-04-04T12:59:52.987Z</time></trkpt><trkpt lat="45.4196683" lon="9.7152317"><ele>83.0</ele><time>2026-04-04T12:59:54.987Z</time></trkpt><trkpt lat="45.41973" lon="9.7153083"><ele>83.0</ele><time>2026-04-04T12:59:56.987Z</time></trkpt><trkpt lat="45.4197883" lon="9.7153833"><ele>83.0</ele><time>2026-04-04T12:59:58.987Z</time></trkpt><trkpt lat="45.41986" lon="9.7154117"><ele>83.0</ele><time>2026-04-04T13:00:00.987Z</time></trkpt><trkpt lat="45.419945" lon="9.7153983"><ele>83.0</ele><time>2026-04-04T13:00:02.987Z</time></trkpt><trkpt lat="45.4200267" lon="9.7153683"><ele>83.0</ele><time>2026-04-04T13:00:04.987Z</time></trkpt><trkpt lat="45.4201083" lon="9.715355"><ele>83.0</ele><time>2026-04-04T13:00:06.987Z</time></trkpt><trkpt lat="45.4201833" lon="9.7153417"><ele>83.0</ele><time>2026-04-04T13:00:08.987Z</time></trkpt><trkpt lat="45.4202667" lon="9.7153333"><ele>83.0</ele><time>2026-04-04T13:00:10.987Z</time></trkpt><trkpt lat="45.420355" lon="9.715325"><ele>83.0</ele><time>2026-04-04T13:00:12.987Z</time></trkpt><trkpt lat="45.4204417" lon="9.7153017"><ele>83.0</ele><time>2026-04-04T13:00:14.987Z</time></trkpt><trkpt lat="45.4205267" lon="9.7152983"><ele>83.0</ele><time>2026-04-04T13:00:16.987Z</time></trkpt><trkpt lat="45.4206217" lon="9.7152833"><ele>83.2</ele><time>2026-04-04T13:00:18.987Z</time></trkpt><trkpt lat="45.420715" lon="9.715275"><ele>83.4</ele><time>2026-04-04T13:00:20.987Z</time></trkpt><trkpt lat="45.42081" lon="9.715255"><ele>83.60000000000001</ele><time>2026-04-04T13:00:22.987Z</time></trkpt><trkpt lat="45.42091" lon="9.7152433"><ele>83.80000000000001</ele><time>2026-04-04T13:00:24.987Z</time></trkpt><trkpt lat="45.4210033" lon="9.7152383"><ele>84.0</ele><time>2026-04-04T13:00:26.987Z</time></trkpt><trkpt lat="45.4211033" lon="9.7152267"><ele>84.0</ele><time>2026-04-04T13:00:28.987Z</time></trkpt><trkpt lat="45.4211983" lon="9.715215"><ele>84.0</ele><time>2026-04-04T13:00:30.987Z</time></trkpt><trkpt lat="45.4212883" lon="9.7151983"><ele>84.0</ele><time>2026-04-04T13:00:32.987Z</time></trkpt><trkpt lat="45.4213733" lon="9.7151967"><ele>84.0</ele><time>2026-04-04T13:00:34.987Z</time></trkpt><trkpt lat="45.4214567" lon="9.7151883"><ele>84.0</ele><time>2026-04-04T13:00:36.987Z</time></trkpt><trkpt lat="45.4215367" lon="9.7151717"><ele>84.0</ele><time>2026-04-04T13:00:38.987Z</time></trkpt><trkpt lat="45.421625" lon="9.7151467"><ele>84.0</ele><time>2026-04-04T13:00:40.987Z</time></trkpt><trkpt lat="45.4217267" lon="9.7151367"><ele>84.0</ele><time>2026-04-04T13:00:42.987Z</time></trkpt><trkpt lat="45.42183" lon="9.7151233"><ele>84.0</ele><time>2026-04-04T13:00:44.987Z</time></trkpt><trkpt lat="45.4219383" lon="9.7151033"><ele>84.0</ele><time>2026-04-04T13:00:46.987Z</time></trkpt><trkpt lat="45.4220383" lon="9.715075"><ele>84.0</ele><time>2026-04-04T13:00:48.986Z</time></trkpt><trkpt lat="45.42214" lon="9.7150633"><ele>84.2</ele><time>2026-04-04T13:00:50.987Z</time></trkpt><trkpt lat="45.4222433" lon="9.7151"><ele>84.4</ele><time>2026-04-04T13:00:52.987Z</time></trkpt><trkpt lat="45.4223433" lon="9.7151783"><ele>84.6</ele><time>2026-04-04T13:00:54.987Z</time></trkpt><trkpt lat="45.4224383" lon="9.7152683"><ele>84.8</ele><time>2026-04-04T13:00:56.987Z</time></trkpt><trkpt lat="45.4225283" lon="9.7153467"><ele>85.0</ele><time>2026-04-04T13:00:58.987Z</time></trkpt><trkpt lat="45.4226183" lon="9.715405"><ele>85.0</ele><time>2026-04-04T13:01:00.987Z</time></trkpt><trkpt lat="45.4227217" lon="9.71543"><ele>85.0</ele><time>2026-04-04T13:01:02.987Z</time></trkpt><trkpt lat="45.422815" lon="9.7154233"><ele>85.0</ele><time>2026-04-04T13:01:04.987Z</time></trkpt><trkpt lat="45.4229117" lon="9.7153833"><ele>85.0</ele><time>2026-04-04T13:01:06.987Z</time></trkpt><trkpt lat="45.4229917" lon="9.7153483"><ele>85.0</ele><time>2026-04-04T13:01:08.987Z</time></trkpt><trkpt lat="45.4230767" lon="9.71532"><ele>85.0</ele><time>2026-04-04T13:01:10.987Z</time></trkpt><trkpt lat="45.4231667" lon="9.7152967"><ele>85.0</ele><time>2026-04-04T13:01:12.987Z</time></trkpt><trkpt lat="45.423245" lon="9.7152633"><ele>85.0</ele><time>2026-04-04T13:01:14.986Z</time></trkpt><trkpt lat="45.4233183" lon="9.7152483"><ele>85.0</ele><time>2026-04-04T13:01:16.987Z</time></trkpt><trkpt lat="45.4233917" lon="9.7152183"><ele>85.0</ele><time>2026-04-04T13:01:18.987Z</time></trkpt><trkpt lat="45.42347" lon="9.715185"><ele>85.0</ele><time>2026-04-04T13:01:20.987Z</time></trkpt><trkpt lat="45.4235517" lon="9.7151517"><ele>85.16666666666666</ele><time>2026-04-04T13:01:22.987Z</time></trkpt><trkpt lat="45.4236383" lon="9.7151167"><ele>85.33333333333333</ele><time>2026-04-04T13:01:24.987Z</time></trkpt><trkpt lat="45.4237217" lon="9.7150833"><ele>85.5</ele><time>2026-04-04T13:01:26.987Z</time></trkpt><trkpt lat="45.4238117" lon="9.71508"><ele>85.66666666666667</ele><time>2026-04-04T13:01:28.987Z</time></trkpt><trkpt lat="45.4239017" lon="9.7150833"><ele>85.83333333333334</ele><time>2026-04-04T13:01:30.987Z</time></trkpt><trkpt lat="45.4239917" lon="9.7150983"><ele>86.0</ele><time>2026-04-04T13:01:32.987Z</time></trkpt><trkpt lat="45.424085" lon="9.7150983"><ele>85.6</ele><time>2026-04-04T13:01:34.987Z</time></trkpt><trkpt lat="45.4241833" lon="9.715095"><ele>85.19999999999999</ele><time>2026-04-04T13:01:36.987Z</time></trkpt><trkpt lat="45.424285" lon="9.71509"><ele>84.80000000000001</ele><time>2026-04-04T13:01:38.987Z</time></trkpt><trkpt lat="45.4243867" lon="9.7150983"><ele>84.4</ele><time>2026-04-04T13:01:40.987Z</time></trkpt><trkpt lat="45.424485" lon="9.7151033"><ele>84.0</ele><time>2026-04-04T13:01:42.987Z</time></trkpt><trkpt lat="45.4245867" lon="9.7151133"><ele>84.0</ele><time>2026-04-04T13:01:44.987Z</time></trkpt><trkpt lat="45.4246833" lon="9.7151217"><ele>84.0</ele><time>2026-04-04T13:01:46.987Z</time></trkpt><trkpt lat="45.4247817" lon="9.7151233"><ele>84.0</ele><time>2026-04-04T13:01:48.987Z</time></trkpt><trkpt lat="45.42488" lon="9.7151183"><ele>84.0</ele><time>2026-04-04T13:01:50.987Z</time></trkpt><trkpt lat="45.4249783" lon="9.7151133"><ele>84.0</ele><time>2026-04-04T13:01:52.987Z</time></trkpt><trkpt lat="45.4250767" lon="9.7151367"><ele>84.0</ele><time>2026-04-04T13:01:54.987Z</time></trkpt><trkpt lat="45.425175" lon="9.7151467"><ele>84.0</ele><time>2026-04-04T13:01:56.987Z</time></trkpt><trkpt lat="45.42525" lon="9.7151233"><ele>84.0</ele><time>2026-04-04T13:01:58.987Z</time></trkpt><trkpt lat="45.4253367" lon="9.7151217"><ele>84.0</ele><time>2026-04-04T13:02:01.987Z</time></trkpt><trkpt lat="45.4254017" lon="9.7151333"><ele>84.0</ele><time>2026-04-04T13:02:03.987Z</time></trkpt><trkpt lat="45.42548" lon="9.7151317"><ele>84.0</ele><time>2026-04-04T13:02:06.987Z</time></trkpt><trkpt lat="45.4255617" lon="9.7151433"><ele>83.85714285714286</ele><time>2026-04-04T13:02:09.987Z</time></trkpt><trkpt lat="45.425655" lon="9.7151417"><ele>83.71428571428572</ele><time>2026-04-04T13:02:12.987Z</time></trkpt><trkpt lat="45.42572" lon="9.7151483"><ele>83.57142857142857</ele><time>2026-04-04T13:02:14.987Z</time></trkpt><trkpt lat="45.4257867" lon="9.7151533"><ele>83.42857142857143</ele><time>2026-04-04T13:02:16.987Z</time></trkpt><trkpt lat="45.4258567" lon="9.71515"><ele>83.28571428571429</ele><time>2026-04-04T13:02:18.987Z</time></trkpt><trkpt lat="45.4259333" lon="9.71515"><ele>83.14285714285714</ele><time>2026-04-04T13:02:20.986Z</time></trkpt><trkpt lat="45.42601" lon="9.715155"><ele>83.0</ele><time>2026-04-04T13:02:22.987Z</time></trkpt><trkpt lat="45.4260817" lon="9.7151583"><ele>83.0</ele><time>2026-04-04T13:02:24.987Z</time></trkpt><trkpt lat="45.4261533" lon="9.7151567"><ele>83.0</ele><time>2026-04-04T13:02:26.987Z</time></trkpt><trkpt lat="45.4262233" lon="9.7151633"><ele>83.0</ele><time>2026-04-04T13:02:28.986Z</time></trkpt><trkpt lat="45.426295" lon="9.7151617"><ele>83.0</ele><time>2026-04-04T13:02:30.987Z</time></trkpt><trkpt lat="45.4263767" lon="9.7151667"><ele>83.0</ele><time>2026-04-04T13:02:32.987Z</time></trkpt><trkpt lat="45.4264517" lon="9.715175"><ele>83.0</ele><time>2026-04-04T13:02:34.986Z</time></trkpt><trkpt lat="45.4265283" lon="9.7151767"><ele>83.0</ele><time>2026-04-04T13:02:36.987Z</time></trkpt><trkpt lat="45.426595" lon="9.715185"><ele>83.42857142857143</ele><time>2026-04-04T13:02:38.987Z</time></trkpt><trkpt lat="45.426665" lon="9.715185"><ele>83.85714285714286</ele><time>2026-04-04T13:02:40.987Z</time></trkpt><trkpt lat="45.4267367" lon="9.7151967"><ele>84.28571428571429</ele><time>2026-04-04T13:02:42.987Z</time></trkpt><trkpt lat="45.42681" lon="9.7151933"><ele>84.71428571428572</ele><time>2026-04-04T13:02:44.987Z</time></trkpt><trkpt lat="45.42688" lon="9.715195"><ele>85.14285714285714</ele><time>2026-04-04T13:02:46.987Z</time></trkpt><trkpt lat="45.42696" lon="9.7151917"><ele>85.57142857142858</ele><time>2026-04-04T13:02:48.986Z</time></trkpt><trkpt lat="45.4270383" lon="9.71519"><ele>86.0</ele><time>2026-04-04T13:02:50.987Z</time></trkpt><trkpt lat="45.427115" lon="9.7151883"><ele>86.00000000000001</ele><time>2026-04-04T13:02:52.987Z</time></trkpt><trkpt lat="45.42718" lon="9.7152017"><ele>86.0</ele><time>2026-04-04T13:02:54.987Z</time></trkpt><trkpt lat="45.427255" lon="9.7152033"><ele>86.0</ele><time>2026-04-04T13:02:56.986Z</time></trkpt><trkpt lat="45.4273217" lon="9.7152083"><ele>86.0</ele><time>2026-04-04T13:02:58.987Z</time></trkpt><trkpt lat="45.4273883" lon="9.7151917"><ele>86.0</ele><time>2026-04-04T13:03:00.986Z</time></trkpt><trkpt lat="45.42745" lon="9.71515"><ele>86.00000000000001</ele><time>2026-04-04T13:03:02.987Z</time></trkpt><trkpt lat="45.4275017" lon="9.7150983"><ele>86.0</ele><time>2026-04-04T13:03:04.987Z</time></trkpt><trkpt lat="45.4275467" lon="9.7150333"><ele>86.00000000000001</ele><time>2026-04-04T13:03:06.987Z</time></trkpt><trkpt lat="45.427595" lon="9.7149683"><ele>86.0</ele><time>2026-04-04T13:03:08.987Z</time></trkpt><trkpt lat="45.4276417" lon="9.7149017"><ele>86.0</ele><time>2026-04-04T13:03:10.987Z</time></trkpt><trkpt lat="45.4276967" lon="9.7148383"><ele>86.0</ele><time>2026-04-04T13:03:12.987Z</time></trkpt><trkpt lat="45.4277467" lon="9.7147783"><ele>86.0</ele><time>2026-04-04T13:03:14.987Z</time></trkpt><trkpt lat="45.427805" lon="9.7147267"><ele>86.00000000000001</ele><time>2026-04-04T13:03:16.986Z</time></trkpt><trkpt lat="45.4278617" lon="9.7146683"><ele>86.0</ele><time>2026-04-04T13:03:18.986Z</time></trkpt><trkpt lat="45.4279133" lon="9.7146133"><ele>86.16666666666667</ele><time>2026-04-04T13:03:20.987Z</time></trkpt><trkpt lat="45.427995" lon="9.714545"><ele>86.33333333333334</ele><time>2026-04-04T13:03:23.987Z</time></trkpt><trkpt lat="45.4280467" lon="9.7144933"><ele>86.5</ele><time>2026-04-04T13:03:25.987Z</time></trkpt><trkpt lat="45.4280967" lon="9.7144367"><ele>86.66666666666667</ele><time>2026-04-04T13:03:27.987Z</time></trkpt><trkpt lat="45.4281483" lon="9.7143833"><ele>86.83333333333333</ele><time>2026-04-04T13:03:29.987Z</time></trkpt><trkpt lat="45.428225" lon="9.7143133"><ele>87.0</ele><time>2026-04-04T13:03:32.986Z</time></trkpt><trkpt lat="45.4282883" lon="9.7142333"><ele>87.0</ele><time>2026-04-04T13:03:35.986Z</time></trkpt><trkpt lat="45.4283383" lon="9.7141767"><ele>87.0</ele><time>2026-04-04T13:03:38.986Z</time></trkpt><trkpt lat="45.4283933" lon="9.7141017"><ele>87.0</ele><time>2026-04-04T13:03:42.986Z</time></trkpt><trkpt lat="45.428465" lon="9.7140933"><ele>87.0</ele><time>2026-04-04T13:03:45.986Z</time></trkpt><trkpt lat="45.4285233" lon="9.7141767"><ele>87.0</ele><time>2026-04-04T13:03:47.986Z</time></trkpt><trkpt lat="45.4285883" lon="9.714255"><ele>87.0</ele><time>2026-04-04T13:03:49.986Z</time></trkpt><trkpt lat="45.42867" lon="9.7143217"><ele>87.0</ele><time>2026-04-04T13:03:51.986Z</time></trkpt><trkpt lat="45.4287583" lon="9.7143383"><ele>87.0</ele><time>2026-04-04T13:03:53.986Z</time></trkpt><trkpt lat="45.4288483" lon="9.7142783"><ele>87.0</ele><time>2026-04-04T13:03:55.986Z</time></trkpt><trkpt lat="45.42887" lon="9.714145"><ele>87.0</ele><time>2026-04-04T13:03:57.986Z</time></trkpt><trkpt lat="45.428855" lon="9.714005"><ele>87.0</ele><time>2026-04-04T13:03:59.985Z</time></trkpt><trkpt lat="45.4288467" lon="9.71385"><ele>87.0</ele><time>2026-04-04T13:04:01.986Z</time></trkpt><trkpt lat="45.428825" lon="9.713715"><ele>87.0</ele><time>2026-04-04T13:04:03.986Z</time></trkpt><trkpt lat="45.428775" lon="9.7136067"><ele>87.0</ele><time>2026-04-04T13:04:05.986Z</time></trkpt><trkpt lat="45.4287267" lon="9.713515"><ele>87.0</ele><time>2026-04-04T13:04:07.986Z</time></trkpt><trkpt lat="45.42867" lon="9.71359"><ele>87.0</ele><time>2026-04-04T13:04:11.986Z</time></trkpt><trkpt lat="45.4286633" lon="9.7137867"><ele>87.0</ele><time>2026-04-04T13:04:14.986Z</time></trkpt><trkpt lat="45.4286217" lon="9.7139117"><ele>87.0</ele><time>2026-04-04T13:04:16.986Z</time></trkpt><trkpt lat="45.4285417" lon="9.7139883"><ele>87.0</ele><time>2026-04-04T13:04:18.986Z</time></trkpt><trkpt lat="45.4284433" lon="9.7139433"><ele>87.0</ele><time>2026-04-04T13:04:20.986Z</time></trkpt><trkpt lat="45.428375" lon="9.713825"><ele>87.0</ele><time>2026-04-04T13:04:22.986Z</time></trkpt><trkpt lat="45.4283017" lon="9.7137083"><ele>87.0</ele><time>2026-04-04T13:04:24.986Z</time></trkpt><trkpt lat="45.4282217" lon="9.7135967"><ele>87.0</ele><time>2026-04-04T13:04:26.986Z</time></trkpt><trkpt lat="45.42815" lon="9.7134783"><ele>87.0</ele><time>2026-04-04T13:04:28.986Z</time></trkpt><trkpt lat="45.4280767" lon="9.7133533"><ele>87.0</ele><time>2026-04-04T13:04:30.986Z</time></trkpt><trkpt lat="45.428" lon="9.7132333"><ele>86.8</ele><time>2026-04-04T13:04:32.986Z</time></trkpt><trkpt lat="45.4279317" lon="9.7131167"><ele>86.6</ele><time>2026-04-04T13:04:34.986Z</time></trkpt><trkpt lat="45.4278633" lon="9.7129933"><ele>86.39999999999999</ele><time>2026-04-04T13:04:36.986Z</time></trkpt><trkpt lat="45.4278" lon="9.712865"><ele>86.19999999999999</ele><time>2026-04-04T13:04:38.986Z</time></trkpt><trkpt lat="45.4277417" lon="9.7127333"><ele>86.0</ele><time>2026-04-04T13:04:40.985Z</time></trkpt><trkpt lat="45.427695" lon="9.7125917"><ele>85.5</ele><time>2026-04-04T13:04:42.986Z</time></trkpt><trkpt lat="45.42764" lon="9.7124417"><ele>85.0</ele><time>2026-04-04T13:04:44.986Z</time></trkpt><trkpt lat="45.4275967" lon="9.7122867"><ele>84.5</ele><time>2026-04-04T13:04:46.986Z</time></trkpt><trkpt lat="45.4275583" lon="9.7121367"><ele>84.0</ele><time>2026-04-04T13:04:48.986Z</time></trkpt><trkpt lat="45.427525" lon="9.7119767"><ele>84.2</ele><time>2026-04-04T13:04:50.986Z</time></trkpt><trkpt lat="45.4274933" lon="9.711825"><ele>84.4</ele><time>2026-04-04T13:04:52.986Z</time></trkpt><trkpt lat="45.4274617" lon="9.71167"><ele>84.6</ele><time>2026-04-04T13:04:54.986Z</time></trkpt><trkpt lat="45.427435" lon="9.7115233"><ele>84.8</ele><time>2026-04-04T13:04:56.985Z</time></trkpt><trkpt lat="45.427415" lon="9.71138"><ele>85.0</ele><time>2026-04-04T13:04:58.986Z</time></trkpt><trkpt lat="45.42739" lon="9.711255"><ele>85.0</ele><time>2026-04-04T13:05:00.985Z</time></trkpt><trkpt lat="45.42736" lon="9.7111217"><ele>85.0</ele><time>2026-04-04T13:05:02.986Z</time></trkpt><trkpt lat="45.4273283" lon="9.710985"><ele>85.0</ele><time>2026-04-04T13:05:04.986Z</time></trkpt><trkpt lat="45.4273183" lon="9.71085"><ele>85.0</ele><time>2026-04-04T13:05:06.986Z</time></trkpt><trkpt lat="45.4272917" lon="9.7107167"><ele>85.0</ele><time>2026-04-04T13:05:08.986Z</time></trkpt><trkpt lat="45.4272667" lon="9.7105533"><ele>85.0</ele><time>2026-04-04T13:05:10.986Z</time></trkpt><trkpt lat="45.4272467" lon="9.7104667"><ele>85.0</ele><time>2026-04-04T13:05:11.986Z</time></trkpt><trkpt lat="45.4272183" lon="9.710315"><ele>85.0</ele><time>2026-04-04T13:05:13.986Z</time></trkpt><trkpt lat="45.4271917" lon="9.7101667"><ele>85.0</ele><time>2026-04-04T13:05:15.985Z</time></trkpt><trkpt lat="45.427165" lon="9.710035"><ele>85.0</ele><time>2026-04-04T13:05:17.985Z</time></trkpt><trkpt lat="45.4271417" lon="9.7099083"><ele>85.33333333333333</ele><time>2026-04-04T13:05:19.986Z</time></trkpt><trkpt lat="45.4271233" lon="9.7098033"><ele>85.66666666666666</ele><time>2026-04-04T13:05:21.986Z</time></trkpt><trkpt lat="45.4270083" lon="9.70978"><ele>86.0</ele><time>2026-04-04T13:05:46.986Z</time></trkpt><trkpt lat="45.426945" lon="9.7097917"><ele>86.33333333333333</ele><time>2026-04-04T13:06:03.986Z</time></trkpt><trkpt lat="45.42688" lon="9.709815"><ele>86.66666666666667</ele><time>2026-04-04T13:06:06.986Z</time></trkpt><trkpt lat="45.4267967" lon="9.709855"><ele>87.0</ele><time>2026-04-04T13:06:09.986Z</time></trkpt><trkpt lat="45.42674" lon="9.709895"><ele>87.0</ele><time>2026-04-04T13:06:11.986Z</time></trkpt><trkpt lat="45.4266717" lon="9.7099367"><ele>87.0</ele><time>2026-04-04T13:06:13.986Z</time></trkpt><trkpt lat="45.426595" lon="9.7099733"><ele>87.0</ele><time>2026-04-04T13:06:15.986Z</time></trkpt><trkpt lat="45.4265117" lon="9.7100167"><ele>87.0</ele><time>2026-04-04T13:06:17.986Z</time></trkpt><trkpt lat="45.4264233" lon="9.7100683"><ele>87.0</ele><time>2026-04-04T13:06:19.986Z</time></trkpt><trkpt lat="45.426345" lon="9.7101267"><ele>87.0</ele><time>2026-04-04T13:06:21.985Z</time></trkpt><trkpt lat="45.4262633" lon="9.71019"><ele>86.8</ele><time>2026-04-04T13:06:23.986Z</time></trkpt><trkpt lat="45.4261717" lon="9.7102383"><ele>86.6</ele><time>2026-04-04T13:06:25.986Z</time></trkpt><trkpt lat="45.42609" lon="9.710305"><ele>86.39999999999999</ele><time>2026-04-04T13:06:27.986Z</time></trkpt><trkpt lat="45.426005" lon="9.7103717"><ele>86.19999999999999</ele><time>2026-04-04T13:06:29.986Z</time></trkpt><trkpt lat="45.4259083" lon="9.7104383"><ele>86.0</ele><time>2026-04-04T13:06:31.986Z</time></trkpt><trkpt lat="45.4258133" lon="9.710505"><ele>86.0</ele><time>2026-04-04T13:06:33.986Z</time></trkpt><trkpt lat="45.4257233" lon="9.71058"><ele>86.0</ele><time>2026-04-04T13:06:35.986Z</time></trkpt><trkpt lat="45.4256267" lon="9.710665"><ele>86.0</ele><time>2026-04-04T13:06:37.986Z</time></trkpt><trkpt lat="45.425525" lon="9.710735"><ele>86.0</ele><time>2026-04-04T13:06:39.986Z</time></trkpt><trkpt lat="45.4254383" lon="9.7108217"><ele>86.0</ele><time>2026-04-04T13:06:41.986Z</time></trkpt><trkpt lat="45.42535" lon="9.710905"><ele>85.8</ele><time>2026-04-04T13:06:43.986Z</time></trkpt><trkpt lat="45.42526" lon="9.71098"><ele>85.6</ele><time>2026-04-04T13:06:45.985Z</time></trkpt><trkpt lat="45.4251767" lon="9.7110533"><ele>85.4</ele><time>2026-04-04T13:06:47.985Z</time></trkpt><trkpt lat="45.4250783" lon="9.7111383"><ele>85.2</ele><time>2026-04-04T13:06:49.986Z</time></trkpt><trkpt lat="45.424985" lon="9.71122"><ele>85.0</ele><time>2026-04-04T13:06:51.986Z</time></trkpt><trkpt lat="45.4248867" lon="9.7113083"><ele>85.0</ele><time>2026-04-04T13:06:53.986Z</time></trkpt><trkpt lat="45.4247933" lon="9.7114033"><ele>85.0</ele><time>2026-04-04T13:06:55.986Z</time></trkpt><trkpt lat="45.4246983" lon="9.7115"><ele>85.0</ele><time>2026-04-04T13:06:57.986Z</time></trkpt><trkpt lat="45.4246083" lon="9.7115933"><ele>85.0</ele><time>2026-04-04T13:06:59.986Z</time></trkpt><trkpt lat="45.4245167" lon="9.7116933"><ele>85.2</ele><time>2026-04-04T13:07:01.986Z</time></trkpt><trkpt lat="45.42442" lon="9.711765"><ele>85.4</ele><time>2026-04-04T13:07:03.986Z</time></trkpt><trkpt lat="45.424325" lon="9.7118417"><ele>85.6</ele><time>2026-04-04T13:07:05.986Z</time></trkpt><trkpt lat="45.4242383" lon="9.7119217"><ele>85.8</ele><time>2026-04-04T13:07:07.986Z</time></trkpt><trkpt lat="45.4241483" lon="9.71195"><ele>86.0</ele><time>2026-04-04T13:07:09.986Z</time></trkpt><trkpt lat="45.4240817" lon="9.7118517"><ele>86.0</ele><time>2026-04-04T13:07:11.986Z</time></trkpt><trkpt lat="45.42404" lon="9.7116983"><ele>86.0</ele><time>2026-04-04T13:07:13.985Z</time></trkpt><trkpt lat="45.423985" lon="9.7115667"><ele>86.0</ele><time>2026-04-04T13:07:15.986Z</time></trkpt><trkpt lat="45.4239317" lon="9.7114417"><ele>86.0</ele><time>2026-04-04T13:07:17.986Z</time></trkpt><trkpt lat="45.4238733" lon="9.7113267"><ele>86.0</ele><time>2026-04-04T13:07:19.986Z</time></trkpt><trkpt lat="45.42382" lon="9.7112183"><ele>85.8</ele><time>2026-04-04T13:07:21.986Z</time></trkpt><trkpt lat="45.423775" lon="9.7111083"><ele>85.6</ele><time>2026-04-04T13:07:23.986Z</time></trkpt><trkpt lat="45.423725" lon="9.711"><ele>85.4</ele><time>2026-04-04T13:07:25.986Z</time></trkpt><trkpt lat="45.4236617" lon="9.710905"><ele>85.2</ele><time>2026-04-04T13:07:27.986Z</time></trkpt><trkpt lat="45.423605" lon="9.7107933"><ele>85.0</ele><time>2026-04-04T13:07:29.986Z</time></trkpt><trkpt lat="45.42355" lon="9.7106867"><ele>85.0</ele><time>2026-04-04T13:07:31.986Z</time></trkpt><trkpt lat="45.4234967" lon="9.7105633"><ele>85.0</ele><time>2026-04-04T13:07:33.986Z</time></trkpt><trkpt lat="45.42344" lon="9.710455"><ele>85.0</ele><time>2026-04-04T13:07:35.985Z</time></trkpt><trkpt lat="45.42338" lon="9.71035"><ele>85.0</ele><time>2026-04-04T13:07:37.986Z</time></trkpt><trkpt lat="45.4233117" lon="9.710245"><ele>85.0</ele><time>2026-04-04T13:07:39.986Z</time></trkpt><trkpt lat="45.4232417" lon="9.710145"><ele>84.8</ele><time>2026-04-04T13:07:41.986Z</time></trkpt><trkpt lat="45.4231867" lon="9.7100517"><ele>84.6</ele><time>2026-04-04T13:07:43.986Z</time></trkpt><trkpt lat="45.4231367" lon="9.7099483"><ele>84.4</ele><time>2026-04-04T13:07:45.986Z</time></trkpt><trkpt lat="45.4230717" lon="9.7098417"><ele>84.2</ele><time>2026-04-04T13:07:47.986Z</time></trkpt><trkpt lat="45.423015" lon="9.7097217"><ele>84.0</ele><time>2026-04-04T13:07:49.985Z</time></trkpt><trkpt lat="45.4229467" lon="9.7096083"><ele>83.75</ele><time>2026-04-04T13:07:51.986Z</time></trkpt><trkpt lat="45.4228783" lon="9.7094867"><ele>83.5</ele><time>2026-04-04T13:07:53.985Z</time></trkpt><trkpt lat="45.4228083" lon="9.7093567"><ele>83.25</ele><time>2026-04-04T13:07:55.985Z</time></trkpt><trkpt lat="45.42274" lon="9.7092217"><ele>83.0</ele><time>2026-04-04T13:07:57.985Z</time></trkpt><trkpt lat="45.4226683" lon="9.7090867"><ele>83.0</ele><time>2026-04-04T13:07:59.985Z</time></trkpt><trkpt lat="45.4226" lon="9.7089533"><ele>83.0</ele><time>2026-04-04T13:08:01.985Z</time></trkpt><trkpt lat="45.4225383" lon="9.708815"><ele>83.0</ele><time>2026-04-04T13:08:03.985Z</time></trkpt><trkpt lat="45.422475" lon="9.7086817"><ele>83.0</ele><time>2026-04-04T13:08:05.985Z</time></trkpt><trkpt lat="45.4224117" lon="9.7085483"><ele>83.2</ele><time>2026-04-04T13:08:07.985Z</time></trkpt><trkpt lat="45.422355" lon="9.708425"><ele>83.4</ele><time>2026-04-04T13:08:09.985Z</time></trkpt><trkpt lat="45.422295" lon="9.7083117"><ele>83.60000000000001</ele><time>2026-04-04T13:08:11.985Z</time></trkpt><trkpt lat="45.42224" lon="9.7081967"><ele>83.80000000000001</ele><time>2026-04-04T13:08:13.984Z</time></trkpt><trkpt lat="45.4222267" lon="9.7080583"><ele>84.0</ele><time>2026-04-04T13:08:15.985Z</time></trkpt><trkpt lat="45.42228" lon="9.70796"><ele>84.0</ele><time>2026-04-04T13:08:17.985Z</time></trkpt><trkpt lat="45.4223667" lon="9.7079"><ele>84.0</ele><time>2026-04-04T13:08:19.985Z</time></trkpt><trkpt lat="45.4224567" lon="9.70783"><ele>84.0</ele><time>2026-04-04T13:08:21.985Z</time></trkpt><trkpt lat="45.42255" lon="9.7077617"><ele>84.0</ele><time>2026-04-04T13:08:23.985Z</time></trkpt><trkpt lat="45.422655" lon="9.7076983"><ele>84.0</ele><time>2026-04-04T13:08:25.985Z</time></trkpt><trkpt lat="45.42276" lon="9.7076267"><ele>84.2</ele><time>2026-04-04T13:08:27.985Z</time></trkpt><trkpt lat="45.4228433" lon="9.707535"><ele>84.4</ele><time>2026-04-04T13:08:29.985Z</time></trkpt><trkpt lat="45.4228817" lon="9.7073883"><ele>84.6</ele><time>2026-04-04T13:08:31.985Z</time></trkpt><trkpt lat="45.4228767" lon="9.7072367"><ele>84.8</ele><time>2026-04-04T13:08:33.984Z</time></trkpt><trkpt lat="45.422915" lon="9.7070867"><ele>85.0</ele><time>2026-04-04T13:08:35.985Z</time></trkpt><trkpt lat="45.4229583" lon="9.706935"><ele>85.0</ele><time>2026-04-04T13:08:37.985Z</time></trkpt><trkpt lat="45.4229433" lon="9.70677"><ele>85.0</ele><time>2026-04-04T13:08:39.985Z</time></trkpt><trkpt lat="45.42292" lon="9.7066067"><ele>85.0</ele><time>2026-04-04T13:08:41.985Z</time></trkpt><trkpt lat="45.4229" lon="9.7064617"><ele>85.0</ele><time>2026-04-04T13:08:43.985Z</time></trkpt><trkpt lat="45.4228933" lon="9.706315"><ele>85.0</ele><time>2026-04-04T13:08:45.985Z</time></trkpt><trkpt lat="45.4228883" lon="9.70616"><ele>85.33333333333333</ele><time>2026-04-04T13:08:47.985Z</time></trkpt><trkpt lat="45.4228733" lon="9.7060033"><ele>85.66666666666666</ele><time>2026-04-04T13:08:49.985Z</time></trkpt><trkpt lat="45.4228667" lon="9.70584"><ele>86.0</ele><time>2026-04-04T13:08:51.984Z</time></trkpt><trkpt lat="45.422865" lon="9.7057483"><ele>86.33333333333333</ele><time>2026-04-04T13:08:52.985Z</time></trkpt><trkpt lat="45.4228617" lon="9.7056267"><ele>86.66666666666667</ele><time>2026-04-04T13:08:54.985Z</time></trkpt><trkpt lat="45.422865" lon="9.7055333"><ele>87.0</ele><time>2026-04-04T13:08:56.984Z</time></trkpt><trkpt lat="45.4228167" lon="9.705435"><ele>87.0</ele><time>2026-04-04T13:08:59.985Z</time></trkpt><trkpt lat="45.42275" lon="9.705345"><ele>87.0</ele><time>2026-04-04T13:09:02.984Z</time></trkpt><trkpt lat="45.4226717" lon="9.705275"><ele>87.0</ele><time>2026-04-04T13:09:05.985Z</time></trkpt><trkpt lat="45.4225917" lon="9.705265"><ele>87.0</ele><time>2026-04-04T13:09:07.985Z</time></trkpt><trkpt lat="45.4225033" lon="9.7052667"><ele>87.0</ele><time>2026-04-04T13:09:09.985Z</time></trkpt><trkpt lat="45.4224033" lon="9.7052683"><ele>87.0</ele><time>2026-04-04T13:09:11.985Z</time></trkpt><trkpt lat="45.4223067" lon="9.705275"><ele>87.0</ele><time>2026-04-04T13:09:13.985Z</time></trkpt><trkpt lat="45.4221983" lon="9.7052733"><ele>87.0</ele><time>2026-04-04T13:09:15.985Z</time></trkpt><trkpt lat="45.422095" lon="9.705275"><ele>87.0</ele><time>2026-04-04T13:09:17.985Z</time></trkpt><trkpt lat="45.421995" lon="9.705275"><ele>87.0</ele><time>2026-04-04T13:09:19.985Z</time></trkpt><trkpt lat="45.4218933" lon="9.7052783"><ele>87.0</ele><time>2026-04-04T13:09:21.985Z</time></trkpt><trkpt lat="45.4218" lon="9.7052933"><ele>87.0</ele><time>2026-04-04T13:09:23.985Z</time></trkpt><trkpt lat="45.4217033" lon="9.7053033"><ele>87.0</ele><time>2026-04-04T13:09:25.984Z</time></trkpt><trkpt lat="45.421615" lon="9.705325"><ele>87.0</ele><time>2026-04-04T13:09:27.985Z</time></trkpt><trkpt lat="45.421555" lon="9.7053867"><ele>87.0</ele><time>2026-04-04T13:09:29.985Z</time></trkpt><trkpt lat="45.4214883" lon="9.7054733"><ele>87.0</ele><time>2026-04-04T13:09:31.985Z</time></trkpt><trkpt lat="45.4214183" lon="9.7055817"><ele>87.0</ele><time>2026-04-04T13:09:33.984Z</time></trkpt><trkpt lat="45.42134" lon="9.7056833"><ele>87.0</ele><time>2026-04-04T13:09:35.985Z</time></trkpt><trkpt lat="45.4212283" lon="9.7057333"><ele>87.0</ele><time>2026-04-04T13:09:37.985Z</time></trkpt><trkpt lat="45.4211133" lon="9.7057333"><ele>87.0</ele><time>2026-04-04T13:09:39.984Z</time></trkpt><trkpt lat="45.4210133" lon="9.7057283"><ele>87.0</ele><time>2026-04-04T13:09:41.985Z</time></trkpt><trkpt lat="45.4209117" lon="9.70573"><ele>86.8</ele><time>2026-04-04T13:09:43.985Z</time></trkpt><trkpt lat="45.420815" lon="9.7057433"><ele>86.6</ele><time>2026-04-04T13:09:45.985Z</time></trkpt><trkpt lat="45.4207033" lon="9.705745"><ele>86.39999999999999</ele><time>2026-04-04T13:09:47.985Z</time></trkpt><trkpt lat="45.4205967" lon="9.7057383"><ele>86.19999999999999</ele><time>2026-04-04T13:09:49.985Z</time></trkpt><trkpt lat="45.4204817" lon="9.70573"><ele>86.0</ele><time>2026-04-04T13:09:51.985Z</time></trkpt><trkpt lat="45.4203683" lon="9.7057283"><ele>86.0</ele><time>2026-04-04T13:09:53.985Z</time></trkpt><trkpt lat="45.4202583" lon="9.7057333"><ele>86.0</ele><time>2026-04-04T13:09:55.985Z</time></trkpt><trkpt lat="45.4201533" lon="9.70575"><ele>86.0</ele><time>2026-04-04T13:09:57.985Z</time></trkpt><trkpt lat="45.4200533" lon="9.7057617"><ele>86.0</ele><time>2026-04-04T13:09:59.985Z</time></trkpt><trkpt lat="45.4199467" lon="9.7057583"><ele>86.0</ele><time>2026-04-04T13:10:01.985Z</time></trkpt><trkpt lat="45.4198367" lon="9.705755"><ele>86.0</ele><time>2026-04-04T13:10:03.985Z</time></trkpt><trkpt lat="45.4197267" lon="9.7057567"><ele>86.0</ele><time>2026-04-04T13:10:05.985Z</time></trkpt><trkpt lat="45.419615" lon="9.70578"><ele>86.0</ele><time>2026-04-04T13:10:07.985Z</time></trkpt><trkpt lat="45.4195033" lon="9.7057983"><ele>86.0</ele><time>2026-04-04T13:10:09.985Z</time></trkpt><trkpt lat="45.4194017" lon="9.7058283"><ele>86.0</ele><time>2026-04-04T13:10:11.985Z</time></trkpt><trkpt lat="45.419295" lon="9.705855"><ele>86.0</ele><time>2026-04-04T13:10:13.985Z</time></trkpt><trkpt lat="45.41919" lon="9.705895"><ele>86.0</ele><time>2026-04-04T13:10:15.985Z</time></trkpt><trkpt lat="45.4190783" lon="9.7059267"><ele>86.0</ele><time>2026-04-04T13:10:17.985Z</time></trkpt><trkpt lat="45.4189717" lon="9.7059583"><ele>86.0</ele><time>2026-04-04T13:10:19.985Z</time></trkpt><trkpt lat="45.4188667" lon="9.706"><ele>86.0</ele><time>2026-04-04T13:10:21.985Z</time></trkpt><trkpt lat="45.4187633" lon="9.70605"><ele>86.0</ele><time>2026-04-04T13:10:23.985Z</time></trkpt><trkpt lat="45.4186583" lon="9.706105"><ele>86.0</ele><time>2026-04-04T13:10:25.985Z</time></trkpt><trkpt lat="45.4185533" lon="9.706135"><ele>86.0</ele><time>2026-04-04T13:10:27.985Z</time></trkpt><trkpt lat="45.418465" lon="9.70607"><ele>86.0</ele><time>2026-04-04T13:10:29.985Z</time></trkpt><trkpt lat="45.4184167" lon="9.705955"><ele>86.0</ele><time>2026-04-04T13:10:31.985Z</time></trkpt><trkpt lat="45.4183333" lon="9.7059083"><ele>86.19999999999999</ele><time>2026-04-04T13:10:33.985Z</time></trkpt><trkpt lat="45.418235" lon="9.7059267"><ele>86.39999999999999</ele><time>2026-04-04T13:10:35.985Z</time></trkpt><trkpt lat="45.418135" lon="9.70595"><ele>86.6</ele><time>2026-04-04T13:10:37.985Z</time></trkpt><trkpt lat="45.418035" lon="9.7059667"><ele>86.8</ele><time>2026-04-04T13:10:39.985Z</time></trkpt><trkpt lat="45.4179333" lon="9.705975"><ele>87.0</ele><time>2026-04-04T13:10:41.985Z</time></trkpt><trkpt lat="45.41783" lon="9.7060017"><ele>87.0</ele><time>2026-04-04T13:10:43.985Z</time></trkpt><trkpt lat="45.4177283" lon="9.7060183"><ele>87.0</ele><time>2026-04-04T13:10:45.985Z</time></trkpt><trkpt lat="45.4176183" lon="9.706035"><ele>87.0</ele><time>2026-04-04T13:10:47.985Z</time></trkpt><trkpt lat="45.4175083" lon="9.7060533"><ele>87.0</ele><time>2026-04-04T13:10:49.985Z</time></trkpt><trkpt lat="45.4174033" lon="9.70607"><ele>87.0</ele><time>2026-04-04T13:10:51.985Z</time></trkpt><trkpt lat="45.417315" lon="9.7061283"><ele>87.0</ele><time>2026-04-04T13:10:53.985Z</time></trkpt><trkpt lat="45.4172883" lon="9.7062633"><ele>87.0</ele><time>2026-04-04T13:10:55.985Z</time></trkpt><trkpt lat="45.4172667" lon="9.7063717"><ele>87.0</ele><time>2026-04-04T13:10:57.985Z</time></trkpt><trkpt lat="45.4172017" lon="9.7063717"><ele>87.0</ele><time>2026-04-04T13:12:32.984Z</time></trkpt><trkpt lat="45.41711" lon="9.7064017"><ele>87.0</ele><time>2026-04-04T13:12:35.984Z</time></trkpt><trkpt lat="45.4170283" lon="9.7064233"><ele>87.0</ele><time>2026-04-04T13:12:37.984Z</time></trkpt><trkpt lat="45.4169483" lon="9.7064433"><ele>86.6</ele><time>2026-04-04T13:12:39.984Z</time></trkpt><trkpt lat="45.416855" lon="9.7064667"><ele>86.19999999999999</ele><time>2026-04-04T13:12:41.984Z</time></trkpt><trkpt lat="45.4167633" lon="9.7064917"><ele>85.8</ele><time>2026-04-04T13:12:43.984Z</time></trkpt><trkpt lat="45.4166767" lon="9.7065167"><ele>85.4</ele><time>2026-04-04T13:12:45.983Z</time></trkpt><trkpt lat="45.416585" lon="9.70654"><ele>85.0</ele><time>2026-04-04T13:12:47.984Z</time></trkpt><trkpt lat="45.4164967" lon="9.7065617"><ele>85.0</ele><time>2026-04-04T13:12:49.984Z</time></trkpt><trkpt lat="45.4164017" lon="9.7065917"><ele>85.0</ele><time>2026-04-04T13:12:51.984Z</time></trkpt><trkpt lat="45.4163067" lon="9.7066267"><ele>85.0</ele><time>2026-04-04T13:12:53.984Z</time></trkpt><trkpt lat="45.4162083" lon="9.706635"><ele>85.0</ele><time>2026-04-04T13:12:55.984Z</time></trkpt><trkpt lat="45.41612" lon="9.7065917"><ele>85.0</ele><time>2026-04-04T13:12:57.984Z</time></trkpt><trkpt lat="45.4160333" lon="9.7065033"><ele>85.0</ele><time>2026-04-04T13:12:59.984Z</time></trkpt><trkpt lat="45.4159483" lon="9.706415"><ele>85.0</ele><time>2026-04-04T13:13:01.984Z</time></trkpt><trkpt lat="45.4158583" lon="9.7063383"><ele>85.0</ele><time>2026-04-04T13:13:03.984Z</time></trkpt><trkpt lat="45.4157567" lon="9.706275"><ele>85.0</ele><time>2026-04-04T13:13:05.983Z</time></trkpt><trkpt lat="45.415655" lon="9.70624"><ele>85.0</ele><time>2026-04-04T13:13:07.984Z</time></trkpt><trkpt lat="45.415555" lon="9.70622"><ele>85.0</ele><time>2026-04-04T13:13:09.984Z</time></trkpt><trkpt lat="45.4154467" lon="9.7062267"><ele>85.0</ele><time>2026-04-04T13:13:11.984Z</time></trkpt><trkpt lat="45.4153433" lon="9.7062433"><ele>85.0</ele><time>2026-04-04T13:13:13.984Z</time></trkpt><trkpt lat="45.4152467" lon="9.706275"><ele>85.0</ele><time>2026-04-04T13:13:15.984Z</time></trkpt><trkpt lat="45.4151517" lon="9.7063133"><ele>85.0</ele><time>2026-04-04T13:13:17.984Z</time></trkpt><trkpt lat="45.4150533" lon="9.7063583"><ele>85.0</ele><time>2026-04-04T13:13:19.984Z</time></trkpt><trkpt lat="45.4149567" lon="9.7064067"><ele>85.0</ele><time>2026-04-04T13:13:21.984Z</time></trkpt><trkpt lat="45.4148667" lon="9.7064567"><ele>85.0</ele><time>2026-04-04T13:13:23.984Z</time></trkpt><trkpt lat="45.414785" lon="9.7065067"><ele>85.0</ele><time>2026-04-04T13:13:25.984Z</time></trkpt><trkpt lat="45.4147083" lon="9.70656"><ele>85.0</ele><time>2026-04-04T13:13:27.984Z</time></trkpt><trkpt lat="45.4146367" lon="9.70662"><ele>84.83333333333333</ele><time>2026-04-04T13:13:29.984Z</time></trkpt><trkpt lat="45.4145583" lon="9.706685"><ele>84.66666666666666</ele><time>2026-04-04T13:13:31.984Z</time></trkpt><trkpt lat="45.414485" lon="9.7067417"><ele>84.5</ele><time>2026-04-04T13:13:33.984Z</time></trkpt><trkpt lat="45.41442" lon="9.7067933"><ele>84.33333333333333</ele><time>2026-04-04T13:13:35.984Z</time></trkpt><trkpt lat="45.41436" lon="9.70685"><ele>84.16666666666667</ele><time>2026-04-04T13:13:37.984Z</time></trkpt><trkpt lat="45.4143117" lon="9.7069117"><ele>84.0</ele><time>2026-04-04T13:13:39.983Z</time></trkpt><trkpt lat="45.4142617" lon="9.706985"><ele>83.85714285714286</ele><time>2026-04-04T13:13:41.984Z</time></trkpt><trkpt lat="45.4142083" lon="9.7070517"><ele>83.71428571428572</ele><time>2026-04-04T13:13:43.984Z</time></trkpt><trkpt lat="45.4141583" lon="9.7071117"><ele>83.57142857142857</ele><time>2026-04-04T13:13:45.984Z</time></trkpt><trkpt lat="45.4141017" lon="9.70716"><ele>83.42857142857143</ele><time>2026-04-04T13:13:47.984Z</time></trkpt><trkpt lat="45.4140267" lon="9.7072117"><ele>83.28571428571429</ele><time>2026-04-04T13:13:50.983Z</time></trkpt><trkpt lat="45.4139667" lon="9.7072483"><ele>83.14285714285714</ele><time>2026-04-04T13:13:52.984Z</time></trkpt><trkpt lat="45.413905" lon="9.7073"><ele>83.0</ele><time>2026-04-04T13:13:54.984Z</time></trkpt><trkpt lat="45.4138533" lon="9.70736"><ele>83.0</ele><time>2026-04-04T13:13:56.984Z</time></trkpt><trkpt lat="45.41379" lon="9.7074067"><ele>83.0</ele><time>2026-04-04T13:13:58.984Z</time></trkpt><trkpt lat="45.4137317" lon="9.707465"><ele>83.0</ele><time>2026-04-04T13:14:00.984Z</time></trkpt><trkpt lat="45.4136667" lon="9.707515"><ele>83.0</ele><time>2026-04-04T13:14:02.984Z</time></trkpt><trkpt lat="45.4135917" lon="9.7075717"><ele>83.0</ele><time>2026-04-04T13:14:04.984Z</time></trkpt><trkpt lat="45.4135267" lon="9.7076433"><ele>83.0</ele><time>2026-04-04T13:14:06.984Z</time></trkpt><trkpt lat="45.4134617" lon="9.7077"><ele>83.33333333333334</ele><time>2026-04-04T13:14:08.984Z</time></trkpt><trkpt lat="45.4134067" lon="9.7077667"><ele>83.66666666666667</ele><time>2026-04-04T13:14:10.983Z</time></trkpt><trkpt lat="45.41335" lon="9.707865"><ele>84.0</ele><time>2026-04-04T13:14:12.984Z</time></trkpt><trkpt lat="45.4132917" lon="9.707975"><ele>84.33333333333333</ele><time>2026-04-04T13:14:14.984Z</time></trkpt><trkpt lat="45.4132517" lon="9.708085"><ele>84.66666666666666</ele><time>2026-04-04T13:14:16.984Z</time></trkpt><trkpt lat="45.41321" lon="9.708195"><ele>85.0</ele><time>2026-04-04T13:14:18.984Z</time></trkpt><trkpt lat="45.4131683" lon="9.7083067"><ele>85.0</ele><time>2026-04-04T13:14:20.983Z</time></trkpt><trkpt lat="45.4131267" lon="9.70841"><ele>85.0</ele><time>2026-04-04T13:14:22.984Z</time></trkpt><trkpt lat="45.4130933" lon="9.7085317"><ele>85.0</ele><time>2026-04-04T13:14:24.983Z</time></trkpt><trkpt lat="45.4130717" lon="9.7086533"><ele>85.0</ele><time>2026-04-04T13:14:26.983Z</time></trkpt><trkpt lat="45.4130533" lon="9.7087717"><ele>85.0</ele><time>2026-04-04T13:14:28.984Z</time></trkpt><trkpt lat="45.4130383" lon="9.7088933"><ele>85.0</ele><time>2026-04-04T13:14:30.984Z</time></trkpt><trkpt lat="45.41303" lon="9.7090117"><ele>85.0</ele><time>2026-04-04T13:14:32.984Z</time></trkpt><trkpt lat="45.4130267" lon="9.7091417"><ele>85.0</ele><time>2026-04-04T13:14:34.984Z</time></trkpt><trkpt lat="45.4130233" lon="9.7092683"><ele>85.0</ele><time>2026-04-04T13:14:36.984Z</time></trkpt><trkpt lat="45.41303" lon="9.7093917"><ele>85.0</ele><time>2026-04-04T13:14:38.984Z</time></trkpt><trkpt lat="45.41303" lon="9.7095167"><ele>85.0</ele><time>2026-04-04T13:14:40.984Z</time></trkpt><trkpt lat="45.4130233" lon="9.7096467"><ele>85.0</ele><time>2026-04-04T13:14:42.984Z</time></trkpt><trkpt lat="45.4130117" lon="9.7097733"><ele>85.0</ele><time>2026-04-04T13:14:44.984Z</time></trkpt><trkpt lat="45.4129917" lon="9.7099017"><ele>85.0</ele><time>2026-04-04T13:14:46.984Z</time></trkpt><trkpt lat="45.412935" lon="9.7099883"><ele>85.0</ele><time>2026-04-04T13:14:48.984Z</time></trkpt><trkpt lat="45.4128717" lon="9.7100733"><ele>85.0</ele><time>2026-04-04T13:14:50.984Z</time></trkpt><trkpt lat="45.4127917" lon="9.7101617"><ele>85.0</ele><time>2026-04-04T13:14:52.984Z</time></trkpt><trkpt lat="45.4127233" lon="9.7102567"><ele>84.66666666666666</ele><time>2026-04-04T13:14:54.984Z</time></trkpt><trkpt lat="45.4126583" lon="9.71036"><ele>84.33333333333333</ele><time>2026-04-04T13:14:56.984Z</time></trkpt><trkpt lat="45.412595" lon="9.7104467"><ele>84.0</ele><time>2026-04-04T13:14:58.983Z</time></trkpt><trkpt lat="45.4125383" lon="9.7105333"><ele>83.66666666666667</ele><time>2026-04-04T13:15:00.984Z</time></trkpt><trkpt lat="45.4124767" lon="9.7106183"><ele>83.33333333333334</ele><time>2026-04-04T13:15:02.984Z</time></trkpt><trkpt lat="45.4124117" lon="9.7106933"><ele>83.0</ele><time>2026-04-04T13:15:04.984Z</time></trkpt><trkpt lat="45.41235" lon="9.7107583"><ele>83.0</ele><time>2026-04-04T13:15:06.984Z</time></trkpt><trkpt lat="45.4123117" lon="9.71084"><ele>83.0</ele><time>2026-04-04T13:15:08.984Z</time></trkpt><trkpt lat="45.4123067" lon="9.7109383"><ele>83.0</ele><time>2026-04-04T13:15:10.984Z</time></trkpt><trkpt lat="45.4123083" lon="9.7110533"><ele>83.0</ele><time>2026-04-04T13:15:12.984Z</time></trkpt><trkpt lat="45.412275" lon="9.7111583"><ele>83.0</ele><time>2026-04-04T13:15:14.984Z</time></trkpt><trkpt lat="45.4122" lon="9.7112417"><ele>83.0</ele><time>2026-04-04T13:15:16.984Z</time></trkpt><trkpt lat="45.4121167" lon="9.7112667"><ele>82.5</ele><time>2026-04-04T13:15:18.984Z</time></trkpt><trkpt lat="45.4120283" lon="9.71127"><ele>82.0</ele><time>2026-04-04T13:15:20.984Z</time></trkpt><trkpt lat="45.4119567" lon="9.7112867"><ele>81.5</ele><time>2026-04-04T13:15:22.984Z</time></trkpt><trkpt lat="45.4118917" lon="9.7113"><ele>81.0</ele><time>2026-04-04T13:15:24.984Z</time></trkpt><trkpt lat="45.4118267" lon="9.7113467"><ele>80.5</ele><time>2026-04-04T13:15:33.984Z</time></trkpt><trkpt lat="45.4117783" lon="9.7114333"><ele>80.0</ele><time>2026-04-04T13:15:36.984Z</time></trkpt><trkpt lat="45.41171" lon="9.7115117"><ele>80.0</ele><time>2026-04-04T13:15:38.984Z</time></trkpt><trkpt lat="45.4116433" lon="9.7115633"><ele>80.0</ele><time>2026-04-04T13:15:40.984Z</time></trkpt><trkpt lat="45.4115683" lon="9.7116367"><ele>80.0</ele><time>2026-04-04T13:17:09.983Z</time></trkpt><trkpt lat="45.4114967" lon="9.71169"><ele>80.0</ele><time>2026-04-04T13:17:12.983Z</time></trkpt><trkpt lat="45.411435" lon="9.7117183"><ele>80.0</ele><time>2026-04-04T13:17:14.983Z</time></trkpt><trkpt lat="45.411355" lon="9.7117783"><ele>80.0</ele><time>2026-04-04T13:17:17.983Z</time></trkpt><trkpt lat="45.4113" lon="9.711835"><ele>80.33333333333334</ele><time>2026-04-04T13:17:19.983Z</time></trkpt><trkpt lat="45.4112433" lon="9.7118783"><ele>80.66666666666667</ele><time>2026-04-04T13:17:21.983Z</time></trkpt><trkpt lat="45.4111833" lon="9.7119467"><ele>81.0</ele><time>2026-04-04T13:17:24.983Z</time></trkpt><trkpt lat="45.4111117" lon="9.712015"><ele>81.33333333333333</ele><time>2026-04-04T13:17:27.982Z</time></trkpt><trkpt lat="45.4110383" lon="9.7120933"><ele>81.66666666666666</ele><time>2026-04-04T13:17:30.983Z</time></trkpt><trkpt lat="45.4109667" lon="9.7121533"><ele>82.0</ele><time>2026-04-04T13:17:32.983Z</time></trkpt><trkpt lat="45.41089" lon="9.7122283"><ele>82.0</ele><time>2026-04-04T13:17:34.983Z</time></trkpt><trkpt lat="45.4108117" lon="9.712315"><ele>82.0</ele><time>2026-04-04T13:17:36.983Z</time></trkpt><trkpt lat="45.4107333" lon="9.7123883"><ele>82.0</ele><time>2026-04-04T13:17:38.983Z</time></trkpt><trkpt lat="45.410655" lon="9.7124567"><ele>82.0</ele><time>2026-04-04T13:17:40.982Z</time></trkpt><trkpt lat="45.4105817" lon="9.7125233"><ele>82.0</ele><time>2026-04-04T13:17:42.983Z</time></trkpt><trkpt lat="45.4105067" lon="9.712505"><ele>82.0</ele><time>2026-04-04T13:17:44.983Z</time></trkpt><trkpt lat="45.410485" lon="9.7124067"><ele>82.8</ele><time>2026-04-04T13:17:46.983Z</time></trkpt><trkpt lat="45.4104417" lon="9.7123067"><ele>83.6</ele><time>2026-04-04T13:17:48.983Z</time></trkpt><trkpt lat="45.4103483" lon="9.7123467"><ele>84.39999999999999</ele><time>2026-04-04T13:17:51.983Z</time></trkpt><trkpt lat="45.410255" lon="9.7124317"><ele>85.19999999999999</ele><time>2026-04-04T13:17:53.983Z</time></trkpt><trkpt lat="45.4101617" lon="9.7125217"><ele>86.0</ele><time>2026-04-04T13:17:55.982Z</time></trkpt><trkpt lat="45.4100917" lon="9.7125967"><ele>86.0</ele><time>2026-04-04T13:17:57.982Z</time></trkpt><trkpt lat="45.41003" lon="9.7126733"><ele>86.0</ele><time>2026-04-04T13:17:59.983Z</time></trkpt><trkpt lat="45.4099667" lon="9.7127433"><ele>86.0</ele><time>2026-04-04T13:18:01.983Z</time></trkpt><trkpt lat="45.4098933" lon="9.7128267"><ele>86.0</ele><time>2026-04-04T13:18:03.983Z</time></trkpt><trkpt lat="45.4098083" lon="9.712895"><ele>86.0</ele><time>2026-04-04T13:18:05.983Z</time></trkpt><trkpt lat="45.40971" lon="9.712915"><ele>86.19999999999999</ele><time>2026-04-04T13:18:07.983Z</time></trkpt><trkpt lat="45.409625" lon="9.71289"><ele>86.39999999999999</ele><time>2026-04-04T13:18:09.983Z</time></trkpt><trkpt lat="45.40952" lon="9.7129033"><ele>86.6</ele><time>2026-04-04T13:18:11.983Z</time></trkpt><trkpt lat="45.409425" lon="9.7129133"><ele>86.8</ele><time>2026-04-04T13:18:13.983Z</time></trkpt><trkpt lat="45.4093333" lon="9.7129183"><ele>87.0</ele><time>2026-04-04T13:18:15.983Z</time></trkpt><trkpt lat="45.4092233" lon="9.712925"><ele>87.0</ele><time>2026-04-04T13:18:17.983Z</time></trkpt><trkpt lat="45.4091217" lon="9.71293"><ele>87.0</ele><time>2026-04-04T13:18:19.983Z</time></trkpt><trkpt lat="45.40903" lon="9.7129267"><ele>87.0</ele><time>2026-04-04T13:18:21.983Z</time></trkpt><trkpt lat="45.4089433" lon="9.712925"><ele>87.0</ele><time>2026-04-04T13:18:23.983Z</time></trkpt><trkpt lat="45.4088717" lon="9.71293"><ele>87.0</ele><time>2026-04-04T13:18:25.983Z</time></trkpt><trkpt lat="45.4088067" lon="9.7129467"><ele>87.0</ele><time>2026-04-04T13:18:27.982Z</time></trkpt><trkpt lat="45.40871" lon="9.71295"><ele>86.83333333333333</ele><time>2026-04-04T13:18:50.983Z</time></trkpt><trkpt lat="45.408645" lon="9.71296"><ele>86.66666666666667</ele><time>2026-04-04T13:18:52.983Z</time></trkpt><trkpt lat="45.408565" lon="9.7129717"><ele>86.5</ele><time>2026-04-04T13:18:54.983Z</time></trkpt><trkpt lat="45.4084817" lon="9.7129917"><ele>86.33333333333334</ele><time>2026-04-04T13:18:56.983Z</time></trkpt><trkpt lat="45.4084017" lon="9.7130283"><ele>86.16666666666667</ele><time>2026-04-04T13:18:58.983Z</time></trkpt><trkpt lat="45.408335" lon="9.7130883"><ele>86.0</ele><time>2026-04-04T13:19:00.983Z</time></trkpt><trkpt lat="45.4082717" lon="9.7131667"><ele>86.0</ele><time>2026-04-04T13:19:02.983Z</time></trkpt><trkpt lat="45.4081867" lon="9.713215"><ele>86.0</ele><time>2026-04-04T13:19:04.983Z</time></trkpt><trkpt lat="45.4080933" lon="9.7131917"><ele>86.0</ele><time>2026-04-04T13:19:06.983Z</time></trkpt><trkpt lat="45.407995" lon="9.7131617"><ele>86.0</ele><time>2026-04-04T13:19:08.983Z</time></trkpt><trkpt lat="45.4078917" lon="9.71315"><ele>86.0</ele><time>2026-04-04T13:19:10.983Z</time></trkpt><trkpt lat="45.4078017" lon="9.7131367"><ele>86.19999999999999</ele><time>2026-04-04T13:19:12.983Z</time></trkpt><trkpt lat="45.4077017" lon="9.7131233"><ele>86.39999999999999</ele><time>2026-04-04T13:19:14.983Z</time></trkpt><trkpt lat="45.4075867" lon="9.7131233"><ele>86.6</ele><time>2026-04-04T13:19:16.983Z</time></trkpt><trkpt lat="45.4074817" lon="9.7131367"><ele>86.8</ele><time>2026-04-04T13:19:18.983Z</time></trkpt><trkpt lat="45.407405" lon="9.7131283"><ele>87.0</ele><time>2026-04-04T13:19:20.983Z</time></trkpt><trkpt lat="45.4073417" lon="9.7131317"><ele>87.0</ele><time>2026-04-04T13:19:22.982Z</time></trkpt><trkpt lat="45.4072333" lon="9.7131483"><ele>87.0</ele><time>2026-04-04T13:19:48.982Z</time></trkpt><trkpt lat="45.407145" lon="9.71315"><ele>87.0</ele><time>2026-04-04T13:19:51.983Z</time></trkpt><trkpt lat="45.4070717" lon="9.7131633"><ele>87.0</ele><time>2026-04-04T13:19:53.983Z</time></trkpt><trkpt lat="45.4070067" lon="9.71319"><ele>87.0</ele><time>2026-04-04T13:19:55.983Z</time></trkpt><trkpt lat="45.40694" lon="9.71326"><ele>87.0</ele><time>2026-04-04T13:19:57.983Z</time></trkpt><trkpt lat="45.406865" lon="9.71333"><ele>87.8</ele><time>2026-04-04T13:19:59.983Z</time></trkpt><trkpt lat="45.4068" lon="9.7134117"><ele>88.6</ele><time>2026-04-04T13:20:01.983Z</time></trkpt><trkpt lat="45.4067033" lon="9.7134667"><ele>89.39999999999999</ele><time>2026-04-04T13:20:03.982Z</time></trkpt><trkpt lat="45.40661" lon="9.71352"><ele>90.19999999999999</ele><time>2026-04-04T13:20:05.982Z</time></trkpt><trkpt lat="45.4065167" lon="9.7135767"><ele>91.0</ele><time>2026-04-04T13:20:07.983Z</time></trkpt><trkpt lat="45.4064267" lon="9.7136267"><ele>91.0</ele><time>2026-04-04T13:20:09.983Z</time></trkpt><trkpt lat="45.406335" lon="9.7137083"><ele>91.0</ele><time>2026-04-04T13:20:11.983Z</time></trkpt><trkpt lat="45.4062433" lon="9.713775"><ele>91.0</ele><time>2026-04-04T13:20:13.982Z</time></trkpt><trkpt lat="45.40615" lon="9.7138233"><ele>91.0</ele><time>2026-04-04T13:20:15.983Z</time></trkpt><trkpt lat="45.40605" lon="9.713835"><ele>91.0</ele><time>2026-04-04T13:20:17.983Z</time></trkpt><trkpt lat="45.4059483" lon="9.7138067"><ele>91.19999999999999</ele><time>2026-04-04T13:20:19.983Z</time></trkpt><trkpt lat="45.4058517" lon="9.7137583"><ele>91.39999999999999</ele><time>2026-04-04T13:20:21.983Z</time></trkpt><trkpt lat="45.40574" lon="9.7137483"><ele>91.6</ele><time>2026-04-04T13:20:23.982Z</time></trkpt><trkpt lat="45.405635" lon="9.713705"><ele>91.8</ele><time>2026-04-04T13:20:25.983Z</time></trkpt><trkpt lat="45.40556" lon="9.713625"><ele>92.0</ele><time>2026-04-04T13:20:27.983Z</time></trkpt><trkpt lat="45.405535" lon="9.7135367"><ele>92.0</ele><time>2026-04-04T13:20:29.983Z</time></trkpt><trkpt lat="45.4055317" lon="9.713425"><ele>92.0</ele><time>2026-04-04T13:20:42.982Z</time></trkpt><trkpt lat="45.4055" lon="9.713295"><ele>92.0</ele><time>2026-04-04T13:20:45.982Z</time></trkpt><trkpt lat="45.4054867" lon="9.7131733"><ele>92.0</ele><time>2026-04-04T13:20:47.982Z</time></trkpt><trkpt lat="45.4054717" lon="9.7130433"><ele>92.0</ele><time>2026-04-04T13:20:49.982Z</time></trkpt><trkpt lat="45.405455" lon="9.71292"><ele>92.0</ele><time>2026-04-04T13:20:51.982Z</time></trkpt><trkpt lat="45.4054383" lon="9.7128067"><ele>90.66666666666667</ele><time>2026-04-04T13:20:53.982Z</time></trkpt><trkpt lat="45.4054233" lon="9.7127033"><ele>89.33333333333334</ele><time>2026-04-04T13:20:55.982Z</time></trkpt><trkpt lat="45.4054033" lon="9.7125867"><ele>88.0</ele><time>2026-04-04T13:20:57.982Z</time></trkpt><trkpt lat="45.4053833" lon="9.7124783"><ele>86.66666666666667</ele><time>2026-04-04T13:20:59.982Z</time></trkpt><trkpt lat="45.4053867" lon="9.7123717"><ele>85.33333333333333</ele><time>2026-04-04T13:21:01.982Z</time></trkpt><trkpt lat="45.4053767" lon="9.7122467"><ele>84.0</ele><time>2026-04-04T13:21:03.982Z</time></trkpt><trkpt lat="45.405335" lon="9.7121433"><ele>84.0</ele><time>2026-04-04T13:21:05.982Z</time></trkpt><trkpt lat="45.4052633" lon="9.7120917"><ele>84.0</ele><time>2026-04-04T13:21:07.982Z</time></trkpt><trkpt lat="45.40519" lon="9.7120383"><ele>84.0</ele><time>2026-04-04T13:21:09.982Z</time></trkpt><trkpt lat="45.4051083" lon="9.711945"><ele>84.0</ele><time>2026-04-04T13:21:12.982Z</time></trkpt><trkpt lat="45.405045" lon="9.7118533"><ele>84.0</ele><time>2026-04-04T13:21:14.982Z</time></trkpt><trkpt lat="45.4049867" lon="9.7117733"><ele>84.0</ele><time>2026-04-04T13:21:16.982Z</time></trkpt><trkpt lat="45.40492" lon="9.7117117"><ele>84.0</ele><time>2026-04-04T13:21:18.982Z</time></trkpt><trkpt lat="45.4048483" lon="9.7116567"><ele>84.0</ele><time>2026-04-04T13:21:20.982Z</time></trkpt><trkpt lat="45.40478" lon="9.7115833"><ele>84.0</ele><time>2026-04-04T13:21:22.982Z</time></trkpt><trkpt lat="45.4047133" lon="9.711535"><ele>84.0</ele><time>2026-04-04T13:21:24.981Z</time></trkpt><trkpt lat="45.4046567" lon="9.7114617"><ele>84.0</ele><time>2026-04-04T13:21:26.982Z</time></trkpt><trkpt lat="45.4046033" lon="9.7113783"><ele>84.0</ele><time>2026-04-04T13:21:28.982Z</time></trkpt><trkpt lat="45.4045117" lon="9.7113483"><ele>84.0</ele><time>2026-04-04T13:21:31.982Z</time></trkpt><trkpt lat="45.40445" lon="9.7113183"><ele>84.0</ele><time>2026-04-04T13:21:33.982Z</time></trkpt><trkpt lat="45.4043917" lon="9.711265"><ele>84.0</ele><time>2026-04-04T13:21:35.982Z</time></trkpt><trkpt lat="45.40433" lon="9.7111983"><ele>84.0</ele><time>2026-04-04T13:21:37.981Z</time></trkpt><trkpt lat="45.4043067" lon="9.711105"><ele>84.0</ele><time>2026-04-04T13:21:39.982Z</time></trkpt><trkpt lat="45.404295" lon="9.711015"><ele>84.0</ele><time>2026-04-04T13:21:41.982Z</time></trkpt><trkpt lat="45.4042433" lon="9.7109483"><ele>84.0</ele><time>2026-04-04T13:21:44.982Z</time></trkpt><trkpt lat="45.4041767" lon="9.7109467"><ele>83.66666666666667</ele><time>2026-04-04T13:21:48.982Z</time></trkpt><trkpt lat="45.4041117" lon="9.7109567"><ele>83.33333333333333</ele><time>2026-04-04T13:21:51.982Z</time></trkpt><trkpt lat="45.40403" lon="9.7109533"><ele>83.0</ele><time>2026-04-04T13:21:54.982Z</time></trkpt><trkpt lat="45.4039617" lon="9.7109267"><ele>82.66666666666666</ele><time>2026-04-04T13:21:57.982Z</time></trkpt><trkpt lat="45.4038683" lon="9.7109083"><ele>82.33333333333333</ele><time>2026-04-04T13:22:00.981Z</time></trkpt><trkpt lat="45.403795" lon="9.7109033"><ele>82.0</ele><time>2026-04-04T13:22:02.982Z</time></trkpt><trkpt lat="45.4037183" lon="9.7109033"><ele>82.0</ele><time>2026-04-04T13:22:04.982Z</time></trkpt><trkpt lat="45.403655" lon="9.7109067"><ele>82.0</ele><time>2026-04-04T13:22:06.982Z</time></trkpt><trkpt lat="45.4035883" lon="9.7109067"><ele>82.0</ele><time>2026-04-04T13:22:08.982Z</time></trkpt><trkpt lat="45.4035033" lon="9.7109133"><ele>82.0</ele><time>2026-04-04T13:22:11.982Z</time></trkpt><trkpt lat="45.4034183" lon="9.7109083"><ele>82.0</ele><time>2026-04-04T13:22:13.982Z</time></trkpt><trkpt lat="45.4033233" lon="9.7108783"><ele>82.0</ele><time>2026-04-04T13:22:15.982Z</time></trkpt><trkpt lat="45.403225" lon="9.7109067"><ele>82.0</ele><time>2026-04-04T13:22:17.982Z</time></trkpt><trkpt lat="45.403135" lon="9.7109583"><ele>82.0</ele><time>2026-04-04T13:22:19.982Z</time></trkpt><trkpt lat="45.4030717" lon="9.71101"><ele>82.0</ele><time>2026-04-04T13:22:21.981Z</time></trkpt><trkpt lat="45.4029933" lon="9.7110317"><ele>82.0</ele><time>2026-04-04T13:22:24.982Z</time></trkpt><trkpt lat="45.4028917" lon="9.7110467"><ele>82.0</ele><time>2026-04-04T13:22:27.982Z</time></trkpt><trkpt lat="45.40282" lon="9.7110667"><ele>82.0</ele><time>2026-04-04T13:22:29.982Z</time></trkpt><trkpt lat="45.4027433" lon="9.711095"><ele>81.83333333333333</ele><time>2026-04-04T13:22:31.981Z</time></trkpt><trkpt lat="45.4026617" lon="9.7111267"><ele>81.66666666666666</ele><time>2026-04-04T13:22:33.982Z</time></trkpt><trkpt lat="45.4025883" lon="9.7111383"><ele>81.5</ele><time>2026-04-04T13:22:35.981Z</time></trkpt><trkpt lat="45.4025167" lon="9.711155"><ele>81.33333333333333</ele><time>2026-04-04T13:22:37.982Z</time></trkpt><trkpt lat="45.4024417" lon="9.7111767"><ele>81.16666666666667</ele><time>2026-04-04T13:22:39.982Z</time></trkpt><trkpt lat="45.40235" lon="9.7112033"><ele>81.0</ele><time>2026-04-04T13:22:41.982Z</time></trkpt><trkpt lat="45.4022717" lon="9.7112233"><ele>81.0</ele><time>2026-04-04T13:22:43.982Z</time></trkpt><trkpt lat="45.40219" lon="9.7112483"><ele>81.0</ele><time>2026-04-04T13:22:45.982Z</time></trkpt><trkpt lat="45.4021283" lon="9.7113067"><ele>81.0</ele><time>2026-04-04T13:22:47.982Z</time></trkpt><trkpt lat="45.40208" lon="9.7113917"><ele>81.0</ele><time>2026-04-04T13:22:49.982Z</time></trkpt><trkpt lat="45.4020433" lon="9.711495"><ele>81.0</ele><time>2026-04-04T13:22:51.982Z</time></trkpt><trkpt lat="45.4020067" lon="9.711595"><ele>81.0</ele><time>2026-04-04T13:22:53.982Z</time></trkpt><trkpt lat="45.4019483" lon="9.7116767"><ele>80.8</ele><time>2026-04-04T13:22:55.982Z</time></trkpt><trkpt lat="45.4018733" lon="9.7117233"><ele>80.6</ele><time>2026-04-04T13:28:20.981Z</time></trkpt><trkpt lat="45.401785" lon="9.7116633"><ele>80.4</ele><time>2026-04-04T13:28:23.981Z</time></trkpt><trkpt lat="45.4016917" lon="9.7116383"><ele>80.2</ele><time>2026-04-04T13:28:25.981Z</time></trkpt><trkpt lat="45.4015933" lon="9.711615"><ele>80.0</ele><time>2026-04-04T13:28:27.981Z</time></trkpt><trkpt lat="45.4014933" lon="9.7115967"><ele>80.0</ele><time>2026-04-04T13:28:29.98Z</time></trkpt><trkpt lat="45.4014033" lon="9.7115717"><ele>80.0</ele><time>2026-04-04T13:28:31.981Z</time></trkpt><trkpt lat="45.401315" lon="9.7115383"><ele>80.0</ele><time>2026-04-04T13:28:33.981Z</time></trkpt><trkpt lat="45.401225" lon="9.7114967"><ele>80.0</ele><time>2026-04-04T13:28:35.981Z</time></trkpt><trkpt lat="45.40115" lon="9.7114317"><ele>80.0</ele><time>2026-04-04T13:28:37.981Z</time></trkpt><trkpt lat="45.401075" lon="9.7113617"><ele>80.2</ele><time>2026-04-04T13:28:39.981Z</time></trkpt><trkpt lat="45.4009833" lon="9.7112833"><ele>80.4</ele><time>2026-04-04T13:28:41.981Z</time></trkpt><trkpt lat="45.4009" lon="9.7112117"><ele>80.6</ele><time>2026-04-04T13:28:43.981Z</time></trkpt><trkpt lat="45.400825" lon="9.7111533"><ele>80.8</ele><time>2026-04-04T13:28:45.981Z</time></trkpt><trkpt lat="45.4007417" lon="9.7110983"><ele>81.0</ele><time>2026-04-04T13:28:47.981Z</time></trkpt><trkpt lat="45.40066" lon="9.7110617"><ele>81.0</ele><time>2026-04-04T13:28:49.981Z</time></trkpt><trkpt lat="45.40059" lon="9.710985"><ele>81.0</ele><time>2026-04-04T13:28:51.981Z</time></trkpt><trkpt lat="45.4005267" lon="9.7108783"><ele>81.0</ele><time>2026-04-04T13:28:53.981Z</time></trkpt><trkpt lat="45.4004717" lon="9.7107817"><ele>81.0</ele><time>2026-04-04T13:28:55.981Z</time></trkpt><trkpt lat="45.4004067" lon="9.7107"><ele>81.0</ele><time>2026-04-04T13:28:57.981Z</time></trkpt><trkpt lat="45.4003483" lon="9.7106067"><ele>81.0</ele><time>2026-04-04T13:28:59.981Z</time></trkpt><trkpt lat="45.4002717" lon="9.7105283"><ele>81.4</ele><time>2026-04-04T13:29:01.981Z</time></trkpt><trkpt lat="45.4001883" lon="9.7104317"><ele>81.8</ele><time>2026-04-04T13:29:03.981Z</time></trkpt><trkpt lat="45.4001017" lon="9.71035"><ele>82.2</ele><time>2026-04-04T13:29:05.981Z</time></trkpt><trkpt lat="45.4000167" lon="9.7102783"><ele>82.60000000000001</ele><time>2026-04-04T13:29:07.981Z</time></trkpt><trkpt lat="45.3999217" lon="9.710215"><ele>83.0</ele><time>2026-04-04T13:29:09.98Z</time></trkpt><trkpt lat="45.399825" lon="9.7101633"><ele>82.2</ele><time>2026-04-04T13:29:11.981Z</time></trkpt><trkpt lat="45.3997283" lon="9.7101017"><ele>81.4</ele><time>2026-04-04T13:29:13.981Z</time></trkpt><trkpt lat="45.3996267" lon="9.7100367"><ele>80.60000000000001</ele><time>2026-04-04T13:29:15.981Z</time></trkpt><trkpt lat="45.399535" lon="9.7099767"><ele>79.80000000000001</ele><time>2026-04-04T13:29:17.981Z</time></trkpt><trkpt lat="45.399435" lon="9.7099333"><ele>79.0</ele><time>2026-04-04T13:29:19.981Z</time></trkpt><trkpt lat="45.3993383" lon="9.709865"><ele>79.0</ele><time>2026-04-04T13:29:21.981Z</time></trkpt><trkpt lat="45.3992817" lon="9.7098233"><ele>79.0</ele><time>2026-04-04T13:29:22.981Z</time></trkpt><trkpt lat="45.3991833" lon="9.7097283"><ele>79.0</ele><time>2026-04-04T13:29:24.98Z</time></trkpt><trkpt lat="45.3990983" lon="9.70961"><ele>79.0</ele><time>2026-04-04T13:29:26.981Z</time></trkpt><trkpt lat="45.3990517" lon="9.7095467"><ele>79.0</ele><time>2026-04-04T13:29:27.981Z</time></trkpt><trkpt lat="45.39896" lon="9.7094317"><ele>79.2</ele><time>2026-04-04T13:29:29.981Z</time></trkpt><trkpt lat="45.3988633" lon="9.7093233"><ele>79.4</ele><time>2026-04-04T13:29:31.981Z</time></trkpt><trkpt lat="45.39877" lon="9.7092133"><ele>79.6</ele><time>2026-04-04T13:29:33.981Z</time></trkpt><trkpt lat="45.398715" lon="9.709165"><ele>79.8</ele><time>2026-04-04T13:29:34.981Z</time></trkpt><trkpt lat="45.3986133" lon="9.70908"><ele>80.0</ele><time>2026-04-04T13:29:36.981Z</time></trkpt><trkpt lat="45.39851" lon="9.7090167"><ele>79.6</ele><time>2026-04-04T13:29:38.98Z</time></trkpt><trkpt lat="45.3984033" lon="9.7089717"><ele>79.2</ele><time>2026-04-04T13:29:40.98Z</time></trkpt><trkpt lat="45.39833" lon="9.7088633"><ele>78.8</ele><time>2026-04-04T13:29:42.98Z</time></trkpt><trkpt lat="45.3983467" lon="9.7087183"><ele>78.4</ele><time>2026-04-04T13:29:44.98Z</time></trkpt><trkpt lat="45.398395" lon="9.70858"><ele>78.0</ele><time>2026-04-04T13:29:46.98Z</time></trkpt><trkpt lat="45.39844" lon="9.708425"><ele>77.6</ele><time>2026-04-04T13:29:48.98Z</time></trkpt><trkpt lat="45.39848" lon="9.7082617"><ele>77.19999999999999</ele><time>2026-04-04T13:29:50.98Z</time></trkpt><trkpt lat="45.398505" lon="9.7081783"><ele>76.8</ele><time>2026-04-04T13:29:51.979Z</time></trkpt><trkpt lat="45.3985433" lon="9.7080083"><ele>76.39999999999999</ele><time>2026-04-04T13:29:53.98Z</time></trkpt><trkpt lat="45.3985683" lon="9.7079217"><ele>76.0</ele><time>2026-04-04T13:29:54.98Z</time></trkpt><trkpt lat="45.39859" lon="9.7077583"><ele>76.5</ele><time>2026-04-04T13:29:56.98Z</time></trkpt><trkpt lat="45.3985817" lon="9.7075983"><ele>77.0</ele><time>2026-04-04T13:29:58.979Z</time></trkpt><trkpt lat="45.398565" lon="9.7074283"><ele>77.5</ele><time>2026-04-04T13:30:00.979Z</time></trkpt><trkpt lat="45.398555" lon="9.7072533"><ele>78.0</ele><time>2026-04-04T13:30:02.98Z</time></trkpt><trkpt lat="45.3985533" lon="9.70709"><ele>78.0</ele><time>2026-04-04T13:30:04.98Z</time></trkpt><trkpt lat="45.3985467" lon="9.70692"><ele>78.0</ele><time>2026-04-04T13:30:06.98Z</time></trkpt><trkpt lat="45.3985383" lon="9.70675"><ele>78.0</ele><time>2026-04-04T13:30:08.98Z</time></trkpt><trkpt lat="45.3985317" lon="9.7065767"><ele>78.0</ele><time>2026-04-04T13:30:10.98Z</time></trkpt><trkpt lat="45.3985233" lon="9.70641"><ele>78.5</ele><time>2026-04-04T13:30:12.98Z</time></trkpt><trkpt lat="45.3985167" lon="9.7062533"><ele>79.0</ele><time>2026-04-04T13:30:14.98Z</time></trkpt><trkpt lat="45.39851" lon="9.7060833"><ele>79.5</ele><time>2026-04-04T13:30:16.979Z</time></trkpt><trkpt lat="45.398495" lon="9.705915"><ele>80.0</ele><time>2026-04-04T13:30:18.98Z</time></trkpt><trkpt lat="45.3984917" lon="9.705745"><ele>80.0</ele><time>2026-04-04T13:30:20.98Z</time></trkpt><trkpt lat="45.3985117" lon="9.7055867"><ele>80.0</ele><time>2026-04-04T13:30:22.98Z</time></trkpt><trkpt lat="45.39853" lon="9.7054217"><ele>80.0</ele><time>2026-04-04T13:30:24.98Z</time></trkpt><trkpt lat="45.3985517" lon="9.7052567"><ele>80.0</ele><time>2026-04-04T13:30:26.98Z</time></trkpt><trkpt lat="45.3985617" lon="9.705085"><ele>80.0</ele><time>2026-04-04T13:30:28.98Z</time></trkpt><trkpt lat="45.3985767" lon="9.7049233"><ele>80.0</ele><time>2026-04-04T13:30:30.98Z</time></trkpt><trkpt lat="45.3985883" lon="9.704755"><ele>80.0</ele><time>2026-04-04T13:30:32.98Z</time></trkpt><trkpt lat="45.3985983" lon="9.7045833"><ele>80.0</ele><time>2026-04-04T13:30:34.98Z</time></trkpt><trkpt lat="45.3986067" lon="9.7044117"><ele>79.5</ele><time>2026-04-04T13:30:36.98Z</time></trkpt><trkpt lat="45.39862" lon="9.7042517"><ele>79.0</ele><time>2026-04-04T13:30:38.98Z</time></trkpt><trkpt lat="45.39863" lon="9.704085"><ele>78.5</ele><time>2026-04-04T13:30:40.98Z</time></trkpt><trkpt lat="45.398635" lon="9.7039083"><ele>78.0</ele><time>2026-04-04T13:30:42.98Z</time></trkpt><trkpt lat="45.3986333" lon="9.703745"><ele>78.5</ele><time>2026-04-04T13:30:44.98Z</time></trkpt><trkpt lat="45.3986333" lon="9.703575"><ele>79.0</ele><time>2026-04-04T13:30:46.98Z</time></trkpt><trkpt lat="45.3986317" lon="9.7034117"><ele>79.5</ele><time>2026-04-04T13:30:48.98Z</time></trkpt><trkpt lat="45.3986283" lon="9.7032517"><ele>80.0</ele><time>2026-04-04T13:30:50.98Z</time></trkpt><trkpt lat="45.39863" lon="9.7030933"><ele>80.0</ele><time>2026-04-04T13:30:52.98Z</time></trkpt><trkpt lat="45.398625" lon="9.7029317"><ele>80.0</ele><time>2026-04-04T13:30:54.98Z</time></trkpt><trkpt lat="45.3986033" lon="9.7027667"><ele>80.0</ele><time>2026-04-04T13:30:56.98Z</time></trkpt><trkpt lat="45.3985733" lon="9.70261"><ele>80.0</ele><time>2026-04-04T13:30:58.98Z</time></trkpt><trkpt lat="45.3985483" lon="9.7024417"><ele>80.75</ele><time>2026-04-04T13:31:00.98Z</time></trkpt><trkpt lat="45.3985267" lon="9.7022817"><ele>81.5</ele><time>2026-04-04T13:31:02.98Z</time></trkpt><trkpt lat="45.398495" lon="9.7021167"><ele>82.25</ele><time>2026-04-04T13:31:04.98Z</time></trkpt><trkpt lat="45.398465" lon="9.7019617"><ele>83.0</ele><time>2026-04-04T13:31:06.98Z</time></trkpt><trkpt lat="45.3984417" lon="9.7018017"><ele>83.0</ele><time>2026-04-04T13:31:08.98Z</time></trkpt><trkpt lat="45.3984083" lon="9.701655"><ele>83.0</ele><time>2026-04-04T13:31:10.98Z</time></trkpt><trkpt lat="45.39838" lon="9.70149"><ele>83.0</ele><time>2026-04-04T13:31:12.98Z</time></trkpt><trkpt lat="45.398345" lon="9.7013433"><ele>83.0</ele><time>2026-04-04T13:31:14.98Z</time></trkpt><trkpt lat="45.39831" lon="9.7012033"><ele>83.0</ele><time>2026-04-04T13:31:16.98Z</time></trkpt><trkpt lat="45.398255" lon="9.7010883"><ele>83.0</ele><time>2026-04-04T13:31:18.98Z</time></trkpt><trkpt lat="45.3981767" lon="9.70106"><ele>83.0</ele><time>2026-04-04T13:31:20.98Z</time></trkpt><trkpt lat="45.3980983" lon="9.7011167"><ele>83.0</ele><time>2026-04-04T13:31:22.98Z</time></trkpt><trkpt lat="45.3980017" lon="9.7011667"><ele>83.0</ele><time>2026-04-04T13:31:24.98Z</time></trkpt><trkpt lat="45.397905" lon="9.7012167"><ele>83.0</ele><time>2026-04-04T13:31:26.98Z</time></trkpt><trkpt lat="45.3978033" lon="9.701265"><ele>83.0</ele><time>2026-04-04T13:31:28.98Z</time></trkpt><trkpt lat="45.3976983" lon="9.7013133"><ele>83.0</ele><time>2026-04-04T13:31:30.98Z</time></trkpt><trkpt lat="45.3975833" lon="9.7013617"><ele>83.0</ele><time>2026-04-04T13:31:32.98Z</time></trkpt><trkpt lat="45.39747" lon="9.7014083"><ele>83.0</ele><time>2026-04-04T13:31:34.98Z</time></trkpt><trkpt lat="45.3973617" lon="9.7014467"><ele>83.0</ele><time>2026-04-04T13:31:36.98Z</time></trkpt><trkpt lat="45.3972483" lon="9.7014817"><ele>83.0</ele><time>2026-04-04T13:31:38.98Z</time></trkpt><trkpt lat="45.397135" lon="9.7015117"><ele>83.0</ele><time>2026-04-04T13:31:40.98Z</time></trkpt><trkpt lat="45.3970183" lon="9.701545"><ele>83.0</ele><time>2026-04-04T13:31:42.98Z</time></trkpt><trkpt lat="45.39691" lon="9.70158"><ele>82.80000000000001</ele><time>2026-04-04T13:31:44.979Z</time></trkpt><trkpt lat="45.396805" lon="9.7016133"><ele>82.6</ele><time>2026-04-04T13:31:46.98Z</time></trkpt><trkpt lat="45.3967" lon="9.7016483"><ele>82.4</ele><time>2026-04-04T13:31:48.98Z</time></trkpt><trkpt lat="45.3965867" lon="9.7016733"><ele>82.19999999999999</ele><time>2026-04-04T13:31:50.98Z</time></trkpt><trkpt lat="45.3964717" lon="9.7017"><ele>82.0</ele><time>2026-04-04T13:31:52.98Z</time></trkpt><trkpt lat="45.3963567" lon="9.7017217"><ele>82.0</ele><time>2026-04-04T13:31:54.979Z</time></trkpt><trkpt lat="45.39624" lon="9.70175"><ele>82.0</ele><time>2026-04-04T13:31:56.98Z</time></trkpt><trkpt lat="45.3961233" lon="9.70176"><ele>82.0</ele><time>2026-04-04T13:31:58.98Z</time></trkpt><trkpt lat="45.3960117" lon="9.70178"><ele>82.0</ele><time>2026-04-04T13:32:00.98Z</time></trkpt><trkpt lat="45.3958983" lon="9.7018067"><ele>82.0</ele><time>2026-04-04T13:32:02.98Z</time></trkpt><trkpt lat="45.395785" lon="9.70183"><ele>82.0</ele><time>2026-04-04T13:32:04.98Z</time></trkpt><trkpt lat="45.3956733" lon="9.7018383"><ele>82.0</ele><time>2026-04-04T13:32:06.98Z</time></trkpt><trkpt lat="45.3955633" lon="9.70186"><ele>82.0</ele><time>2026-04-04T13:32:08.98Z</time></trkpt><trkpt lat="45.3954483" lon="9.7018717"><ele>81.8</ele><time>2026-04-04T13:32:10.98Z</time></trkpt><trkpt lat="45.3953417" lon="9.7019"><ele>81.6</ele><time>2026-04-04T13:32:12.98Z</time></trkpt><trkpt lat="45.3952367" lon="9.7019233"><ele>81.39999999999999</ele><time>2026-04-04T13:32:14.98Z</time></trkpt><trkpt lat="45.395135" lon="9.70196"><ele>81.19999999999999</ele><time>2026-04-04T13:32:16.98Z</time></trkpt><trkpt lat="45.39509" lon="9.7020917"><ele>81.0</ele><time>2026-04-04T13:32:18.98Z</time></trkpt><trkpt lat="45.3950933" lon="9.702245"><ele>80.75</ele><time>2026-04-04T13:32:20.98Z</time></trkpt><trkpt lat="45.3950617" lon="9.7023983"><ele>80.5</ele><time>2026-04-04T13:32:22.98Z</time></trkpt><trkpt lat="45.3950117" lon="9.7025417"><ele>80.25</ele><time>2026-04-04T13:32:24.98Z</time></trkpt><trkpt lat="45.3949583" lon="9.702675"><ele>80.0</ele><time>2026-04-04T13:32:26.98Z</time></trkpt><trkpt lat="45.3949017" lon="9.7028233"><ele>79.75</ele><time>2026-04-04T13:32:28.98Z</time></trkpt><trkpt lat="45.3948533" lon="9.7029833"><ele>79.5</ele><time>2026-04-04T13:32:30.98Z</time></trkpt><trkpt lat="45.39482" lon="9.70314"><ele>79.25</ele><time>2026-04-04T13:32:32.98Z</time></trkpt><trkpt lat="45.3948017" lon="9.703315"><ele>79.0</ele><time>2026-04-04T13:32:34.98Z</time></trkpt><trkpt lat="45.3948" lon="9.7034883"><ele>79.2</ele><time>2026-04-04T13:32:36.98Z</time></trkpt><trkpt lat="45.3947717" lon="9.703635"><ele>79.4</ele><time>2026-04-04T13:32:38.98Z</time></trkpt><trkpt lat="45.3946917" lon="9.70372"><ele>79.6</ele><time>2026-04-04T13:32:40.98Z</time></trkpt><trkpt lat="45.3945883" lon="9.7037983"><ele>79.8</ele><time>2026-04-04T13:32:42.98Z</time></trkpt><trkpt lat="45.3944833" lon="9.7038833"><ele>80.0</ele><time>2026-04-04T13:32:44.98Z</time></trkpt><trkpt lat="45.39438" lon="9.703985"><ele>80.0</ele><time>2026-04-04T13:32:46.98Z</time></trkpt><trkpt lat="45.394285" lon="9.7040883"><ele>80.0</ele><time>2026-04-04T13:32:48.98Z</time></trkpt><trkpt lat="45.3941983" lon="9.7042033"><ele>80.0</ele><time>2026-04-04T13:32:50.98Z</time></trkpt><trkpt lat="45.3941017" lon="9.7043"><ele>80.0</ele><time>2026-04-04T13:32:52.98Z</time></trkpt><trkpt lat="45.39402" lon="9.7043983"><ele>80.0</ele><time>2026-04-04T13:32:54.98Z</time></trkpt><trkpt lat="45.3939333" lon="9.7044583"><ele>80.0</ele><time>2026-04-04T13:32:56.98Z</time></trkpt><trkpt lat="45.39384" lon="9.7044633"><ele>80.0</ele><time>2026-04-04T13:32:58.98Z</time></trkpt><trkpt lat="45.39377" lon="9.7045483"><ele>80.0</ele><time>2026-04-04T13:33:00.98Z</time></trkpt><trkpt lat="45.393735" lon="9.7046467"><ele>80.0</ele><time>2026-04-04T13:33:02.98Z</time></trkpt><trkpt lat="45.39369" lon="9.7047267"><ele>80.0</ele><time>2026-04-04T13:33:04.98Z</time></trkpt><trkpt lat="45.3936067" lon="9.7047633"><ele>80.83333333333334</ele><time>2026-04-04T13:33:06.98Z</time></trkpt><trkpt lat="45.3935217" lon="9.7048017"><ele>81.66666666666667</ele><time>2026-04-04T13:33:08.979Z</time></trkpt><trkpt lat="45.39345" lon="9.7048417"><ele>82.5</ele><time>2026-04-04T13:33:10.98Z</time></trkpt><trkpt lat="45.393385" lon="9.7048567"><ele>83.33333333333333</ele><time>2026-04-04T13:33:13.98Z</time></trkpt><trkpt lat="45.393305" lon="9.7048683"><ele>84.16666666666666</ele><time>2026-04-04T13:33:17.98Z</time></trkpt><trkpt lat="45.3932567" lon="9.7049417"><ele>85.0</ele><time>2026-04-04T13:33:19.98Z</time></trkpt><trkpt lat="45.3931933" lon="9.7050217"><ele>85.0</ele><time>2026-04-04T13:33:21.98Z</time></trkpt><trkpt lat="45.3931183" lon="9.7051067"><ele>85.0</ele><time>2026-04-04T13:33:23.98Z</time></trkpt><trkpt lat="45.3930483" lon="9.7051867"><ele>85.0</ele><time>2026-04-04T13:33:25.979Z</time></trkpt><trkpt lat="45.3929733" lon="9.7051667"><ele>85.0</ele><time>2026-04-04T13:33:28.98Z</time></trkpt><trkpt lat="45.3929217" lon="9.705055"><ele>85.0</ele><time>2026-04-04T13:33:31.98Z</time></trkpt><trkpt lat="45.3928767" lon="9.7049717"><ele>85.0</ele><time>2026-04-04T13:33:33.98Z</time></trkpt><trkpt lat="45.3928217" lon="9.7048633"><ele>84.4</ele><time>2026-04-04T13:33:35.98Z</time></trkpt><trkpt lat="45.39277" lon="9.7047433"><ele>83.8</ele><time>2026-04-04T13:33:37.98Z</time></trkpt><trkpt lat="45.3927167" lon="9.704615"><ele>83.19999999999999</ele><time>2026-04-04T13:33:39.979Z</time></trkpt><trkpt lat="45.3926617" lon="9.7044917"><ele>82.6</ele><time>2026-04-04T13:33:41.98Z</time></trkpt><trkpt lat="45.3926017" lon="9.7043717"><ele>82.0</ele><time>2026-04-04T13:33:43.98Z</time></trkpt><trkpt lat="45.392545" lon="9.7042517"><ele>81.6</ele><time>2026-04-04T13:33:45.98Z</time></trkpt><trkpt lat="45.39249" lon="9.7041283"><ele>81.19999999999999</ele><time>2026-04-04T13:33:47.98Z</time></trkpt><trkpt lat="45.3924383" lon="9.70402"><ele>80.8</ele><time>2026-04-04T13:33:49.98Z</time></trkpt><trkpt lat="45.3923683" lon="9.703965"><ele>80.4</ele><time>2026-04-04T13:33:51.98Z</time></trkpt><trkpt lat="45.3922683" lon="9.703965"><ele>80.0</ele><time>2026-04-04T13:33:53.979Z</time></trkpt><trkpt lat="45.392165" lon="9.70395"><ele>79.75</ele><time>2026-04-04T13:33:55.98Z</time></trkpt><trkpt lat="45.3920567" lon="9.70393"><ele>79.5</ele><time>2026-04-04T13:33:57.98Z</time></trkpt><trkpt lat="45.391945" lon="9.7039083"><ele>79.25</ele><time>2026-04-04T13:33:59.98Z</time></trkpt><trkpt lat="45.3918283" lon="9.7038883"><ele>79.0</ele><time>2026-04-04T13:34:01.98Z</time></trkpt><trkpt lat="45.3917133" lon="9.7038767"><ele>79.0</ele><time>2026-04-04T13:34:03.98Z</time></trkpt><trkpt lat="45.3916" lon="9.7038533"><ele>79.0</ele><time>2026-04-04T13:34:05.98Z</time></trkpt><trkpt lat="45.3914867" lon="9.7038283"><ele>79.0</ele><time>2026-04-04T13:34:07.98Z</time></trkpt><trkpt lat="45.39137" lon="9.7037967"><ele>79.0</ele><time>2026-04-04T13:34:09.98Z</time></trkpt><trkpt lat="45.39125" lon="9.7037733"><ele>78.5</ele><time>2026-04-04T13:34:11.98Z</time></trkpt><trkpt lat="45.3911333" lon="9.70376"><ele>78.0</ele><time>2026-04-04T13:34:13.98Z</time></trkpt><trkpt lat="45.3910167" lon="9.7037433"><ele>77.5</ele><time>2026-04-04T13:34:15.979Z</time></trkpt><trkpt lat="45.390895" lon="9.70372"><ele>77.0</ele><time>2026-04-04T13:34:17.98Z</time></trkpt><trkpt lat="45.39078" lon="9.703685"><ele>77.0</ele><time>2026-04-04T13:34:19.979Z</time></trkpt><trkpt lat="45.3906683" lon="9.70367"><ele>77.0</ele><time>2026-04-04T13:34:21.98Z</time></trkpt><trkpt lat="45.390555" lon="9.703665"><ele>77.0</ele><time>2026-04-04T13:34:23.98Z</time></trkpt><trkpt lat="45.39046" lon="9.7036283"><ele>77.0</ele><time>2026-04-04T13:34:25.98Z</time></trkpt><trkpt lat="45.3903833" lon="9.703545"><ele>77.0</ele><time>2026-04-04T13:34:27.979Z</time></trkpt><trkpt lat="45.3903567" lon="9.70341"><ele>76.8</ele><time>2026-04-04T13:34:29.98Z</time></trkpt><trkpt lat="45.3903867" lon="9.7032733"><ele>76.6</ele><time>2026-04-04T13:34:31.98Z</time></trkpt><trkpt lat="45.390375" lon="9.7031317"><ele>76.39999999999999</ele><time>2026-04-04T13:34:33.98Z</time></trkpt><trkpt lat="45.3903183" lon="9.7030267"><ele>76.2</ele><time>2026-04-04T13:34:35.979Z</time></trkpt><trkpt lat="45.3902233" lon="9.7030117"><ele>76.0</ele><time>2026-04-04T13:34:37.979Z</time></trkpt><trkpt lat="45.3901167" lon="9.7030217"><ele>76.0</ele><time>2026-04-04T13:34:39.979Z</time></trkpt><trkpt lat="45.3900067" lon="9.7030267"><ele>76.0</ele><time>2026-04-04T13:34:41.978Z</time></trkpt><trkpt lat="45.3898967" lon="9.7030267"><ele>76.0</ele><time>2026-04-04T13:34:43.979Z</time></trkpt><trkpt lat="45.38979" lon="9.7030317"><ele>76.0</ele><time>2026-04-04T13:34:45.979Z</time></trkpt><trkpt lat="45.389675" lon="9.7030317"><ele>76.0</ele><time>2026-04-04T13:34:47.979Z</time></trkpt><trkpt lat="45.3895567" lon="9.7030367"><ele>76.5</ele><time>2026-04-04T13:34:49.979Z</time></trkpt><trkpt lat="45.3894433" lon="9.7030417"><ele>77.0</ele><time>2026-04-04T13:34:51.979Z</time></trkpt><trkpt lat="45.3893283" lon="9.7030417"><ele>77.5</ele><time>2026-04-04T13:34:53.979Z</time></trkpt><trkpt lat="45.3892117" lon="9.7030417"><ele>78.0</ele><time>2026-04-04T13:34:55.979Z</time></trkpt><trkpt lat="45.389105" lon="9.7030467"><ele>78.0</ele><time>2026-04-04T13:34:57.979Z</time></trkpt><trkpt lat="45.389015" lon="9.7030267"><ele>78.0</ele><time>2026-04-04T13:34:59.979Z</time></trkpt><trkpt lat="45.3889367" lon="9.7029717"><ele>78.0</ele><time>2026-04-04T13:35:01.978Z</time></trkpt><trkpt lat="45.3889" lon="9.70286"><ele>78.0</ele><time>2026-04-04T13:35:03.979Z</time></trkpt><trkpt lat="45.3888667" lon="9.70275"><ele>78.0</ele><time>2026-04-04T13:35:05.979Z</time></trkpt><trkpt lat="45.3887883" lon="9.702675"><ele>78.0</ele><time>2026-04-04T13:35:07.979Z</time></trkpt><trkpt lat="45.388685" lon="9.70267"><ele>78.4</ele><time>2026-04-04T13:35:09.979Z</time></trkpt><trkpt lat="45.3885767" lon="9.7026817"><ele>78.8</ele><time>2026-04-04T13:35:11.979Z</time></trkpt><trkpt lat="45.3884767" lon="9.7026933"><ele>79.2</ele><time>2026-04-04T13:35:13.979Z</time></trkpt><trkpt lat="45.38838" lon="9.7027033"><ele>79.6</ele><time>2026-04-04T13:35:15.979Z</time></trkpt><trkpt lat="45.3882967" lon="9.7027217"><ele>80.0</ele><time>2026-04-04T13:35:17.978Z</time></trkpt><trkpt lat="45.3882333" lon="9.702745"><ele>80.0</ele><time>2026-04-04T13:35:20.979Z</time></trkpt><trkpt lat="45.3881483" lon="9.70272"><ele>80.0</ele><time>2026-04-04T13:35:24.979Z</time></trkpt><trkpt lat="45.388095" lon="9.702605"><ele>80.0</ele><time>2026-04-04T13:35:27.979Z</time></trkpt><trkpt lat="45.3880933" lon="9.7025017"><ele>80.0</ele><time>2026-04-04T13:35:29.979Z</time></trkpt><trkpt lat="45.38809" lon="9.7023833"><ele>80.0</ele><time>2026-04-04T13:35:31.979Z</time></trkpt><trkpt lat="45.388095" lon="9.702255"><ele>80.0</ele><time>2026-04-04T13:35:33.979Z</time></trkpt><trkpt lat="45.388065" lon="9.70214"><ele>80.0</ele><time>2026-04-04T13:35:35.979Z</time></trkpt><trkpt lat="45.3879983" lon="9.7020717"><ele>80.0</ele><time>2026-04-04T13:35:37.979Z</time></trkpt><trkpt lat="45.3878933" lon="9.7020733"><ele>80.0</ele><time>2026-04-04T13:35:39.979Z</time></trkpt><trkpt lat="45.3878" lon="9.702105"><ele>80.0</ele><time>2026-04-04T13:35:41.979Z</time></trkpt><trkpt lat="45.3877033" lon="9.702125"><ele>80.0</ele><time>2026-04-04T13:35:43.979Z</time></trkpt><trkpt lat="45.3876033" lon="9.702155"><ele>80.0</ele><time>2026-04-04T13:35:45.979Z</time></trkpt><trkpt lat="45.3875033" lon="9.7021733"><ele>80.0</ele><time>2026-04-04T13:35:47.979Z</time></trkpt><trkpt lat="45.3873983" lon="9.7021883"><ele>80.0</ele><time>2026-04-04T13:35:49.979Z</time></trkpt><trkpt lat="45.3872983" lon="9.70219"><ele>80.0</ele><time>2026-04-04T13:35:51.979Z</time></trkpt><trkpt lat="45.3871833" lon="9.7021867"><ele>80.0</ele><time>2026-04-04T13:35:53.979Z</time></trkpt><trkpt lat="45.3870733" lon="9.7021883"><ele>80.2</ele><time>2026-04-04T13:35:55.979Z</time></trkpt><trkpt lat="45.3869617" lon="9.702175"><ele>80.4</ele><time>2026-04-04T13:35:57.979Z</time></trkpt><trkpt lat="45.386855" lon="9.70217"><ele>80.6</ele><time>2026-04-04T13:35:59.979Z</time></trkpt><trkpt lat="45.3867533" lon="9.70217"><ele>80.8</ele><time>2026-04-04T13:36:01.979Z</time></trkpt><trkpt lat="45.3866517" lon="9.7021583"><ele>81.0</ele><time>2026-04-04T13:36:03.979Z</time></trkpt><trkpt lat="45.386545" lon="9.7021483"><ele>81.0</ele><time>2026-04-04T13:36:05.978Z</time></trkpt><trkpt lat="45.3864417" lon="9.7021433"><ele>81.0</ele><time>2026-04-04T13:36:07.979Z</time></trkpt><trkpt lat="45.3863283" lon="9.7021417"><ele>81.0</ele><time>2026-04-04T13:36:09.979Z</time></trkpt><trkpt lat="45.3862267" lon="9.70211"><ele>81.0</ele><time>2026-04-04T13:36:11.979Z</time></trkpt><trkpt lat="45.3861233" lon="9.70205"><ele>81.0</ele><time>2026-04-04T13:36:13.979Z</time></trkpt><trkpt lat="45.3860233" lon="9.7019583"><ele>81.25</ele><time>2026-04-04T13:36:15.979Z</time></trkpt><trkpt lat="45.38592" lon="9.701875"><ele>81.5</ele><time>2026-04-04T13:36:17.979Z</time></trkpt><trkpt lat="45.3858317" lon="9.7017883"><ele>81.75</ele><time>2026-04-04T13:36:19.979Z</time></trkpt><trkpt lat="45.3857333" lon="9.7017133"><ele>82.0</ele><time>2026-04-04T13:36:21.979Z</time></trkpt><trkpt lat="45.3856317" lon="9.7016417"><ele>82.0</ele><time>2026-04-04T13:36:23.978Z</time></trkpt><trkpt lat="45.385525" lon="9.7015533"><ele>82.0</ele><time>2026-04-04T13:36:25.979Z</time></trkpt><trkpt lat="45.3854217" lon="9.7014933"><ele>82.0</ele><time>2026-04-04T13:36:27.979Z</time></trkpt><trkpt lat="45.3853317" lon="9.7014317"><ele>82.0</ele><time>2026-04-04T13:36:29.979Z</time></trkpt><trkpt lat="45.3852217" lon="9.7013817"><ele>82.19999999999999</ele><time>2026-04-04T13:36:31.979Z</time></trkpt><trkpt lat="45.3851083" lon="9.7013567"><ele>82.4</ele><time>2026-04-04T13:36:33.979Z</time></trkpt><trkpt lat="45.3849883" lon="9.70135"><ele>82.6</ele><time>2026-04-04T13:36:35.979Z</time></trkpt><trkpt lat="45.3849267" lon="9.70137"><ele>82.80000000000001</ele><time>2026-04-04T13:36:36.979Z</time></trkpt><trkpt lat="45.3848183" lon="9.7014283"><ele>83.0</ele><time>2026-04-04T13:36:38.979Z</time></trkpt><trkpt lat="45.3847233" lon="9.7014933"><ele>81.80000000000001</ele><time>2026-04-04T13:36:40.979Z</time></trkpt><trkpt lat="45.384635" lon="9.70158"><ele>80.60000000000001</ele><time>2026-04-04T13:36:42.979Z</time></trkpt><trkpt lat="45.3845483" lon="9.7016683"><ele>79.4</ele><time>2026-04-04T13:36:44.979Z</time></trkpt><trkpt lat="45.38446" lon="9.7017633"><ele>78.2</ele><time>2026-04-04T13:36:46.979Z</time></trkpt><trkpt lat="45.3843617" lon="9.7018483"><ele>77.0</ele><time>2026-04-04T13:36:48.979Z</time></trkpt><trkpt lat="45.384275" lon="9.7019317"><ele>77.0</ele><time>2026-04-04T13:36:50.979Z</time></trkpt><trkpt lat="45.3841833" lon="9.70202"><ele>77.0</ele><time>2026-04-04T13:36:52.979Z</time></trkpt><trkpt lat="45.3840833" lon="9.702105"><ele>77.0</ele><time>2026-04-04T13:36:54.978Z</time></trkpt><trkpt lat="45.3839933" lon="9.702185"><ele>77.0</ele><time>2026-04-04T13:36:56.979Z</time></trkpt><trkpt lat="45.3838967" lon="9.7022533"><ele>77.0</ele><time>2026-04-04T13:36:58.978Z</time></trkpt><trkpt lat="45.383805" lon="9.7023133"><ele>76.6</ele><time>2026-04-04T13:37:00.979Z</time></trkpt><trkpt lat="45.3837183" lon="9.7023783"><ele>76.2</ele><time>2026-04-04T13:37:02.979Z</time></trkpt><trkpt lat="45.38363" lon="9.7024417"><ele>75.8</ele><time>2026-04-04T13:37:04.979Z</time></trkpt><trkpt lat="45.3835283" lon="9.7025033"><ele>75.4</ele><time>2026-04-04T13:37:06.979Z</time></trkpt><trkpt lat="45.3834233" lon="9.702555"><ele>75.0</ele><time>2026-04-04T13:37:08.979Z</time></trkpt><trkpt lat="45.3833283" lon="9.70262"><ele>75.0</ele><time>2026-04-04T13:37:10.979Z</time></trkpt><trkpt lat="45.38323" lon="9.702685"><ele>75.0</ele><time>2026-04-04T13:37:12.979Z</time></trkpt><trkpt lat="45.3831367" lon="9.702745"><ele>75.0</ele><time>2026-04-04T13:37:14.979Z</time></trkpt><trkpt lat="45.38304" lon="9.702805"><ele>75.0</ele><time>2026-04-04T13:37:16.979Z</time></trkpt><trkpt lat="45.3829367" lon="9.7028533"><ele>75.0</ele><time>2026-04-04T13:37:18.979Z</time></trkpt><trkpt lat="45.3828417" lon="9.70287"><ele>75.33333333333333</ele><time>2026-04-04T13:37:20.979Z</time></trkpt><trkpt lat="45.3827467" lon="9.7029117"><ele>75.66666666666667</ele><time>2026-04-04T13:44:23.977Z</time></trkpt><trkpt lat="45.3827067" lon="9.7029817"><ele>76.0</ele><time>2026-04-04T13:44:26.977Z</time></trkpt><trkpt lat="45.3826617" lon="9.70309"><ele>76.33333333333334</ele><time>2026-04-04T13:44:29.977Z</time></trkpt><trkpt lat="45.382655" lon="9.7032"><ele>76.66666666666667</ele><time>2026-04-04T13:44:31.977Z</time></trkpt><trkpt lat="45.3826817" lon="9.703335"><ele>77.0</ele><time>2026-04-04T13:44:33.977Z</time></trkpt><trkpt lat="45.382715" lon="9.7034717"><ele>76.8</ele><time>2026-04-04T13:44:35.976Z</time></trkpt><trkpt lat="45.3827467" lon="9.70361"><ele>76.6</ele><time>2026-04-04T13:44:37.977Z</time></trkpt><trkpt lat="45.3827733" lon="9.7037433"><ele>76.39999999999999</ele><time>2026-04-04T13:44:39.977Z</time></trkpt><trkpt lat="45.3827967" lon="9.70389"><ele>76.2</ele><time>2026-04-04T13:44:41.977Z</time></trkpt><trkpt lat="45.3828283" lon="9.70404"><ele>76.0</ele><time>2026-04-04T13:44:43.977Z</time></trkpt><trkpt lat="45.3828433" lon="9.7041933"><ele>76.0</ele><time>2026-04-04T13:44:45.977Z</time></trkpt><trkpt lat="45.38287" lon="9.7043417"><ele>76.0</ele><time>2026-04-04T13:44:47.977Z</time></trkpt><trkpt lat="45.3829017" lon="9.7044817"><ele>76.0</ele><time>2026-04-04T13:44:49.977Z</time></trkpt><trkpt lat="45.382945" lon="9.7046233"><ele>76.0</ele><time>2026-04-04T13:44:51.977Z</time></trkpt><trkpt lat="45.38299" lon="9.7047633"><ele>76.0</ele><time>2026-04-04T13:44:53.977Z</time></trkpt><trkpt lat="45.3830333" lon="9.7049083"><ele>76.0</ele><time>2026-04-04T13:44:55.977Z</time></trkpt><trkpt lat="45.3830767" lon="9.7050617"><ele>76.0</ele><time>2026-04-04T13:44:57.977Z</time></trkpt><trkpt lat="45.3830917" lon="9.70522"><ele>76.0</ele><time>2026-04-04T13:44:59.977Z</time></trkpt><trkpt lat="45.3830933" lon="9.7053917"><ele>76.0</ele><time>2026-04-04T13:45:01.977Z</time></trkpt><trkpt lat="45.3830867" lon="9.705555"><ele>76.0</ele><time>2026-04-04T13:45:03.977Z</time></trkpt><trkpt lat="45.3830983" lon="9.7057183"><ele>76.0</ele><time>2026-04-04T13:45:05.977Z</time></trkpt><trkpt lat="45.3831083" lon="9.7058917"><ele>76.0</ele><time>2026-04-04T13:45:07.977Z</time></trkpt><trkpt lat="45.383115" lon="9.7059833"><ele>76.0</ele><time>2026-04-04T13:45:08.977Z</time></trkpt><trkpt lat="45.3831267" lon="9.7061567"><ele>76.0</ele><time>2026-04-04T13:45:10.977Z</time></trkpt><trkpt lat="45.3831433" lon="9.7063233"><ele>76.0</ele><time>2026-04-04T13:45:12.977Z</time></trkpt><trkpt lat="45.3831483" lon="9.7064867"><ele>76.0</ele><time>2026-04-04T13:45:14.977Z</time></trkpt><trkpt lat="45.383155" lon="9.7065767"><ele>76.0</ele><time>2026-04-04T13:45:15.976Z</time></trkpt><trkpt lat="45.3831533" lon="9.706745"><ele>76.0</ele><time>2026-04-04T13:45:17.977Z</time></trkpt><trkpt lat="45.3831467" lon="9.7069183"><ele>76.0</ele><time>2026-04-04T13:45:19.976Z</time></trkpt><trkpt lat="45.3831417" lon="9.7070083"><ele>76.0</ele><time>2026-04-04T13:45:20.977Z</time></trkpt><trkpt lat="45.383125" lon="9.70718"><ele>76.0</ele><time>2026-04-04T13:45:22.977Z</time></trkpt><trkpt lat="45.3831167" lon="9.70727"><ele>76.0</ele><time>2026-04-04T13:45:23.977Z</time></trkpt><trkpt lat="45.3831" lon="9.70744"><ele>76.0</ele><time>2026-04-04T13:45:25.976Z</time></trkpt><trkpt lat="45.383085" lon="9.7076067"><ele>76.0</ele><time>2026-04-04T13:45:27.977Z</time></trkpt><trkpt lat="45.3830733" lon="9.7077617"><ele>75.83333333333333</ele><time>2026-04-04T13:45:29.976Z</time></trkpt><trkpt lat="45.3830583" lon="9.707915"><ele>75.66666666666666</ele><time>2026-04-04T13:45:31.977Z</time></trkpt><trkpt lat="45.3829917" lon="9.7080233"><ele>75.5</ele><time>2026-04-04T13:45:33.977Z</time></trkpt><trkpt lat="45.3829417" lon="9.708165"><ele>75.33333333333333</ele><time>2026-04-04T13:45:35.977Z</time></trkpt><trkpt lat="45.3829333" lon="9.7082567"><ele>75.16666666666667</ele><time>2026-04-04T13:45:36.977Z</time></trkpt><trkpt lat="45.3829333" lon="9.7083467"><ele>75.0</ele><time>2026-04-04T13:45:37.977Z</time></trkpt><trkpt lat="45.382905" lon="9.7085017"><ele>75.0</ele><time>2026-04-04T13:45:39.977Z</time></trkpt><trkpt lat="45.3828083" lon="9.7085983"><ele>75.0</ele><time>2026-04-04T13:45:41.977Z</time></trkpt><trkpt lat="45.3826883" lon="9.7085917"><ele>75.0</ele><time>2026-04-04T13:45:43.977Z</time></trkpt><trkpt lat="45.38257" lon="9.7085667"><ele>75.0</ele><time>2026-04-04T13:45:45.977Z</time></trkpt><trkpt lat="45.382445" lon="9.7085367"><ele>74.8</ele><time>2026-04-04T13:45:47.977Z</time></trkpt><trkpt lat="45.38238" lon="9.7085317"><ele>74.6</ele><time>2026-04-04T13:45:48.977Z</time></trkpt><trkpt lat="45.3822533" lon="9.708535"><ele>74.4</ele><time>2026-04-04T13:45:50.977Z</time></trkpt><trkpt lat="45.38219" lon="9.7085217"><ele>74.2</ele><time>2026-04-04T13:45:51.977Z</time></trkpt><trkpt lat="45.3820767" lon="9.7085333"><ele>74.0</ele><time>2026-04-04T13:45:53.977Z</time></trkpt><trkpt lat="45.381965" lon="9.7085483"><ele>74.60000000000001</ele><time>2026-04-04T13:45:55.977Z</time></trkpt><trkpt lat="45.381845" lon="9.7085717"><ele>75.2</ele><time>2026-04-04T13:45:57.976Z</time></trkpt><trkpt lat="45.381725" lon="9.7085867"><ele>75.80000000000001</ele><time>2026-04-04T13:45:59.977Z</time></trkpt><trkpt lat="45.3816033" lon="9.708605"><ele>76.4</ele><time>2026-04-04T13:46:01.977Z</time></trkpt><trkpt lat="45.38154" lon="9.7086117"><ele>77.0</ele><time>2026-04-04T13:46:02.977Z</time></trkpt><trkpt lat="45.38142" lon="9.7086417"><ele>77.0</ele><time>2026-04-04T13:46:04.977Z</time></trkpt><trkpt lat="45.3813583" lon="9.7086617"><ele>77.0</ele><time>2026-04-04T13:46:05.977Z</time></trkpt><trkpt lat="45.3812467" lon="9.7087067"><ele>77.0</ele><time>2026-04-04T13:46:07.977Z</time></trkpt><trkpt lat="45.3811317" lon="9.708755"><ele>77.0</ele><time>2026-04-04T13:46:09.977Z</time></trkpt><trkpt lat="45.3810167" lon="9.7087983"><ele>77.0</ele><time>2026-04-04T13:46:11.977Z</time></trkpt><trkpt lat="45.3809033" lon="9.7088517"><ele>76.75</ele><time>2026-04-04T13:46:13.977Z</time></trkpt><trkpt lat="45.3808" lon="9.708925"><ele>76.5</ele><time>2026-04-04T13:46:15.977Z</time></trkpt><trkpt lat="45.380695" lon="9.7089933"><ele>76.25</ele><time>2026-04-04T13:46:17.977Z</time></trkpt><trkpt lat="45.380585" lon="9.7090533"><ele>76.0</ele><time>2026-04-04T13:46:19.976Z</time></trkpt><trkpt lat="45.3804783" lon="9.7091167"><ele>76.0</ele><time>2026-04-04T13:46:21.977Z</time></trkpt><trkpt lat="45.3803717" lon="9.70918"><ele>76.0</ele><time>2026-04-04T13:46:23.977Z</time></trkpt><trkpt lat="45.3802617" lon="9.709245"><ele>76.0</ele><time>2026-04-04T13:46:25.977Z</time></trkpt><trkpt lat="45.3801567" lon="9.7093117"><ele>76.0</ele><time>2026-04-04T13:46:27.977Z</time></trkpt><trkpt lat="45.3800517" lon="9.7093667"><ele>76.0</ele><time>2026-04-04T13:46:29.977Z</time></trkpt><trkpt lat="45.3799583" lon="9.7094083"><ele>76.0</ele><time>2026-04-04T13:46:31.977Z</time></trkpt><trkpt lat="45.3798717" lon="9.7093717"><ele>76.0</ele><time>2026-04-04T13:46:33.976Z</time></trkpt><trkpt lat="45.379845" lon="9.7092267"><ele>76.0</ele><time>2026-04-04T13:46:35.977Z</time></trkpt><trkpt lat="45.3798417" lon="9.7090683"><ele>76.0</ele><time>2026-04-04T13:46:37.977Z</time></trkpt><trkpt lat="45.37979" lon="9.70897"><ele>76.0</ele><time>2026-04-04T13:46:39.977Z</time></trkpt><trkpt lat="45.37971" lon="9.7089017"><ele>76.0</ele><time>2026-04-04T13:46:41.977Z</time></trkpt><trkpt lat="45.379685" lon="9.7087717"><ele>76.0</ele><time>2026-04-04T13:46:43.977Z</time></trkpt><trkpt lat="45.379675" lon="9.7086067"><ele>76.0</ele><time>2026-04-04T13:46:45.977Z</time></trkpt><trkpt lat="45.3796733" lon="9.7084283"><ele>76.0</ele><time>2026-04-04T13:46:47.976Z</time></trkpt><trkpt lat="45.3796733" lon="9.7083367"><ele>75.5</ele><time>2026-04-04T13:46:48.977Z</time></trkpt><trkpt lat="45.3796767" lon="9.70817"><ele>75.0</ele><time>2026-04-04T13:46:50.977Z</time></trkpt><trkpt lat="45.379685" lon="9.7079983"><ele>74.5</ele><time>2026-04-04T13:46:52.977Z</time></trkpt><trkpt lat="45.3796833" lon="9.7078283"><ele>74.0</ele><time>2026-04-04T13:46:54.977Z</time></trkpt><trkpt lat="45.3796583" lon="9.70767"><ele>73.75</ele><time>2026-04-04T13:46:56.977Z</time></trkpt><trkpt lat="45.3796133" lon="9.7075083"><ele>73.5</ele><time>2026-04-04T13:46:58.977Z</time></trkpt><trkpt lat="45.37962" lon="9.707345"><ele>73.25</ele><time>2026-04-04T13:47:00.977Z</time></trkpt><trkpt lat="45.3797067" lon="9.7072267"><ele>73.0</ele><time>2026-04-04T13:47:02.977Z</time></trkpt><trkpt lat="45.3797717" lon="9.7070967"><ele>73.0</ele><time>2026-04-04T13:47:04.977Z</time></trkpt><trkpt lat="45.3797517" lon="9.7069767"><ele>73.0</ele><time>2026-04-04T13:47:06.977Z</time></trkpt><trkpt lat="45.3796583" lon="9.7069017"><ele>73.0</ele><time>2026-04-04T13:47:08.976Z</time></trkpt><trkpt lat="45.379555" lon="9.7068233"><ele>73.0</ele><time>2026-04-04T13:47:10.976Z</time></trkpt><trkpt lat="45.3795" lon="9.70677"><ele>73.0</ele><time>2026-04-04T13:47:11.977Z</time></trkpt><trkpt lat="45.3794483" lon="9.7067"><ele>73.0</ele><time>2026-04-04T13:47:12.977Z</time></trkpt><trkpt lat="45.37942" lon="9.7066083"><ele>73.0</ele><time>2026-04-04T13:47:13.977Z</time></trkpt><trkpt lat="45.3794133" lon="9.7065133"><ele>73.0</ele><time>2026-04-04T13:47:14.977Z</time></trkpt><trkpt lat="45.379415" lon="9.7064133"><ele>73.0</ele><time>2026-04-04T13:47:15.977Z</time></trkpt><trkpt lat="45.3794183" lon="9.7063133"><ele>73.0</ele><time>2026-04-04T13:47:16.977Z</time></trkpt><trkpt lat="45.3794183" lon="9.7062167"><ele>73.0</ele><time>2026-04-04T13:47:17.977Z</time></trkpt><trkpt lat="45.3794167" lon="9.706125"><ele>73.0</ele><time>2026-04-04T13:47:18.977Z</time></trkpt><trkpt lat="45.3794167" lon="9.7060267"><ele>73.0</ele><time>2026-04-04T13:47:19.977Z</time></trkpt><trkpt lat="45.3794183" lon="9.70593"><ele>73.0</ele><time>2026-04-04T13:47:20.977Z</time></trkpt><trkpt lat="45.37943" lon="9.70575"><ele>73.0</ele><time>2026-04-04T13:47:22.977Z</time></trkpt><trkpt lat="45.379425" lon="9.7055733"><ele>73.0</ele><time>2026-04-04T13:47:24.976Z</time></trkpt><trkpt lat="45.37943" lon="9.7054783"><ele>73.0</ele><time>2026-04-04T13:47:25.977Z</time></trkpt><trkpt lat="45.3794333" lon="9.7053883"><ele>73.0</ele><time>2026-04-04T13:47:26.976Z</time></trkpt><trkpt lat="45.3794267" lon="9.7052883"><ele>72.85714285714286</ele><time>2026-04-04T13:47:27.977Z</time></trkpt><trkpt lat="45.379425" lon="9.7051933"><ele>72.71428571428572</ele><time>2026-04-04T13:47:28.977Z</time></trkpt><trkpt lat="45.379425" lon="9.7051"><ele>72.57142857142858</ele><time>2026-04-04T13:47:29.977Z</time></trkpt><trkpt lat="45.3794267" lon="9.7050017"><ele>72.42857142857143</ele><time>2026-04-04T13:47:30.977Z</time></trkpt><trkpt lat="45.37943" lon="9.7049083"><ele>72.28571428571429</ele><time>2026-04-04T13:47:31.977Z</time></trkpt><trkpt lat="45.3794333" lon="9.704805"><ele>72.14285714285715</ele><time>2026-04-04T13:47:32.977Z</time></trkpt><trkpt lat="45.3794467" lon="9.7047067"><ele>72.0</ele><time>2026-04-04T13:47:33.977Z</time></trkpt><trkpt lat="45.3794583" lon="9.7046117"><ele>72.00000000000001</ele><time>2026-04-04T13:47:34.977Z</time></trkpt><trkpt lat="45.37945" lon="9.7045167"><ele>72.0</ele><time>2026-04-04T13:47:35.977Z</time></trkpt><trkpt lat="45.3794467" lon="9.7044183"><ele>72.0</ele><time>2026-04-04T13:47:36.977Z</time></trkpt><trkpt lat="45.3794467" lon="9.7043183"><ele>72.0</ele><time>2026-04-04T13:47:37.977Z</time></trkpt><trkpt lat="45.379445" lon="9.7042283"><ele>72.0</ele><time>2026-04-04T13:47:38.977Z</time></trkpt><trkpt lat="45.3794417" lon="9.7041383"><ele>72.00000000000001</ele><time>2026-04-04T13:47:39.977Z</time></trkpt><trkpt lat="45.37942" lon="9.70405"><ele>72.0</ele><time>2026-04-04T13:47:40.977Z</time></trkpt><trkpt lat="45.3793533" lon="9.7039067"><ele>72.33333333333333</ele><time>2026-04-04T13:47:42.977Z</time></trkpt><trkpt lat="45.37927" lon="9.7038517"><ele>72.66666666666667</ele><time>2026-04-04T13:47:44.977Z</time></trkpt><trkpt lat="45.3791717" lon="9.70382"><ele>73.0</ele><time>2026-04-04T13:47:46.977Z</time></trkpt><trkpt lat="45.37913" lon="9.7037267"><ele>73.33333333333334</ele><time>2026-04-04T13:47:48.976Z</time></trkpt><trkpt lat="45.37912" lon="9.7036"><ele>73.66666666666667</ele><time>2026-04-04T13:47:50.977Z</time></trkpt><trkpt lat="45.379055" lon="9.7035667"><ele>74.0</ele><time>2026-04-04T13:47:52.977Z</time></trkpt><trkpt lat="45.3789633" lon="9.7035467"><ele>74.4</ele><time>2026-04-04T13:47:54.977Z</time></trkpt><trkpt lat="45.3788567" lon="9.7035067"><ele>74.80000000000001</ele><time>2026-04-04T13:47:56.977Z</time></trkpt><trkpt lat="45.3787567" lon="9.7034667"><ele>75.19999999999999</ele><time>2026-04-04T13:47:58.976Z</time></trkpt><trkpt lat="45.3786433" lon="9.7034483"><ele>75.6</ele><time>2026-04-04T13:48:00.977Z</time></trkpt><trkpt lat="45.3785283" lon="9.70344"><ele>76.0</ele><time>2026-04-04T13:48:02.976Z</time></trkpt><trkpt lat="45.3784183" lon="9.7034617"><ele>75.8</ele><time>2026-04-04T13:48:04.977Z</time></trkpt><trkpt lat="45.37831" lon="9.7034767"><ele>75.6</ele><time>2026-04-04T13:48:06.977Z</time></trkpt><trkpt lat="45.378195" lon="9.703485"><ele>75.4</ele><time>2026-04-04T13:48:08.977Z</time></trkpt><trkpt lat="45.3780817" lon="9.703485"><ele>75.2</ele><time>2026-04-04T13:48:10.977Z</time></trkpt><trkpt lat="45.377975" lon="9.70349"><ele>75.0</ele><time>2026-04-04T13:48:12.977Z</time></trkpt><trkpt lat="45.3778617" lon="9.703485"><ele>75.0</ele><time>2026-04-04T13:48:14.977Z</time></trkpt><trkpt lat="45.37775" lon="9.7034533"><ele>75.0</ele><time>2026-04-04T13:48:16.977Z</time></trkpt><trkpt lat="45.3776583" lon="9.7033867"><ele>75.0</ele><time>2026-04-04T13:48:18.977Z</time></trkpt><trkpt lat="45.3776233" lon="9.7032417"><ele>75.0</ele><time>2026-04-04T13:48:20.977Z</time></trkpt><trkpt lat="45.3776" lon="9.7031167"><ele>75.0</ele><time>2026-04-04T13:48:22.976Z</time></trkpt><trkpt lat="45.3775283" lon="9.7030433"><ele>75.0</ele><time>2026-04-04T13:48:24.977Z</time></trkpt><trkpt lat="45.3774183" lon="9.7029917"><ele>75.0</ele><time>2026-04-04T13:48:26.977Z</time></trkpt><trkpt lat="45.3773617" lon="9.7029517"><ele>75.0</ele><time>2026-04-04T13:48:27.977Z</time></trkpt><trkpt lat="45.37723" lon="9.70293"><ele>75.0</ele><time>2026-04-04T13:48:29.977Z</time></trkpt><trkpt lat="45.3771083" lon="9.7028883"><ele>75.0</ele><time>2026-04-04T13:48:31.977Z</time></trkpt><trkpt lat="45.3770117" lon="9.7028283"><ele>74.83333333333333</ele><time>2026-04-04T13:48:32.977Z</time></trkpt><trkpt lat="45.376935" lon="9.702705"><ele>74.66666666666667</ele><time>2026-04-04T13:48:34.977Z</time></trkpt><trkpt lat="45.3768917" lon="9.7026383"><ele>74.5</ele><time>2026-04-04T13:48:35.977Z</time></trkpt><trkpt lat="45.3768467" lon="9.7025683"><ele>74.33333333333334</ele><time>2026-04-04T13:48:36.977Z</time></trkpt><trkpt lat="45.3767467" lon="9.7024517"><ele>74.16666666666667</ele><time>2026-04-04T13:48:38.977Z</time></trkpt><trkpt lat="45.3766867" lon="9.7024"><ele>74.0</ele><time>2026-04-04T13:48:39.977Z</time></trkpt><trkpt lat="45.37659" lon="9.702305"><ele>74.0</ele><time>2026-04-04T13:48:41.977Z</time></trkpt><trkpt lat="45.37653" lon="9.70226"><ele>74.0</ele><time>2026-04-04T13:48:42.977Z</time></trkpt><trkpt lat="45.3764717" lon="9.7022133"><ele>74.0</ele><time>2026-04-04T13:48:43.977Z</time></trkpt><trkpt lat="45.3764117" lon="9.7021733"><ele>74.0</ele><time>2026-04-04T13:48:44.977Z</time></trkpt><trkpt lat="45.3763517" lon="9.70214"><ele>74.0</ele><time>2026-04-04T13:48:45.977Z</time></trkpt><trkpt lat="45.3762867" lon="9.7021167"><ele>74.0</ele><time>2026-04-04T13:48:46.977Z</time></trkpt><trkpt lat="45.3762217" lon="9.7021"><ele>74.0</ele><time>2026-04-04T13:48:47.976Z</time></trkpt><trkpt lat="45.3761" lon="9.7020783"><ele>73.85714285714286</ele><time>2026-04-04T13:48:49.977Z</time></trkpt><trkpt lat="45.3760333" lon="9.7020717"><ele>73.71428571428571</ele><time>2026-04-04T13:48:50.976Z</time></trkpt><trkpt lat="45.37597" lon="9.7020767"><ele>73.57142857142857</ele><time>2026-04-04T13:48:51.977Z</time></trkpt><trkpt lat="45.37585" lon="9.7021017"><ele>73.42857142857143</ele><time>2026-04-04T13:48:53.977Z</time></trkpt><trkpt lat="45.375785" lon="9.7021183"><ele>73.28571428571429</ele><time>2026-04-04T13:48:54.977Z</time></trkpt><trkpt lat="45.3757217" lon="9.70214"><ele>73.14285714285714</ele><time>2026-04-04T13:48:55.977Z</time></trkpt><trkpt lat="45.3756583" lon="9.7021633"><ele>73.0</ele><time>2026-04-04T13:48:56.977Z</time></trkpt><trkpt lat="45.375595" lon="9.7021817"><ele>73.0</ele><time>2026-04-04T13:48:57.976Z</time></trkpt><trkpt lat="45.375525" lon="9.7022017"><ele>73.0</ele><time>2026-04-04T13:48:58.976Z</time></trkpt><trkpt lat="45.3754583" lon="9.7022067"><ele>73.0</ele><time>2026-04-04T13:48:59.976Z</time></trkpt><trkpt lat="45.3753867" lon="9.7021933"><ele>73.0</ele><time>2026-04-04T13:49:00.976Z</time></trkpt><trkpt lat="45.37528" lon="9.7021183"><ele>73.0</ele><time>2026-04-04T13:49:02.976Z</time></trkpt><trkpt lat="45.3752333" lon="9.7019683"><ele>73.0</ele><time>2026-04-04T13:49:04.976Z</time></trkpt><trkpt lat="45.375235" lon="9.7018083"><ele>73.4</ele><time>2026-04-04T13:49:06.976Z</time></trkpt><trkpt lat="45.375225" lon="9.7016433"><ele>73.8</ele><time>2026-04-04T13:49:08.976Z</time></trkpt><trkpt lat="45.3752133" lon="9.70148"><ele>74.2</ele><time>2026-04-04T13:49:10.976Z</time></trkpt><trkpt lat="45.375205" lon="9.7013267"><ele>74.6</ele><time>2026-04-04T13:49:12.976Z</time></trkpt><trkpt lat="45.3751883" lon="9.7011817"><ele>75.0</ele><time>2026-04-04T13:49:14.976Z</time></trkpt><trkpt lat="45.3751467" lon="9.70108"><ele>75.2</ele><time>2026-04-04T13:49:16.976Z</time></trkpt><trkpt lat="45.37508" lon="9.70104"><ele>75.4</ele><time>2026-04-04T13:49:18.976Z</time></trkpt><trkpt lat="45.3749883" lon="9.70105"><ele>75.6</ele><time>2026-04-04T13:49:20.976Z</time></trkpt><trkpt lat="45.3748917" lon="9.7010683"><ele>75.8</ele><time>2026-04-04T13:49:22.976Z</time></trkpt><trkpt lat="45.3747867" lon="9.70108"><ele>76.0</ele><time>2026-04-04T13:49:24.976Z</time></trkpt><trkpt lat="45.3746817" lon="9.7010867"><ele>75.2</ele><time>2026-04-04T13:49:26.976Z</time></trkpt><trkpt lat="45.374575" lon="9.701095"><ele>74.39999999999999</ele><time>2026-04-04T13:49:28.976Z</time></trkpt><trkpt lat="45.37446" lon="9.7011067"><ele>73.6</ele><time>2026-04-04T13:49:30.975Z</time></trkpt><trkpt lat="45.3743517" lon="9.70111"><ele>72.8</ele><time>2026-04-04T13:49:32.976Z</time></trkpt><trkpt lat="45.3742467" lon="9.7011233"><ele>72.0</ele><time>2026-04-04T13:49:34.976Z</time></trkpt><trkpt lat="45.3741267" lon="9.7011367"><ele>72.0</ele><time>2026-04-04T13:49:36.976Z</time></trkpt><trkpt lat="45.3740067" lon="9.701145"><ele>72.0</ele><time>2026-04-04T13:49:38.976Z</time></trkpt><trkpt lat="45.3738883" lon="9.7011517"><ele>72.0</ele><time>2026-04-04T13:49:40.976Z</time></trkpt><trkpt lat="45.373775" lon="9.7011633"><ele>72.0</ele><time>2026-04-04T13:49:42.976Z</time></trkpt><trkpt lat="45.37366" lon="9.7011733"><ele>72.2</ele><time>2026-04-04T13:49:44.976Z</time></trkpt><trkpt lat="45.37354" lon="9.7011617"><ele>72.4</ele><time>2026-04-04T13:49:46.976Z</time></trkpt><trkpt lat="45.3734767" lon="9.70115"><ele>72.6</ele><time>2026-04-04T13:49:47.976Z</time></trkpt><trkpt lat="45.3733567" lon="9.7011033"><ele>72.8</ele><time>2026-04-04T13:49:49.976Z</time></trkpt><trkpt lat="45.3732367" lon="9.701065"><ele>73.0</ele><time>2026-04-04T13:49:51.976Z</time></trkpt><trkpt lat="45.37312" lon="9.7010217"><ele>73.2</ele><time>2026-04-04T13:49:53.976Z</time></trkpt><trkpt lat="45.3730033" lon="9.700965"><ele>73.4</ele><time>2026-04-04T13:49:55.976Z</time></trkpt><trkpt lat="45.3729417" lon="9.7009433"><ele>73.60000000000001</ele><time>2026-04-04T13:49:56.976Z</time></trkpt><trkpt lat="45.3728267" lon="9.7008883"><ele>73.8</ele><time>2026-04-04T13:49:58.975Z</time></trkpt><trkpt lat="45.372715" lon="9.700825"><ele>74.0</ele><time>2026-04-04T13:50:00.976Z</time></trkpt><trkpt lat="45.3725967" lon="9.70077"><ele>74.0</ele><time>2026-04-04T13:50:02.976Z</time></trkpt><trkpt lat="45.372535" lon="9.700745"><ele>74.0</ele><time>2026-04-04T13:50:03.976Z</time></trkpt><trkpt lat="45.3724267" lon="9.7006967"><ele>74.0</ele><time>2026-04-04T13:50:05.976Z</time></trkpt><trkpt lat="45.3723633" lon="9.7006767"><ele>74.0</ele><time>2026-04-04T13:50:06.976Z</time></trkpt><trkpt lat="45.3722483" lon="9.7006233"><ele>74.0</ele><time>2026-04-04T13:50:08.976Z</time></trkpt><trkpt lat="45.3721367" lon="9.7005783"><ele>73.8</ele><time>2026-04-04T13:50:10.976Z</time></trkpt><trkpt lat="45.372035" lon="9.7005217"><ele>73.60000000000001</ele><time>2026-04-04T13:50:12.975Z</time></trkpt><trkpt lat="45.371925" lon="9.70047"><ele>73.4</ele><time>2026-04-04T13:50:14.976Z</time></trkpt><trkpt lat="45.3718283" lon="9.70043"><ele>73.2</ele><time>2026-04-04T13:50:16.976Z</time></trkpt><trkpt lat="45.3717417" lon="9.700395"><ele>73.0</ele><time>2026-04-04T13:50:18.976Z</time></trkpt><trkpt lat="45.37168" lon="9.7003483"><ele>73.0</ele><time>2026-04-04T13:50:20.976Z</time></trkpt><trkpt lat="45.3715933" lon="9.7003017"><ele>73.0</ele><time>2026-04-04T13:55:47.975Z</time></trkpt><trkpt lat="45.37154" lon="9.700215"><ele>73.0</ele><time>2026-04-04T13:55:51.975Z</time></trkpt><trkpt lat="45.3714883" lon="9.700125"><ele>73.0</ele><time>2026-04-04T13:55:55.975Z</time></trkpt><trkpt lat="45.37147" lon="9.7000283"><ele>73.0</ele><time>2026-04-04T13:55:59.975Z</time></trkpt><trkpt lat="45.3713933" lon="9.69998"><ele>73.0</ele><time>2026-04-04T13:56:02.975Z</time></trkpt><trkpt lat="45.3713217" lon="9.6999383"><ele>72.5</ele><time>2026-04-04T13:56:04.975Z</time></trkpt><trkpt lat="45.3712583" lon="9.6999417"><ele>72.0</ele><time>2026-04-04T13:56:06.975Z</time></trkpt><trkpt lat="45.37121" lon="9.7000383"><ele>71.5</ele><time>2026-04-04T13:56:25.975Z</time></trkpt><trkpt lat="45.371175" lon="9.700115"><ele>71.0</ele><time>2026-04-04T13:56:28.975Z</time></trkpt><trkpt lat="45.371085" lon="9.70015"><ele>70.5</ele><time>2026-04-04T13:56:31.975Z</time></trkpt><trkpt lat="45.371005" lon="9.7001467"><ele>70.0</ele><time>2026-04-04T13:56:33.975Z</time></trkpt><trkpt lat="45.3709017" lon="9.70013"><ele>70.0</ele><time>2026-04-04T13:56:35.975Z</time></trkpt><trkpt lat="45.3708067" lon="9.7000967"><ele>70.0</ele><time>2026-04-04T13:56:37.974Z</time></trkpt><trkpt lat="45.3707133" lon="9.700075"><ele>70.0</ele><time>2026-04-04T13:56:39.975Z</time></trkpt><trkpt lat="45.370635" lon="9.7000183"><ele>70.0</ele><time>2026-04-04T13:56:41.975Z</time></trkpt><trkpt lat="45.3705567" lon="9.699945"><ele>70.0</ele><time>2026-04-04T13:56:43.975Z</time></trkpt><trkpt lat="45.3704883" lon="9.6998917"><ele>70.0</ele><time>2026-04-04T13:56:45.975Z</time></trkpt><trkpt lat="45.3704017" lon="9.6999233"><ele>70.0</ele><time>2026-04-04T13:56:48.975Z</time></trkpt><trkpt lat="45.3703267" lon="9.6999567"><ele>70.0</ele><time>2026-04-04T13:56:50.975Z</time></trkpt><trkpt lat="45.370225" lon="9.6999367"><ele>70.0</ele><time>2026-04-04T13:56:52.975Z</time></trkpt><trkpt lat="45.3701317" lon="9.6999017"><ele>70.0</ele><time>2026-04-04T13:56:54.975Z</time></trkpt><trkpt lat="45.370065" lon="9.6998783"><ele>70.0</ele><time>2026-04-04T13:56:56.975Z</time></trkpt><trkpt lat="45.3700017" lon="9.69984"><ele>70.0</ele><time>2026-04-04T13:56:58.975Z</time></trkpt><trkpt lat="45.3699333" lon="9.6997867"><ele>70.0</ele><time>2026-04-04T13:57:00.975Z</time></trkpt><trkpt lat="45.3698483" lon="9.69973"><ele>70.0</ele><time>2026-04-04T13:57:02.975Z</time></trkpt><trkpt lat="45.3697617" lon="9.6996667"><ele>70.0</ele><time>2026-04-04T13:57:04.975Z</time></trkpt><trkpt lat="45.3696883" lon="9.6995883"><ele>70.0</ele><time>2026-04-04T13:57:06.975Z</time></trkpt><trkpt lat="45.3696067" lon="9.6995117"><ele>69.8</ele><time>2026-04-04T13:57:08.975Z</time></trkpt><trkpt lat="45.3695183" lon="9.6994283"><ele>69.6</ele><time>2026-04-04T13:57:10.975Z</time></trkpt><trkpt lat="45.3694683" lon="9.6993667"><ele>69.4</ele><time>2026-04-04T13:57:11.975Z</time></trkpt><trkpt lat="45.3693883" lon="9.6992567"><ele>69.2</ele><time>2026-04-04T13:57:13.975Z</time></trkpt><trkpt lat="45.3693083" lon="9.6991583"><ele>69.0</ele><time>2026-04-04T13:57:15.975Z</time></trkpt><trkpt lat="45.369225" lon="9.699055"><ele>69.0</ele><time>2026-04-04T13:57:17.974Z</time></trkpt><trkpt lat="45.3691417" lon="9.6989633"><ele>69.0</ele><time>2026-04-04T13:57:19.975Z</time></trkpt><trkpt lat="45.3690933" lon="9.698875"><ele>69.0</ele><time>2026-04-04T13:57:21.975Z</time></trkpt><trkpt lat="45.3691" lon="9.6987817"><ele>69.0</ele><time>2026-04-04T13:57:23.975Z</time></trkpt><trkpt lat="45.36914" lon="9.69868"><ele>69.0</ele><time>2026-04-04T13:57:25.975Z</time></trkpt><trkpt lat="45.3691567" lon="9.69855"><ele>69.0</ele><time>2026-04-04T13:57:27.975Z</time></trkpt><trkpt lat="45.3691717" lon="9.6984167"><ele>69.66666666666667</ele><time>2026-04-04T13:57:29.975Z</time></trkpt><trkpt lat="45.3691917" lon="9.69829"><ele>70.33333333333333</ele><time>2026-04-04T13:57:31.975Z</time></trkpt><trkpt lat="45.369205" lon="9.698175"><ele>71.0</ele><time>2026-04-04T13:57:33.975Z</time></trkpt><trkpt lat="45.369215" lon="9.69806"><ele>71.66666666666666</ele><time>2026-04-04T13:57:35.975Z</time></trkpt><trkpt lat="45.36924" lon="9.6979467"><ele>72.33333333333333</ele><time>2026-04-04T13:57:37.975Z</time></trkpt><trkpt lat="45.369265" lon="9.6978317"><ele>73.0</ele><time>2026-04-04T13:57:39.975Z</time></trkpt><trkpt lat="45.3692783" lon="9.69772"><ele>73.16666666666666</ele><time>2026-04-04T13:57:41.975Z</time></trkpt><trkpt lat="45.3692917" lon="9.6976067"><ele>73.33333333333333</ele><time>2026-04-04T13:57:43.975Z</time></trkpt><trkpt lat="45.3693083" lon="9.6975017"><ele>73.5</ele><time>2026-04-04T13:57:45.975Z</time></trkpt><trkpt lat="45.3693217" lon="9.6973933"><ele>73.66666666666667</ele><time>2026-04-04T13:57:47.975Z</time></trkpt><trkpt lat="45.369335" lon="9.6972783"><ele>73.83333333333334</ele><time>2026-04-04T13:57:49.975Z</time></trkpt><trkpt lat="45.369345" lon="9.6971533"><ele>74.0</ele><time>2026-04-04T13:57:51.975Z</time></trkpt><trkpt lat="45.3693583" lon="9.697015"><ele>74.0</ele><time>2026-04-04T13:57:53.974Z</time></trkpt><trkpt lat="45.3693683" lon="9.6968883"><ele>74.0</ele><time>2026-04-04T13:57:55.975Z</time></trkpt><trkpt lat="45.36938" lon="9.6967567"><ele>74.0</ele><time>2026-04-04T13:57:57.975Z</time></trkpt><trkpt lat="45.36939" lon="9.6966"><ele>74.0</ele><time>2026-04-04T13:57:59.975Z</time></trkpt><trkpt lat="45.3693983" lon="9.696475"><ele>74.0</ele><time>2026-04-04T13:58:01.975Z</time></trkpt><trkpt lat="45.3694117" lon="9.69638"><ele>74.0</ele><time>2026-04-04T13:58:03.975Z</time></trkpt><trkpt lat="45.369475" lon="9.6963583"><ele>74.0</ele><time>2026-04-04T13:58:11.974Z</time></trkpt><trkpt lat="45.3695767" lon="9.6962983"><ele>74.0</ele><time>2026-04-04T13:58:26.975Z</time></trkpt><trkpt lat="45.36959" lon="9.69619"><ele>74.0</ele><time>2026-04-04T13:58:30.975Z</time></trkpt><trkpt lat="45.369525" lon="9.6961633"><ele>74.0</ele><time>2026-04-04T13:58:33.975Z</time></trkpt><trkpt lat="45.3694533" lon="9.69614"><ele>74.0</ele><time>2026-04-04T13:58:35.975Z</time></trkpt><trkpt lat="45.3693733" lon="9.6961117"><ele>74.2</ele><time>2026-04-04T13:58:37.975Z</time></trkpt><trkpt lat="45.369285" lon="9.6960817"><ele>74.4</ele><time>2026-04-04T13:58:39.974Z</time></trkpt><trkpt lat="45.3691883" lon="9.6960633"><ele>74.6</ele><time>2026-04-04T13:58:41.974Z</time></trkpt><trkpt lat="45.3690917" lon="9.6960283"><ele>74.8</ele><time>2026-04-04T13:58:43.974Z</time></trkpt><trkpt lat="45.368985" lon="9.6960133"><ele>75.0</ele><time>2026-04-04T13:58:45.974Z</time></trkpt><trkpt lat="45.3688883" lon="9.6959817"><ele>74.83333333333333</ele><time>2026-04-04T13:58:47.974Z</time></trkpt><trkpt lat="45.36879" lon="9.6959517"><ele>74.66666666666667</ele><time>2026-04-04T13:58:49.974Z</time></trkpt><trkpt lat="45.368695" lon="9.6959233"><ele>74.5</ele><time>2026-04-04T13:58:51.974Z</time></trkpt><trkpt lat="45.3686183" lon="9.6959033"><ele>74.33333333333334</ele><time>2026-04-04T13:58:53.974Z</time></trkpt><trkpt lat="45.36854" lon="9.69588"><ele>74.16666666666667</ele><time>2026-04-04T13:58:55.974Z</time></trkpt><trkpt lat="45.36848" lon="9.6958117"><ele>74.0</ele><time>2026-04-04T13:58:57.974Z</time></trkpt><trkpt lat="45.3684983" lon="9.6957083"><ele>74.0</ele><time>2026-04-04T13:58:59.974Z</time></trkpt><trkpt lat="45.3685283" lon="9.69559"><ele>74.0</ele><time>2026-04-04T13:59:01.974Z</time></trkpt><trkpt lat="45.3685633" lon="9.695455"><ele>74.0</ele><time>2026-04-04T13:59:03.974Z</time></trkpt><trkpt lat="45.36859" lon="9.695315"><ele>74.0</ele><time>2026-04-04T13:59:05.973Z</time></trkpt><trkpt lat="45.3686183" lon="9.6951817"><ele>74.0</ele><time>2026-04-04T13:59:07.974Z</time></trkpt><trkpt lat="45.3686433" lon="9.69505"><ele>74.16666666666667</ele><time>2026-04-04T13:59:09.974Z</time></trkpt><trkpt lat="45.36867" lon="9.69491"><ele>74.33333333333334</ele><time>2026-04-04T13:59:11.974Z</time></trkpt><trkpt lat="45.3686933" lon="9.6947833"><ele>74.5</ele><time>2026-04-04T13:59:13.974Z</time></trkpt><trkpt lat="45.3687133" lon="9.694665"><ele>74.66666666666667</ele><time>2026-04-04T13:59:15.974Z</time></trkpt><trkpt lat="45.3687317" lon="9.69455"><ele>74.83333333333333</ele><time>2026-04-04T13:59:17.974Z</time></trkpt><trkpt lat="45.368745" lon="9.6944367"><ele>75.0</ele><time>2026-04-04T13:59:19.974Z</time></trkpt><trkpt lat="45.3687633" lon="9.6943267"><ele>75.0</ele><time>2026-04-04T13:59:21.974Z</time></trkpt><trkpt lat="45.36879" lon="9.6942183"><ele>75.0</ele><time>2026-04-04T13:59:23.974Z</time></trkpt><trkpt lat="45.3688017" lon="9.6941017"><ele>75.0</ele><time>2026-04-04T13:59:25.974Z</time></trkpt><trkpt lat="45.3687583" lon="9.69401"><ele>75.0</ele><time>2026-04-04T13:59:27.974Z</time></trkpt><trkpt lat="45.3687" lon="9.69392"><ele>75.0</ele><time>2026-04-04T13:59:29.974Z</time></trkpt><trkpt lat="45.368655" lon="9.6938167"><ele>75.0</ele><time>2026-04-04T13:59:31.974Z</time></trkpt><trkpt lat="45.368615" lon="9.6936967"><ele>75.2</ele><time>2026-04-04T13:59:33.974Z</time></trkpt><trkpt lat="45.368605" lon="9.6935567"><ele>75.4</ele><time>2026-04-04T13:59:35.974Z</time></trkpt><trkpt lat="45.3685783" lon="9.6934217"><ele>75.6</ele><time>2026-04-04T13:59:37.974Z</time></trkpt><trkpt lat="45.3685267" lon="9.69329"><ele>75.8</ele><time>2026-04-04T13:59:39.974Z</time></trkpt><trkpt lat="45.3684683" lon="9.6931567"><ele>76.0</ele><time>2026-04-04T13:59:41.974Z</time></trkpt><trkpt lat="45.3683983" lon="9.6930183"><ele>76.0</ele><time>2026-04-04T13:59:43.974Z</time></trkpt><trkpt lat="45.3683233" lon="9.6929017"><ele>76.0</ele><time>2026-04-04T13:59:45.974Z</time></trkpt><trkpt lat="45.368235" lon="9.6928117"><ele>76.0</ele><time>2026-04-04T13:59:47.974Z</time></trkpt><trkpt lat="45.368135" lon="9.6927117"><ele>76.0</ele><time>2026-04-04T13:59:49.974Z</time></trkpt><trkpt lat="45.3680767" lon="9.692665"><ele>76.0</ele><time>2026-04-04T13:59:50.974Z</time></trkpt><trkpt lat="45.3680183" lon="9.6926183"><ele>76.0</ele><time>2026-04-04T13:59:51.974Z</time></trkpt><trkpt lat="45.36795" lon="9.6925867"><ele>76.0</ele><time>2026-04-04T13:59:52.974Z</time></trkpt><trkpt lat="45.3678817" lon="9.6925517"><ele>76.0</ele><time>2026-04-04T13:59:53.974Z</time></trkpt><trkpt lat="45.3678167" lon="9.6925217"><ele>76.0</ele><time>2026-04-04T13:59:54.974Z</time></trkpt><trkpt lat="45.3677483" lon="9.6924917"><ele>76.0</ele><time>2026-04-04T13:59:55.974Z</time></trkpt><trkpt lat="45.3676767" lon="9.6924583"><ele>76.0</ele><time>2026-04-04T13:59:56.974Z</time></trkpt><trkpt lat="45.3676017" lon="9.6924183"><ele>76.0</ele><time>2026-04-04T13:59:57.974Z</time></trkpt><trkpt lat="45.36753" lon="9.6923717"><ele>76.0</ele><time>2026-04-04T13:59:58.973Z</time></trkpt><trkpt lat="45.367455" lon="9.69233"><ele>76.0</ele><time>2026-04-04T13:59:59.974Z</time></trkpt><trkpt lat="45.3673767" lon="9.6922933"><ele>76.0</ele><time>2026-04-04T14:00:00.974Z</time></trkpt><trkpt lat="45.3673017" lon="9.6922533"><ele>76.0</ele><time>2026-04-04T14:00:01.974Z</time></trkpt><trkpt lat="45.3672217" lon="9.6922067"><ele>76.0</ele><time>2026-04-04T14:00:02.974Z</time></trkpt><trkpt lat="45.36712" lon="9.6921583"><ele>76.0</ele><time>2026-04-04T14:00:03.974Z</time></trkpt><trkpt lat="45.3670517" lon="9.692125"><ele>75.66666666666666</ele><time>2026-04-04T14:00:04.974Z</time></trkpt><trkpt lat="45.3669767" lon="9.6921117"><ele>75.33333333333333</ele><time>2026-04-04T14:00:05.974Z</time></trkpt><trkpt lat="45.3669083" lon="9.6921033"><ele>75.0</ele><time>2026-04-04T14:00:06.974Z</time></trkpt><trkpt lat="45.3668117" lon="9.6921333"><ele>74.66666666666667</ele><time>2026-04-04T14:00:08.974Z</time></trkpt><trkpt lat="45.366785" lon="9.6922217"><ele>74.33333333333334</ele><time>2026-04-04T14:00:10.974Z</time></trkpt><trkpt lat="45.3668083" lon="9.692335"><ele>74.0</ele><time>2026-04-04T14:00:13.974Z</time></trkpt><trkpt lat="45.36673" lon="9.69239"><ele>74.0</ele><time>2026-04-04T14:00:16.973Z</time></trkpt><trkpt lat="45.36667" lon="9.6924517"><ele>74.0</ele><time>2026-04-04T14:00:18.974Z</time></trkpt><trkpt lat="45.3666017" lon="9.6925333"><ele>74.0</ele><time>2026-04-04T14:00:21.974Z</time></trkpt><trkpt lat="45.36653" lon="9.6925383"><ele>74.0</ele><time>2026-04-04T14:00:24.974Z</time></trkpt><trkpt lat="45.366465" lon="9.692565"><ele>74.0</ele><time>2026-04-04T14:00:27.974Z</time></trkpt><trkpt lat="45.3664217" lon="9.692635"><ele>74.0</ele><time>2026-04-04T14:00:29.974Z</time></trkpt><trkpt lat="45.3663883" lon="9.6927117"><ele>74.0</ele><time>2026-04-04T14:00:31.974Z</time></trkpt><trkpt lat="45.3663583" lon="9.6928"><ele>74.16666666666667</ele><time>2026-04-04T14:00:33.974Z</time></trkpt><trkpt lat="45.366325" lon="9.6928817"><ele>74.33333333333334</ele><time>2026-04-04T14:00:35.974Z</time></trkpt><trkpt lat="45.3662983" lon="9.6929717"><ele>74.5</ele><time>2026-04-04T14:00:37.974Z</time></trkpt><trkpt lat="45.3662783" lon="9.6930567"><ele>74.66666666666667</ele><time>2026-04-04T14:00:39.974Z</time></trkpt><trkpt lat="45.3662367" lon="9.69316"><ele>74.83333333333333</ele><time>2026-04-04T14:00:42.974Z</time></trkpt><trkpt lat="45.366195" lon="9.693265"><ele>75.0</ele><time>2026-04-04T14:00:45.974Z</time></trkpt><trkpt lat="45.36616" lon="9.693375"><ele>75.0</ele><time>2026-04-04T14:00:48.974Z</time></trkpt><trkpt lat="45.3660233" lon="9.6934983"><ele>75.0</ele><time>2026-04-04T14:01:01.974Z</time></trkpt><trkpt lat="45.366035" lon="9.6935983"><ele>75.0</ele><time>2026-04-04T14:01:05.974Z</time></trkpt><trkpt lat="45.3660367" lon="9.693735"><ele>75.0</ele><time>2026-04-04T14:01:08.974Z</time></trkpt><trkpt lat="45.3660217" lon="9.6938367"><ele>75.0</ele><time>2026-04-04T14:01:10.974Z</time></trkpt><trkpt lat="45.3659867" lon="9.693945"><ele>75.2</ele><time>2026-04-04T14:01:12.974Z</time></trkpt><trkpt lat="45.3659467" lon="9.6940483"><ele>75.4</ele><time>2026-04-04T14:01:14.974Z</time></trkpt><trkpt lat="45.36592" lon="9.694165"><ele>75.6</ele><time>2026-04-04T14:01:16.974Z</time></trkpt><trkpt lat="45.3658867" lon="9.6943067"><ele>75.8</ele><time>2026-04-04T14:01:18.974Z</time></trkpt><trkpt lat="45.365865" lon="9.69444"><ele>76.0</ele><time>2026-04-04T14:01:20.974Z</time></trkpt><trkpt lat="45.3658383" lon="9.6945683"><ele>76.0</ele><time>2026-04-04T14:01:22.974Z</time></trkpt><trkpt lat="45.365805" lon="9.6946867"><ele>76.0</ele><time>2026-04-04T14:01:24.973Z</time></trkpt><trkpt lat="45.36578" lon="9.694795"><ele>76.0</ele><time>2026-04-04T14:01:26.974Z</time></trkpt><trkpt lat="45.3657633" lon="9.6949117"><ele>76.0</ele><time>2026-04-04T14:01:28.973Z</time></trkpt><trkpt lat="45.3657383" lon="9.69503"><ele>76.0</ele><time>2026-04-04T14:01:30.974Z</time></trkpt><trkpt lat="45.36569" lon="9.6951067"><ele>76.0</ele><time>2026-04-04T14:01:32.974Z</time></trkpt><trkpt lat="45.3655933" lon="9.6951017"><ele>75.6</ele><time>2026-04-04T14:01:35.974Z</time></trkpt><trkpt lat="45.36549" lon="9.69508"><ele>75.19999999999999</ele><time>2026-04-04T14:01:37.974Z</time></trkpt><trkpt lat="45.365385" lon="9.6950583"><ele>74.80000000000001</ele><time>2026-04-04T14:01:39.974Z</time></trkpt><trkpt lat="45.365305" lon="9.69502"><ele>74.4</ele><time>2026-04-04T14:01:41.974Z</time></trkpt><trkpt lat="45.3652167" lon="9.6949917"><ele>74.0</ele><time>2026-04-04T14:01:43.974Z</time></trkpt><trkpt lat="45.3651167" lon="9.6949717"><ele>74.0</ele><time>2026-04-04T14:01:45.974Z</time></trkpt><trkpt lat="45.3650167" lon="9.6949533"><ele>74.0</ele><time>2026-04-04T14:01:47.974Z</time></trkpt><trkpt lat="45.3649183" lon="9.6949233"><ele>74.0</ele><time>2026-04-04T14:01:49.974Z</time></trkpt><trkpt lat="45.3648117" lon="9.6949017"><ele>74.0</ele><time>2026-04-04T14:01:51.974Z</time></trkpt><trkpt lat="45.364715" lon="9.6948717"><ele>74.0</ele><time>2026-04-04T14:01:53.974Z</time></trkpt><trkpt lat="45.36462" lon="9.69484"><ele>74.16666666666667</ele><time>2026-04-04T14:01:55.974Z</time></trkpt><trkpt lat="45.3645233" lon="9.694815"><ele>74.33333333333334</ele><time>2026-04-04T14:01:57.974Z</time></trkpt><trkpt lat="45.3644333" lon="9.6947883"><ele>74.5</ele><time>2026-04-04T14:01:59.974Z</time></trkpt><trkpt lat="45.3643517" lon="9.69476"><ele>74.66666666666667</ele><time>2026-04-04T14:02:01.974Z</time></trkpt><trkpt lat="45.3642817" lon="9.6947517"><ele>74.83333333333333</ele><time>2026-04-04T14:02:04.974Z</time></trkpt><trkpt lat="45.3642367" lon="9.6948483"><ele>75.0</ele><time>2026-04-04T14:02:07.974Z</time></trkpt><trkpt lat="45.3642133" lon="9.6949317"><ele>75.0</ele><time>2026-04-04T14:02:09.974Z</time></trkpt><trkpt lat="45.36419" lon="9.6950167"><ele>75.0</ele><time>2026-04-04T14:02:11.974Z</time></trkpt><trkpt lat="45.3641333" lon="9.6951017"><ele>75.0</ele><time>2026-04-04T14:02:13.974Z</time></trkpt><trkpt lat="45.3640733" lon="9.6951967"><ele>75.0</ele><time>2026-04-04T14:02:15.974Z</time></trkpt><trkpt lat="45.3640083" lon="9.69529"><ele>75.0</ele><time>2026-04-04T14:02:17.974Z</time></trkpt><trkpt lat="45.36394" lon="9.695355"><ele>75.0</ele><time>2026-04-04T14:02:19.974Z</time></trkpt><trkpt lat="45.3638733" lon="9.6954083"><ele>74.6</ele><time>2026-04-04T14:02:21.974Z</time></trkpt><trkpt lat="45.3637917" lon="9.6954717"><ele>74.2</ele><time>2026-04-04T14:02:23.974Z</time></trkpt><trkpt lat="45.3637467" lon="9.6955917"><ele>73.8</ele><time>2026-04-04T14:02:25.974Z</time></trkpt><trkpt lat="45.363735" lon="9.695745"><ele>73.4</ele><time>2026-04-04T14:02:27.974Z</time></trkpt><trkpt lat="45.363735" lon="9.6958883"><ele>73.0</ele><time>2026-04-04T14:02:29.974Z</time></trkpt><trkpt lat="45.3637317" lon="9.6960333"><ele>72.6</ele><time>2026-04-04T14:02:31.974Z</time></trkpt><trkpt lat="45.3637417" lon="9.696175"><ele>72.19999999999999</ele><time>2026-04-04T14:02:33.974Z</time></trkpt><trkpt lat="45.363765" lon="9.6963033"><ele>71.8</ele><time>2026-04-04T14:02:35.974Z</time></trkpt><trkpt lat="45.363785" lon="9.69644"><ele>71.39999999999999</ele><time>2026-04-04T14:02:37.974Z</time></trkpt><trkpt lat="45.36379" lon="9.696575"><ele>71.0</ele><time>2026-04-04T14:02:39.973Z</time></trkpt><trkpt lat="45.3637933" lon="9.696705"><ele>71.0</ele><time>2026-04-04T14:02:41.974Z</time></trkpt><trkpt lat="45.3638017" lon="9.696835"><ele>71.0</ele><time>2026-04-04T14:02:43.974Z</time></trkpt><trkpt lat="45.3638133" lon="9.696955"><ele>71.0</ele><time>2026-04-04T14:02:45.974Z</time></trkpt><trkpt lat="45.3638233" lon="9.697055"><ele>71.0</ele><time>2026-04-04T14:02:47.974Z</time></trkpt><trkpt lat="45.3638367" lon="9.6971517"><ele>71.0</ele><time>2026-04-04T14:02:49.974Z</time></trkpt><trkpt lat="45.3638533" lon="9.697255"><ele>71.0</ele><time>2026-04-04T14:02:51.974Z</time></trkpt><trkpt lat="45.363865" lon="9.6973717"><ele>70.83333333333334</ele><time>2026-04-04T14:02:53.974Z</time></trkpt><trkpt lat="45.3638667" lon="9.6974983"><ele>70.66666666666667</ele><time>2026-04-04T14:02:55.973Z</time></trkpt><trkpt lat="45.363865" lon="9.6976117"><ele>70.5</ele><time>2026-04-04T14:02:57.974Z</time></trkpt><trkpt lat="45.36388" lon="9.6977017"><ele>70.33333333333333</ele><time>2026-04-04T14:02:59.974Z</time></trkpt><trkpt lat="45.363895" lon="9.6975783"><ele>70.16666666666666</ele><time>2026-04-04T14:03:06.974Z</time></trkpt><trkpt lat="45.36388" lon="9.6974383"><ele>70.0</ele><time>2026-04-04T14:03:09.974Z</time></trkpt><trkpt lat="45.3638167" lon="9.6973433"><ele>70.0</ele><time>2026-04-04T14:03:11.973Z</time></trkpt><trkpt lat="45.363715" lon="9.6973"><ele>70.0</ele><time>2026-04-04T14:03:13.972Z</time></trkpt><trkpt lat="45.3636133" lon="9.6972717"><ele>70.0</ele><time>2026-04-04T14:03:15.973Z</time></trkpt><trkpt lat="45.3635033" lon="9.6972683"><ele>70.0</ele><time>2026-04-04T14:03:17.973Z</time></trkpt><trkpt lat="45.3633933" lon="9.6972633"><ele>70.0</ele><time>2026-04-04T14:03:19.973Z</time></trkpt><trkpt lat="45.3632817" lon="9.6972467"><ele>70.0</ele><time>2026-04-04T14:03:21.973Z</time></trkpt><trkpt lat="45.363155" lon="9.69724"><ele>70.0</ele><time>2026-04-04T14:03:23.973Z</time></trkpt><trkpt lat="45.36309" lon="9.6972417"><ele>70.0</ele><time>2026-04-04T14:03:24.973Z</time></trkpt><trkpt lat="45.3630267" lon="9.69723"><ele>70.0</ele><time>2026-04-04T14:03:25.973Z</time></trkpt><trkpt lat="45.362905" lon="9.697215"><ele>70.0</ele><time>2026-04-04T14:03:27.973Z</time></trkpt><trkpt lat="45.3627833" lon="9.6971967"><ele>69.6</ele><time>2026-04-04T14:03:29.973Z</time></trkpt><trkpt lat="45.3627183" lon="9.69719"><ele>69.2</ele><time>2026-04-04T14:03:30.973Z</time></trkpt><trkpt lat="45.3626" lon="9.6971633"><ele>68.8</ele><time>2026-04-04T14:03:32.973Z</time></trkpt><trkpt lat="45.362485" lon="9.6971667"><ele>68.4</ele><time>2026-04-04T14:03:34.972Z</time></trkpt><trkpt lat="45.36237" lon="9.697155"><ele>68.0</ele><time>2026-04-04T14:03:36.973Z</time></trkpt><trkpt lat="45.3623067" lon="9.69715"><ele>68.2</ele><time>2026-04-04T14:03:37.973Z</time></trkpt><trkpt lat="45.3621817" lon="9.697135"><ele>68.4</ele><time>2026-04-04T14:03:39.973Z</time></trkpt><trkpt lat="45.3620617" lon="9.697125"><ele>68.60000000000001</ele><time>2026-04-04T14:03:41.973Z</time></trkpt><trkpt lat="45.36195" lon="9.6971067"><ele>68.8</ele><time>2026-04-04T14:03:43.973Z</time></trkpt><trkpt lat="45.3618867" lon="9.6971"><ele>69.0</ele><time>2026-04-04T14:03:44.973Z</time></trkpt><trkpt lat="45.3617767" lon="9.69709"><ele>69.0</ele><time>2026-04-04T14:03:46.973Z</time></trkpt><trkpt lat="45.361665" lon="9.697075"><ele>69.0</ele><time>2026-04-04T14:03:48.973Z</time></trkpt><trkpt lat="45.3616017" lon="9.6970667"><ele>69.0</ele><time>2026-04-04T14:03:49.973Z</time></trkpt><trkpt lat="45.3615" lon="9.6970533"><ele>69.0</ele><time>2026-04-04T14:03:51.973Z</time></trkpt><trkpt lat="45.3614117" lon="9.6970383"><ele>69.0</ele><time>2026-04-04T14:03:53.973Z</time></trkpt><trkpt lat="45.361315" lon="9.697015"><ele>69.0</ele><time>2026-04-04T14:03:55.973Z</time></trkpt><trkpt lat="45.3612033" lon="9.69698"><ele>69.0</ele><time>2026-04-04T14:03:57.973Z</time></trkpt><trkpt lat="45.3610833" lon="9.6969367"><ele>69.0</ele><time>2026-04-04T14:03:59.973Z</time></trkpt><trkpt lat="45.360965" lon="9.6968917"><ele>69.0</ele><time>2026-04-04T14:04:01.973Z</time></trkpt><trkpt lat="45.3608517" lon="9.6968583"><ele>68.60000000000001</ele><time>2026-04-04T14:04:03.973Z</time></trkpt><trkpt lat="45.3607583" lon="9.6968167"><ele>68.2</ele><time>2026-04-04T14:04:05.972Z</time></trkpt><trkpt lat="45.3606633" lon="9.696755"><ele>67.80000000000001</ele><time>2026-04-04T14:04:07.973Z</time></trkpt><trkpt lat="45.3605533" lon="9.6967083"><ele>67.4</ele><time>2026-04-04T14:04:09.973Z</time></trkpt><trkpt lat="45.36044" lon="9.696665"><ele>67.0</ele><time>2026-04-04T14:04:11.973Z</time></trkpt><trkpt lat="45.36038" lon="9.6966283"><ele>66.75</ele><time>2026-04-04T14:04:12.973Z</time></trkpt><trkpt lat="45.3602817" lon="9.6965583"><ele>66.5</ele><time>2026-04-04T14:04:14.973Z</time></trkpt><trkpt lat="45.3601817" lon="9.6964833"><ele>66.25</ele><time>2026-04-04T14:04:16.973Z</time></trkpt><trkpt lat="45.36008" lon="9.6964133"><ele>66.0</ele><time>2026-04-04T14:04:18.972Z</time></trkpt><trkpt lat="45.3599733" lon="9.6963367"><ele>66.0</ele><time>2026-04-04T14:04:20.973Z</time></trkpt><trkpt lat="45.359875" lon="9.696255"><ele>66.0</ele><time>2026-04-04T14:04:22.973Z</time></trkpt><trkpt lat="45.3597717" lon="9.6961717"><ele>66.0</ele><time>2026-04-04T14:04:24.973Z</time></trkpt><trkpt lat="45.3596767" lon="9.6960867"><ele>66.0</ele><time>2026-04-04T14:04:26.972Z</time></trkpt><trkpt lat="45.3595883" lon="9.69598"><ele>66.0</ele><time>2026-04-04T14:04:28.973Z</time></trkpt><trkpt lat="45.359495" lon="9.6959"><ele>66.0</ele><time>2026-04-04T14:04:30.973Z</time></trkpt><trkpt lat="45.359415" lon="9.69581"><ele>66.0</ele><time>2026-04-04T14:04:32.973Z</time></trkpt><trkpt lat="45.35933" lon="9.6957117"><ele>66.0</ele><time>2026-04-04T14:04:34.973Z</time></trkpt><trkpt lat="45.35924" lon="9.6956167"><ele>66.0</ele><time>2026-04-04T14:04:36.973Z</time></trkpt><trkpt lat="45.3591467" lon="9.6955267"><ele>66.0</ele><time>2026-04-04T14:04:38.973Z</time></trkpt><trkpt lat="45.35906" lon="9.6954317"><ele>66.0</ele><time>2026-04-04T14:04:40.973Z</time></trkpt><trkpt lat="45.3589617" lon="9.6953267"><ele>66.0</ele><time>2026-04-04T14:04:42.973Z</time></trkpt><trkpt lat="45.3588633" lon="9.69523"><ele>66.0</ele><time>2026-04-04T14:04:44.973Z</time></trkpt><trkpt lat="45.358765" lon="9.6951333"><ele>68.0</ele><time>2026-04-04T14:04:46.973Z</time></trkpt><trkpt lat="45.3586783" lon="9.6950233"><ele>70.0</ele><time>2026-04-04T14:04:48.973Z</time></trkpt><trkpt lat="45.35858" lon="9.6949333"><ele>72.0</ele><time>2026-04-04T14:04:50.973Z</time></trkpt><trkpt lat="45.35849" lon="9.69484"><ele>74.0</ele><time>2026-04-04T14:04:52.973Z</time></trkpt><trkpt lat="45.35839" lon="9.6947567"><ele>74.0</ele><time>2026-04-04T14:04:54.973Z</time></trkpt><trkpt lat="45.3582883" lon="9.6947033"><ele>74.0</ele><time>2026-04-04T14:04:56.973Z</time></trkpt><trkpt lat="45.358235" lon="9.6946233"><ele>74.0</ele><time>2026-04-04T14:04:58.973Z</time></trkpt><trkpt lat="45.358165" lon="9.6945233"><ele>74.0</ele><time>2026-04-04T14:05:00.973Z</time></trkpt><trkpt lat="45.3580917" lon="9.6944367"><ele>74.0</ele><time>2026-04-04T14:05:02.973Z</time></trkpt><trkpt lat="45.3580133" lon="9.69439"><ele>73.83333333333334</ele><time>2026-04-04T14:05:04.973Z</time></trkpt><trkpt lat="45.3579483" lon="9.6943717"><ele>73.66666666666667</ele><time>2026-04-04T14:05:06.973Z</time></trkpt><trkpt lat="45.3579" lon="9.694285"><ele>73.5</ele><time>2026-04-04T14:05:09.973Z</time></trkpt><trkpt lat="45.3578333" lon="9.6942367"><ele>73.33333333333333</ele><time>2026-04-04T14:05:11.972Z</time></trkpt><trkpt lat="45.3577533" lon="9.6941783"><ele>73.16666666666666</ele><time>2026-04-04T14:05:13.973Z</time></trkpt><trkpt lat="45.3576617" lon="9.6941167"><ele>73.0</ele><time>2026-04-04T14:05:15.973Z</time></trkpt><trkpt lat="45.35756" lon="9.6940583"><ele>73.0</ele><time>2026-04-04T14:05:17.972Z</time></trkpt><trkpt lat="45.3574733" lon="9.693995"><ele>73.0</ele><time>2026-04-04T14:05:19.973Z</time></trkpt><trkpt lat="45.357375" lon="9.6939233"><ele>73.0</ele><time>2026-04-04T14:05:21.972Z</time></trkpt><trkpt lat="45.3572633" lon="9.6939033"><ele>73.0</ele><time>2026-04-04T14:05:23.973Z</time></trkpt><trkpt lat="45.3571667" lon="9.6938383"><ele>73.0</ele><time>2026-04-04T14:05:25.973Z</time></trkpt><trkpt lat="45.3570933" lon="9.6937633"><ele>72.8</ele><time>2026-04-04T14:05:27.973Z</time></trkpt><trkpt lat="45.357005" lon="9.6937"><ele>72.6</ele><time>2026-04-04T14:05:29.973Z</time></trkpt><trkpt lat="45.3569083" lon="9.6936433"><ele>72.4</ele><time>2026-04-04T14:05:31.973Z</time></trkpt><trkpt lat="45.3568117" lon="9.6935917"><ele>72.2</ele><time>2026-04-04T14:05:33.972Z</time></trkpt><trkpt lat="45.3567383" lon="9.6935467"><ele>72.0</ele><time>2026-04-04T14:05:35.973Z</time></trkpt><trkpt lat="45.3566583" lon="9.6935517"><ele>71.5</ele><time>2026-04-04T14:05:40.973Z</time></trkpt><trkpt lat="45.3565883" lon="9.693535"><ele>71.0</ele><time>2026-04-04T14:05:44.973Z</time></trkpt><trkpt lat="45.3565017" lon="9.6934833"><ele>70.5</ele><time>2026-04-04T14:05:47.973Z</time></trkpt><trkpt lat="45.356425" lon="9.693465"><ele>70.0</ele><time>2026-04-04T14:05:49.972Z</time></trkpt><trkpt lat="45.356345" lon="9.693465"><ele>69.5</ele><time>2026-04-04T14:05:51.973Z</time></trkpt><trkpt lat="45.3562483" lon="9.6934367"><ele>69.0</ele><time>2026-04-04T14:05:53.972Z</time></trkpt><trkpt lat="45.3561633" lon="9.6934033"><ele>68.8</ele><time>2026-04-04T14:05:55.973Z</time></trkpt><trkpt lat="45.35606" lon="9.693405"><ele>68.60000000000001</ele><time>2026-04-04T14:05:57.972Z</time></trkpt><trkpt lat="45.355965" lon="9.693375"><ele>68.4</ele><time>2026-04-04T14:05:59.973Z</time></trkpt><trkpt lat="45.355865" lon="9.69337"><ele>68.2</ele><time>2026-04-04T14:06:01.973Z</time></trkpt><trkpt lat="45.3557783" lon="9.6933833"><ele>68.0</ele><time>2026-04-04T14:06:03.973Z</time></trkpt><trkpt lat="45.3556783" lon="9.6933917"><ele>68.0</ele><time>2026-04-04T14:06:05.973Z</time></trkpt><trkpt lat="45.3556117" lon="9.6933333"><ele>68.0</ele><time>2026-04-04T14:06:07.973Z</time></trkpt><trkpt lat="45.3555367" lon="9.6932817"><ele>68.0</ele><time>2026-04-04T14:06:10.973Z</time></trkpt><trkpt lat="45.3554333" lon="9.6932833"><ele>68.0</ele><time>2026-04-04T14:06:12.973Z</time></trkpt><trkpt lat="45.355335" lon="9.6932433"><ele>68.0</ele><time>2026-04-04T14:06:14.973Z</time></trkpt><trkpt lat="45.3552317" lon="9.693255"><ele>68.42857142857142</ele><time>2026-04-04T14:06:16.972Z</time></trkpt><trkpt lat="45.35516" lon="9.6932933"><ele>68.85714285714286</ele><time>2026-04-04T14:06:18.973Z</time></trkpt><trkpt lat="45.355135" lon="9.6934017"><ele>69.28571428571428</ele><time>2026-04-04T14:06:21.973Z</time></trkpt><trkpt lat="45.3551117" lon="9.6934867"><ele>69.71428571428571</ele><time>2026-04-04T14:06:23.973Z</time></trkpt><trkpt lat="45.3550933" lon="9.6935733"><ele>70.14285714285714</ele><time>2026-04-04T14:06:25.973Z</time></trkpt><trkpt lat="45.3550717" lon="9.6936717"><ele>70.57142857142857</ele><time>2026-04-04T14:06:27.973Z</time></trkpt><trkpt lat="45.355055" lon="9.6937833"><ele>71.0</ele><time>2026-04-04T14:06:29.973Z</time></trkpt><trkpt lat="45.3550333" lon="9.69389"><ele>71.16666666666667</ele><time>2026-04-04T14:06:31.973Z</time></trkpt><trkpt lat="45.35501" lon="9.69399"><ele>71.33333333333334</ele><time>2026-04-04T14:06:33.973Z</time></trkpt><trkpt lat="45.3549817" lon="9.69408"><ele>71.5</ele><time>2026-04-04T14:06:35.973Z</time></trkpt><trkpt lat="45.3549233" lon="9.694165"><ele>71.66666666666667</ele><time>2026-04-04T14:06:38.972Z</time></trkpt><trkpt lat="45.35484" lon="9.6941317"><ele>71.83333333333333</ele><time>2026-04-04T14:06:41.973Z</time></trkpt><trkpt lat="45.3547583" lon="9.6941033"><ele>72.0</ele><time>2026-04-04T14:06:44.972Z</time></trkpt><trkpt lat="45.3546683" lon="9.6940767"><ele>72.14285714285715</ele><time>2026-04-04T14:06:47.973Z</time></trkpt><trkpt lat="45.3546" lon="9.69405"><ele>72.28571428571429</ele><time>2026-04-04T14:06:49.973Z</time></trkpt><trkpt lat="45.35453" lon="9.6940383"><ele>72.42857142857143</ele><time>2026-04-04T14:06:51.973Z</time></trkpt><trkpt lat="45.3544617" lon="9.69402"><ele>72.57142857142858</ele><time>2026-04-04T14:06:53.973Z</time></trkpt><trkpt lat="45.354395" lon="9.69401"><ele>72.71428571428572</ele><time>2026-04-04T14:06:55.973Z</time></trkpt><trkpt lat="45.3543317" lon="9.6940017"><ele>72.85714285714286</ele><time>2026-04-04T14:06:57.973Z</time></trkpt><trkpt lat="45.3542567" lon="9.693995"><ele>73.0</ele><time>2026-04-04T14:06:59.973Z</time></trkpt><trkpt lat="45.3541783" lon="9.6939917"><ele>73.0</ele><time>2026-04-04T14:07:01.973Z</time></trkpt><trkpt lat="45.3541067" lon="9.6939983"><ele>73.0</ele><time>2026-04-04T14:07:03.973Z</time></trkpt><trkpt lat="45.354035" lon="9.694015"><ele>73.0</ele><time>2026-04-04T14:07:05.973Z</time></trkpt><trkpt lat="45.35396" lon="9.6940317"><ele>73.0</ele><time>2026-04-04T14:07:07.973Z</time></trkpt><trkpt lat="45.35389" lon="9.694045"><ele>73.0</ele><time>2026-04-04T14:07:09.973Z</time></trkpt><trkpt lat="45.353815" lon="9.6940633"><ele>73.0</ele><time>2026-04-04T14:07:11.973Z</time></trkpt><trkpt lat="45.35373" lon="9.694085"><ele>73.16666666666666</ele><time>2026-04-04T14:07:13.973Z</time></trkpt><trkpt lat="45.35365" lon="9.69409"><ele>73.33333333333333</ele><time>2026-04-04T14:07:15.972Z</time></trkpt><trkpt lat="45.3535667" lon="9.6940883"><ele>73.5</ele><time>2026-04-04T14:07:17.973Z</time></trkpt><trkpt lat="45.353485" lon="9.6941133"><ele>73.66666666666667</ele><time>2026-04-04T14:07:19.973Z</time></trkpt><trkpt lat="45.3534017" lon="9.6941567"><ele>73.83333333333334</ele><time>2026-04-04T14:07:21.973Z</time></trkpt><trkpt lat="45.3533117" lon="9.69418"><ele>74.0</ele><time>2026-04-04T14:07:23.973Z</time></trkpt><trkpt lat="45.3532383" lon="9.6942283"><ele>74.0</ele><time>2026-04-04T14:07:25.973Z</time></trkpt><trkpt lat="45.3531667" lon="9.6942517"><ele>74.0</ele><time>2026-04-04T14:07:27.972Z</time></trkpt><trkpt lat="45.353045" lon="9.6943017"><ele>74.0</ele><time>2026-04-04T14:07:30.973Z</time></trkpt><trkpt lat="45.3529667" lon="9.6943267"><ele>74.0</ele><time>2026-04-04T14:07:32.973Z</time></trkpt><trkpt lat="45.3528833" lon="9.6943533"><ele>74.0</ele><time>2026-04-04T14:07:34.973Z</time></trkpt><trkpt lat="45.352795" lon="9.6943767"><ele>74.0</ele><time>2026-04-04T14:07:36.973Z</time></trkpt><trkpt lat="45.3527067" lon="9.6944083"><ele>74.0</ele><time>2026-04-04T14:07:38.973Z</time></trkpt><trkpt lat="45.3526133" lon="9.6944433"><ele>74.0</ele><time>2026-04-04T14:07:40.973Z</time></trkpt><trkpt lat="45.352515" lon="9.6944833"><ele>74.0</ele><time>2026-04-04T14:07:42.973Z</time></trkpt><trkpt lat="45.35242" lon="9.6945183"><ele>74.0</ele><time>2026-04-04T14:07:44.973Z</time></trkpt><trkpt lat="45.352325" lon="9.6945567"><ele>73.60000000000001</ele><time>2026-04-04T14:07:46.973Z</time></trkpt><trkpt lat="45.352225" lon="9.69459"><ele>73.2</ele><time>2026-04-04T14:07:48.973Z</time></trkpt><trkpt lat="45.3521267" lon="9.6946283"><ele>72.80000000000001</ele><time>2026-04-04T14:07:50.973Z</time></trkpt><trkpt lat="45.3520233" lon="9.694665"><ele>72.4</ele><time>2026-04-04T14:07:52.973Z</time></trkpt><trkpt lat="45.351925" lon="9.6947"><ele>72.0</ele><time>2026-04-04T14:07:54.973Z</time></trkpt><trkpt lat="45.3518317" lon="9.6947333"><ele>71.8</ele><time>2026-04-04T14:07:56.973Z</time></trkpt><trkpt lat="45.3517367" lon="9.6947767"><ele>71.6</ele><time>2026-04-04T14:07:58.973Z</time></trkpt><trkpt lat="45.3516333" lon="9.6948083"><ele>71.39999999999999</ele><time>2026-04-04T14:08:00.973Z</time></trkpt><trkpt lat="45.351525" lon="9.6948367"><ele>71.2</ele><time>2026-04-04T14:08:02.973Z</time></trkpt><trkpt lat="45.3514317" lon="9.69487"><ele>71.0</ele><time>2026-04-04T14:08:04.972Z</time></trkpt><trkpt lat="45.35135" lon="9.6948883"><ele>71.0</ele><time>2026-04-04T14:08:06.973Z</time></trkpt><trkpt lat="45.3512933" lon="9.6948233"><ele>71.0</ele><time>2026-04-04T14:08:08.972Z</time></trkpt><trkpt lat="45.3512833" lon="9.6947333"><ele>71.0</ele><time>2026-04-04T14:08:10.973Z</time></trkpt><trkpt lat="45.35127" lon="9.6946167"><ele>71.0</ele><time>2026-04-04T14:08:12.973Z</time></trkpt><trkpt lat="45.3512533" lon="9.6944883"><ele>71.0</ele><time>2026-04-04T14:08:14.972Z</time></trkpt><trkpt lat="45.3512433" lon="9.6943633"><ele>71.0</ele><time>2026-04-04T14:08:16.972Z</time></trkpt><trkpt lat="45.3512317" lon="9.6942283"><ele>71.0</ele><time>2026-04-04T14:08:18.971Z</time></trkpt><trkpt lat="45.35122" lon="9.6940867"><ele>71.0</ele><time>2026-04-04T14:08:20.972Z</time></trkpt><trkpt lat="45.3512017" lon="9.6939567"><ele>71.0</ele><time>2026-04-04T14:08:22.972Z</time></trkpt><trkpt lat="45.35119" lon="9.6938117"><ele>71.0</ele><time>2026-04-04T14:08:24.972Z</time></trkpt><trkpt lat="45.3511733" lon="9.69367"><ele>71.0</ele><time>2026-04-04T14:08:26.972Z</time></trkpt><trkpt lat="45.3511433" lon="9.69355"><ele>70.66666666666667</ele><time>2026-04-04T14:08:28.972Z</time></trkpt><trkpt lat="45.3511217" lon="9.69343"><ele>70.33333333333334</ele><time>2026-04-04T14:08:31.972Z</time></trkpt><trkpt lat="45.351075" lon="9.69334"><ele>70.0</ele><time>2026-04-04T14:08:34.972Z</time></trkpt><trkpt lat="45.3510067" lon="9.69334"><ele>69.66666666666667</ele><time>2026-04-04T14:08:36.972Z</time></trkpt><trkpt lat="45.3509433" lon="9.6933883"><ele>69.33333333333333</ele><time>2026-04-04T14:08:38.972Z</time></trkpt><trkpt lat="45.350885" lon="9.6934483"><ele>69.0</ele><time>2026-04-04T14:08:41.971Z</time></trkpt><trkpt lat="45.3508133" lon="9.6934917"><ele>69.0</ele><time>2026-04-04T14:08:43.972Z</time></trkpt><trkpt lat="45.350735" lon="9.6934983"><ele>69.0</ele><time>2026-04-04T14:08:45.972Z</time></trkpt><trkpt lat="45.3506683" lon="9.693485"><ele>69.0</ele><time>2026-04-04T14:08:47.972Z</time></trkpt><trkpt lat="45.3505983" lon="9.69351"><ele>69.0</ele><time>2026-04-04T14:08:49.972Z</time></trkpt><trkpt lat="45.350515" lon="9.6935467"><ele>69.0</ele><time>2026-04-04T14:08:51.972Z</time></trkpt><trkpt lat="45.3504483" lon="9.6935667"><ele>69.0</ele><time>2026-04-04T14:08:53.971Z</time></trkpt><trkpt lat="45.3503817" lon="9.69362"><ele>68.5</ele><time>2026-04-04T14:08:56.971Z</time></trkpt><trkpt lat="45.3503167" lon="9.6936583"><ele>68.0</ele><time>2026-04-04T14:09:00.972Z</time></trkpt><trkpt lat="45.3502233" lon="9.693705"><ele>67.5</ele><time>2026-04-04T14:09:03.972Z</time></trkpt><trkpt lat="45.350145" lon="9.6937567"><ele>67.0</ele><time>2026-04-04T14:09:05.972Z</time></trkpt><trkpt lat="45.35007" lon="9.6938183"><ele>66.5</ele><time>2026-04-04T14:09:07.972Z</time></trkpt><trkpt lat="45.3499833" lon="9.6938783"><ele>66.0</ele><time>2026-04-04T14:09:09.972Z</time></trkpt><trkpt lat="45.3498983" lon="9.6939533"><ele>66.0</ele><time>2026-04-04T14:09:11.972Z</time></trkpt><trkpt lat="45.34981" lon="9.6940117"><ele>66.0</ele><time>2026-04-04T14:09:13.972Z</time></trkpt><trkpt lat="45.349745" lon="9.694055"><ele>66.0</ele><time>2026-04-04T14:09:16.972Z</time></trkpt><trkpt lat="45.3496967" lon="9.6941383"><ele>66.0</ele><time>2026-04-04T14:10:37.972Z</time></trkpt><trkpt lat="45.3496183" lon="9.6941783"><ele>66.0</ele><time>2026-04-04T14:10:40.972Z</time></trkpt><trkpt lat="45.3495367" lon="9.6942483"><ele>66.0</ele><time>2026-04-04T14:10:43.972Z</time></trkpt><trkpt lat="45.3494783" lon="9.6943067"><ele>66.66666666666667</ele><time>2026-04-04T14:10:45.972Z</time></trkpt><trkpt lat="45.34942" lon="9.6943733"><ele>67.33333333333333</ele><time>2026-04-04T14:10:47.972Z</time></trkpt><trkpt lat="45.3493733" lon="9.6944367"><ele>68.0</ele><time>2026-04-04T14:10:49.972Z</time></trkpt><trkpt lat="45.349325" lon="9.6945117"><ele>68.66666666666666</ele><time>2026-04-04T14:10:51.972Z</time></trkpt><trkpt lat="45.349245" lon="9.6945933"><ele>69.33333333333333</ele><time>2026-04-04T14:10:54.972Z</time></trkpt><trkpt lat="45.3491733" lon="9.6946617"><ele>70.0</ele><time>2026-04-04T14:10:57.971Z</time></trkpt><trkpt lat="45.34912" lon="9.694755"><ele>70.0</ele><time>2026-04-04T14:11:00.972Z</time></trkpt><trkpt lat="45.3490817" lon="9.6948517"><ele>70.0</ele><time>2026-04-04T14:11:03.972Z</time></trkpt><trkpt lat="45.349025" lon="9.694945"><ele>70.0</ele><time>2026-04-04T14:11:06.972Z</time></trkpt><trkpt lat="45.3489767" lon="9.695015"><ele>70.0</ele><time>2026-04-04T14:11:08.972Z</time></trkpt><trkpt lat="45.3489267" lon="9.6950983"><ele>70.0</ele><time>2026-04-04T14:11:10.971Z</time></trkpt><trkpt lat="45.3488783" lon="9.695185"><ele>70.0</ele><time>2026-04-04T14:11:12.972Z</time></trkpt><trkpt lat="45.3488417" lon="9.695275"><ele>70.0</ele><time>2026-04-04T14:11:14.972Z</time></trkpt><trkpt lat="45.3488033" lon="9.695355"><ele>70.0</ele><time>2026-04-04T14:11:16.971Z</time></trkpt><trkpt lat="45.3487767" lon="9.6954483"><ele>70.0</ele><time>2026-04-04T14:11:18.972Z</time></trkpt><trkpt lat="45.3487433" lon="9.695525"><ele>70.0</ele><time>2026-04-04T14:11:20.972Z</time></trkpt><trkpt lat="45.3487017" lon="9.6956117"><ele>70.0</ele><time>2026-04-04T14:11:22.972Z</time></trkpt><trkpt lat="45.34867" lon="9.695705"><ele>70.0</ele><time>2026-04-04T14:11:24.971Z</time></trkpt><trkpt lat="45.3486333" lon="9.6958"><ele>70.0</ele><time>2026-04-04T14:11:26.972Z</time></trkpt><trkpt lat="45.348615" lon="9.6959067"><ele>70.0</ele><time>2026-04-04T14:11:28.972Z</time></trkpt><trkpt lat="45.3485817" lon="9.6960217"><ele>70.0</ele><time>2026-04-04T14:11:30.972Z</time></trkpt><trkpt lat="45.3485533" lon="9.6961333"><ele>70.0</ele><time>2026-04-04T14:11:32.972Z</time></trkpt><trkpt lat="45.3485233" lon="9.6962517"><ele>70.0</ele><time>2026-04-04T14:11:34.972Z</time></trkpt><trkpt lat="45.3484933" lon="9.6963717"><ele>70.0</ele><time>2026-04-04T14:11:36.972Z</time></trkpt><trkpt lat="45.348465" lon="9.696485"><ele>70.0</ele><time>2026-04-04T14:11:38.972Z</time></trkpt><trkpt lat="45.348425" lon="9.6966083"><ele>69.8</ele><time>2026-04-04T14:11:40.972Z</time></trkpt><trkpt lat="45.3483917" lon="9.6967333"><ele>69.6</ele><time>2026-04-04T14:11:42.972Z</time></trkpt><trkpt lat="45.34836" lon="9.6968583"><ele>69.4</ele><time>2026-04-04T14:11:44.972Z</time></trkpt><trkpt lat="45.3483267" lon="9.6969833"><ele>69.2</ele><time>2026-04-04T14:11:46.972Z</time></trkpt><trkpt lat="45.3482933" lon="9.69711"><ele>69.0</ele><time>2026-04-04T14:11:48.972Z</time></trkpt><trkpt lat="45.34825" lon="9.6972333"><ele>68.83333333333333</ele><time>2026-04-04T14:11:50.972Z</time></trkpt><trkpt lat="45.3482233" lon="9.6973483"><ele>68.66666666666667</ele><time>2026-04-04T14:11:52.972Z</time></trkpt><trkpt lat="45.3481767" lon="9.6974717"><ele>68.5</ele><time>2026-04-04T14:11:54.972Z</time></trkpt><trkpt lat="45.3481333" lon="9.69759"><ele>68.33333333333334</ele><time>2026-04-04T14:11:56.972Z</time></trkpt><trkpt lat="45.3480833" lon="9.6976817"><ele>68.16666666666667</ele><time>2026-04-04T14:11:58.972Z</time></trkpt><trkpt lat="45.3480417" lon="9.697785"><ele>68.0</ele><time>2026-04-04T14:12:00.972Z</time></trkpt><trkpt lat="45.3480017" lon="9.6978767"><ele>67.66666666666667</ele><time>2026-04-04T14:12:02.972Z</time></trkpt><trkpt lat="45.34796" lon="9.6979583"><ele>67.33333333333334</ele><time>2026-04-04T14:12:04.972Z</time></trkpt><trkpt lat="45.347925" lon="9.6980333"><ele>67.0</ele><time>2026-04-04T14:12:06.972Z</time></trkpt><trkpt lat="45.34789" lon="9.6981433"><ele>66.66666666666667</ele><time>2026-04-04T14:12:09.972Z</time></trkpt><trkpt lat="45.3478433" lon="9.698245"><ele>66.33333333333333</ele><time>2026-04-04T14:12:12.972Z</time></trkpt><trkpt lat="45.3478067" lon="9.6983233"><ele>66.0</ele><time>2026-04-04T14:12:14.972Z</time></trkpt><trkpt lat="45.34776" lon="9.6984267"><ele>66.0</ele><time>2026-04-04T14:12:16.972Z</time></trkpt><trkpt lat="45.3477317" lon="9.6985283"><ele>66.0</ele><time>2026-04-04T14:12:18.972Z</time></trkpt><trkpt lat="45.3476833" lon="9.6985933"><ele>66.0</ele><time>2026-04-04T14:12:21.972Z</time></trkpt><trkpt lat="45.3475933" lon="9.6986583"><ele>66.0</ele><time>2026-04-04T14:12:24.972Z</time></trkpt><trkpt lat="45.347535" lon="9.6987767"><ele>66.0</ele><time>2026-04-04T14:12:26.972Z</time></trkpt><trkpt lat="45.3474967" lon="9.6989183"><ele>66.33333333333333</ele><time>2026-04-04T14:12:28.971Z</time></trkpt><trkpt lat="45.3474717" lon="9.6990433"><ele>66.66666666666667</ele><time>2026-04-04T14:12:30.972Z</time></trkpt><trkpt lat="45.3474417" lon="9.6991583"><ele>67.0</ele><time>2026-04-04T14:12:32.972Z</time></trkpt><trkpt lat="45.3474267" lon="9.6992467"><ele>67.33333333333334</ele><time>2026-04-04T14:12:34.972Z</time></trkpt><trkpt lat="45.3474033" lon="9.69934"><ele>67.66666666666667</ele><time>2026-04-04T14:12:36.972Z</time></trkpt><trkpt lat="45.34738" lon="9.6994383"><ele>68.0</ele><time>2026-04-04T14:12:38.972Z</time></trkpt><trkpt lat="45.3473617" lon="9.6995667"><ele>68.0</ele><time>2026-04-04T14:12:40.972Z</time></trkpt><trkpt lat="45.34732" lon="9.6996783"><ele>68.0</ele><time>2026-04-04T14:12:42.972Z</time></trkpt><trkpt lat="45.34726" lon="9.6997833"><ele>68.0</ele><time>2026-04-04T14:12:44.972Z</time></trkpt><trkpt lat="45.3471967" lon="9.6999683"><ele>68.0</ele><time>2026-04-04T14:13:12.971Z</time></trkpt><trkpt lat="45.3471483" lon="9.700035"><ele>68.0</ele><time>2026-04-04T14:13:15.971Z</time></trkpt><trkpt lat="45.347105" lon="9.7001167"><ele>68.0</ele><time>2026-04-04T14:13:18.971Z</time></trkpt><trkpt lat="45.3470083" lon="9.700225"><ele>68.0</ele><time>2026-04-04T14:13:39.97Z</time></trkpt><trkpt lat="45.3469317" lon="9.7002167"><ele>68.0</ele><time>2026-04-04T14:13:43.971Z</time></trkpt><trkpt lat="45.346835" lon="9.7002517"><ele>68.0</ele><time>2026-04-04T14:13:46.971Z</time></trkpt><trkpt lat="45.3467633" lon="9.7002733"><ele>68.0</ele><time>2026-04-04T14:13:48.971Z</time></trkpt><trkpt lat="45.3466883" lon="9.7002767"><ele>68.0</ele><time>2026-04-04T14:13:50.971Z</time></trkpt><trkpt lat="45.3466233" lon="9.7002883"><ele>68.0</ele><time>2026-04-04T14:13:52.971Z</time></trkpt><trkpt lat="45.34655" lon="9.7002833"><ele>68.0</ele><time>2026-04-04T14:13:54.971Z</time></trkpt><trkpt lat="45.3464567" lon="9.7002867"><ele>68.0</ele><time>2026-04-04T14:13:57.971Z</time></trkpt><trkpt lat="45.34638" lon="9.7002883"><ele>68.0</ele><time>2026-04-04T14:13:59.971Z</time></trkpt><trkpt lat="45.3462833" lon="9.7002883"><ele>68.0</ele><time>2026-04-04T14:14:01.971Z</time></trkpt><trkpt lat="45.3461883" lon="9.7002867"><ele>68.0</ele><time>2026-04-04T14:14:03.97Z</time></trkpt><trkpt lat="45.3460933" lon="9.7002867"><ele>68.0</ele><time>2026-04-04T14:14:05.971Z</time></trkpt><trkpt lat="45.3460067" lon="9.700295"><ele>68.0</ele><time>2026-04-04T14:14:07.971Z</time></trkpt><trkpt lat="45.3459383" lon="9.7003217"><ele>68.0</ele><time>2026-04-04T14:14:09.971Z</time></trkpt><trkpt lat="45.3457917" lon="9.700355"><ele>68.0</ele><time>2026-04-04T14:14:31.971Z</time></trkpt><trkpt lat="45.3457067" lon="9.7003533"><ele>68.0</ele><time>2026-04-04T14:14:34.971Z</time></trkpt><trkpt lat="45.3456417" lon="9.700365"><ele>67.99999999999999</ele><time>2026-04-04T14:14:36.971Z</time></trkpt><trkpt lat="45.34557" lon="9.700365"><ele>68.0</ele><time>2026-04-04T14:14:38.971Z</time></trkpt><trkpt lat="45.3455" lon="9.700365"><ele>68.0</ele><time>2026-04-04T14:14:40.971Z</time></trkpt><trkpt lat="45.34543" lon="9.7003683"><ele>68.0</ele><time>2026-04-04T14:14:42.971Z</time></trkpt><trkpt lat="45.3453517" lon="9.70038"><ele>68.0</ele><time>2026-04-04T14:14:44.971Z</time></trkpt><trkpt lat="45.3452783" lon="9.7003833"><ele>67.99999999999999</ele><time>2026-04-04T14:14:46.971Z</time></trkpt><trkpt lat="45.3452017" lon="9.7003783"><ele>68.0</ele><time>2026-04-04T14:14:48.971Z</time></trkpt><trkpt lat="45.3451183" lon="9.7003717"><ele>68.28571428571428</ele><time>2026-04-04T14:14:50.971Z</time></trkpt><trkpt lat="45.345035" lon="9.7003667"><ele>68.57142857142857</ele><time>2026-04-04T14:14:52.971Z</time></trkpt><trkpt lat="45.3449667" lon="9.700355"><ele>68.85714285714286</ele><time>2026-04-04T14:14:54.971Z</time></trkpt><trkpt lat="45.3448883" lon="9.7003517"><ele>69.14285714285714</ele><time>2026-04-04T14:14:58.971Z</time></trkpt><trkpt lat="45.3448417" lon="9.7002867"><ele>69.42857142857143</ele><time>2026-04-04T14:15:02.971Z</time></trkpt><trkpt lat="45.3447917" lon="9.700215"><ele>69.71428571428571</ele><time>2026-04-04T14:15:05.971Z</time></trkpt><trkpt lat="45.3447267" lon="9.70018"><ele>70.0</ele><time>2026-04-04T14:15:07.971Z</time></trkpt><trkpt lat="45.3446667" lon="9.700135"><ele>69.16666666666666</ele><time>2026-04-04T14:15:11.971Z</time></trkpt><trkpt lat="45.34459" lon="9.7000967"><ele>68.33333333333333</ele><time>2026-04-04T14:15:16.971Z</time></trkpt><trkpt lat="45.3445183" lon="9.70007"><ele>67.5</ele><time>2026-04-04T14:15:19.971Z</time></trkpt><trkpt lat="45.34443" lon="9.7001367"><ele>66.66666666666667</ele><time>2026-04-04T14:15:44.971Z</time></trkpt><trkpt lat="45.344365" lon="9.7001467"><ele>65.83333333333334</ele><time>2026-04-04T14:15:46.971Z</time></trkpt><trkpt lat="45.3442817" lon="9.7001367"><ele>65.0</ele><time>2026-04-04T14:15:49.971Z</time></trkpt><trkpt lat="45.3442083" lon="9.7001083"><ele>65.00000000000001</ele><time>2026-04-04T14:15:51.971Z</time></trkpt><trkpt lat="45.344135" lon="9.70011"><ele>65.0</ele><time>2026-04-04T14:15:54.971Z</time></trkpt><trkpt lat="45.3440683" lon="9.700105"><ele>65.0</ele><time>2026-04-04T14:15:57.971Z</time></trkpt><trkpt lat="45.34399" lon="9.70006"><ele>65.0</ele><time>2026-04-04T14:16:01.971Z</time></trkpt><trkpt lat="45.343925" lon="9.7000317"><ele>65.0</ele><time>2026-04-04T14:16:04.971Z</time></trkpt><trkpt lat="45.3438567" lon="9.6999833"><ele>65.00000000000001</ele><time>2026-04-04T14:16:07.971Z</time></trkpt><trkpt lat="45.3437933" lon="9.6999917"><ele>65.0</ele><time>2026-04-04T14:16:10.971Z</time></trkpt><trkpt lat="45.3437167" lon="9.6999683"><ele>65.83333333333334</ele><time>2026-04-04T14:16:13.97Z</time></trkpt><trkpt lat="45.3436283" lon="9.6999467"><ele>66.66666666666667</ele><time>2026-04-04T14:16:16.971Z</time></trkpt><trkpt lat="45.3435417" lon="9.6999067"><ele>67.5</ele><time>2026-04-04T14:16:19.971Z</time></trkpt><trkpt lat="45.3434883" lon="9.6998383"><ele>68.33333333333333</ele><time>2026-04-04T14:16:22.971Z</time></trkpt><trkpt lat="45.34342" lon="9.69979"><ele>69.16666666666666</ele><time>2026-04-04T14:16:26.971Z</time></trkpt><trkpt lat="45.3433517" lon="9.699735"><ele>70.0</ele><time>2026-04-04T14:16:30.971Z</time></trkpt><trkpt lat="45.3433083" lon="9.6996533"><ele>70.0</ele><time>2026-04-04T14:16:33.971Z</time></trkpt><trkpt lat="45.3432483" lon="9.69956"><ele>70.0</ele><time>2026-04-04T14:16:36.971Z</time></trkpt><trkpt lat="45.3432067" lon="9.6994667"><ele>70.0</ele><time>2026-04-04T14:16:39.971Z</time></trkpt><trkpt lat="45.3431433" lon="9.6993833"><ele>70.0</ele><time>2026-04-04T14:16:42.971Z</time></trkpt><trkpt lat="45.3430917" lon="9.6992883"><ele>70.0</ele><time>2026-04-04T14:16:45.971Z</time></trkpt><trkpt lat="45.3430667" lon="9.699205"><ele>70.0</ele><time>2026-04-04T14:16:47.97Z</time></trkpt><trkpt lat="45.3430233" lon="9.699095"><ele>69.71428571428571</ele><time>2026-04-04T14:16:50.971Z</time></trkpt><trkpt lat="45.3429933" lon="9.6989917"><ele>69.42857142857143</ele><time>2026-04-04T14:16:53.971Z</time></trkpt><trkpt lat="45.3429733" lon="9.698875"><ele>69.14285714285714</ele><time>2026-04-04T14:16:56.971Z</time></trkpt><trkpt lat="45.34298" lon="9.6987833"><ele>68.85714285714286</ele><time>2026-04-04T14:16:58.971Z</time></trkpt><trkpt lat="45.3429667" lon="9.698675"><ele>68.57142857142857</ele><time>2026-04-04T14:17:02.971Z</time></trkpt><trkpt lat="45.3429017" lon="9.6986483"><ele>68.28571428571428</ele><time>2026-04-04T14:17:06.971Z</time></trkpt><trkpt lat="45.3428417" lon="9.6986783"><ele>68.0</ele><time>2026-04-04T14:17:09.971Z</time></trkpt><trkpt lat="45.34277" lon="9.6987017"><ele>67.99999999999999</ele><time>2026-04-04T14:17:15.971Z</time></trkpt><trkpt lat="45.3427783" lon="9.69861"><ele>68.0</ele><time>2026-04-04T14:17:19.97Z</time></trkpt><trkpt lat="45.342795" lon="9.6985017"><ele>68.0</ele><time>2026-04-04T14:17:22.97Z</time></trkpt><trkpt lat="45.3428017" lon="9.6984067"><ele>68.0</ele><time>2026-04-04T14:17:25.971Z</time></trkpt><trkpt lat="45.3428117" lon="9.6982917"><ele>68.0</ele><time>2026-04-04T14:17:29.971Z</time></trkpt><trkpt lat="45.3428217" lon="9.698185"><ele>67.99999999999999</ele><time>2026-04-04T14:17:32.971Z</time></trkpt><trkpt lat="45.3428317" lon="9.6980817"><ele>68.0</ele><time>2026-04-04T14:17:35.971Z</time></trkpt><trkpt lat="45.3428267" lon="9.697965"><ele>67.66666666666667</ele><time>2026-04-04T14:17:38.971Z</time></trkpt><trkpt lat="45.3428433" lon="9.6978633"><ele>67.33333333333334</ele><time>2026-04-04T14:17:41.971Z</time></trkpt><trkpt lat="45.3428567" lon="9.6977483"><ele>67.0</ele><time>2026-04-04T14:17:44.971Z</time></trkpt><trkpt lat="45.34288" lon="9.6976217"><ele>66.66666666666667</ele><time>2026-04-04T14:17:47.971Z</time></trkpt><trkpt lat="45.342915" lon="9.6975033"><ele>66.33333333333333</ele><time>2026-04-04T14:17:50.971Z</time></trkpt><trkpt lat="45.3429267" lon="9.697415"><ele>66.0</ele><time>2026-04-04T14:17:52.971Z</time></trkpt><trkpt lat="45.3429417" lon="9.6972883"><ele>65.71428571428571</ele><time>2026-04-04T14:17:55.971Z</time></trkpt><trkpt lat="45.3429683" lon="9.6971567"><ele>65.42857142857143</ele><time>2026-04-04T14:17:58.971Z</time></trkpt><trkpt lat="45.3429933" lon="9.6970683"><ele>65.14285714285714</ele><time>2026-04-04T14:18:00.971Z</time></trkpt><trkpt lat="45.343015" lon="9.6969817"><ele>64.85714285714286</ele><time>2026-04-04T14:18:02.971Z</time></trkpt><trkpt lat="45.34303" lon="9.69689"><ele>64.57142857142857</ele><time>2026-04-04T14:18:04.97Z</time></trkpt><trkpt lat="45.3430517" lon="9.6967933"><ele>64.28571428571428</ele><time>2026-04-04T14:18:06.971Z</time></trkpt><trkpt lat="45.343075" lon="9.6967017"><ele>64.0</ele><time>2026-04-04T14:18:08.971Z</time></trkpt><trkpt lat="45.343105" lon="9.6965983"><ele>63.83333333333333</ele><time>2026-04-04T14:18:10.971Z</time></trkpt><trkpt lat="45.3431317" lon="9.6964867"><ele>63.666666666666664</ele><time>2026-04-04T14:18:12.971Z</time></trkpt><trkpt lat="45.3431517" lon="9.6963767"><ele>63.5</ele><time>2026-04-04T14:18:14.971Z</time></trkpt><trkpt lat="45.3431717" lon="9.6962583"><ele>63.33333333333333</ele><time>2026-04-04T14:18:16.971Z</time></trkpt><trkpt lat="45.3431883" lon="9.6961533"><ele>63.166666666666664</ele><time>2026-04-04T14:18:18.971Z</time></trkpt><trkpt lat="45.343215" lon="9.6960417"><ele>63.0</ele><time>2026-04-04T14:18:20.971Z</time></trkpt><trkpt lat="45.3432317" lon="9.6959217"><ele>63.0</ele><time>2026-04-04T14:18:22.97Z</time></trkpt><trkpt lat="45.3432367" lon="9.695805"><ele>63.0</ele><time>2026-04-04T14:18:24.97Z</time></trkpt><trkpt lat="45.3432433" lon="9.6956883"><ele>63.0</ele><time>2026-04-04T14:18:26.97Z</time></trkpt><trkpt lat="45.3432383" lon="9.6955667"><ele>63.0</ele><time>2026-04-04T14:18:28.97Z</time></trkpt><trkpt lat="45.3432333" lon="9.6954417"><ele>63.0</ele><time>2026-04-04T14:18:30.97Z</time></trkpt><trkpt lat="45.34323" lon="9.6953167"><ele>63.0</ele><time>2026-04-04T14:18:32.969Z</time></trkpt><trkpt lat="45.343205" lon="9.695195"><ele>62.666666666666664</ele><time>2026-04-04T14:18:34.97Z</time></trkpt><trkpt lat="45.3431817" lon="9.6950767"><ele>62.33333333333333</ele><time>2026-04-04T14:18:36.97Z</time></trkpt><trkpt lat="45.3431517" lon="9.6949567"><ele>62.0</ele><time>2026-04-04T14:18:38.97Z</time></trkpt><trkpt lat="45.3431033" lon="9.694845"><ele>61.666666666666664</ele><time>2026-04-04T14:18:40.97Z</time></trkpt><trkpt lat="45.343055" lon="9.6947433"><ele>61.33333333333333</ele><time>2026-04-04T14:18:42.97Z</time></trkpt><trkpt lat="45.3430033" lon="9.6946517"><ele>61.0</ele><time>2026-04-04T14:18:44.97Z</time></trkpt><trkpt lat="45.3429483" lon="9.6945583"><ele>60.99999999999999</ele><time>2026-04-04T14:18:46.97Z</time></trkpt><trkpt lat="45.3428833" lon="9.69447"><ele>61.0</ele><time>2026-04-04T14:18:48.97Z</time></trkpt><trkpt lat="45.3428117" lon="9.6943917"><ele>61.0</ele><time>2026-04-04T14:18:50.97Z</time></trkpt><trkpt lat="45.3427433" lon="9.694315"><ele>61.0</ele><time>2026-04-04T14:18:52.97Z</time></trkpt><trkpt lat="45.3426733" lon="9.6942483"><ele>60.99999999999999</ele><time>2026-04-04T14:18:54.97Z</time></trkpt><trkpt lat="45.3425967" lon="9.69417"><ele>61.0</ele><time>2026-04-04T14:18:56.97Z</time></trkpt><trkpt lat="45.342525" lon="9.6940983"><ele>60.99999999999999</ele><time>2026-04-04T14:18:58.97Z</time></trkpt><trkpt lat="45.3424517" lon="9.6940367"><ele>61.0</ele><time>2026-04-04T14:19:00.97Z</time></trkpt><trkpt lat="45.34237" lon="9.6939733"><ele>61.0</ele><time>2026-04-04T14:19:02.97Z</time></trkpt><trkpt lat="45.3422917" lon="9.693925"><ele>61.0</ele><time>2026-04-04T14:19:04.97Z</time></trkpt><trkpt lat="45.3422167" lon="9.6938767"><ele>60.99999999999999</ele><time>2026-04-04T14:19:06.97Z</time></trkpt><trkpt lat="45.3421417" lon="9.6938117"><ele>61.0</ele><time>2026-04-04T14:19:08.97Z</time></trkpt><trkpt lat="45.3420717" lon="9.693755"><ele>60.83333333333333</ele><time>2026-04-04T14:19:10.97Z</time></trkpt><trkpt lat="45.3419983" lon="9.6936867"><ele>60.666666666666664</ele><time>2026-04-04T14:19:12.97Z</time></trkpt><trkpt lat="45.3419233" lon="9.693625"><ele>60.5</ele><time>2026-04-04T14:19:14.97Z</time></trkpt><trkpt lat="45.3418383" lon="9.6935617"><ele>60.33333333333333</ele><time>2026-04-04T14:19:16.97Z</time></trkpt><trkpt lat="45.3417617" lon="9.6934967"><ele>60.166666666666664</ele><time>2026-04-04T14:19:18.97Z</time></trkpt><trkpt lat="45.3416833" lon="9.693435"><ele>60.0</ele><time>2026-04-04T14:19:20.97Z</time></trkpt><trkpt lat="45.3416033" lon="9.6933633"><ele>60.0</ele><time>2026-04-04T14:19:22.97Z</time></trkpt><trkpt lat="45.3415267" lon="9.693295"><ele>60.0</ele><time>2026-04-04T14:19:24.97Z</time></trkpt><trkpt lat="45.34145" lon="9.69323"><ele>60.0</ele><time>2026-04-04T14:19:26.97Z</time></trkpt><trkpt lat="45.341375" lon="9.6931617"><ele>60.0</ele><time>2026-04-04T14:19:28.97Z</time></trkpt><trkpt lat="45.3413" lon="9.6930883"><ele>60.0</ele><time>2026-04-04T14:19:30.969Z</time></trkpt><trkpt lat="45.341225" lon="9.6930133"><ele>60.2</ele><time>2026-04-04T14:19:32.97Z</time></trkpt><trkpt lat="45.3411483" lon="9.692935"><ele>60.4</ele><time>2026-04-04T14:19:34.97Z</time></trkpt><trkpt lat="45.341075" lon="9.6928533"><ele>60.599999999999994</ele><time>2026-04-04T14:19:36.97Z</time></trkpt><trkpt lat="45.34101" lon="9.6927817"><ele>60.8</ele><time>2026-04-04T14:19:38.97Z</time></trkpt><trkpt lat="45.3409367" lon="9.6926983"><ele>61.0</ele><time>2026-04-04T14:19:40.97Z</time></trkpt><trkpt lat="45.3408667" lon="9.6926183"><ele>61.49999999999999</ele><time>2026-04-04T14:19:42.969Z</time></trkpt><trkpt lat="45.3407983" lon="9.6925367"><ele>62.0</ele><time>2026-04-04T14:19:44.97Z</time></trkpt><trkpt lat="45.3407267" lon="9.692455"><ele>62.5</ele><time>2026-04-04T14:19:46.97Z</time></trkpt><trkpt lat="45.3406583" lon="9.6923767"><ele>63.0</ele><time>2026-04-04T14:19:48.97Z</time></trkpt><trkpt lat="45.3405917" lon="9.692305"><ele>63.49999999999999</ele><time>2026-04-04T14:19:50.97Z</time></trkpt><trkpt lat="45.3405317" lon="9.6922367"><ele>64.0</ele><time>2026-04-04T14:19:52.97Z</time></trkpt><trkpt lat="45.3404783" lon="9.6921683"><ele>63.99999999999999</ele><time>2026-04-04T14:19:54.969Z</time></trkpt><trkpt lat="45.3404267" lon="9.692095"><ele>64.0</ele><time>2026-04-04T14:19:56.97Z</time></trkpt><trkpt lat="45.3403683" lon="9.6920033"><ele>64.0</ele><time>2026-04-04T14:19:58.97Z</time></trkpt><trkpt lat="45.340285" lon="9.6919267"><ele>64.0</ele><time>2026-04-04T14:20:00.97Z</time></trkpt><trkpt lat="45.3402183" lon="9.6919033"><ele>63.99999999999999</ele><time>2026-04-04T14:20:02.97Z</time></trkpt><trkpt lat="45.34015" lon="9.6918983"><ele>64.0</ele><time>2026-04-04T14:20:04.97Z</time></trkpt><trkpt lat="45.3400617" lon="9.6918833"><ele>64.0</ele><time>2026-04-04T14:20:07.97Z</time></trkpt><trkpt lat="45.3399983" lon="9.6918833"><ele>63.99999999999999</ele><time>2026-04-04T14:20:09.97Z</time></trkpt><trkpt lat="45.3399333" lon="9.6918867"><ele>64.0</ele><time>2026-04-04T14:20:11.969Z</time></trkpt><trkpt lat="45.33986" lon="9.6918917"><ele>64.0</ele><time>2026-04-04T14:20:14.97Z</time></trkpt><trkpt lat="45.3397933" lon="9.6919133"><ele>63.99999999999999</ele><time>2026-04-04T14:20:17.97Z</time></trkpt><trkpt lat="45.3397117" lon="9.6919333"><ele>64.0</ele><time>2026-04-04T14:20:20.97Z</time></trkpt><trkpt lat="45.339645" lon="9.691955"><ele>64.0</ele><time>2026-04-04T14:20:22.97Z</time></trkpt><trkpt lat="45.3395717" lon="9.692015"><ele>64.16666666666666</ele><time>2026-04-04T14:20:25.969Z</time></trkpt><trkpt lat="45.3394767" lon="9.6920317"><ele>64.33333333333333</ele><time>2026-04-04T14:20:28.97Z</time></trkpt><trkpt lat="45.3394033" lon="9.6920683"><ele>64.5</ele><time>2026-04-04T14:20:30.97Z</time></trkpt><trkpt lat="45.3393267" lon="9.6921183"><ele>64.66666666666667</ele><time>2026-04-04T14:20:33.97Z</time></trkpt><trkpt lat="45.33925" lon="9.692195"><ele>64.83333333333334</ele><time>2026-04-04T14:20:36.97Z</time></trkpt><trkpt lat="45.3392017" lon="9.69228"><ele>65.0</ele><time>2026-04-04T14:20:38.97Z</time></trkpt><trkpt lat="45.3391617" lon="9.692375"><ele>65.00000000000001</ele><time>2026-04-04T14:20:40.97Z</time></trkpt><trkpt lat="45.3391267" lon="9.6924633"><ele>65.0</ele><time>2026-04-04T14:20:42.97Z</time></trkpt><trkpt lat="45.339105" lon="9.6925567"><ele>65.0</ele><time>2026-04-04T14:20:44.97Z</time></trkpt><trkpt lat="45.33907" lon="9.6926433"><ele>65.0</ele><time>2026-04-04T14:20:46.969Z</time></trkpt><trkpt lat="45.3390417" lon="9.6927283"><ele>65.0</ele><time>2026-04-04T14:20:48.97Z</time></trkpt><trkpt lat="45.3390033" lon="9.6928383"><ele>65.00000000000001</ele><time>2026-04-04T14:20:51.97Z</time></trkpt><trkpt lat="45.3389783" lon="9.69293"><ele>65.0</ele><time>2026-04-04T14:20:53.97Z</time></trkpt><trkpt lat="45.3389583" lon="9.6930317"><ele>65.0</ele><time>2026-04-04T14:20:55.969Z</time></trkpt><trkpt lat="45.3389517" lon="9.693125"><ele>65.0</ele><time>2026-04-04T14:20:57.97Z</time></trkpt><trkpt lat="45.3389183" lon="9.6932117"><ele>65.0</ele><time>2026-04-04T14:20:59.97Z</time></trkpt><trkpt lat="45.3388683" lon="9.6932967"><ele>65.0</ele><time>2026-04-04T14:21:02.97Z</time></trkpt><trkpt lat="45.3388417" lon="9.693405"><ele>65.0</ele><time>2026-04-04T14:21:05.97Z</time></trkpt><trkpt lat="45.3388117" lon="9.6935267"><ele>65.0</ele><time>2026-04-04T14:21:08.97Z</time></trkpt><trkpt lat="45.33878" lon="9.6936433"><ele>65.0</ele><time>2026-04-04T14:21:11.97Z</time></trkpt><trkpt lat="45.33878" lon="9.6937667"><ele>65.0</ele><time>2026-04-04T14:21:14.97Z</time></trkpt><trkpt lat="45.3387717" lon="9.6938817"><ele>65.0</ele><time>2026-04-04T14:21:17.97Z</time></trkpt><trkpt lat="45.3387483" lon="9.693985"><ele>65.0</ele><time>2026-04-04T14:21:20.97Z</time></trkpt><trkpt lat="45.3387017" lon="9.6940883"><ele>65.0</ele><time>2026-04-04T14:21:23.97Z</time></trkpt><trkpt lat="45.3386683" lon="9.6942033"><ele>65.0</ele><time>2026-04-04T14:21:26.97Z</time></trkpt><trkpt lat="45.338645" lon="9.6943317"><ele>64.83333333333334</ele><time>2026-04-04T14:21:29.97Z</time></trkpt><trkpt lat="45.33864" lon="9.6944517"><ele>64.66666666666667</ele><time>2026-04-04T14:21:32.97Z</time></trkpt><trkpt lat="45.3386333" lon="9.6945733"><ele>64.5</ele><time>2026-04-04T14:21:35.97Z</time></trkpt><trkpt lat="45.3386333" lon="9.6947033"><ele>64.33333333333333</ele><time>2026-04-04T14:21:38.97Z</time></trkpt><trkpt lat="45.3386067" lon="9.6948033"><ele>64.16666666666666</ele><time>2026-04-04T14:21:41.97Z</time></trkpt><trkpt lat="45.33858" lon="9.6948917"><ele>64.0</ele><time>2026-04-04T14:21:44.97Z</time></trkpt><trkpt lat="45.3385483" lon="9.6949917"><ele>63.99999999999999</ele><time>2026-04-04T14:21:48.97Z</time></trkpt><trkpt lat="45.3385217" lon="9.6950867"><ele>64.0</ele><time>2026-04-04T14:21:52.97Z</time></trkpt><trkpt lat="45.33853" lon="9.6951867"><ele>64.0</ele><time>2026-04-04T14:21:56.97Z</time></trkpt><trkpt lat="45.3385733" lon="9.6952767"><ele>64.0</ele><time>2026-04-04T14:22:00.97Z</time></trkpt><trkpt lat="45.3386067" lon="9.6953917"><ele>63.99999999999999</ele><time>2026-04-04T14:22:06.969Z</time></trkpt><trkpt lat="45.33861" lon="9.6955083"><ele>64.0</ele><time>2026-04-04T14:22:12.97Z</time></trkpt><trkpt lat="45.3386183" lon="9.695615"><ele>63.83333333333333</ele><time>2026-04-04T14:22:16.97Z</time></trkpt><trkpt lat="45.3386083" lon="9.695715"><ele>63.666666666666664</ele><time>2026-04-04T14:22:22.969Z</time></trkpt><trkpt lat="45.3386167" lon="9.6958133"><ele>63.5</ele><time>2026-04-04T14:22:26.97Z</time></trkpt><trkpt lat="45.33857" lon="9.6959533"><ele>63.33333333333333</ele><time>2026-04-04T14:23:30.97Z</time></trkpt><trkpt lat="45.33857" lon="9.69606"><ele>63.166666666666664</ele><time>2026-04-04T14:23:34.97Z</time></trkpt><trkpt lat="45.338545" lon="9.6961483"><ele>63.0</ele><time>2026-04-04T14:23:37.97Z</time></trkpt><trkpt lat="45.3385433" lon="9.6962533"><ele>63.0</ele><time>2026-04-04T14:23:42.97Z</time></trkpt><trkpt lat="45.3385067" lon="9.696355"><ele>63.0</ele><time>2026-04-04T14:23:46.97Z</time></trkpt><trkpt lat="45.3384983" lon="9.696465"><ele>63.0</ele><time>2026-04-04T14:23:49.97Z</time></trkpt><trkpt lat="45.3385" lon="9.6965733"><ele>63.0</ele><time>2026-04-04T14:23:53.97Z</time></trkpt><trkpt lat="45.3385" lon="9.6966883"><ele>63.0</ele><time>2026-04-04T14:23:57.97Z</time></trkpt><trkpt lat="45.3384917" lon="9.6967967"><ele>63.0</ele><time>2026-04-04T14:24:01.969Z</time></trkpt><trkpt lat="45.33846" lon="9.6968967"><ele>62.85714285714286</ele><time>2026-04-04T14:24:04.97Z</time></trkpt><trkpt lat="45.3384267" lon="9.697"><ele>62.714285714285715</ele><time>2026-04-04T14:24:07.97Z</time></trkpt><trkpt lat="45.33842" lon="9.697095"><ele>62.57142857142857</ele><time>2026-04-04T14:24:10.969Z</time></trkpt><trkpt lat="45.3384017" lon="9.6971867"><ele>62.42857142857143</ele><time>2026-04-04T14:24:13.969Z</time></trkpt><trkpt lat="45.3383717" lon="9.6972967"><ele>62.28571428571429</ele><time>2026-04-04T14:24:16.969Z</time></trkpt><trkpt lat="45.33836" lon="9.69739"><ele>62.142857142857146</ele><time>2026-04-04T14:24:19.969Z</time></trkpt><trkpt lat="45.3383383" lon="9.6974783"><ele>62.0</ele><time>2026-04-04T14:24:22.969Z</time></trkpt><trkpt lat="45.3383017" lon="9.6975967"><ele>62.00000000000001</ele><time>2026-04-04T14:24:25.969Z</time></trkpt><trkpt lat="45.3382633" lon="9.6977117"><ele>62.0</ele><time>2026-04-04T14:24:28.969Z</time></trkpt><trkpt lat="45.3382333" lon="9.697835"><ele>62.0</ele><time>2026-04-04T14:24:31.969Z</time></trkpt><trkpt lat="45.3381817" lon="9.69794"><ele>62.0</ele><time>2026-04-04T14:24:34.968Z</time></trkpt><trkpt lat="45.3381333" lon="9.6980517"><ele>62.00000000000001</ele><time>2026-04-04T14:24:37.969Z</time></trkpt><trkpt lat="45.3380883" lon="9.698155"><ele>62.0</ele><time>2026-04-04T14:24:40.969Z</time></trkpt><trkpt lat="45.338035" lon="9.6982567"><ele>62.0</ele><time>2026-04-04T14:24:43.969Z</time></trkpt><trkpt lat="45.3379833" lon="9.6983233"><ele>62.00000000000001</ele><time>2026-04-04T14:24:45.969Z</time></trkpt><trkpt lat="45.3379233" lon="9.69839"><ele>62.0</ele><time>2026-04-04T14:24:47.969Z</time></trkpt><trkpt lat="45.3378533" lon="9.69847"><ele>62.0</ele><time>2026-04-04T14:24:49.969Z</time></trkpt><trkpt lat="45.3377917" lon="9.6985317"><ele>62.00000000000001</ele><time>2026-04-04T14:24:51.969Z</time></trkpt><trkpt lat="45.337725" lon="9.698575"><ele>62.0</ele><time>2026-04-04T14:24:53.969Z</time></trkpt><trkpt lat="45.3376783" lon="9.6986367"><ele>62.0</ele><time>2026-04-04T14:24:55.968Z</time></trkpt><trkpt lat="45.33761" lon="9.6987017"><ele>62.0</ele><time>2026-04-04T14:24:58.969Z</time></trkpt><trkpt lat="45.3375317" lon="9.698765"><ele>62.00000000000001</ele><time>2026-04-04T14:25:01.968Z</time></trkpt><trkpt lat="45.337475" lon="9.6988117"><ele>62.0</ele><time>2026-04-04T14:25:04.969Z</time></trkpt><trkpt lat="45.33742" lon="9.6988767"><ele>62.0</ele><time>2026-04-04T14:25:07.969Z</time></trkpt><trkpt lat="45.3373583" lon="9.69894"><ele>62.00000000000001</ele><time>2026-04-04T14:25:10.969Z</time></trkpt><trkpt lat="45.3373017" lon="9.699005"><ele>62.0</ele><time>2026-04-04T14:25:16.968Z</time></trkpt><trkpt lat="45.3372633" lon="9.69909"><ele>62.0</ele><time>2026-04-04T14:25:21.969Z</time></trkpt><trkpt lat="45.337195" lon="9.69914"><ele>62.00000000000001</ele><time>2026-04-04T14:25:25.969Z</time></trkpt><trkpt lat="45.3371467" lon="9.6992133"><ele>62.0</ele><time>2026-04-04T14:25:28.969Z</time></trkpt><trkpt lat="45.337155" lon="9.6993267"><ele>62.0</ele><time>2026-04-04T14:25:32.969Z</time></trkpt><trkpt lat="45.33725" lon="9.6993783"><ele>62.0</ele><time>2026-04-04T14:29:40.969Z</time></trkpt><trkpt lat="45.3373083" lon="9.6994183"><ele>62.00000000000001</ele><time>2026-04-04T14:29:43.969Z</time></trkpt><trkpt lat="45.3373683" lon="9.699465"><ele>62.0</ele><time>2026-04-04T14:29:46.969Z</time></trkpt><trkpt lat="45.337415" lon="9.6995467"><ele>62.57142857142858</ele><time>2026-04-04T14:29:49.969Z</time></trkpt><trkpt lat="45.33746" lon="9.6996483"><ele>63.14285714285715</ele><time>2026-04-04T14:29:52.968Z</time></trkpt><trkpt lat="45.3374717" lon="9.6997617"><ele>63.714285714285715</ele><time>2026-04-04T14:29:55.969Z</time></trkpt><trkpt lat="45.3374767" lon="9.6998667"><ele>64.28571428571429</ele><time>2026-04-04T14:29:58.969Z</time></trkpt><trkpt lat="45.33748" lon="9.6999767"><ele>64.85714285714286</ele><time>2026-04-04T14:30:01.968Z</time></trkpt><trkpt lat="45.33749" lon="9.7000717"><ele>65.42857142857143</ele><time>2026-04-04T14:30:04.969Z</time></trkpt><trkpt lat="45.337495" lon="9.7001617"><ele>66.0</ele><time>2026-04-04T14:30:06.969Z</time></trkpt><trkpt lat="45.33749" lon="9.7002833"><ele>66.28571428571428</ele><time>2026-04-04T14:30:09.968Z</time></trkpt><trkpt lat="45.3374917" lon="9.700395"><ele>66.57142857142857</ele><time>2026-04-04T14:30:12.968Z</time></trkpt><trkpt lat="45.3374833" lon="9.7005017"><ele>66.85714285714286</ele><time>2026-04-04T14:30:15.967Z</time></trkpt><trkpt lat="45.3374817" lon="9.70061"><ele>67.14285714285714</ele><time>2026-04-04T14:30:19.968Z</time></trkpt><trkpt lat="45.337475" lon="9.700715"><ele>67.42857142857143</ele><time>2026-04-04T14:30:24.968Z</time></trkpt><trkpt lat="45.3374133" lon="9.7007583"><ele>67.71428571428571</ele><time>2026-04-04T14:30:29.968Z</time></trkpt><trkpt lat="45.33735" lon="9.700785"><ele>68.0</ele><time>2026-04-04T14:30:32.968Z</time></trkpt><trkpt lat="45.337275" lon="9.7008233"><ele>68.16666666666667</ele><time>2026-04-04T14:30:35.968Z</time></trkpt><trkpt lat="45.3371867" lon="9.70088"><ele>68.33333333333334</ele><time>2026-04-04T14:30:38.968Z</time></trkpt><trkpt lat="45.33711" lon="9.7009333"><ele>68.5</ele><time>2026-04-04T14:30:40.968Z</time></trkpt><trkpt lat="45.337035" lon="9.7009783"><ele>68.66666666666667</ele><time>2026-04-04T14:30:42.967Z</time></trkpt><trkpt lat="45.3369617" lon="9.7010183"><ele>68.83333333333333</ele><time>2026-04-04T14:30:44.968Z</time></trkpt><trkpt lat="45.336895" lon="9.7010583"><ele>69.0</ele><time>2026-04-04T14:30:46.968Z</time></trkpt><trkpt lat="45.3368233" lon="9.7011083"><ele>69.0</ele><time>2026-04-04T14:30:48.967Z</time></trkpt><trkpt lat="45.3367483" lon="9.7011617"><ele>69.0</ele><time>2026-04-04T14:30:50.967Z</time></trkpt><trkpt lat="45.3366733" lon="9.701195"><ele>69.0</ele><time>2026-04-04T14:30:52.967Z</time></trkpt><trkpt lat="45.336605" lon="9.7012433"><ele>69.0</ele><time>2026-04-04T14:30:54.968Z</time></trkpt><trkpt lat="45.3365183" lon="9.70129"><ele>69.0</ele><time>2026-04-04T14:30:56.968Z</time></trkpt><trkpt lat="45.336435" lon="9.7013333"><ele>69.0</ele><time>2026-04-04T14:30:58.968Z</time></trkpt><trkpt lat="45.3363467" lon="9.7013833"><ele>69.33333333333333</ele><time>2026-04-04T14:31:00.968Z</time></trkpt><trkpt lat="45.33627" lon="9.7014117"><ele>69.66666666666667</ele><time>2026-04-04T14:31:02.967Z</time></trkpt><trkpt lat="45.3361933" lon="9.70144"><ele>70.0</ele><time>2026-04-04T14:31:04.968Z</time></trkpt><trkpt lat="45.3361033" lon="9.701465"><ele>70.33333333333334</ele><time>2026-04-04T14:31:06.967Z</time></trkpt><trkpt lat="45.3360183" lon="9.701515"><ele>70.66666666666667</ele><time>2026-04-04T14:31:08.968Z</time></trkpt><trkpt lat="45.3359367" lon="9.70157"><ele>71.0</ele><time>2026-04-04T14:31:10.968Z</time></trkpt><trkpt lat="45.3358483" lon="9.7016333"><ele>71.0</ele><time>2026-04-04T14:31:12.968Z</time></trkpt><trkpt lat="45.335775" lon="9.7017133"><ele>71.0</ele><time>2026-04-04T14:31:14.968Z</time></trkpt><trkpt lat="45.335705" lon="9.7018017"><ele>71.0</ele><time>2026-04-04T14:31:16.967Z</time></trkpt><trkpt lat="45.3356417" lon="9.7019"><ele>71.0</ele><time>2026-04-04T14:31:18.968Z</time></trkpt><trkpt lat="45.3355917" lon="9.702015"><ele>71.0</ele><time>2026-04-04T14:31:20.968Z</time></trkpt><trkpt lat="45.3355667" lon="9.7021467"><ele>71.0</ele><time>2026-04-04T14:31:22.968Z</time></trkpt><trkpt lat="45.335565" lon="9.7022683"><ele>71.0</ele><time>2026-04-04T14:31:24.968Z</time></trkpt><trkpt lat="45.3355783" lon="9.702375"><ele>71.0</ele><time>2026-04-04T14:31:26.968Z</time></trkpt><trkpt lat="45.3355733" lon="9.702475"><ele>71.0</ele><time>2026-04-04T14:31:28.968Z</time></trkpt><trkpt lat="45.335565" lon="9.7025867"><ele>71.0</ele><time>2026-04-04T14:31:30.968Z</time></trkpt><trkpt lat="45.3355717" lon="9.7026867"><ele>71.0</ele><time>2026-04-04T14:31:32.967Z</time></trkpt><trkpt lat="45.3356017" lon="9.7027983"><ele>70.66666666666667</ele><time>2026-04-04T14:31:34.968Z</time></trkpt><trkpt lat="45.335625" lon="9.7029117"><ele>70.33333333333334</ele><time>2026-04-04T14:31:36.968Z</time></trkpt><trkpt lat="45.3356567" lon="9.7030317"><ele>70.0</ele><time>2026-04-04T14:31:38.968Z</time></trkpt><trkpt lat="45.3356733" lon="9.70315"><ele>69.66666666666667</ele><time>2026-04-04T14:31:40.968Z</time></trkpt><trkpt lat="45.3357" lon="9.7032717"><ele>69.33333333333333</ele><time>2026-04-04T14:31:42.968Z</time></trkpt><trkpt lat="45.3357083" lon="9.7033967"><ele>69.0</ele><time>2026-04-04T14:31:44.968Z</time></trkpt><trkpt lat="45.3357233" lon="9.703505"><ele>68.66666666666667</ele><time>2026-04-04T14:31:46.968Z</time></trkpt><trkpt lat="45.3357467" lon="9.7036167"><ele>68.33333333333333</ele><time>2026-04-04T14:31:48.968Z</time></trkpt><trkpt lat="45.33577" lon="9.703715"><ele>68.0</ele><time>2026-04-04T14:31:50.968Z</time></trkpt><trkpt lat="45.3357967" lon="9.7038167"><ele>67.66666666666666</ele><time>2026-04-04T14:31:52.968Z</time></trkpt><trkpt lat="45.33584" lon="9.7039117"><ele>67.33333333333333</ele><time>2026-04-04T14:31:54.968Z</time></trkpt><trkpt lat="45.3358933" lon="9.7040317"><ele>67.0</ele><time>2026-04-04T14:31:56.968Z</time></trkpt><trkpt lat="45.3359417" lon="9.704145"><ele>67.0</ele><time>2026-04-04T14:31:58.968Z</time></trkpt><trkpt lat="45.3359967" lon="9.70425"><ele>67.0</ele><time>2026-04-04T14:32:00.967Z</time></trkpt><trkpt lat="45.336045" lon="9.7043533"><ele>67.0</ele><time>2026-04-04T14:32:02.968Z</time></trkpt><trkpt lat="45.3360933" lon="9.7044717"><ele>67.0</ele><time>2026-04-04T14:32:04.968Z</time></trkpt><trkpt lat="45.3361583" lon="9.7045883"><ele>67.0</ele><time>2026-04-04T14:32:06.968Z</time></trkpt><trkpt lat="45.3362233" lon="9.70469"><ele>67.0</ele><time>2026-04-04T14:32:08.968Z</time></trkpt><trkpt lat="45.33628" lon="9.7047833"><ele>67.0</ele><time>2026-04-04T14:32:10.968Z</time></trkpt><trkpt lat="45.33636" lon="9.7048633"><ele>67.0</ele><time>2026-04-04T14:32:12.968Z</time></trkpt><trkpt lat="45.336435" lon="9.7049333"><ele>67.0</ele><time>2026-04-04T14:32:14.968Z</time></trkpt><trkpt lat="45.336515" lon="9.7049967"><ele>67.0</ele><time>2026-04-04T14:32:16.968Z</time></trkpt><trkpt lat="45.3365817" lon="9.7051067"><ele>66.75</ele><time>2026-04-04T14:32:18.968Z</time></trkpt><trkpt lat="45.3366583" lon="9.7052167"><ele>66.5</ele><time>2026-04-04T14:32:20.968Z</time></trkpt><trkpt lat="45.3367317" lon="9.7053367"><ele>66.25</ele><time>2026-04-04T14:32:22.968Z</time></trkpt><trkpt lat="45.3368167" lon="9.7054433"><ele>66.0</ele><time>2026-04-04T14:32:24.968Z</time></trkpt><trkpt lat="45.3369017" lon="9.7055567"><ele>65.8</ele><time>2026-04-04T14:32:26.968Z</time></trkpt><trkpt lat="45.3369767" lon="9.7056633"><ele>65.6</ele><time>2026-04-04T14:32:28.968Z</time></trkpt><trkpt lat="45.3370467" lon="9.7057683"><ele>65.4</ele><time>2026-04-04T14:32:30.968Z</time></trkpt><trkpt lat="45.3371183" lon="9.7058767"><ele>65.2</ele><time>2026-04-04T14:32:32.968Z</time></trkpt><trkpt lat="45.33719" lon="9.7059917"><ele>65.0</ele><time>2026-04-04T14:32:34.968Z</time></trkpt><trkpt lat="45.3372633" lon="9.7061083"><ele>65.0</ele><time>2026-04-04T14:32:36.968Z</time></trkpt><trkpt lat="45.3373317" lon="9.7062417"><ele>65.0</ele><time>2026-04-04T14:32:38.968Z</time></trkpt><trkpt lat="45.3373783" lon="9.7063983"><ele>65.0</ele><time>2026-04-04T14:32:40.968Z</time></trkpt><trkpt lat="45.33741" lon="9.7065483"><ele>65.0</ele><time>2026-04-04T14:32:42.968Z</time></trkpt><trkpt lat="45.337445" lon="9.7067083"><ele>65.0</ele><time>2026-04-04T14:32:44.968Z</time></trkpt><trkpt lat="45.3374833" lon="9.70685"><ele>65.0</ele><time>2026-04-04T14:32:46.967Z</time></trkpt><trkpt lat="45.3375233" lon="9.706995"><ele>65.0</ele><time>2026-04-04T14:32:48.968Z</time></trkpt><trkpt lat="45.337565" lon="9.7071417"><ele>65.0</ele><time>2026-04-04T14:32:50.967Z</time></trkpt><trkpt lat="45.3376067" lon="9.70729"><ele>65.0</ele><time>2026-04-04T14:32:52.968Z</time></trkpt><trkpt lat="45.3376467" lon="9.7074383"><ele>65.0</ele><time>2026-04-04T14:32:54.968Z</time></trkpt><trkpt lat="45.33769" lon="9.7075867"><ele>65.0</ele><time>2026-04-04T14:32:56.968Z</time></trkpt><trkpt lat="45.3377283" lon="9.707735"><ele>65.0</ele><time>2026-04-04T14:32:58.968Z</time></trkpt><trkpt lat="45.3377667" lon="9.7078783"><ele>65.0</ele><time>2026-04-04T14:33:00.968Z</time></trkpt><trkpt lat="45.3378067" lon="9.70802"><ele>65.0</ele><time>2026-04-04T14:33:02.968Z</time></trkpt><trkpt lat="45.33784" lon="9.7081583"><ele>65.2</ele><time>2026-04-04T14:33:04.968Z</time></trkpt><trkpt lat="45.3378817" lon="9.7082933"><ele>65.4</ele><time>2026-04-04T14:33:06.968Z</time></trkpt><trkpt lat="45.3379217" lon="9.70844"><ele>65.6</ele><time>2026-04-04T14:33:08.968Z</time></trkpt><trkpt lat="45.3379633" lon="9.7085833"><ele>65.8</ele><time>2026-04-04T14:33:10.968Z</time></trkpt><trkpt lat="45.3380017" lon="9.7087267"><ele>66.0</ele><time>2026-04-04T14:33:12.968Z</time></trkpt><trkpt lat="45.3380433" lon="9.7088767"><ele>65.8</ele><time>2026-04-04T14:33:14.967Z</time></trkpt><trkpt lat="45.3380817" lon="9.709015"><ele>65.6</ele><time>2026-04-04T14:33:16.968Z</time></trkpt><trkpt lat="45.3381183" lon="9.70916"><ele>65.4</ele><time>2026-04-04T14:33:18.968Z</time></trkpt><trkpt lat="45.3381617" lon="9.7093067"><ele>65.2</ele><time>2026-04-04T14:33:20.968Z</time></trkpt><trkpt lat="45.338205" lon="9.709455"><ele>65.0</ele><time>2026-04-04T14:33:22.968Z</time></trkpt><trkpt lat="45.3382467" lon="9.709605"><ele>65.0</ele><time>2026-04-04T14:33:24.968Z</time></trkpt><trkpt lat="45.3382917" lon="9.7097617"><ele>65.0</ele><time>2026-04-04T14:33:26.968Z</time></trkpt><trkpt lat="45.338335" lon="9.7099133"><ele>65.0</ele><time>2026-04-04T14:33:28.968Z</time></trkpt><trkpt lat="45.3383783" lon="9.710075"><ele>65.0</ele><time>2026-04-04T14:33:30.968Z</time></trkpt><trkpt lat="45.3384267" lon="9.7102317"><ele>65.2</ele><time>2026-04-04T14:33:32.968Z</time></trkpt><trkpt lat="45.33845" lon="9.710315"><ele>65.4</ele><time>2026-04-04T14:33:33.968Z</time></trkpt><trkpt lat="45.3384967" lon="9.7104717"><ele>65.6</ele><time>2026-04-04T14:33:35.968Z</time></trkpt><trkpt lat="45.3385517" lon="9.71063"><ele>65.8</ele><time>2026-04-04T14:33:37.968Z</time></trkpt><trkpt lat="45.338585" lon="9.71071"><ele>66.0</ele><time>2026-04-04T14:33:38.968Z</time></trkpt><trkpt lat="45.3386533" lon="9.710855"><ele>66.0</ele><time>2026-04-04T14:33:40.968Z</time></trkpt><trkpt lat="45.33869" lon="9.7109283"><ele>66.0</ele><time>2026-04-04T14:33:41.968Z</time></trkpt><trkpt lat="45.33873" lon="9.7110033"><ele>66.0</ele><time>2026-04-04T14:33:42.968Z</time></trkpt><trkpt lat="45.3387717" lon="9.7110733"><ele>66.0</ele><time>2026-04-04T14:33:43.968Z</time></trkpt><trkpt lat="45.338815" lon="9.711145"><ele>66.0</ele><time>2026-04-04T14:33:44.968Z</time></trkpt><trkpt lat="45.3388583" lon="9.711215"><ele>66.0</ele><time>2026-04-04T14:33:45.967Z</time></trkpt><trkpt lat="45.3389017" lon="9.7112833"><ele>66.0</ele><time>2026-04-04T14:33:46.968Z</time></trkpt><trkpt lat="45.33899" lon="9.7114183"><ele>66.0</ele><time>2026-04-04T14:33:48.967Z</time></trkpt><trkpt lat="45.3390333" lon="9.71149"><ele>66.0</ele><time>2026-04-04T14:33:49.968Z</time></trkpt><trkpt lat="45.3390783" lon="9.7115617"><ele>66.0</ele><time>2026-04-04T14:33:50.968Z</time></trkpt><trkpt lat="45.3391267" lon="9.71163"><ele>66.0</ele><time>2026-04-04T14:33:51.968Z</time></trkpt><trkpt lat="45.3391683" lon="9.7116983"><ele>66.0</ele><time>2026-04-04T14:33:52.967Z</time></trkpt><trkpt lat="45.3392117" lon="9.7117733"><ele>66.0</ele><time>2026-04-04T14:33:53.968Z</time></trkpt><trkpt lat="45.339255" lon="9.7118433"><ele>66.0</ele><time>2026-04-04T14:33:54.968Z</time></trkpt><trkpt lat="45.3392983" lon="9.7119183"><ele>65.85714285714286</ele><time>2026-04-04T14:33:55.968Z</time></trkpt><trkpt lat="45.339345" lon="9.7119883"><ele>65.71428571428572</ele><time>2026-04-04T14:33:56.968Z</time></trkpt><trkpt lat="45.33939" lon="9.7120567"><ele>65.57142857142858</ele><time>2026-04-04T14:33:57.968Z</time></trkpt><trkpt lat="45.3394333" lon="9.7121267"><ele>65.42857142857143</ele><time>2026-04-04T14:33:58.968Z</time></trkpt><trkpt lat="45.3394783" lon="9.7121967"><ele>65.28571428571429</ele><time>2026-04-04T14:33:59.968Z</time></trkpt><trkpt lat="45.339525" lon="9.7122583"><ele>65.14285714285715</ele><time>2026-04-04T14:34:00.968Z</time></trkpt><trkpt lat="45.3395783" lon="9.7123183"><ele>65.0</ele><time>2026-04-04T14:34:01.968Z</time></trkpt><trkpt lat="45.33964" lon="9.7123683"><ele>65.0</ele><time>2026-04-04T14:34:02.968Z</time></trkpt><trkpt lat="45.3397033" lon="9.7124133"><ele>65.0</ele><time>2026-04-04T14:34:03.968Z</time></trkpt><trkpt lat="45.3397633" lon="9.7124533"><ele>65.0</ele><time>2026-04-04T14:34:04.968Z</time></trkpt><trkpt lat="45.339875" lon="9.7125283"><ele>65.0</ele><time>2026-04-04T14:34:06.968Z</time></trkpt><trkpt lat="45.339975" lon="9.7126"><ele>65.0</ele><time>2026-04-04T14:34:08.968Z</time></trkpt><trkpt lat="45.3400733" lon="9.7126583"><ele>65.25</ele><time>2026-04-04T14:34:10.968Z</time></trkpt><trkpt lat="45.3401717" lon="9.7127167"><ele>65.5</ele><time>2026-04-04T14:34:12.968Z</time></trkpt><trkpt lat="45.340275" lon="9.7127683"><ele>65.75</ele><time>2026-04-04T14:34:14.968Z</time></trkpt><trkpt lat="45.3403817" lon="9.7128433"><ele>66.0</ele><time>2026-04-04T14:34:16.968Z</time></trkpt><trkpt lat="45.340485" lon="9.7129367"><ele>65.71428571428571</ele><time>2026-04-04T14:34:18.968Z</time></trkpt><trkpt lat="45.340535" lon="9.712995"><ele>65.42857142857143</ele><time>2026-04-04T14:34:19.968Z</time></trkpt><trkpt lat="45.3405767" lon="9.7130667"><ele>65.14285714285714</ele><time>2026-04-04T14:34:20.968Z</time></trkpt><trkpt lat="45.3406167" lon="9.7131367"><ele>64.85714285714286</ele><time>2026-04-04T14:34:21.968Z</time></trkpt><trkpt lat="45.340655" lon="9.713215"><ele>64.57142857142857</ele><time>2026-04-04T14:34:22.968Z</time></trkpt><trkpt lat="45.34069" lon="9.7132967"><ele>64.28571428571428</ele><time>2026-04-04T14:34:23.968Z</time></trkpt><trkpt lat="45.34072" lon="9.71338"><ele>64.0</ele><time>2026-04-04T14:34:24.968Z</time></trkpt><trkpt lat="45.3407517" lon="9.713465"><ele>63.99999999999999</ele><time>2026-04-04T14:34:25.968Z</time></trkpt><trkpt lat="45.34078" lon="9.71355"><ele>64.0</ele><time>2026-04-04T14:34:26.968Z</time></trkpt><trkpt lat="45.3408067" lon="9.7136367"><ele>64.0</ele><time>2026-04-04T14:34:27.968Z</time></trkpt><trkpt lat="45.340835" lon="9.7137267"><ele>64.0</ele><time>2026-04-04T14:34:28.968Z</time></trkpt><trkpt lat="45.34086" lon="9.7138167"><ele>63.99999999999999</ele><time>2026-04-04T14:34:29.968Z</time></trkpt><trkpt lat="45.3408833" lon="9.7139033"><ele>64.0</ele><time>2026-04-04T14:34:30.968Z</time></trkpt><trkpt lat="45.3409317" lon="9.71407"><ele>64.2</ele><time>2026-04-04T14:34:32.968Z</time></trkpt><trkpt lat="45.3409833" lon="9.7142333"><ele>64.4</ele><time>2026-04-04T14:34:34.968Z</time></trkpt><trkpt lat="45.34101" lon="9.71432"><ele>64.6</ele><time>2026-04-04T14:34:35.968Z</time></trkpt><trkpt lat="45.3410583" lon="9.7144767"><ele>64.8</ele><time>2026-04-04T14:34:37.968Z</time></trkpt><trkpt lat="45.3411017" lon="9.7146183"><ele>65.0</ele><time>2026-04-04T14:34:39.968Z</time></trkpt><trkpt lat="45.3411217" lon="9.7147667"><ele>65.5</ele><time>2026-04-04T14:34:41.967Z</time></trkpt><trkpt lat="45.3411317" lon="9.714915"><ele>66.0</ele><time>2026-04-04T14:34:43.968Z</time></trkpt><trkpt lat="45.3411517" lon="9.7150717"><ele>66.5</ele><time>2026-04-04T14:34:45.968Z</time></trkpt><trkpt lat="45.3411883" lon="9.715235"><ele>67.0</ele><time>2026-04-04T14:34:47.967Z</time></trkpt><trkpt lat="45.3412283" lon="9.7154083"><ele>67.14285714285714</ele><time>2026-04-04T14:34:49.967Z</time></trkpt><trkpt lat="45.341245" lon="9.715495"><ele>67.28571428571428</ele><time>2026-04-04T14:34:50.968Z</time></trkpt><trkpt lat="45.3412617" lon="9.7155817"><ele>67.42857142857142</ele><time>2026-04-04T14:34:51.968Z</time></trkpt><trkpt lat="45.3412683" lon="9.7156767"><ele>67.57142857142857</ele><time>2026-04-04T14:34:52.968Z</time></trkpt><trkpt lat="45.34128" lon="9.7157667"><ele>67.71428571428571</ele><time>2026-04-04T14:34:53.968Z</time></trkpt><trkpt lat="45.3413" lon="9.7158517"><ele>67.85714285714285</ele><time>2026-04-04T14:34:54.968Z</time></trkpt><trkpt lat="45.3413233" lon="9.71594"><ele>68.0</ele><time>2026-04-04T14:34:55.967Z</time></trkpt><trkpt lat="45.3413433" lon="9.71603"><ele>68.0</ele><time>2026-04-04T14:34:56.968Z</time></trkpt><trkpt lat="45.3413617" lon="9.716125"><ele>68.0</ele><time>2026-04-04T14:34:57.968Z</time></trkpt><trkpt lat="45.34138" lon="9.7162183"><ele>68.0</ele><time>2026-04-04T14:34:58.968Z</time></trkpt><trkpt lat="45.3414" lon="9.716305"><ele>68.0</ele><time>2026-04-04T14:34:59.968Z</time></trkpt><trkpt lat="45.3414367" lon="9.7164783"><ele>68.0</ele><time>2026-04-04T14:35:01.968Z</time></trkpt><trkpt lat="45.341495" lon="9.7166417"><ele>68.0</ele><time>2026-04-04T14:35:03.968Z</time></trkpt><trkpt lat="45.3415183" lon="9.7167317"><ele>68.0</ele><time>2026-04-04T14:35:04.968Z</time></trkpt><trkpt lat="45.3415433" lon="9.716815"><ele>68.0</ele><time>2026-04-04T14:35:05.968Z</time></trkpt><trkpt lat="45.3415733" lon="9.7169017"><ele>68.0</ele><time>2026-04-04T14:35:06.968Z</time></trkpt><trkpt lat="45.3416067" lon="9.7169883"><ele>68.0</ele><time>2026-04-04T14:35:07.968Z</time></trkpt><trkpt lat="45.34164" lon="9.7170717"><ele>68.0</ele><time>2026-04-04T14:35:08.968Z</time></trkpt><trkpt lat="45.3416967" lon="9.7172233"><ele>68.0</ele><time>2026-04-04T14:35:10.968Z</time></trkpt><trkpt lat="45.3417317" lon="9.7172983"><ele>68.0</ele><time>2026-04-04T14:35:11.968Z</time></trkpt><trkpt lat="45.341795" lon="9.717455"><ele>68.0</ele><time>2026-04-04T14:35:13.968Z</time></trkpt><trkpt lat="45.3418283" lon="9.7175367"><ele>68.0</ele><time>2026-04-04T14:35:14.968Z</time></trkpt><trkpt lat="45.34186" lon="9.7176183"><ele>68.0</ele><time>2026-04-04T14:35:15.968Z</time></trkpt><trkpt lat="45.3418917" lon="9.7177017"><ele>68.0</ele><time>2026-04-04T14:35:16.967Z</time></trkpt><trkpt lat="45.341925" lon="9.7177833"><ele>67.99999999999999</ele><time>2026-04-04T14:35:17.968Z</time></trkpt><trkpt lat="45.3419533" lon="9.7178667"><ele>68.0</ele><time>2026-04-04T14:35:18.968Z</time></trkpt><trkpt lat="45.341985" lon="9.7179483"><ele>68.0</ele><time>2026-04-04T14:35:19.968Z</time></trkpt><trkpt lat="45.3420117" lon="9.7180333"><ele>68.0</ele><time>2026-04-04T14:35:20.968Z</time></trkpt><trkpt lat="45.3420467" lon="9.7181133"><ele>68.0</ele><time>2026-04-04T14:35:21.968Z</time></trkpt><trkpt lat="45.34208" lon="9.7181933"><ele>67.99999999999999</ele><time>2026-04-04T14:35:22.968Z</time></trkpt><trkpt lat="45.3421133" lon="9.7182733"><ele>68.0</ele><time>2026-04-04T14:35:23.968Z</time></trkpt><trkpt lat="45.3421433" lon="9.718355"><ele>68.0</ele><time>2026-04-04T14:35:24.968Z</time></trkpt><trkpt lat="45.3422017" lon="9.7185117"><ele>68.0</ele><time>2026-04-04T14:35:26.968Z</time></trkpt><trkpt lat="45.3422567" lon="9.71866"><ele>68.0</ele><time>2026-04-04T14:35:28.968Z</time></trkpt><trkpt lat="45.3423133" lon="9.7188083"><ele>68.0</ele><time>2026-04-04T14:35:30.968Z</time></trkpt><trkpt lat="45.3423567" lon="9.7189783"><ele>68.0</ele><time>2026-04-04T14:35:32.968Z</time></trkpt><trkpt lat="45.342405" lon="9.7191467"><ele>68.0</ele><time>2026-04-04T14:35:34.967Z</time></trkpt><trkpt lat="45.3424267" lon="9.7192367"><ele>68.0</ele><time>2026-04-04T14:35:35.968Z</time></trkpt><trkpt lat="45.3424767" lon="9.7194033"><ele>68.0</ele><time>2026-04-04T14:35:37.968Z</time></trkpt><trkpt lat="45.34251" lon="9.719485"><ele>68.0</ele><time>2026-04-04T14:35:38.968Z</time></trkpt><trkpt lat="45.3425583" lon="9.7196467"><ele>68.0</ele><time>2026-04-04T14:35:40.968Z</time></trkpt><trkpt lat="45.3425917" lon="9.719725"><ele>68.0</ele><time>2026-04-04T14:35:41.968Z</time></trkpt><trkpt lat="45.34262" lon="9.7198083"><ele>68.0</ele><time>2026-04-04T14:35:42.968Z</time></trkpt><trkpt lat="45.3426683" lon="9.71996"><ele>68.0</ele><time>2026-04-04T14:35:44.968Z</time></trkpt><trkpt lat="45.342705" lon="9.7201217"><ele>68.0</ele><time>2026-04-04T14:35:46.968Z</time></trkpt><trkpt lat="45.3427283" lon="9.720285"><ele>68.0</ele><time>2026-04-04T14:35:48.967Z</time></trkpt><trkpt lat="45.3427633" lon="9.7204533"><ele>68.0</ele><time>2026-04-04T14:35:50.968Z</time></trkpt><trkpt lat="45.34279" lon="9.7206183"><ele>68.0</ele><time>2026-04-04T14:35:52.967Z</time></trkpt><trkpt lat="45.34282" lon="9.72078"><ele>68.0</ele><time>2026-04-04T14:35:54.968Z</time></trkpt><trkpt lat="45.34284" lon="9.7209483"><ele>68.25</ele><time>2026-04-04T14:35:56.968Z</time></trkpt><trkpt lat="45.3428567" lon="9.7211117"><ele>68.5</ele><time>2026-04-04T14:35:58.968Z</time></trkpt><trkpt lat="45.3428883" lon="9.72127"><ele>68.75</ele><time>2026-04-04T14:36:00.968Z</time></trkpt><trkpt lat="45.3429133" lon="9.7214283"><ele>69.0</ele><time>2026-04-04T14:36:02.968Z</time></trkpt><trkpt lat="45.342935" lon="9.7215933"><ele>69.0</ele><time>2026-04-04T14:36:04.968Z</time></trkpt><trkpt lat="45.3429583" lon="9.72175"><ele>69.0</ele><time>2026-04-04T14:36:06.968Z</time></trkpt><trkpt lat="45.3429767" lon="9.7219133"><ele>69.0</ele><time>2026-04-04T14:36:08.968Z</time></trkpt><trkpt lat="45.342995" lon="9.7220733"><ele>69.0</ele><time>2026-04-04T14:36:10.968Z</time></trkpt><trkpt lat="45.3430133" lon="9.722225"><ele>69.0</ele><time>2026-04-04T14:36:12.968Z</time></trkpt><trkpt lat="45.3430367" lon="9.72238"><ele>69.0</ele><time>2026-04-04T14:36:14.968Z</time></trkpt><trkpt lat="45.343055" lon="9.7225417"><ele>69.0</ele><time>2026-04-04T14:36:16.968Z</time></trkpt><trkpt lat="45.343065" lon="9.7227033"><ele>69.0</ele><time>2026-04-04T14:36:18.968Z</time></trkpt><trkpt lat="45.3430783" lon="9.722865"><ele>69.0</ele><time>2026-04-04T14:36:20.968Z</time></trkpt><trkpt lat="45.3430767" lon="9.7230183"><ele>69.0</ele><time>2026-04-04T14:36:22.967Z</time></trkpt><trkpt lat="45.3430633" lon="9.72317"><ele>69.0</ele><time>2026-04-04T14:36:24.967Z</time></trkpt><trkpt lat="45.3430433" lon="9.72332"><ele>69.0</ele><time>2026-04-04T14:36:26.967Z</time></trkpt><trkpt lat="45.34303" lon="9.7234717"><ele>69.0</ele><time>2026-04-04T14:36:28.967Z</time></trkpt><trkpt lat="45.343015" lon="9.7236267"><ele>69.0</ele><time>2026-04-04T14:36:30.966Z</time></trkpt><trkpt lat="45.3429983" lon="9.7237667"><ele>69.0</ele><time>2026-04-04T14:36:32.967Z</time></trkpt><trkpt lat="45.3429917" lon="9.723915"><ele>69.0</ele><time>2026-04-04T14:36:34.967Z</time></trkpt><trkpt lat="45.3429883" lon="9.72407"><ele>69.0</ele><time>2026-04-04T14:36:36.967Z</time></trkpt><trkpt lat="45.3429717" lon="9.7242167"><ele>69.0</ele><time>2026-04-04T14:36:38.967Z</time></trkpt><trkpt lat="45.3429583" lon="9.724365"><ele>69.2</ele><time>2026-04-04T14:36:40.967Z</time></trkpt><trkpt lat="45.3429533" lon="9.724515"><ele>69.4</ele><time>2026-04-04T14:36:42.967Z</time></trkpt><trkpt lat="45.3429567" lon="9.72466"><ele>69.6</ele><time>2026-04-04T14:36:44.967Z</time></trkpt><trkpt lat="45.3429717" lon="9.7247967"><ele>69.8</ele><time>2026-04-04T14:36:46.966Z</time></trkpt><trkpt lat="45.3429867" lon="9.72492"><ele>70.0</ele><time>2026-04-04T14:36:48.967Z</time></trkpt><trkpt lat="45.342995" lon="9.72505"><ele>70.0</ele><time>2026-04-04T14:36:50.967Z</time></trkpt><trkpt lat="45.3430133" lon="9.7251717"><ele>70.0</ele><time>2026-04-04T14:36:52.967Z</time></trkpt><trkpt lat="45.3430283" lon="9.725285"><ele>70.0</ele><time>2026-04-04T14:36:54.967Z</time></trkpt><trkpt lat="45.3430617" lon="9.7253967"><ele>70.0</ele><time>2026-04-04T14:36:56.967Z</time></trkpt><trkpt lat="45.34309" lon="9.725505"><ele>70.0</ele><time>2026-04-04T14:36:58.966Z</time></trkpt><trkpt lat="45.3431367" lon="9.7256017"><ele>70.0</ele><time>2026-04-04T14:37:01.967Z</time></trkpt><trkpt lat="45.3432267" lon="9.725625"><ele>70.2</ele><time>2026-04-04T14:37:04.967Z</time></trkpt><trkpt lat="45.3432867" lon="9.7257183"><ele>70.4</ele><time>2026-04-04T14:37:06.967Z</time></trkpt><trkpt lat="45.3433217" lon="9.7258567"><ele>70.6</ele><time>2026-04-04T14:37:08.967Z</time></trkpt><trkpt lat="45.343355" lon="9.7259983"><ele>70.8</ele><time>2026-04-04T14:37:10.966Z</time></trkpt><trkpt lat="45.34338" lon="9.7261467"><ele>71.0</ele><time>2026-04-04T14:37:12.967Z</time></trkpt><trkpt lat="45.3434017" lon="9.7262917"><ele>71.0</ele><time>2026-04-04T14:37:14.967Z</time></trkpt><trkpt lat="45.3434317" lon="9.7264217"><ele>71.0</ele><time>2026-04-04T14:37:16.967Z</time></trkpt><trkpt lat="45.3434467" lon="9.726545"><ele>71.0</ele><time>2026-04-04T14:37:18.967Z</time></trkpt><trkpt lat="45.343465" lon="9.7266617"><ele>71.0</ele><time>2026-04-04T14:37:20.967Z</time></trkpt><trkpt lat="45.3434867" lon="9.7267917"><ele>71.0</ele><time>2026-04-04T14:37:22.967Z</time></trkpt><trkpt lat="45.3434933" lon="9.7269433"><ele>71.0</ele><time>2026-04-04T14:37:24.967Z</time></trkpt><trkpt lat="45.34352" lon="9.72707"><ele>71.0</ele><time>2026-04-04T14:37:26.967Z</time></trkpt><trkpt lat="45.3435383" lon="9.7271933"><ele>71.0</ele><time>2026-04-04T14:37:28.967Z</time></trkpt><trkpt lat="45.34355" lon="9.7273167"><ele>71.0</ele><time>2026-04-04T14:37:30.967Z</time></trkpt><trkpt lat="45.343555" lon="9.7274433"><ele>71.0</ele><time>2026-04-04T14:37:32.967Z</time></trkpt><trkpt lat="45.3435683" lon="9.7275567"><ele>71.0</ele><time>2026-04-04T14:37:34.967Z</time></trkpt><trkpt lat="45.3435833" lon="9.7276617"><ele>70.83333333333334</ele><time>2026-04-04T14:37:36.967Z</time></trkpt><trkpt lat="45.3436" lon="9.727775"><ele>70.66666666666667</ele><time>2026-04-04T14:37:38.967Z</time></trkpt><trkpt lat="45.343635" lon="9.7278967"><ele>70.5</ele><time>2026-04-04T14:37:40.967Z</time></trkpt><trkpt lat="45.3436533" lon="9.728015"><ele>70.33333333333333</ele><time>2026-04-04T14:37:42.967Z</time></trkpt><trkpt lat="45.343655" lon="9.7281183"><ele>70.16666666666666</ele><time>2026-04-04T14:37:44.966Z</time></trkpt><trkpt lat="45.3436633" lon="9.728215"><ele>70.0</ele><time>2026-04-04T14:37:46.966Z</time></trkpt><trkpt lat="45.3436183" lon="9.7282883"><ele>70.0</ele><time>2026-04-04T14:37:50.967Z</time></trkpt><trkpt lat="45.3435483" lon="9.7282433"><ele>70.0</ele><time>2026-04-04T14:37:54.967Z</time></trkpt><trkpt lat="45.3434767" lon="9.7282417"><ele>70.0</ele><time>2026-04-04T14:40:03.966Z</time></trkpt><trkpt lat="45.3434" lon="9.7282683"><ele>70.0</ele><time>2026-04-04T14:40:07.967Z</time></trkpt><trkpt lat="45.3433367" lon="9.7283067"><ele>70.0</ele><time>2026-04-04T14:40:10.967Z</time></trkpt><trkpt lat="45.34327" lon="9.72832"><ele>70.0</ele><time>2026-04-04T14:40:13.967Z</time></trkpt><trkpt lat="45.3432017" lon="9.7283633"><ele>70.0</ele><time>2026-04-04T14:40:16.967Z</time></trkpt><trkpt lat="45.3431483" lon="9.7284333"><ele>70.0</ele><time>2026-04-04T14:40:20.967Z</time></trkpt><trkpt lat="45.3430783" lon="9.72848"><ele>70.0</ele><time>2026-04-04T14:40:34.967Z</time></trkpt><trkpt lat="45.3430083" lon="9.72841"><ele>70.0</ele><time>2026-04-04T14:40:38.967Z</time></trkpt><trkpt lat="45.3429367" lon="9.7283317"><ele>70.0</ele><time>2026-04-04T14:40:41.967Z</time></trkpt><trkpt lat="45.34288" lon="9.7282817"><ele>70.0</ele><time>2026-04-04T14:40:43.967Z</time></trkpt><trkpt lat="45.342825" lon="9.7282267"><ele>70.0</ele><time>2026-04-04T14:40:45.967Z</time></trkpt><trkpt lat="45.3427817" lon="9.7281583"><ele>70.0</ele><time>2026-04-04T14:40:47.967Z</time></trkpt><trkpt lat="45.34273" lon="9.7280967"><ele>70.0</ele><time>2026-04-04T14:40:49.967Z</time></trkpt><trkpt lat="45.34267" lon="9.7280317"><ele>70.0</ele><time>2026-04-04T14:40:51.966Z</time></trkpt><trkpt lat="45.3426067" lon="9.7279783"><ele>70.0</ele><time>2026-04-04T14:40:53.967Z</time></trkpt><trkpt lat="45.342555" lon="9.7279133"><ele>70.0</ele><time>2026-04-04T14:40:55.967Z</time></trkpt><trkpt lat="45.34251" lon="9.727835"><ele>70.0</ele><time>2026-04-04T14:40:57.967Z</time></trkpt><trkpt lat="45.34246" lon="9.7277667"><ele>70.0</ele><time>2026-04-04T14:40:59.967Z</time></trkpt><trkpt lat="45.3424033" lon="9.7277033"><ele>70.0</ele><time>2026-04-04T14:41:01.967Z</time></trkpt><trkpt lat="45.3423433" lon="9.7276333"><ele>70.0</ele><time>2026-04-04T14:41:03.967Z</time></trkpt><trkpt lat="45.342285" lon="9.7275733"><ele>70.0</ele><time>2026-04-04T14:41:05.967Z</time></trkpt><trkpt lat="45.3422317" lon="9.7275167"><ele>70.0</ele><time>2026-04-04T14:41:07.967Z</time></trkpt><trkpt lat="45.3421733" lon="9.72746"><ele>70.0</ele><time>2026-04-04T14:41:09.967Z</time></trkpt><trkpt lat="45.3421183" lon="9.7274133"><ele>70.0</ele><time>2026-04-04T14:41:11.967Z</time></trkpt><trkpt lat="45.3420717" lon="9.7273383"><ele>70.0</ele><time>2026-04-04T14:41:16.967Z</time></trkpt><trkpt lat="45.3420967" lon="9.7272417"><ele>70.0</ele><time>2026-04-04T14:41:20.967Z</time></trkpt><trkpt lat="45.3421167" lon="9.7271433"><ele>70.0</ele><time>2026-04-04T14:41:23.966Z</time></trkpt><trkpt lat="45.3421283" lon="9.7270117"><ele>70.0</ele><time>2026-04-04T14:41:26.967Z</time></trkpt><trkpt lat="45.342145" lon="9.7268917"><ele>70.0</ele><time>2026-04-04T14:41:29.967Z</time></trkpt><trkpt lat="45.3421517" lon="9.726785"><ele>70.0</ele><time>2026-04-04T14:41:32.967Z</time></trkpt><trkpt lat="45.3422133" lon="9.7267317"><ele>70.0</ele><time>2026-04-04T14:41:36.967Z</time></trkpt><trkpt lat="45.3422917" lon="9.7267267"><ele>70.16666666666666</ele><time>2026-04-04T14:41:41.967Z</time></trkpt><trkpt lat="45.34236" lon="9.7267167"><ele>70.33333333333333</ele><time>2026-04-04T14:41:44.967Z</time></trkpt><trkpt lat="45.3424467" lon="9.726675"><ele>70.5</ele><time>2026-04-04T14:41:47.967Z</time></trkpt><trkpt lat="45.34252" lon="9.7266467"><ele>70.66666666666667</ele><time>2026-04-04T14:41:49.967Z</time></trkpt><trkpt lat="45.3425867" lon="9.7266633"><ele>70.83333333333334</ele><time>2026-04-04T14:41:53.967Z</time></trkpt><trkpt lat="45.3426433" lon="9.7266"><ele>71.0</ele><time>2026-04-04T14:42:02.966Z</time></trkpt><trkpt lat="45.3426983" lon="9.72668"><ele>71.0</ele><time>2026-04-04T14:42:06.967Z</time></trkpt><trkpt lat="45.3427167" lon="9.7267867"><ele>71.0</ele><time>2026-04-04T14:42:10.967Z</time></trkpt><trkpt lat="45.3427433" lon="9.7268983"><ele>71.0</ele><time>2026-04-04T14:42:14.967Z</time></trkpt><trkpt lat="45.3427567" lon="9.7269883"><ele>71.0</ele><time>2026-04-04T14:42:17.967Z</time></trkpt><trkpt lat="45.3427733" lon="9.7270817"><ele>71.0</ele><time>2026-04-04T14:42:20.966Z</time></trkpt><trkpt lat="45.3427883" lon="9.7271717"><ele>71.0</ele><time>2026-04-04T14:42:23.967Z</time></trkpt><trkpt lat="45.3427883" lon="9.7272783"><ele>71.0</ele><time>2026-04-04T14:42:26.967Z</time></trkpt><trkpt lat="45.3427717" lon="9.7273767"><ele>70.83333333333334</ele><time>2026-04-04T14:42:29.967Z</time></trkpt><trkpt lat="45.342785" lon="9.7274717"><ele>70.66666666666667</ele><time>2026-04-04T14:42:33.967Z</time></trkpt><trkpt lat="45.3427717" lon="9.7273533"><ele>70.5</ele><time>2026-04-04T14:42:43.967Z</time></trkpt><trkpt lat="45.3427667" lon="9.7272517"><ele>70.33333333333333</ele><time>2026-04-04T14:42:46.965Z</time></trkpt><trkpt lat="45.34276" lon="9.727125"><ele>70.16666666666666</ele><time>2026-04-04T14:42:49.966Z</time></trkpt><trkpt lat="45.3427517" lon="9.7269983"><ele>70.0</ele><time>2026-04-04T14:42:52.966Z</time></trkpt><trkpt lat="45.342735" lon="9.7269"><ele>70.16666666666666</ele><time>2026-04-04T14:42:55.966Z</time></trkpt><trkpt lat="45.3427167" lon="9.7268117"><ele>70.33333333333333</ele><time>2026-04-04T14:42:58.966Z</time></trkpt><trkpt lat="45.342695" lon="9.7267217"><ele>70.5</ele><time>2026-04-04T14:43:02.966Z</time></trkpt><trkpt lat="45.34261" lon="9.72666"><ele>70.66666666666667</ele><time>2026-04-04T14:43:19.965Z</time></trkpt><trkpt lat="45.3426317" lon="9.726525"><ele>70.83333333333334</ele><time>2026-04-04T14:43:24.966Z</time></trkpt><trkpt lat="45.3426417" lon="9.7264267"><ele>71.0</ele><time>2026-04-04T14:43:26.966Z</time></trkpt><trkpt lat="45.3426317" lon="9.7263283"><ele>71.0</ele><time>2026-04-04T14:43:28.966Z</time></trkpt><trkpt lat="45.3426267" lon="9.7262367"><ele>71.0</ele><time>2026-04-04T14:43:30.966Z</time></trkpt><trkpt lat="45.3426083" lon="9.7261183"><ele>71.0</ele><time>2026-04-04T14:43:33.966Z</time></trkpt><trkpt lat="45.3425983" lon="9.726015"><ele>71.0</ele><time>2026-04-04T14:43:36.966Z</time></trkpt><trkpt lat="45.34262" lon="9.7259283"><ele>71.0</ele><time>2026-04-04T14:43:39.966Z</time></trkpt><trkpt lat="45.3426733" lon="9.725855"><ele>71.0</ele><time>2026-04-04T14:43:42.966Z</time></trkpt><trkpt lat="45.3427467" lon="9.7258083"><ele>71.0</ele><time>2026-04-04T14:43:46.966Z</time></trkpt><trkpt lat="45.3428233" lon="9.7257533"><ele>71.0</ele><time>2026-04-04T14:43:50.965Z</time></trkpt><trkpt lat="45.34289" lon="9.7257267"><ele>71.0</ele><time>2026-04-04T14:43:52.966Z</time></trkpt><trkpt lat="45.342955" lon="9.7256983"><ele>71.0</ele><time>2026-04-04T14:43:54.966Z</time></trkpt><trkpt lat="45.3430167" lon="9.725665"><ele>71.0</ele><time>2026-04-04T14:43:56.965Z</time></trkpt><trkpt lat="45.34308" lon="9.7256367"><ele>71.0</ele><time>2026-04-04T14:43:58.966Z</time></trkpt><trkpt lat="45.3431467" lon="9.7256183"><ele>71.0</ele><time>2026-04-04T14:44:00.966Z</time></trkpt><trkpt lat="45.3432117" lon="9.72562"><ele>71.0</ele><time>2026-04-04T14:44:02.966Z</time></trkpt><trkpt lat="45.34328" lon="9.7256767"><ele>71.0</ele><time>2026-04-04T14:44:04.966Z</time></trkpt><trkpt lat="45.3433183" lon="9.7257717"><ele>71.0</ele><time>2026-04-04T14:44:06.966Z</time></trkpt><trkpt lat="45.343355" lon="9.7258667"><ele>71.0</ele><time>2026-04-04T14:44:08.965Z</time></trkpt><trkpt lat="45.3433767" lon="9.7259783"><ele>71.0</ele><time>2026-04-04T14:44:10.966Z</time></trkpt><trkpt lat="45.34339" lon="9.726095"><ele>71.0</ele><time>2026-04-04T14:44:12.965Z</time></trkpt><trkpt lat="45.3434083" lon="9.7262067"><ele>71.0</ele><time>2026-04-04T14:44:14.966Z</time></trkpt><trkpt lat="45.3434283" lon="9.7263217"><ele>71.0</ele><time>2026-04-04T14:44:16.966Z</time></trkpt><trkpt lat="45.3434517" lon="9.726445"><ele>71.0</ele><time>2026-04-04T14:44:18.966Z</time></trkpt><trkpt lat="45.3434667" lon="9.7265683"><ele>71.0</ele><time>2026-04-04T14:44:20.966Z</time></trkpt><trkpt lat="45.3434917" lon="9.7266967"><ele>71.0</ele><time>2026-04-04T14:44:22.966Z</time></trkpt><trkpt lat="45.3435083" lon="9.7268333"><ele>71.0</ele><time>2026-04-04T14:44:24.966Z</time></trkpt><trkpt lat="45.3435317" lon="9.7269667"><ele>71.0</ele><time>2026-04-04T14:44:26.965Z</time></trkpt><trkpt lat="45.3435517" lon="9.7271"><ele>71.0</ele><time>2026-04-04T14:44:28.966Z</time></trkpt><trkpt lat="45.3435733" lon="9.7272417"><ele>71.0</ele><time>2026-04-04T14:44:30.966Z</time></trkpt><trkpt lat="45.3435867" lon="9.727385"><ele>71.0</ele><time>2026-04-04T14:44:32.966Z</time></trkpt><trkpt lat="45.343605" lon="9.727525"><ele>71.0</ele><time>2026-04-04T14:44:34.965Z</time></trkpt><trkpt lat="45.3436183" lon="9.727675"><ele>70.8</ele><time>2026-04-04T14:44:36.966Z</time></trkpt><trkpt lat="45.3436483" lon="9.72782"><ele>70.6</ele><time>2026-04-04T14:44:38.966Z</time></trkpt><trkpt lat="45.3436767" lon="9.727965"><ele>70.4</ele><time>2026-04-04T14:44:40.966Z</time></trkpt><trkpt lat="45.3436933" lon="9.72811"><ele>70.2</ele><time>2026-04-04T14:44:42.966Z</time></trkpt><trkpt lat="45.3437117" lon="9.7282617"><ele>70.0</ele><time>2026-04-04T14:44:44.966Z</time></trkpt><trkpt lat="45.343735" lon="9.7284"><ele>70.0</ele><time>2026-04-04T14:44:46.966Z</time></trkpt><trkpt lat="45.3437483" lon="9.728535"><ele>70.0</ele><time>2026-04-04T14:44:48.966Z</time></trkpt><trkpt lat="45.3437667" lon="9.728655"><ele>70.0</ele><time>2026-04-04T14:44:50.966Z</time></trkpt><trkpt lat="45.3437733" lon="9.72878"><ele>70.0</ele><time>2026-04-04T14:44:52.966Z</time></trkpt><trkpt lat="45.3438067" lon="9.728905"><ele>70.0</ele><time>2026-04-04T14:44:54.966Z</time></trkpt><trkpt lat="45.343775" lon="9.7290233"><ele>70.0</ele><time>2026-04-04T14:44:56.966Z</time></trkpt><trkpt lat="45.3437183" lon="9.72911"><ele>70.0</ele><time>2026-04-04T14:44:58.966Z</time></trkpt><trkpt lat="45.343705" lon="9.7292233"><ele>70.0</ele><time>2026-04-04T14:45:00.966Z</time></trkpt><trkpt lat="45.34376" lon="9.729355"><ele>70.0</ele><time>2026-04-04T14:45:02.966Z</time></trkpt><trkpt lat="45.3437917" lon="9.7294417"><ele>70.0</ele><time>2026-04-04T14:45:03.965Z</time></trkpt><trkpt lat="45.3438217" lon="9.7295417"><ele>70.0</ele><time>2026-04-04T14:45:04.966Z</time></trkpt><trkpt lat="45.34385" lon="9.7296567"><ele>70.0</ele><time>2026-04-04T14:45:05.966Z</time></trkpt><trkpt lat="45.343885" lon="9.7297667"><ele>70.0</ele><time>2026-04-04T14:45:06.966Z</time></trkpt><trkpt lat="45.3439217" lon="9.72988"><ele>70.0</ele><time>2026-04-04T14:45:07.965Z</time></trkpt><trkpt lat="45.3439583" lon="9.730005"><ele>70.0</ele><time>2026-04-04T14:45:08.966Z</time></trkpt><trkpt lat="45.343995" lon="9.73013"><ele>70.0</ele><time>2026-04-04T14:45:09.966Z</time></trkpt><trkpt lat="45.3440467" lon="9.730245"><ele>69.83333333333333</ele><time>2026-04-04T14:45:10.966Z</time></trkpt><trkpt lat="45.3440917" lon="9.73036"><ele>69.66666666666666</ele><time>2026-04-04T14:45:11.966Z</time></trkpt><trkpt lat="45.34413" lon="9.7304683"><ele>69.5</ele><time>2026-04-04T14:45:12.966Z</time></trkpt><trkpt lat="45.3441767" lon="9.7305667"><ele>69.33333333333333</ele><time>2026-04-04T14:45:13.966Z</time></trkpt><trkpt lat="45.3442317" lon="9.730655"><ele>69.16666666666667</ele><time>2026-04-04T14:45:14.966Z</time></trkpt><trkpt lat="45.3442833" lon="9.7307333"><ele>69.0</ele><time>2026-04-04T14:45:15.966Z</time></trkpt><trkpt lat="45.3443417" lon="9.7308067"><ele>69.0</ele><time>2026-04-04T14:45:16.966Z</time></trkpt><trkpt lat="45.3443917" lon="9.7308617"><ele>69.0</ele><time>2026-04-04T14:45:17.966Z</time></trkpt><trkpt lat="45.34449" lon="9.7309633"><ele>69.0</ele><time>2026-04-04T14:45:19.966Z</time></trkpt><trkpt lat="45.3445833" lon="9.7310317"><ele>69.0</ele><time>2026-04-04T14:45:21.966Z</time></trkpt><trkpt lat="45.3446717" lon="9.7311083"><ele>69.0</ele><time>2026-04-04T14:45:23.966Z</time></trkpt><trkpt lat="45.3447617" lon="9.7311733"><ele>69.4</ele><time>2026-04-04T14:45:25.966Z</time></trkpt><trkpt lat="45.3448533" lon="9.7312217"><ele>69.80000000000001</ele><time>2026-04-04T14:45:27.966Z</time></trkpt><trkpt lat="45.34495" lon="9.7312583"><ele>70.19999999999999</ele><time>2026-04-04T14:45:29.966Z</time></trkpt><trkpt lat="45.34505" lon="9.7313017"><ele>70.6</ele><time>2026-04-04T14:45:31.966Z</time></trkpt><trkpt lat="45.3451533" lon="9.7313483"><ele>71.0</ele><time>2026-04-04T14:45:33.966Z</time></trkpt><trkpt lat="45.3452433" lon="9.7314033"><ele>71.0</ele><time>2026-04-04T14:45:35.966Z</time></trkpt><trkpt lat="45.34534" lon="9.7314467"><ele>71.0</ele><time>2026-04-04T14:45:37.966Z</time></trkpt><trkpt lat="45.3454283" lon="9.7315033"><ele>71.0</ele><time>2026-04-04T14:45:39.965Z</time></trkpt><trkpt lat="45.345525" lon="9.7315533"><ele>71.0</ele><time>2026-04-04T14:45:41.966Z</time></trkpt><trkpt lat="45.345625" lon="9.731625"><ele>71.0</ele><time>2026-04-04T14:45:43.966Z</time></trkpt><trkpt lat="45.3457267" lon="9.7317083"><ele>70.75</ele><time>2026-04-04T14:45:45.966Z</time></trkpt><trkpt lat="45.3458283" lon="9.7317983"><ele>70.5</ele><time>2026-04-04T14:45:47.966Z</time></trkpt><trkpt lat="45.3459183" lon="9.7318883"><ele>70.25</ele><time>2026-04-04T14:45:49.966Z</time></trkpt><trkpt lat="45.346005" lon="9.7319933"><ele>70.0</ele><time>2026-04-04T14:45:51.966Z</time></trkpt><trkpt lat="45.3460967" lon="9.7321"><ele>70.0</ele><time>2026-04-04T14:45:53.966Z</time></trkpt><trkpt lat="45.34619" lon="9.7322133"><ele>70.0</ele><time>2026-04-04T14:45:55.966Z</time></trkpt><trkpt lat="45.346285" lon="9.73232"><ele>70.0</ele><time>2026-04-04T14:45:57.966Z</time></trkpt><trkpt lat="45.3463717" lon="9.73242"><ele>70.0</ele><time>2026-04-04T14:45:59.966Z</time></trkpt><trkpt lat="45.3464417" lon="9.7325233"><ele>70.0</ele><time>2026-04-04T14:46:01.966Z</time></trkpt><trkpt lat="45.34651" lon="9.7326233"><ele>70.0</ele><time>2026-04-04T14:46:03.966Z</time></trkpt><trkpt lat="45.3465683" lon="9.7327117"><ele>70.0</ele><time>2026-04-04T14:46:05.965Z</time></trkpt><trkpt lat="45.3466217" lon="9.73281"><ele>70.0</ele><time>2026-04-04T14:46:07.966Z</time></trkpt><trkpt lat="45.34667" lon="9.7328917"><ele>70.0</ele><time>2026-04-04T14:46:09.966Z</time></trkpt><trkpt lat="45.3467233" lon="9.7329633"><ele>70.0</ele><time>2026-04-04T14:46:11.966Z</time></trkpt><trkpt lat="45.3467733" lon="9.733035"><ele>70.16666666666666</ele><time>2026-04-04T14:46:13.966Z</time></trkpt><trkpt lat="45.3468167" lon="9.7331067"><ele>70.33333333333333</ele><time>2026-04-04T14:46:15.966Z</time></trkpt><trkpt lat="45.3468783" lon="9.7331967"><ele>70.5</ele><time>2026-04-04T14:46:18.966Z</time></trkpt><trkpt lat="45.346925" lon="9.7332683"><ele>70.66666666666667</ele><time>2026-04-04T14:46:21.966Z</time></trkpt><trkpt lat="45.34697" lon="9.7333383"><ele>70.83333333333334</ele><time>2026-04-04T14:46:49.966Z</time></trkpt><trkpt lat="45.3470283" lon="9.7334267"><ele>71.0</ele><time>2026-04-04T14:46:52.966Z</time></trkpt><trkpt lat="45.347085" lon="9.7335033"><ele>70.83333333333334</ele><time>2026-04-04T14:46:54.966Z</time></trkpt><trkpt lat="45.3471517" lon="9.7335717"><ele>70.66666666666667</ele><time>2026-04-04T14:46:56.966Z</time></trkpt><trkpt lat="45.3472183" lon="9.733625"><ele>70.5</ele><time>2026-04-04T14:46:58.966Z</time></trkpt><trkpt lat="45.3473033" lon="9.7337"><ele>70.33333333333333</ele><time>2026-04-04T14:47:01.965Z</time></trkpt><trkpt lat="45.3473683" lon="9.7337667"><ele>70.16666666666666</ele><time>2026-04-04T14:47:03.965Z</time></trkpt><trkpt lat="45.3474417" lon="9.733835"><ele>70.0</ele><time>2026-04-04T14:47:05.966Z</time></trkpt><trkpt lat="45.34752" lon="9.733905"><ele>69.8</ele><time>2026-04-04T14:47:07.966Z</time></trkpt><trkpt lat="45.34759" lon="9.7339767"><ele>69.6</ele><time>2026-04-04T14:47:09.966Z</time></trkpt><trkpt lat="45.347675" lon="9.7340417"><ele>69.4</ele><time>2026-04-04T14:47:11.966Z</time></trkpt><trkpt lat="45.3477583" lon="9.7341167"><ele>69.2</ele><time>2026-04-04T14:47:13.966Z</time></trkpt><trkpt lat="45.3478467" lon="9.7341967"><ele>69.0</ele><time>2026-04-04T14:47:15.966Z</time></trkpt><trkpt lat="45.3479383" lon="9.7342933"><ele>69.2</ele><time>2026-04-04T14:47:17.966Z</time></trkpt><trkpt lat="45.3480433" lon="9.734375"><ele>69.4</ele><time>2026-04-04T14:47:19.966Z</time></trkpt><trkpt lat="45.3481433" lon="9.7344733"><ele>69.6</ele><time>2026-04-04T14:47:21.966Z</time></trkpt><trkpt lat="45.34824" lon="9.734575"><ele>69.8</ele><time>2026-04-04T14:47:23.966Z</time></trkpt><trkpt lat="45.348295" lon="9.7346333"><ele>70.0</ele><time>2026-04-04T14:47:24.966Z</time></trkpt><trkpt lat="45.34839" lon="9.7347467"><ele>70.16666666666666</ele><time>2026-04-04T14:47:26.965Z</time></trkpt><trkpt lat="45.34844" lon="9.7348083"><ele>70.33333333333333</ele><time>2026-04-04T14:47:27.966Z</time></trkpt><trkpt lat="45.34849" lon="9.7348683"><ele>70.5</ele><time>2026-04-04T14:47:28.966Z</time></trkpt><trkpt lat="45.3485433" lon="9.734935"><ele>70.66666666666667</ele><time>2026-04-04T14:47:29.966Z</time></trkpt><trkpt lat="45.348595" lon="9.7349917"><ele>70.83333333333334</ele><time>2026-04-04T14:47:30.965Z</time></trkpt><trkpt lat="45.3486917" lon="9.735095"><ele>71.0</ele><time>2026-04-04T14:47:32.966Z</time></trkpt><trkpt lat="45.3487817" lon="9.7352067"><ele>70.83333333333334</ele><time>2026-04-04T14:47:34.966Z</time></trkpt><trkpt lat="45.3488733" lon="9.735305"><ele>70.66666666666667</ele><time>2026-04-04T14:47:36.966Z</time></trkpt><trkpt lat="45.34895" lon="9.7353833"><ele>70.5</ele><time>2026-04-04T14:47:38.966Z</time></trkpt><trkpt lat="45.3490033" lon="9.73545"><ele>70.33333333333333</ele><time>2026-04-04T14:47:41.966Z</time></trkpt><trkpt lat="45.3490683" lon="9.7355283"><ele>70.16666666666666</ele><time>2026-04-04T14:47:45.966Z</time></trkpt><trkpt lat="45.3491183" lon="9.7355867"><ele>70.0</ele><time>2026-04-04T14:47:47.966Z</time></trkpt><trkpt lat="45.3491767" lon="9.7356567"><ele>70.0</ele><time>2026-04-04T14:47:49.966Z</time></trkpt><trkpt lat="45.3492483" lon="9.73574"><ele>70.0</ele><time>2026-04-04T14:47:51.966Z</time></trkpt><trkpt lat="45.3493233" lon="9.7358317"><ele>70.0</ele><time>2026-04-04T14:47:53.966Z</time></trkpt><trkpt lat="45.3493983" lon="9.7359167"><ele>70.0</ele><time>2026-04-04T14:47:55.966Z</time></trkpt><trkpt lat="45.34948" lon="9.7360083"><ele>70.0</ele><time>2026-04-04T14:47:57.966Z</time></trkpt><trkpt lat="45.34956" lon="9.7361033"><ele>70.25</ele><time>2026-04-04T14:47:59.966Z</time></trkpt><trkpt lat="45.3496483" lon="9.73621"><ele>70.5</ele><time>2026-04-04T14:48:01.966Z</time></trkpt><trkpt lat="45.3497417" lon="9.736315"><ele>70.75</ele><time>2026-04-04T14:48:03.966Z</time></trkpt><trkpt lat="45.3498283" lon="9.73642"><ele>71.0</ele><time>2026-04-04T14:48:05.966Z</time></trkpt><trkpt lat="45.34992" lon="9.7365267"><ele>70.8</ele><time>2026-04-04T14:48:07.966Z</time></trkpt><trkpt lat="45.3499717" lon="9.7365783"><ele>70.6</ele><time>2026-04-04T14:48:08.965Z</time></trkpt><trkpt lat="45.350065" lon="9.736685"><ele>70.4</ele><time>2026-04-04T14:48:10.965Z</time></trkpt><trkpt lat="45.3501617" lon="9.7367933"><ele>70.2</ele><time>2026-04-04T14:48:12.966Z</time></trkpt><trkpt lat="45.3502583" lon="9.7369"><ele>70.0</ele><time>2026-04-04T14:48:14.966Z</time></trkpt><trkpt lat="45.35035" lon="9.7370033"><ele>70.0</ele><time>2026-04-04T14:48:16.966Z</time></trkpt><trkpt lat="45.350445" lon="9.7371067"><ele>70.0</ele><time>2026-04-04T14:48:18.966Z</time></trkpt><trkpt lat="45.3505467" lon="9.7372167"><ele>70.0</ele><time>2026-04-04T14:48:20.965Z</time></trkpt><trkpt lat="45.350645" lon="9.7373283"><ele>70.0</ele><time>2026-04-04T14:48:22.966Z</time></trkpt><trkpt lat="45.35073" lon="9.7374417"><ele>70.25</ele><time>2026-04-04T14:48:24.965Z</time></trkpt><trkpt lat="45.35083" lon="9.73755"><ele>70.5</ele><time>2026-04-04T14:48:26.966Z</time></trkpt><trkpt lat="45.3509233" lon="9.7376483"><ele>70.75</ele><time>2026-04-04T14:48:28.966Z</time></trkpt><trkpt lat="45.3510083" lon="9.7377433"><ele>71.0</ele><time>2026-04-04T14:48:30.966Z</time></trkpt><trkpt lat="45.3510917" lon="9.7378467"><ele>71.0</ele><time>2026-04-04T14:48:32.966Z</time></trkpt><trkpt lat="45.351175" lon="9.7379633"><ele>71.0</ele><time>2026-04-04T14:48:34.966Z</time></trkpt><trkpt lat="45.3512233" lon="9.7380217"><ele>71.0</ele><time>2026-04-04T14:48:35.966Z</time></trkpt><trkpt lat="45.351275" lon="9.7380783"><ele>71.0</ele><time>2026-04-04T14:48:36.966Z</time></trkpt><trkpt lat="45.3513333" lon="9.73813"><ele>71.0</ele><time>2026-04-04T14:48:37.966Z</time></trkpt><trkpt lat="45.3513917" lon="9.738185"><ele>71.0</ele><time>2026-04-04T14:48:38.966Z</time></trkpt><trkpt lat="45.351485" lon="9.73829"><ele>70.85714285714286</ele><time>2026-04-04T14:48:40.966Z</time></trkpt><trkpt lat="45.351575" lon="9.7383967"><ele>70.71428571428571</ele><time>2026-04-04T14:48:42.966Z</time></trkpt><trkpt lat="45.3516233" lon="9.738455"><ele>70.57142857142857</ele><time>2026-04-04T14:48:43.966Z</time></trkpt><trkpt lat="45.3516733" lon="9.73852"><ele>70.42857142857143</ele><time>2026-04-04T14:48:44.966Z</time></trkpt><trkpt lat="45.351725" lon="9.73858"><ele>70.28571428571428</ele><time>2026-04-04T14:48:45.966Z</time></trkpt><trkpt lat="45.3517717" lon="9.7386433"><ele>70.14285714285714</ele><time>2026-04-04T14:48:46.966Z</time></trkpt><trkpt lat="45.3518217" lon="9.7387033"><ele>70.0</ele><time>2026-04-04T14:48:47.966Z</time></trkpt><trkpt lat="45.351875" lon="9.7387683"><ele>70.0</ele><time>2026-04-04T14:48:48.965Z</time></trkpt><trkpt lat="45.3519267" lon="9.738825"><ele>70.0</ele><time>2026-04-04T14:48:49.966Z</time></trkpt><trkpt lat="45.3519817" lon="9.7388817"><ele>70.0</ele><time>2026-04-04T14:48:50.966Z</time></trkpt><trkpt lat="45.352035" lon="9.7389383"><ele>70.0</ele><time>2026-04-04T14:48:51.966Z</time></trkpt><trkpt lat="45.352085" lon="9.739"><ele>70.0</ele><time>2026-04-04T14:48:52.966Z</time></trkpt><trkpt lat="45.352135" lon="9.739055"><ele>70.0</ele><time>2026-04-04T14:48:53.966Z</time></trkpt><trkpt lat="45.3521867" lon="9.7391117"><ele>70.0</ele><time>2026-04-04T14:48:54.965Z</time></trkpt><trkpt lat="45.3522383" lon="9.7391717"><ele>70.0</ele><time>2026-04-04T14:48:55.965Z</time></trkpt><trkpt lat="45.3522867" lon="9.7392317"><ele>70.0</ele><time>2026-04-04T14:48:56.965Z</time></trkpt><trkpt lat="45.35234" lon="9.7392917"><ele>70.0</ele><time>2026-04-04T14:48:57.965Z</time></trkpt><trkpt lat="45.3523933" lon="9.73935"><ele>70.0</ele><time>2026-04-04T14:48:58.965Z</time></trkpt><trkpt lat="45.3524433" lon="9.73941"><ele>70.0</ele><time>2026-04-04T14:48:59.965Z</time></trkpt><trkpt lat="45.3524983" lon="9.7394767"><ele>70.0</ele><time>2026-04-04T14:49:00.965Z</time></trkpt><trkpt lat="45.3525517" lon="9.7395383"><ele>70.0</ele><time>2026-04-04T14:49:01.965Z</time></trkpt><trkpt lat="45.3526067" lon="9.7395983"><ele>70.14285714285714</ele><time>2026-04-04T14:49:02.965Z</time></trkpt><trkpt lat="45.3526633" lon="9.739665"><ele>70.28571428571428</ele><time>2026-04-04T14:49:03.965Z</time></trkpt><trkpt lat="45.3527183" lon="9.7397267"><ele>70.42857142857143</ele><time>2026-04-04T14:49:04.965Z</time></trkpt><trkpt lat="45.3527733" lon="9.7397917"><ele>70.57142857142857</ele><time>2026-04-04T14:49:05.965Z</time></trkpt><trkpt lat="45.3528233" lon="9.73986"><ele>70.71428571428571</ele><time>2026-04-04T14:49:06.965Z</time></trkpt><trkpt lat="45.352875" lon="9.7399267"><ele>70.85714285714286</ele><time>2026-04-04T14:49:07.965Z</time></trkpt><trkpt lat="45.352925" lon="9.7399867"><ele>71.0</ele><time>2026-04-04T14:49:08.965Z</time></trkpt><trkpt lat="45.3529783" lon="9.7400517"><ele>71.0</ele><time>2026-04-04T14:49:09.965Z</time></trkpt><trkpt lat="45.35303" lon="9.74012"><ele>71.0</ele><time>2026-04-04T14:49:10.964Z</time></trkpt><trkpt lat="45.3530833" lon="9.74018"><ele>71.0</ele><time>2026-04-04T14:49:11.965Z</time></trkpt><trkpt lat="45.35317" lon="9.7402983"><ele>71.0</ele><time>2026-04-04T14:49:13.965Z</time></trkpt><trkpt lat="45.3532533" lon="9.7403983"><ele>71.0</ele><time>2026-04-04T14:49:15.965Z</time></trkpt><trkpt lat="45.35333" lon="9.74049"><ele>71.33333333333334</ele><time>2026-04-04T14:49:17.965Z</time></trkpt><trkpt lat="45.3534" lon="9.74057"><ele>71.66666666666667</ele><time>2026-04-04T14:49:19.965Z</time></trkpt><trkpt lat="45.35346" lon="9.7406433"><ele>72.0</ele><time>2026-04-04T14:49:21.965Z</time></trkpt><trkpt lat="45.353515" lon="9.740715"><ele>72.33333333333333</ele><time>2026-04-04T14:49:23.965Z</time></trkpt><trkpt lat="45.3535567" lon="9.7408"><ele>72.66666666666666</ele><time>2026-04-04T14:49:25.965Z</time></trkpt><trkpt lat="45.3535" lon="9.740905"><ele>73.0</ele><time>2026-04-04T14:49:28.965Z</time></trkpt><trkpt lat="45.3534283" lon="9.7409767"><ele>73.0</ele><time>2026-04-04T14:49:30.965Z</time></trkpt><trkpt lat="45.353345" lon="9.7410467"><ele>73.0</ele><time>2026-04-04T14:49:32.964Z</time></trkpt><trkpt lat="45.353265" lon="9.741115"><ele>73.0</ele><time>2026-04-04T14:49:34.965Z</time></trkpt><trkpt lat="45.3531867" lon="9.74118"><ele>73.0</ele><time>2026-04-04T14:49:36.965Z</time></trkpt><trkpt lat="45.353095" lon="9.74124"><ele>73.0</ele><time>2026-04-04T14:49:38.965Z</time></trkpt><trkpt lat="45.3530033" lon="9.7413267"><ele>72.6</ele><time>2026-04-04T14:49:40.965Z</time></trkpt><trkpt lat="45.3529167" lon="9.74141"><ele>72.19999999999999</ele><time>2026-04-04T14:49:42.965Z</time></trkpt><trkpt lat="45.3528317" lon="9.7414883"><ele>71.8</ele><time>2026-04-04T14:49:44.965Z</time></trkpt><trkpt lat="45.3527433" lon="9.7415567"><ele>71.39999999999999</ele><time>2026-04-04T14:49:46.965Z</time></trkpt><trkpt lat="45.3526583" lon="9.7416367"><ele>71.0</ele><time>2026-04-04T14:49:48.965Z</time></trkpt><trkpt lat="45.3525917" lon="9.741745"><ele>71.2</ele><time>2026-04-04T14:49:50.964Z</time></trkpt><trkpt lat="45.35257" lon="9.7418933"><ele>71.39999999999999</ele><time>2026-04-04T14:49:52.965Z</time></trkpt><trkpt lat="45.3525967" lon="9.7420233"><ele>71.6</ele><time>2026-04-04T14:49:54.965Z</time></trkpt><trkpt lat="45.3526167" lon="9.74217"><ele>71.8</ele><time>2026-04-04T14:49:56.965Z</time></trkpt><trkpt lat="45.3526417" lon="9.74232"><ele>72.0</ele><time>2026-04-04T14:49:58.965Z</time></trkpt><trkpt lat="45.352665" lon="9.7424633"><ele>72.0</ele><time>2026-04-04T14:50:00.965Z</time></trkpt><trkpt lat="45.3526917" lon="9.7426167"><ele>72.0</ele><time>2026-04-04T14:50:02.965Z</time></trkpt><trkpt lat="45.35272" lon="9.7427567"><ele>72.0</ele><time>2026-04-04T14:50:04.965Z</time></trkpt><trkpt lat="45.35275" lon="9.742905"><ele>72.0</ele><time>2026-04-04T14:50:06.964Z</time></trkpt><trkpt lat="45.3527733" lon="9.7430583"><ele>72.0</ele><time>2026-04-04T14:50:08.965Z</time></trkpt><trkpt lat="45.35281" lon="9.7432167"><ele>72.2</ele><time>2026-04-04T14:50:10.965Z</time></trkpt><trkpt lat="45.352835" lon="9.7433667"><ele>72.4</ele><time>2026-04-04T14:50:12.965Z</time></trkpt><trkpt lat="45.352875" lon="9.7435083"><ele>72.6</ele><time>2026-04-04T14:50:14.965Z</time></trkpt><trkpt lat="45.3529117" lon="9.7436483"><ele>72.8</ele><time>2026-04-04T14:50:16.965Z</time></trkpt><trkpt lat="45.3529383" lon="9.7438067"><ele>73.0</ele><time>2026-04-04T14:50:18.965Z</time></trkpt><trkpt lat="45.3529617" lon="9.743975"><ele>73.25</ele><time>2026-04-04T14:50:20.964Z</time></trkpt><trkpt lat="45.35299" lon="9.74414"><ele>73.5</ele><time>2026-04-04T14:50:22.965Z</time></trkpt><trkpt lat="45.3530167" lon="9.7442983"><ele>73.75</ele><time>2026-04-04T14:50:24.965Z</time></trkpt><trkpt lat="45.3530483" lon="9.7444617"><ele>74.0</ele><time>2026-04-04T14:50:26.964Z</time></trkpt><trkpt lat="45.35308" lon="9.7446233"><ele>74.0</ele><time>2026-04-04T14:50:28.965Z</time></trkpt><trkpt lat="45.35311" lon="9.7447867"><ele>74.0</ele><time>2026-04-04T14:50:30.965Z</time></trkpt><trkpt lat="45.3531417" lon="9.7449467"><ele>74.0</ele><time>2026-04-04T14:50:32.964Z</time></trkpt><trkpt lat="45.3531717" lon="9.745105"><ele>74.0</ele><time>2026-04-04T14:50:34.965Z</time></trkpt><trkpt lat="45.3531983" lon="9.74527"><ele>73.25</ele><time>2026-04-04T14:50:36.965Z</time></trkpt><trkpt lat="45.35323" lon="9.7454333"><ele>72.5</ele><time>2026-04-04T14:50:38.965Z</time></trkpt><trkpt lat="45.3532517" lon="9.7455917"><ele>71.75</ele><time>2026-04-04T14:50:40.965Z</time></trkpt><trkpt lat="45.35328" lon="9.745755"><ele>71.0</ele><time>2026-04-04T14:50:42.965Z</time></trkpt><trkpt lat="45.3533033" lon="9.74592"><ele>71.75</ele><time>2026-04-04T14:50:44.964Z</time></trkpt><trkpt lat="45.3533317" lon="9.74608"><ele>72.5</ele><time>2026-04-04T14:50:46.965Z</time></trkpt><trkpt lat="45.3533617" lon="9.7462367"><ele>73.25</ele><time>2026-04-04T14:50:48.965Z</time></trkpt><trkpt lat="45.3533967" lon="9.7464033"><ele>74.0</ele><time>2026-04-04T14:50:50.965Z</time></trkpt><trkpt lat="45.3534283" lon="9.7465583"><ele>74.0</ele><time>2026-04-04T14:50:52.965Z</time></trkpt><trkpt lat="45.353465" lon="9.7467167"><ele>74.0</ele><time>2026-04-04T14:50:54.965Z</time></trkpt><trkpt lat="45.3535" lon="9.7468783"><ele>74.0</ele><time>2026-04-04T14:50:56.964Z</time></trkpt><trkpt lat="45.35353" lon="9.7470367"><ele>74.0</ele><time>2026-04-04T14:50:58.964Z</time></trkpt><trkpt lat="45.3535667" lon="9.7471833"><ele>74.0</ele><time>2026-04-04T14:51:00.965Z</time></trkpt><trkpt lat="45.3536" lon="9.7473167"><ele>74.0</ele><time>2026-04-04T14:51:02.965Z</time></trkpt><trkpt lat="45.3536317" lon="9.7474483"><ele>74.0</ele><time>2026-04-04T14:51:04.965Z</time></trkpt><trkpt lat="45.3536583" lon="9.7475683"><ele>74.0</ele><time>2026-04-04T14:51:06.965Z</time></trkpt><trkpt lat="45.35368" lon="9.74767"><ele>74.0</ele><time>2026-04-04T14:51:08.965Z</time></trkpt><trkpt lat="45.353695" lon="9.7477667"><ele>74.0</ele><time>2026-04-04T14:51:10.965Z</time></trkpt><trkpt lat="45.3537117" lon="9.7478583"><ele>74.0</ele><time>2026-04-04T14:51:12.965Z</time></trkpt><trkpt lat="45.3537217" lon="9.7477583"><ele>74.0</ele><time>2026-04-04T14:51:18.965Z</time></trkpt><trkpt lat="45.3536883" lon="9.7476417"><ele>74.0</ele><time>2026-04-04T14:51:21.965Z</time></trkpt><trkpt lat="45.3536267" lon="9.747585"><ele>74.0</ele><time>2026-04-04T14:51:24.965Z</time></trkpt><trkpt lat="45.3535617" lon="9.7476117"><ele>74.0</ele><time>2026-04-04T14:51:27.965Z</time></trkpt><trkpt lat="45.3534933" lon="9.747625"><ele>74.0</ele><time>2026-04-04T14:51:30.964Z</time></trkpt><trkpt lat="45.3534217" lon="9.7476617"><ele>74.0</ele><time>2026-04-04T14:51:33.965Z</time></trkpt><trkpt lat="45.3533433" lon="9.747705"><ele>73.83333333333334</ele><time>2026-04-04T14:51:36.965Z</time></trkpt><trkpt lat="45.3532567" lon="9.747725"><ele>73.66666666666667</ele><time>2026-04-04T14:51:39.965Z</time></trkpt><trkpt lat="45.353175" lon="9.7477567"><ele>73.5</ele><time>2026-04-04T14:51:42.964Z</time></trkpt><trkpt lat="45.353095" lon="9.7477917"><ele>73.33333333333333</ele><time>2026-04-04T14:51:45.965Z</time></trkpt><trkpt lat="45.3530167" lon="9.7478183"><ele>73.16666666666666</ele><time>2026-04-04T14:51:48.965Z</time></trkpt><trkpt lat="45.353095" lon="9.747785"><ele>73.0</ele><time>2026-04-04T14:52:29.965Z</time></trkpt><trkpt lat="45.3531633" lon="9.7477433"><ele>73.16666666666666</ele><time>2026-04-04T14:52:32.965Z</time></trkpt><trkpt lat="45.3532467" lon="9.747705"><ele>73.33333333333333</ele><time>2026-04-04T14:52:35.965Z</time></trkpt><trkpt lat="45.35331" lon="9.74768"><ele>73.5</ele><time>2026-04-04T14:52:37.965Z</time></trkpt><trkpt lat="45.3533783" lon="9.7476467"><ele>73.66666666666667</ele><time>2026-04-04T14:52:39.965Z</time></trkpt><trkpt lat="45.353455" lon="9.7476433"><ele>73.83333333333334</ele><time>2026-04-04T14:52:41.965Z</time></trkpt><trkpt lat="45.3535367" lon="9.7476283"><ele>74.0</ele><time>2026-04-04T14:52:43.965Z</time></trkpt><trkpt lat="45.3536067" lon="9.747585"><ele>74.0</ele><time>2026-04-04T14:52:45.965Z</time></trkpt><trkpt lat="45.353675" lon="9.74757"><ele>74.0</ele><time>2026-04-04T14:52:47.965Z</time></trkpt><trkpt lat="45.353715" lon="9.7476617"><ele>74.0</ele><time>2026-04-04T14:52:49.965Z</time></trkpt><trkpt lat="45.3537433" lon="9.7477783"><ele>74.0</ele><time>2026-04-04T14:52:51.965Z</time></trkpt><trkpt lat="45.3537667" lon="9.7478983"><ele>74.0</ele><time>2026-04-04T14:52:53.964Z</time></trkpt><trkpt lat="45.3537817" lon="9.7480167"><ele>74.0</ele><time>2026-04-04T14:52:55.965Z</time></trkpt><trkpt lat="45.3538" lon="9.7481417"><ele>74.0</ele><time>2026-04-04T14:52:57.965Z</time></trkpt><trkpt lat="45.3538283" lon="9.748255"><ele>74.0</ele><time>2026-04-04T14:52:59.965Z</time></trkpt><trkpt lat="45.3538467" lon="9.74837"><ele>74.0</ele><time>2026-04-04T14:53:01.965Z</time></trkpt><trkpt lat="45.3538617" lon="9.748495"><ele>74.0</ele><time>2026-04-04T14:53:03.965Z</time></trkpt><trkpt lat="45.3538817" lon="9.7486183"><ele>74.0</ele><time>2026-04-04T14:53:05.965Z</time></trkpt><trkpt lat="45.35392" lon="9.7487367"><ele>74.0</ele><time>2026-04-04T14:53:07.965Z</time></trkpt><trkpt lat="45.3539483" lon="9.74886"><ele>74.0</ele><time>2026-04-04T14:53:09.965Z</time></trkpt><trkpt lat="45.353975" lon="9.7489667"><ele>74.0</ele><time>2026-04-04T14:53:11.965Z</time></trkpt><trkpt lat="45.354005" lon="9.7490717"><ele>74.0</ele><time>2026-04-04T14:53:13.965Z</time></trkpt><trkpt lat="45.3540417" lon="9.7491867"><ele>74.0</ele><time>2026-04-04T14:53:15.965Z</time></trkpt><trkpt lat="45.3540717" lon="9.7492883"><ele>74.0</ele><time>2026-04-04T14:53:17.965Z</time></trkpt><trkpt lat="45.3541067" lon="9.7493867"><ele>74.0</ele><time>2026-04-04T14:53:19.965Z</time></trkpt><trkpt lat="45.35414" lon="9.7494683"><ele>74.2</ele><time>2026-04-04T14:53:21.965Z</time></trkpt><trkpt lat="45.3541783" lon="9.749565"><ele>74.4</ele><time>2026-04-04T14:53:24.965Z</time></trkpt><trkpt lat="45.3541033" lon="9.74964"><ele>74.6</ele><time>2026-04-04T14:53:27.964Z</time></trkpt><trkpt lat="45.3540117" lon="9.7496867"><ele>74.8</ele><time>2026-04-04T14:53:29.965Z</time></trkpt><trkpt lat="45.3539167" lon="9.74973"><ele>75.0</ele><time>2026-04-04T14:53:31.965Z</time></trkpt><trkpt lat="45.35382" lon="9.7497617"><ele>74.6</ele><time>2026-04-04T14:53:33.965Z</time></trkpt><trkpt lat="45.3537283" lon="9.749815"><ele>74.2</ele><time>2026-04-04T14:53:35.965Z</time></trkpt><trkpt lat="45.3536167" lon="9.7498617"><ele>73.8</ele><time>2026-04-04T14:53:37.965Z</time></trkpt><trkpt lat="45.35351" lon="9.749905"><ele>73.4</ele><time>2026-04-04T14:53:39.965Z</time></trkpt><trkpt lat="45.35342" lon="9.749945"><ele>73.0</ele><time>2026-04-04T14:53:41.965Z</time></trkpt><trkpt lat="45.353345" lon="9.7499817"><ele>73.0</ele><time>2026-04-04T14:53:43.965Z</time></trkpt><trkpt lat="45.3532717" lon="9.75002"><ele>73.0</ele><time>2026-04-04T14:53:45.965Z</time></trkpt><trkpt lat="45.3532183" lon="9.7501"><ele>73.0</ele><time>2026-04-04T14:53:47.965Z</time></trkpt><trkpt lat="45.3532067" lon="9.750215"><ele>73.0</ele><time>2026-04-04T14:53:49.965Z</time></trkpt><trkpt lat="45.3532267" lon="9.7503383"><ele>73.0</ele><time>2026-04-04T14:53:51.965Z</time></trkpt><trkpt lat="45.3532483" lon="9.75046"><ele>73.0</ele><time>2026-04-04T14:53:53.964Z</time></trkpt><trkpt lat="45.35328" lon="9.750575"><ele>73.0</ele><time>2026-04-04T14:53:55.964Z</time></trkpt><trkpt lat="45.3533033" lon="9.7507017"><ele>73.0</ele><time>2026-04-04T14:53:57.964Z</time></trkpt><trkpt lat="45.3533283" lon="9.7508283"><ele>73.0</ele><time>2026-04-04T14:53:59.964Z</time></trkpt><trkpt lat="45.3533383" lon="9.750935"><ele>73.0</ele><time>2026-04-04T14:54:01.964Z</time></trkpt><trkpt lat="45.3533267" lon="9.7510267"><ele>73.0</ele><time>2026-04-04T14:54:03.964Z</time></trkpt><trkpt lat="45.3533517" lon="9.75115"><ele>73.0</ele><time>2026-04-04T14:54:06.964Z</time></trkpt><trkpt lat="45.35338" lon="9.7512317"><ele>73.42857142857143</ele><time>2026-04-04T14:54:08.964Z</time></trkpt><trkpt lat="45.3533983" lon="9.75132"><ele>73.85714285714286</ele><time>2026-04-04T14:54:10.964Z</time></trkpt><trkpt lat="45.3534183" lon="9.751405"><ele>74.28571428571428</ele><time>2026-04-04T14:54:12.964Z</time></trkpt><trkpt lat="45.3534417" lon="9.75152"><ele>74.71428571428572</ele><time>2026-04-04T14:54:15.964Z</time></trkpt><trkpt lat="45.3534717" lon="9.751625"><ele>75.14285714285715</ele><time>2026-04-04T14:54:18.964Z</time></trkpt><trkpt lat="45.3534917" lon="9.7517233"><ele>75.57142857142857</ele><time>2026-04-04T14:54:22.964Z</time></trkpt><trkpt lat="45.3534983" lon="9.7518217"><ele>76.0</ele><time>2026-04-04T14:54:26.964Z</time></trkpt><trkpt lat="45.3535217" lon="9.7519317"><ele>76.5</ele><time>2026-04-04T14:54:29.964Z</time></trkpt><trkpt lat="45.3535467" lon="9.7520333"><ele>77.0</ele><time>2026-04-04T14:54:32.964Z</time></trkpt><trkpt lat="45.3535667" lon="9.75214"><ele>77.5</ele><time>2026-04-04T14:54:35.963Z</time></trkpt><trkpt lat="45.3536167" lon="9.7522283"><ele>78.0</ele><time>2026-04-04T14:54:38.964Z</time></trkpt><trkpt lat="45.3537133" lon="9.7522083"><ele>78.5</ele><time>2026-04-04T14:54:41.964Z</time></trkpt><trkpt lat="45.3537883" lon="9.752215"><ele>79.0</ele><time>2026-04-04T14:54:43.963Z</time></trkpt><trkpt lat="45.3538383" lon="9.7523133"><ele>79.0</ele><time>2026-04-04T14:54:45.963Z</time></trkpt><trkpt lat="45.3538617" lon="9.7524467"><ele>79.0</ele><time>2026-04-04T14:54:47.964Z</time></trkpt><trkpt lat="45.3538667" lon="9.7525717"><ele>79.0</ele><time>2026-04-04T14:54:49.964Z</time></trkpt><trkpt lat="45.353885" lon="9.7526883"><ele>79.0</ele><time>2026-04-04T14:54:51.963Z</time></trkpt><trkpt lat="45.353905" lon="9.7528067"><ele>79.0</ele><time>2026-04-04T14:54:53.964Z</time></trkpt><trkpt lat="45.3538983" lon="9.7529183"><ele>79.0</ele><time>2026-04-04T14:54:55.964Z</time></trkpt><trkpt lat="45.35388" lon="9.7530317"><ele>78.71428571428572</ele><time>2026-04-04T14:54:57.964Z</time></trkpt><trkpt lat="45.3538667" lon="9.75313"><ele>78.42857142857143</ele><time>2026-04-04T14:54:59.964Z</time></trkpt><trkpt lat="45.353855" lon="9.7532217"><ele>78.14285714285714</ele><time>2026-04-04T14:55:01.964Z</time></trkpt><trkpt lat="45.353865" lon="9.7533117"><ele>77.85714285714286</ele><time>2026-04-04T14:55:03.964Z</time></trkpt><trkpt lat="45.353885" lon="9.753445"><ele>77.57142857142857</ele><time>2026-04-04T14:55:06.964Z</time></trkpt><trkpt lat="45.3538317" lon="9.7535183"><ele>77.28571428571429</ele><time>2026-04-04T14:55:09.964Z</time></trkpt><trkpt lat="45.3537667" lon="9.75354"><ele>77.0</ele><time>2026-04-04T14:55:11.963Z</time></trkpt><trkpt lat="45.3536867" lon="9.7535567"><ele>76.5</ele><time>2026-04-04T14:55:14.964Z</time></trkpt><trkpt lat="45.3536117" lon="9.7535683"><ele>76.0</ele><time>2026-04-04T14:55:17.964Z</time></trkpt><trkpt lat="45.3535417" lon="9.7535967"><ele>75.5</ele><time>2026-04-04T14:55:20.964Z</time></trkpt><trkpt lat="45.3534667" lon="9.753565"><ele>75.0</ele><time>2026-04-04T14:55:23.963Z</time></trkpt><trkpt lat="45.35339" lon="9.7535583"><ele>74.5</ele><time>2026-04-04T14:55:26.964Z</time></trkpt><trkpt lat="45.3533167" lon="9.7535517"><ele>74.0</ele><time>2026-04-04T14:55:29.963Z</time></trkpt><trkpt lat="45.3532433" lon="9.753565"><ele>74.0</ele><time>2026-04-04T14:55:32.964Z</time></trkpt><trkpt lat="45.3531717" lon="9.7536"><ele>74.0</ele><time>2026-04-04T14:55:34.964Z</time></trkpt><trkpt lat="45.3530833" lon="9.7536317"><ele>74.0</ele><time>2026-04-04T14:55:36.964Z</time></trkpt><trkpt lat="45.3530017" lon="9.7536683"><ele>74.0</ele><time>2026-04-04T14:55:38.963Z</time></trkpt><trkpt lat="45.3529133" lon="9.7536967"><ele>74.0</ele><time>2026-04-04T14:55:40.964Z</time></trkpt><trkpt lat="45.35283" lon="9.753705"><ele>74.0</ele><time>2026-04-04T14:55:42.964Z</time></trkpt><trkpt lat="45.352745" lon="9.7537233"><ele>73.66666666666667</ele><time>2026-04-04T14:55:44.964Z</time></trkpt><trkpt lat="45.3526533" lon="9.7537317"><ele>73.33333333333334</ele><time>2026-04-04T14:55:46.964Z</time></trkpt><trkpt lat="45.3525733" lon="9.7537217"><ele>73.0</ele><time>2026-04-04T14:55:48.964Z</time></trkpt><trkpt lat="45.3525" lon="9.753705"><ele>72.66666666666667</ele><time>2026-04-04T14:55:50.964Z</time></trkpt><trkpt lat="45.35241" lon="9.7537033"><ele>72.33333333333333</ele><time>2026-04-04T14:55:52.964Z</time></trkpt><trkpt lat="45.3523217" lon="9.7537083"><ele>72.0</ele><time>2026-04-04T14:55:54.964Z</time></trkpt><trkpt lat="45.352235" lon="9.7536833"><ele>72.16666666666667</ele><time>2026-04-04T14:55:56.964Z</time></trkpt><trkpt lat="45.35215" lon="9.7536833"><ele>72.33333333333333</ele><time>2026-04-04T14:55:58.964Z</time></trkpt><trkpt lat="45.35207" lon="9.7536817"><ele>72.5</ele><time>2026-04-04T14:56:00.964Z</time></trkpt><trkpt lat="45.3519933" lon="9.753685"><ele>72.66666666666666</ele><time>2026-04-04T14:56:02.964Z</time></trkpt><trkpt lat="45.3519267" lon="9.7537267"><ele>72.83333333333333</ele><time>2026-04-04T14:56:04.964Z</time></trkpt><trkpt lat="45.35189" lon="9.7538267"><ele>73.0</ele><time>2026-04-04T14:56:06.964Z</time></trkpt><trkpt lat="45.3518933" lon="9.753955"><ele>73.0</ele><time>2026-04-04T14:56:08.964Z</time></trkpt><trkpt lat="45.3519033" lon="9.7540917"><ele>73.0</ele><time>2026-04-04T14:56:10.964Z</time></trkpt><trkpt lat="45.35192" lon="9.7542183"><ele>73.0</ele><time>2026-04-04T14:56:12.964Z</time></trkpt><trkpt lat="45.3519333" lon="9.7543483"><ele>73.0</ele><time>2026-04-04T14:56:14.963Z</time></trkpt><trkpt lat="45.3519417" lon="9.754485"><ele>73.0</ele><time>2026-04-04T14:56:16.964Z</time></trkpt><trkpt lat="45.3519533" lon="9.75461"><ele>73.0</ele><time>2026-04-04T14:56:18.964Z</time></trkpt><trkpt lat="45.3519667" lon="9.7547467"><ele>73.0</ele><time>2026-04-04T14:56:20.964Z</time></trkpt><trkpt lat="45.351975" lon="9.7548867"><ele>73.0</ele><time>2026-04-04T14:56:22.964Z</time></trkpt><trkpt lat="45.3519983" lon="9.7550283"><ele>73.0</ele><time>2026-04-04T14:56:24.964Z</time></trkpt><trkpt lat="45.3519917" lon="9.75518"><ele>73.0</ele><time>2026-04-04T14:56:26.964Z</time></trkpt><trkpt lat="45.3519917" lon="9.7553233"><ele>73.0</ele><time>2026-04-04T14:56:28.964Z</time></trkpt><trkpt lat="45.3519833" lon="9.755485"><ele>73.0</ele><time>2026-04-04T14:56:30.964Z</time></trkpt><trkpt lat="45.3519817" lon="9.7556483"><ele>73.0</ele><time>2026-04-04T14:56:32.964Z</time></trkpt><trkpt lat="45.3519767" lon="9.7557983"><ele>73.0</ele><time>2026-04-04T14:56:34.964Z</time></trkpt><trkpt lat="45.3519717" lon="9.7558917"><ele>73.0</ele><time>2026-04-04T14:56:35.964Z</time></trkpt><trkpt lat="45.3519483" lon="9.75605"><ele>72.25</ele><time>2026-04-04T14:56:37.963Z</time></trkpt><trkpt lat="45.3519183" lon="9.7562083"><ele>71.5</ele><time>2026-04-04T14:56:39.964Z</time></trkpt><trkpt lat="45.3518683" lon="9.75637"><ele>70.75</ele><time>2026-04-04T14:56:41.964Z</time></trkpt><trkpt lat="45.3518133" lon="9.7565267"><ele>70.0</ele><time>2026-04-04T14:56:43.964Z</time></trkpt><trkpt lat="45.3517517" lon="9.7566817"><ele>70.0</ele><time>2026-04-04T14:56:45.964Z</time></trkpt><trkpt lat="45.35169" lon="9.7568317"><ele>70.0</ele><time>2026-04-04T14:56:47.964Z</time></trkpt><trkpt lat="45.351625" lon="9.75698"><ele>70.0</ele><time>2026-04-04T14:56:49.964Z</time></trkpt><trkpt lat="45.351565" lon="9.7571433"><ele>70.0</ele><time>2026-04-04T14:56:51.964Z</time></trkpt><trkpt lat="45.351535" lon="9.75723"><ele>70.0</ele><time>2026-04-04T14:56:52.964Z</time></trkpt><trkpt lat="45.35151" lon="9.75732"><ele>70.0</ele><time>2026-04-04T14:56:53.964Z</time></trkpt><trkpt lat="45.3514783" lon="9.7574083"><ele>70.0</ele><time>2026-04-04T14:56:54.964Z</time></trkpt><trkpt lat="45.3514517" lon="9.7574917"><ele>70.0</ele><time>2026-04-04T14:56:55.964Z</time></trkpt><trkpt lat="45.351425" lon="9.7575833"><ele>70.0</ele><time>2026-04-04T14:56:56.964Z</time></trkpt><trkpt lat="45.351405" lon="9.7576767"><ele>70.0</ele><time>2026-04-04T14:56:57.964Z</time></trkpt><trkpt lat="45.351385" lon="9.7577717"><ele>70.0</ele><time>2026-04-04T14:56:58.963Z</time></trkpt><trkpt lat="45.3513683" lon="9.7578667"><ele>70.0</ele><time>2026-04-04T14:56:59.964Z</time></trkpt><trkpt lat="45.3513533" lon="9.7579617"><ele>70.0</ele><time>2026-04-04T14:57:00.964Z</time></trkpt><trkpt lat="45.3513467" lon="9.7580617"><ele>70.0</ele><time>2026-04-04T14:57:01.964Z</time></trkpt><trkpt lat="45.35134" lon="9.7581583"><ele>70.0</ele><time>2026-04-04T14:57:02.964Z</time></trkpt><trkpt lat="45.3513383" lon="9.758255"><ele>70.0</ele><time>2026-04-04T14:57:03.964Z</time></trkpt><trkpt lat="45.3513317" lon="9.7583517"><ele>70.0</ele><time>2026-04-04T14:57:04.964Z</time></trkpt><trkpt lat="45.351325" lon="9.7584483"><ele>70.0</ele><time>2026-04-04T14:57:05.964Z</time></trkpt><trkpt lat="45.35132" lon="9.7585467"><ele>70.0</ele><time>2026-04-04T14:57:06.964Z</time></trkpt><trkpt lat="45.3513133" lon="9.7586433"><ele>70.0</ele><time>2026-04-04T14:57:07.964Z</time></trkpt><trkpt lat="45.3513083" lon="9.75874"><ele>70.0</ele><time>2026-04-04T14:57:08.964Z</time></trkpt><trkpt lat="45.3513033" lon="9.758835"><ele>70.0</ele><time>2026-04-04T14:57:09.964Z</time></trkpt><trkpt lat="45.3513" lon="9.7589283"><ele>70.0</ele><time>2026-04-04T14:57:10.964Z</time></trkpt><trkpt lat="45.3512867" lon="9.7590317"><ele>70.0</ele><time>2026-04-04T14:57:11.964Z</time></trkpt><trkpt lat="45.35128" lon="9.7591317"><ele>70.0</ele><time>2026-04-04T14:57:12.964Z</time></trkpt><trkpt lat="45.3512733" lon="9.7592317"><ele>70.0</ele><time>2026-04-04T14:57:13.964Z</time></trkpt><trkpt lat="45.3512683" lon="9.759335"><ele>70.28571428571429</ele><time>2026-04-04T14:57:14.963Z</time></trkpt><trkpt lat="45.35126" lon="9.759435"><ele>70.57142857142857</ele><time>2026-04-04T14:57:15.964Z</time></trkpt><trkpt lat="45.3512533" lon="9.75954"><ele>70.85714285714286</ele><time>2026-04-04T14:57:16.964Z</time></trkpt><trkpt lat="45.3512483" lon="9.7596417"><ele>71.14285714285714</ele><time>2026-04-04T14:57:17.964Z</time></trkpt><trkpt lat="45.3512433" lon="9.7597433"><ele>71.42857142857143</ele><time>2026-04-04T14:57:18.964Z</time></trkpt><trkpt lat="45.3512417" lon="9.7598467"><ele>71.71428571428572</ele><time>2026-04-04T14:57:19.963Z</time></trkpt><trkpt lat="45.3512417" lon="9.75995"><ele>72.0</ele><time>2026-04-04T14:57:20.964Z</time></trkpt><trkpt lat="45.3512383" lon="9.7600533"><ele>72.00000000000001</ele><time>2026-04-04T14:57:21.964Z</time></trkpt><trkpt lat="45.3512383" lon="9.7601567"><ele>72.0</ele><time>2026-04-04T14:57:22.964Z</time></trkpt><trkpt lat="45.3512383" lon="9.7602567"><ele>72.0</ele><time>2026-04-04T14:57:23.964Z</time></trkpt><trkpt lat="45.35124" lon="9.760355"><ele>72.0</ele><time>2026-04-04T14:57:24.964Z</time></trkpt><trkpt lat="45.35124" lon="9.7604533"><ele>72.0</ele><time>2026-04-04T14:57:25.964Z</time></trkpt><trkpt lat="45.3512417" lon="9.7605533"><ele>72.00000000000001</ele><time>2026-04-04T14:57:26.964Z</time></trkpt><trkpt lat="45.3512467" lon="9.76065"><ele>72.0</ele><time>2026-04-04T14:57:27.964Z</time></trkpt><trkpt lat="45.3512533" lon="9.760755"><ele>71.85714285714286</ele><time>2026-04-04T14:57:28.964Z</time></trkpt><trkpt lat="45.35126" lon="9.7608583"><ele>71.71428571428572</ele><time>2026-04-04T14:57:29.964Z</time></trkpt><trkpt lat="45.3512567" lon="9.7609617"><ele>71.57142857142857</ele><time>2026-04-04T14:57:30.964Z</time></trkpt><trkpt lat="45.35126" lon="9.7610617"><ele>71.42857142857143</ele><time>2026-04-04T14:57:31.964Z</time></trkpt><trkpt lat="45.351265" lon="9.7611633"><ele>71.28571428571428</ele><time>2026-04-04T14:57:32.964Z</time></trkpt><trkpt lat="45.3512717" lon="9.76126"><ele>71.14285714285714</ele><time>2026-04-04T14:57:33.964Z</time></trkpt><trkpt lat="45.3512783" lon="9.7613583"><ele>71.0</ele><time>2026-04-04T14:57:34.964Z</time></trkpt><trkpt lat="45.35129" lon="9.7614567"><ele>71.0</ele><time>2026-04-04T14:57:35.964Z</time></trkpt><trkpt lat="45.3513017" lon="9.7615583"><ele>71.0</ele><time>2026-04-04T14:57:36.964Z</time></trkpt><trkpt lat="45.351315" lon="9.76166"><ele>71.0</ele><time>2026-04-04T14:57:37.964Z</time></trkpt><trkpt lat="45.3513283" lon="9.76176"><ele>71.0</ele><time>2026-04-04T14:57:38.964Z</time></trkpt><trkpt lat="45.35134" lon="9.7618617"><ele>71.0</ele><time>2026-04-04T14:57:39.964Z</time></trkpt><trkpt lat="45.35135" lon="9.76196"><ele>71.0</ele><time>2026-04-04T14:57:40.964Z</time></trkpt><trkpt lat="45.3513583" lon="9.7620583"><ele>71.0</ele><time>2026-04-04T14:57:41.964Z</time></trkpt><trkpt lat="45.3513633" lon="9.7621583"><ele>71.0</ele><time>2026-04-04T14:57:42.964Z</time></trkpt><trkpt lat="45.3513667" lon="9.762255"><ele>71.0</ele><time>2026-04-04T14:57:43.963Z</time></trkpt><trkpt lat="45.351365" lon="9.762345"><ele>71.0</ele><time>2026-04-04T14:57:44.964Z</time></trkpt><trkpt lat="45.351355" lon="9.7625217"><ele>71.0</ele><time>2026-04-04T14:57:46.964Z</time></trkpt><trkpt lat="45.35135" lon="9.7626133"><ele>71.0</ele><time>2026-04-04T14:57:47.964Z</time></trkpt><trkpt lat="45.3513483" lon="9.7627033"><ele>71.0</ele><time>2026-04-04T14:57:48.964Z</time></trkpt><trkpt lat="45.3513417" lon="9.76288"><ele>70.66666666666667</ele><time>2026-04-04T14:57:50.963Z</time></trkpt><trkpt lat="45.3513383" lon="9.7629733"><ele>70.33333333333334</ele><time>2026-04-04T14:57:51.964Z</time></trkpt><trkpt lat="45.351335" lon="9.7630667"><ele>70.0</ele><time>2026-04-04T14:57:52.964Z</time></trkpt><trkpt lat="45.35133" lon="9.7631633"><ele>69.66666666666667</ele><time>2026-04-04T14:57:53.964Z</time></trkpt><trkpt lat="45.3513283" lon="9.7632567"><ele>69.33333333333333</ele><time>2026-04-04T14:57:54.964Z</time></trkpt><trkpt lat="45.351325" lon="9.7633467"><ele>69.0</ele><time>2026-04-04T14:57:55.964Z</time></trkpt><trkpt lat="45.3513183" lon="9.7635217"><ele>69.0</ele><time>2026-04-04T14:57:57.964Z</time></trkpt><trkpt lat="45.3513383" lon="9.7636917"><ele>69.0</ele><time>2026-04-04T14:57:59.964Z</time></trkpt><trkpt lat="45.351345" lon="9.7638517"><ele>69.0</ele><time>2026-04-04T14:58:01.964Z</time></trkpt><trkpt lat="45.3513067" lon="9.7639967"><ele>69.0</ele><time>2026-04-04T14:58:03.964Z</time></trkpt><trkpt lat="45.3512283" lon="9.7640967"><ele>69.0</ele><time>2026-04-04T14:58:05.964Z</time></trkpt><trkpt lat="45.3511167" lon="9.7641167"><ele>69.0</ele><time>2026-04-04T14:58:07.964Z</time></trkpt><trkpt lat="45.3510117" lon="9.76411"><ele>69.0</ele><time>2026-04-04T14:58:09.964Z</time></trkpt><trkpt lat="45.3509" lon="9.7641017"><ele>69.0</ele><time>2026-04-04T14:58:11.964Z</time></trkpt><trkpt lat="45.3507883" lon="9.7641"><ele>69.0</ele><time>2026-04-04T14:58:13.964Z</time></trkpt><trkpt lat="45.35068" lon="9.764105"><ele>69.0</ele><time>2026-04-04T14:58:15.964Z</time></trkpt><trkpt lat="45.35057" lon="9.7641083"><ele>69.4</ele><time>2026-04-04T14:58:17.964Z</time></trkpt><trkpt lat="45.35046" lon="9.764115"><ele>69.80000000000001</ele><time>2026-04-04T14:58:19.963Z</time></trkpt><trkpt lat="45.3503517" lon="9.7641217"><ele>70.19999999999999</ele><time>2026-04-04T14:58:21.964Z</time></trkpt><trkpt lat="45.3502483" lon="9.764135"><ele>70.6</ele><time>2026-04-04T14:58:23.964Z</time></trkpt><trkpt lat="45.3501417" lon="9.764145"><ele>71.0</ele><time>2026-04-04T14:58:25.963Z</time></trkpt><trkpt lat="45.3500317" lon="9.7641433"><ele>71.0</ele><time>2026-04-04T14:58:27.964Z</time></trkpt><trkpt lat="45.3499183" lon="9.7641433"><ele>71.0</ele><time>2026-04-04T14:58:29.964Z</time></trkpt><trkpt lat="45.3498133" lon="9.7641167"><ele>71.0</ele><time>2026-04-04T14:58:31.964Z</time></trkpt><trkpt lat="45.3497083" lon="9.764095"><ele>71.0</ele><time>2026-04-04T14:58:33.964Z</time></trkpt><trkpt lat="45.3495917" lon="9.7640667"><ele>71.0</ele><time>2026-04-04T14:58:35.964Z</time></trkpt><trkpt lat="45.349475" lon="9.7640383"><ele>70.75</ele><time>2026-04-04T14:58:37.964Z</time></trkpt><trkpt lat="45.34936" lon="9.764015"><ele>70.5</ele><time>2026-04-04T14:58:39.964Z</time></trkpt><trkpt lat="45.3492417" lon="9.7639883"><ele>70.25</ele><time>2026-04-04T14:58:41.964Z</time></trkpt><trkpt lat="45.3491233" lon="9.7639617"><ele>70.0</ele><time>2026-04-04T14:58:43.964Z</time></trkpt><trkpt lat="45.3490067" lon="9.7639333"><ele>70.0</ele><time>2026-04-04T14:58:45.964Z</time></trkpt><trkpt lat="45.348885" lon="9.76391"><ele>70.0</ele><time>2026-04-04T14:58:47.964Z</time></trkpt><trkpt lat="45.3487633" lon="9.7638867"><ele>70.0</ele><time>2026-04-04T14:58:49.963Z</time></trkpt><trkpt lat="45.3486383" lon="9.7638733"><ele>70.0</ele><time>2026-04-04T14:58:51.964Z</time></trkpt><trkpt lat="45.3485267" lon="9.7639167"><ele>70.2</ele><time>2026-04-04T14:58:53.964Z</time></trkpt><trkpt lat="45.3484767" lon="9.764045"><ele>70.4</ele><time>2026-04-04T14:58:55.964Z</time></trkpt><trkpt lat="45.3485067" lon="9.7641967"><ele>70.6</ele><time>2026-04-04T14:58:57.964Z</time></trkpt><trkpt lat="45.3485233" lon="9.7643483"><ele>70.8</ele><time>2026-04-04T14:58:59.964Z</time></trkpt><trkpt lat="45.3485333" lon="9.76449"><ele>71.0</ele><time>2026-04-04T14:59:01.963Z</time></trkpt><trkpt lat="45.348545" lon="9.7646467"><ele>70.66666666666667</ele><time>2026-04-04T14:59:03.964Z</time></trkpt><trkpt lat="45.3485517" lon="9.764795"><ele>70.33333333333334</ele><time>2026-04-04T14:59:05.964Z</time></trkpt><trkpt lat="45.3485533" lon="9.76494"><ele>70.0</ele><time>2026-04-04T14:59:07.964Z</time></trkpt><trkpt lat="45.3485433" lon="9.7650583"><ele>69.66666666666667</ele><time>2026-04-04T14:59:09.964Z</time></trkpt><trkpt lat="45.348535" lon="9.76496"><ele>69.33333333333333</ele><time>2026-04-04T14:59:25.963Z</time></trkpt><trkpt lat="45.3485467" lon="9.7648417"><ele>69.0</ele><time>2026-04-04T14:59:29.963Z</time></trkpt><trkpt lat="45.3485433" lon="9.7649567"><ele>69.0</ele><time>2026-04-04T14:59:39.963Z</time></trkpt><trkpt lat="45.3485433" lon="9.765065"><ele>69.0</ele><time>2026-04-04T14:59:42.963Z</time></trkpt><trkpt lat="45.34855" lon="9.7651933"><ele>69.0</ele><time>2026-04-04T14:59:45.963Z</time></trkpt><trkpt lat="45.3485567" lon="9.7653133"><ele>69.0</ele><time>2026-04-04T14:59:48.963Z</time></trkpt><trkpt lat="45.3485617" lon="9.7654067"><ele>69.0</ele><time>2026-04-04T14:59:50.963Z</time></trkpt><trkpt lat="45.3485617" lon="9.76551"><ele>69.0</ele><time>2026-04-04T14:59:52.963Z</time></trkpt><trkpt lat="45.34857" lon="9.765625"><ele>69.16666666666667</ele><time>2026-04-04T14:59:54.963Z</time></trkpt><trkpt lat="45.348575" lon="9.76573"><ele>69.33333333333333</ele><time>2026-04-04T14:59:56.963Z</time></trkpt><trkpt lat="45.3485817" lon="9.7658433"><ele>69.5</ele><time>2026-04-04T14:59:58.963Z</time></trkpt><trkpt lat="45.3485833" lon="9.7659583"><ele>69.66666666666666</ele><time>2026-04-04T15:00:00.963Z</time></trkpt><trkpt lat="45.3485817" lon="9.766075"><ele>69.83333333333333</ele><time>2026-04-04T15:00:02.963Z</time></trkpt><trkpt lat="45.3485867" lon="9.766195"><ele>70.0</ele><time>2026-04-04T15:00:04.963Z</time></trkpt><trkpt lat="45.348595" lon="9.7663233"><ele>70.0</ele><time>2026-04-04T15:00:06.963Z</time></trkpt><trkpt lat="45.3486" lon="9.766445"><ele>70.0</ele><time>2026-04-04T15:00:08.963Z</time></trkpt><trkpt lat="45.3486083" lon="9.7665733"><ele>70.0</ele><time>2026-04-04T15:00:10.963Z</time></trkpt><trkpt lat="45.3486133" lon="9.7666967"><ele>70.0</ele><time>2026-04-04T15:00:12.963Z</time></trkpt><trkpt lat="45.348625" lon="9.7668317"><ele>70.0</ele><time>2026-04-04T15:00:14.963Z</time></trkpt><trkpt lat="45.3486283" lon="9.766955"><ele>70.0</ele><time>2026-04-04T15:00:16.963Z</time></trkpt><trkpt lat="45.3486333" lon="9.7670883"><ele>69.83333333333333</ele><time>2026-04-04T15:00:18.963Z</time></trkpt><trkpt lat="45.3486333" lon="9.7672283"><ele>69.66666666666666</ele><time>2026-04-04T15:00:20.963Z</time></trkpt><trkpt lat="45.3486367" lon="9.767355"><ele>69.5</ele><time>2026-04-04T15:00:22.963Z</time></trkpt><trkpt lat="45.3486417" lon="9.767485"><ele>69.33333333333333</ele><time>2026-04-04T15:00:24.963Z</time></trkpt><trkpt lat="45.3486467" lon="9.76761"><ele>69.16666666666667</ele><time>2026-04-04T15:00:26.963Z</time></trkpt><trkpt lat="45.3486433" lon="9.7677267"><ele>69.0</ele><time>2026-04-04T15:00:28.963Z</time></trkpt><trkpt lat="45.3486533" lon="9.7678533"><ele>69.0</ele><time>2026-04-04T15:00:30.963Z</time></trkpt><trkpt lat="45.34866" lon="9.7679767"><ele>69.0</ele><time>2026-04-04T15:00:32.963Z</time></trkpt><trkpt lat="45.3486717" lon="9.768105"><ele>69.0</ele><time>2026-04-04T15:00:34.963Z</time></trkpt><trkpt lat="45.348675" lon="9.7682217"><ele>69.0</ele><time>2026-04-04T15:00:36.963Z</time></trkpt><trkpt lat="45.348675" lon="9.76834"><ele>69.0</ele><time>2026-04-04T15:00:38.962Z</time></trkpt><trkpt lat="45.3486733" lon="9.7684667"><ele>69.0</ele><time>2026-04-04T15:00:40.963Z</time></trkpt><trkpt lat="45.3486233" lon="9.768565"><ele>69.60000000000001</ele><time>2026-04-04T15:00:42.963Z</time></trkpt><trkpt lat="45.3485383" lon="9.768595"><ele>70.2</ele><time>2026-04-04T15:00:44.963Z</time></trkpt><trkpt lat="45.3484517" lon="9.7686067"><ele>70.80000000000001</ele><time>2026-04-04T15:00:46.963Z</time></trkpt><trkpt lat="45.348355" lon="9.7686017"><ele>71.4</ele><time>2026-04-04T15:00:48.963Z</time></trkpt><trkpt lat="45.3482767" lon="9.7686767"><ele>72.0</ele><time>2026-04-04T15:00:50.963Z</time></trkpt><trkpt lat="45.3482683" lon="9.7688033"><ele>72.0</ele><time>2026-04-04T15:00:52.963Z</time></trkpt><trkpt lat="45.3482717" lon="9.7689417"><ele>72.0</ele><time>2026-04-04T15:00:54.963Z</time></trkpt><trkpt lat="45.3483017" lon="9.7690617"><ele>72.0</ele><time>2026-04-04T15:00:56.963Z</time></trkpt><trkpt lat="45.3483033" lon="9.7691983"><ele>72.0</ele><time>2026-04-04T15:00:58.962Z</time></trkpt><trkpt lat="45.3482983" lon="9.7693517"><ele>72.0</ele><time>2026-04-04T15:01:00.963Z</time></trkpt><trkpt lat="45.34829" lon="9.7695033"><ele>71.6</ele><time>2026-04-04T15:01:02.963Z</time></trkpt><trkpt lat="45.3482967" lon="9.769655"><ele>71.2</ele><time>2026-04-04T15:01:04.963Z</time></trkpt><trkpt lat="45.34831" lon="9.7698017"><ele>70.8</ele><time>2026-04-04T15:01:06.963Z</time></trkpt><trkpt lat="45.348315" lon="9.7699483"><ele>70.4</ele><time>2026-04-04T15:01:08.963Z</time></trkpt><trkpt lat="45.348325" lon="9.770105"><ele>70.0</ele><time>2026-04-04T15:01:10.963Z</time></trkpt><trkpt lat="45.3483333" lon="9.7702567"><ele>70.0</ele><time>2026-04-04T15:01:12.963Z</time></trkpt><trkpt lat="45.3483467" lon="9.7704083"><ele>70.0</ele><time>2026-04-04T15:01:14.963Z</time></trkpt><trkpt lat="45.34836" lon="9.7705617"><ele>70.0</ele><time>2026-04-04T15:01:16.963Z</time></trkpt><trkpt lat="45.348375" lon="9.7707133"><ele>70.0</ele><time>2026-04-04T15:01:18.963Z</time></trkpt><trkpt lat="45.3483967" lon="9.7708767"><ele>70.0</ele><time>2026-04-04T15:01:20.963Z</time></trkpt><trkpt lat="45.3484267" lon="9.7710267"><ele>70.0</ele><time>2026-04-04T15:01:22.963Z</time></trkpt><trkpt lat="45.3484617" lon="9.7711717"><ele>70.0</ele><time>2026-04-04T15:01:24.963Z</time></trkpt><trkpt lat="45.348495" lon="9.7713183"><ele>70.0</ele><time>2026-04-04T15:01:26.962Z</time></trkpt><trkpt lat="45.3485317" lon="9.7714667"><ele>70.0</ele><time>2026-04-04T15:01:28.963Z</time></trkpt><trkpt lat="45.34857" lon="9.7716167"><ele>70.0</ele><time>2026-04-04T15:01:30.963Z</time></trkpt><trkpt lat="45.34861" lon="9.771775"><ele>69.8</ele><time>2026-04-04T15:01:32.963Z</time></trkpt><trkpt lat="45.348645" lon="9.7719233"><ele>69.6</ele><time>2026-04-04T15:01:34.963Z</time></trkpt><trkpt lat="45.348685" lon="9.772075"><ele>69.4</ele><time>2026-04-04T15:01:36.963Z</time></trkpt><trkpt lat="45.3487267" lon="9.7722233"><ele>69.2</ele><time>2026-04-04T15:01:38.963Z</time></trkpt><trkpt lat="45.34878" lon="9.7723633"><ele>69.0</ele><time>2026-04-04T15:01:40.963Z</time></trkpt><trkpt lat="45.3488233" lon="9.7725067"><ele>69.0</ele><time>2026-04-04T15:01:42.963Z</time></trkpt><trkpt lat="45.3488483" lon="9.7726583"><ele>69.0</ele><time>2026-04-04T15:01:44.963Z</time></trkpt><trkpt lat="45.3488733" lon="9.7728083"><ele>69.0</ele><time>2026-04-04T15:01:46.963Z</time></trkpt><trkpt lat="45.3489017" lon="9.7729533"><ele>69.0</ele><time>2026-04-04T15:01:48.963Z</time></trkpt><trkpt lat="45.3489217" lon="9.7731083"><ele>69.0</ele><time>2026-04-04T15:01:50.963Z</time></trkpt><trkpt lat="45.34895" lon="9.773265"><ele>69.0</ele><time>2026-04-04T15:01:52.963Z</time></trkpt><trkpt lat="45.348975" lon="9.7734217"><ele>69.0</ele><time>2026-04-04T15:01:54.963Z</time></trkpt><trkpt lat="45.3490017" lon="9.7735767"><ele>69.0</ele><time>2026-04-04T15:01:56.963Z</time></trkpt><trkpt lat="45.349025" lon="9.7737367"><ele>69.0</ele><time>2026-04-04T15:01:58.963Z</time></trkpt><trkpt lat="45.349055" lon="9.7738867"><ele>69.0</ele><time>2026-04-04T15:02:00.963Z</time></trkpt><trkpt lat="45.3490833" lon="9.7740383"><ele>69.0</ele><time>2026-04-04T15:02:02.963Z</time></trkpt><trkpt lat="45.349115" lon="9.77419"><ele>69.0</ele><time>2026-04-04T15:02:04.963Z</time></trkpt><trkpt lat="45.3491417" lon="9.7743383"><ele>69.0</ele><time>2026-04-04T15:02:06.963Z</time></trkpt><trkpt lat="45.3491667" lon="9.7744933"><ele>69.0</ele><time>2026-04-04T15:02:08.963Z</time></trkpt><trkpt lat="45.3491917" lon="9.7746417"><ele>69.0</ele><time>2026-04-04T15:02:10.963Z</time></trkpt><trkpt lat="45.34922" lon="9.7747883"><ele>69.0</ele><time>2026-04-04T15:02:12.963Z</time></trkpt><trkpt lat="45.34925" lon="9.7749233"><ele>69.0</ele><time>2026-04-04T15:02:14.963Z</time></trkpt><trkpt lat="45.34928" lon="9.7750383"><ele>69.0</ele><time>2026-04-04T15:02:16.963Z</time></trkpt><trkpt lat="45.3493333" lon="9.77511"><ele>69.0</ele><time>2026-04-04T15:02:18.962Z</time></trkpt><trkpt lat="45.3494" lon="9.7751067"><ele>69.0</ele><time>2026-04-04T15:02:20.963Z</time></trkpt><trkpt lat="45.349475" lon="9.775065"><ele>69.0</ele><time>2026-04-04T15:02:22.963Z</time></trkpt><trkpt lat="45.3495633" lon="9.7750167"><ele>69.0</ele><time>2026-04-04T15:02:24.963Z</time></trkpt><trkpt lat="45.3496567" lon="9.774965"><ele>69.0</ele><time>2026-04-04T15:02:26.963Z</time></trkpt><trkpt lat="45.3497617" lon="9.7749117"><ele>69.0</ele><time>2026-04-04T15:02:28.963Z</time></trkpt><trkpt lat="45.3498817" lon="9.7748817"><ele>69.0</ele><time>2026-04-04T15:02:30.963Z</time></trkpt><trkpt lat="45.34999" lon="9.7748567"><ele>69.75</ele><time>2026-04-04T15:02:32.963Z</time></trkpt><trkpt lat="45.3501017" lon="9.7748233"><ele>70.5</ele><time>2026-04-04T15:02:34.963Z</time></trkpt><trkpt lat="45.350225" lon="9.7747967"><ele>71.25</ele><time>2026-04-04T15:02:36.963Z</time></trkpt><trkpt lat="45.350345" lon="9.7747683"><ele>72.0</ele><time>2026-04-04T15:02:38.963Z</time></trkpt><trkpt lat="45.3504717" lon="9.77474"><ele>72.0</ele><time>2026-04-04T15:02:40.963Z</time></trkpt><trkpt lat="45.3505367" lon="9.7747233"><ele>72.0</ele><time>2026-04-04T15:02:41.963Z</time></trkpt><trkpt lat="45.3506017" lon="9.77471"><ele>72.0</ele><time>2026-04-04T15:02:42.963Z</time></trkpt><trkpt lat="45.3506667" lon="9.7746917"><ele>72.0</ele><time>2026-04-04T15:02:43.962Z</time></trkpt><trkpt lat="45.35079" lon="9.7746617"><ele>72.0</ele><time>2026-04-04T15:02:45.963Z</time></trkpt><trkpt lat="45.3508583" lon="9.77464"><ele>72.0</ele><time>2026-04-04T15:02:46.963Z</time></trkpt><trkpt lat="45.3509217" lon="9.7746283"><ele>71.8</ele><time>2026-04-04T15:02:47.963Z</time></trkpt><trkpt lat="45.3510517" lon="9.7746017"><ele>71.6</ele><time>2026-04-04T15:02:49.963Z</time></trkpt><trkpt lat="45.3511167" lon="9.7745883"><ele>71.39999999999999</ele><time>2026-04-04T15:02:50.963Z</time></trkpt><trkpt lat="45.3511833" lon="9.7745783"><ele>71.2</ele><time>2026-04-04T15:02:51.963Z</time></trkpt><trkpt lat="45.3512467" lon="9.77457"><ele>71.0</ele><time>2026-04-04T15:02:52.963Z</time></trkpt><trkpt lat="45.3513733" lon="9.7745417"><ele>70.85714285714286</ele><time>2026-04-04T15:02:54.963Z</time></trkpt><trkpt lat="45.3514383" lon="9.7745283"><ele>70.71428571428571</ele><time>2026-04-04T15:02:55.963Z</time></trkpt><trkpt lat="45.3515033" lon="9.7745117"><ele>70.57142857142857</ele><time>2026-04-04T15:02:56.962Z</time></trkpt><trkpt lat="45.35157" lon="9.774495"><ele>70.42857142857143</ele><time>2026-04-04T15:02:57.963Z</time></trkpt><trkpt lat="45.35164" lon="9.774485"><ele>70.28571428571428</ele><time>2026-04-04T15:02:58.963Z</time></trkpt><trkpt lat="45.3517083" lon="9.7744667"><ele>70.14285714285714</ele><time>2026-04-04T15:02:59.963Z</time></trkpt><trkpt lat="45.3517767" lon="9.77445"><ele>70.0</ele><time>2026-04-04T15:03:00.963Z</time></trkpt><trkpt lat="45.3518433" lon="9.774435"><ele>70.0</ele><time>2026-04-04T15:03:01.963Z</time></trkpt><trkpt lat="45.3519117" lon="9.7744183"><ele>70.0</ele><time>2026-04-04T15:03:02.963Z</time></trkpt><trkpt lat="45.35198" lon="9.7744017"><ele>70.0</ele><time>2026-04-04T15:03:03.962Z</time></trkpt><trkpt lat="45.3520483" lon="9.7743833"><ele>70.0</ele><time>2026-04-04T15:03:04.963Z</time></trkpt><trkpt lat="45.3521133" lon="9.7743633"><ele>70.0</ele><time>2026-04-04T15:03:05.963Z</time></trkpt><trkpt lat="45.352185" lon="9.774345"><ele>70.0</ele><time>2026-04-04T15:03:06.963Z</time></trkpt><trkpt lat="45.352255" lon="9.77433"><ele>70.0</ele><time>2026-04-04T15:03:07.962Z</time></trkpt><trkpt lat="45.3523233" lon="9.7743167"><ele>70.0</ele><time>2026-04-04T15:03:08.963Z</time></trkpt><trkpt lat="45.3523883" lon="9.7743033"><ele>70.0</ele><time>2026-04-04T15:03:09.963Z</time></trkpt><trkpt lat="45.352455" lon="9.7742917"><ele>70.0</ele><time>2026-04-04T15:03:10.963Z</time></trkpt><trkpt lat="45.3525233" lon="9.77428"><ele>70.0</ele><time>2026-04-04T15:03:11.963Z</time></trkpt><trkpt lat="45.3526433" lon="9.77425"><ele>70.0</ele><time>2026-04-04T15:03:13.963Z</time></trkpt><trkpt lat="45.3527567" lon="9.774225"><ele>70.0</ele><time>2026-04-04T15:03:15.963Z</time></trkpt><trkpt lat="45.352865" lon="9.7742017"><ele>70.0</ele><time>2026-04-04T15:03:17.963Z</time></trkpt><trkpt lat="45.3529717" lon="9.7741817"><ele>70.0</ele><time>2026-04-04T15:03:19.963Z</time></trkpt><trkpt lat="45.353075" lon="9.77417"><ele>70.0</ele><time>2026-04-04T15:03:21.963Z</time></trkpt><trkpt lat="45.3531767" lon="9.7741667"><ele>70.0</ele><time>2026-04-04T15:03:23.963Z</time></trkpt><trkpt lat="45.3532667" lon="9.77419"><ele>70.0</ele><time>2026-04-04T15:03:25.963Z</time></trkpt><trkpt lat="45.3533233" lon="9.7742767"><ele>70.16666666666666</ele><time>2026-04-04T15:03:27.963Z</time></trkpt><trkpt lat="45.3533617" lon="9.7743767"><ele>70.33333333333333</ele><time>2026-04-04T15:03:29.963Z</time></trkpt><trkpt lat="45.35339" lon="9.774485"><ele>70.5</ele><time>2026-04-04T15:03:31.963Z</time></trkpt><trkpt lat="45.3534083" lon="9.7746017"><ele>70.66666666666667</ele><time>2026-04-04T15:03:33.963Z</time></trkpt><trkpt lat="45.3534267" lon="9.7746967"><ele>70.83333333333334</ele><time>2026-04-04T15:03:35.962Z</time></trkpt><trkpt lat="45.3534933" lon="9.774775"><ele>71.0</ele><time>2026-04-04T15:03:38.963Z</time></trkpt><trkpt lat="45.3535633" lon="9.77479"><ele>71.0</ele><time>2026-04-04T15:03:40.963Z</time></trkpt><trkpt lat="45.3536417" lon="9.7747817"><ele>71.0</ele><time>2026-04-04T15:03:42.963Z</time></trkpt><trkpt lat="45.353725" lon="9.7747733"><ele>71.0</ele><time>2026-04-04T15:03:44.962Z</time></trkpt><trkpt lat="45.353805" lon="9.77477"><ele>71.0</ele><time>2026-04-04T15:03:46.963Z</time></trkpt><trkpt lat="45.3538817" lon="9.7747567"><ele>71.0</ele><time>2026-04-04T15:03:48.963Z</time></trkpt><trkpt lat="45.3539633" lon="9.7747317"><ele>71.0</ele><time>2026-04-04T15:03:50.963Z</time></trkpt><trkpt lat="45.3540483" lon="9.77472"><ele>71.16666666666667</ele><time>2026-04-04T15:03:52.963Z</time></trkpt><trkpt lat="45.35412" lon="9.7747"><ele>71.33333333333334</ele><time>2026-04-04T15:03:54.963Z</time></trkpt><trkpt lat="45.35421" lon="9.7746883"><ele>71.5</ele><time>2026-04-04T15:03:57.963Z</time></trkpt><trkpt lat="45.3542867" lon="9.77469"><ele>71.66666666666667</ele><time>2026-04-04T15:03:59.963Z</time></trkpt><trkpt lat="45.354365" lon="9.7746867"><ele>71.83333333333333</ele><time>2026-04-04T15:04:01.963Z</time></trkpt><trkpt lat="45.3544417" lon="9.7746717"><ele>72.0</ele><time>2026-04-04T15:04:03.962Z</time></trkpt><trkpt lat="45.3545267" lon="9.774645"><ele>72.0</ele><time>2026-04-04T15:04:05.963Z</time></trkpt><trkpt lat="45.35461" lon="9.7746267"><ele>72.0</ele><time>2026-04-04T15:04:07.963Z</time></trkpt><trkpt lat="45.3546917" lon="9.77462"><ele>72.0</ele><time>2026-04-04T15:04:09.963Z</time></trkpt><trkpt lat="45.35476" lon="9.7746133"><ele>72.0</ele><time>2026-04-04T15:04:11.963Z</time></trkpt><trkpt lat="45.3548517" lon="9.7746067"><ele>72.0</ele><time>2026-04-04T15:04:14.963Z</time></trkpt><trkpt lat="45.354935" lon="9.7746183"><ele>72.0</ele><time>2026-04-04T15:04:17.963Z</time></trkpt><trkpt lat="45.355025" lon="9.7746233"><ele>71.85714285714286</ele><time>2026-04-04T15:04:20.963Z</time></trkpt><trkpt lat="45.355095" lon="9.7746183"><ele>71.71428571428572</ele><time>2026-04-04T15:04:22.963Z</time></trkpt><trkpt lat="45.3551683" lon="9.77462"><ele>71.57142857142857</ele><time>2026-04-04T15:04:24.963Z</time></trkpt><trkpt lat="45.35524" lon="9.7746133"><ele>71.42857142857143</ele><time>2026-04-04T15:04:26.962Z</time></trkpt><trkpt lat="45.3553067" lon="9.7746117"><ele>71.28571428571428</ele><time>2026-04-04T15:04:28.963Z</time></trkpt><trkpt lat="45.3554" lon="9.7746267"><ele>71.14285714285714</ele><time>2026-04-04T15:04:31.963Z</time></trkpt><trkpt lat="45.3554683" lon="9.77464"><ele>71.0</ele><time>2026-04-04T15:04:33.963Z</time></trkpt><trkpt lat="45.3555367" lon="9.7746417"><ele>71.42857142857143</ele><time>2026-04-04T15:04:35.962Z</time></trkpt><trkpt lat="45.355605" lon="9.77464"><ele>71.85714285714285</ele><time>2026-04-04T15:04:37.962Z</time></trkpt><trkpt lat="45.3556817" lon="9.77465"><ele>72.28571428571428</ele><time>2026-04-04T15:04:39.962Z</time></trkpt><trkpt lat="45.355755" lon="9.7746483"><ele>72.71428571428571</ele><time>2026-04-04T15:04:41.962Z</time></trkpt><trkpt lat="45.3558217" lon="9.7746417"><ele>73.14285714285714</ele><time>2026-04-04T15:04:43.962Z</time></trkpt><trkpt lat="45.3558967" lon="9.7746433"><ele>73.57142857142857</ele><time>2026-04-04T15:04:45.962Z</time></trkpt><trkpt lat="45.3559683" lon="9.7746533"><ele>74.0</ele><time>2026-04-04T15:04:47.962Z</time></trkpt><trkpt lat="45.3560383" lon="9.7746583"><ele>74.0</ele><time>2026-04-04T15:04:49.961Z</time></trkpt><trkpt lat="45.356105" lon="9.7746517"><ele>74.0</ele><time>2026-04-04T15:04:51.962Z</time></trkpt><trkpt lat="45.356185" lon="9.774655"><ele>74.0</ele><time>2026-04-04T15:04:53.962Z</time></trkpt><trkpt lat="45.3562633" lon="9.7746633"><ele>74.0</ele><time>2026-04-04T15:04:55.962Z</time></trkpt><trkpt lat="45.3563333" lon="9.7746767"><ele>74.0</ele><time>2026-04-04T15:04:57.962Z</time></trkpt><trkpt lat="45.3564" lon="9.7746717"><ele>74.0</ele><time>2026-04-04T15:04:59.962Z</time></trkpt><trkpt lat="45.356485" lon="9.7747083"><ele>74.16666666666667</ele><time>2026-04-04T15:05:02.962Z</time></trkpt><trkpt lat="45.3565183" lon="9.77479"><ele>74.33333333333334</ele><time>2026-04-04T15:05:04.962Z</time></trkpt><trkpt lat="45.356525" lon="9.7749067"><ele>74.5</ele><time>2026-04-04T15:05:06.962Z</time></trkpt><trkpt lat="45.356535" lon="9.7750217"><ele>74.66666666666667</ele><time>2026-04-04T15:05:08.962Z</time></trkpt><trkpt lat="45.3565317" lon="9.7751283"><ele>74.83333333333333</ele><time>2026-04-04T15:05:10.962Z</time></trkpt><trkpt lat="45.3565167" lon="9.775235"><ele>75.0</ele><time>2026-04-04T15:05:12.962Z</time></trkpt><trkpt lat="45.35651" lon="9.775355"><ele>74.83333333333333</ele><time>2026-04-04T15:05:14.962Z</time></trkpt><trkpt lat="45.3564917" lon="9.7754667"><ele>74.66666666666667</ele><time>2026-04-04T15:05:16.962Z</time></trkpt><trkpt lat="45.356465" lon="9.7755833"><ele>74.5</ele><time>2026-04-04T15:05:18.962Z</time></trkpt><trkpt lat="45.3564117" lon="9.7756933"><ele>74.33333333333334</ele><time>2026-04-04T15:05:20.962Z</time></trkpt><trkpt lat="45.356365" lon="9.7757967"><ele>74.16666666666667</ele><time>2026-04-04T15:05:22.962Z</time></trkpt><trkpt lat="45.356345" lon="9.7758983"><ele>74.0</ele><time>2026-04-04T15:05:24.962Z</time></trkpt><trkpt lat="45.3563733" lon="9.776"><ele>73.85714285714286</ele><time>2026-04-04T15:05:26.962Z</time></trkpt><trkpt lat="45.3563733" lon="9.7760983"><ele>73.71428571428571</ele><time>2026-04-04T15:05:28.961Z</time></trkpt><trkpt lat="45.3563433" lon="9.7761783"><ele>73.57142857142857</ele><time>2026-04-04T15:05:30.962Z</time></trkpt><trkpt lat="45.3563117" lon="9.7762583"><ele>73.42857142857143</ele><time>2026-04-04T15:05:32.962Z</time></trkpt><trkpt lat="45.3562633" lon="9.776355"><ele>73.28571428571429</ele><time>2026-04-04T15:05:35.962Z</time></trkpt><trkpt lat="45.3562067" lon="9.77644"><ele>73.14285714285714</ele><time>2026-04-04T15:05:38.961Z</time></trkpt><trkpt lat="45.35616" lon="9.7765167"><ele>73.0</ele><time>2026-04-04T15:05:40.961Z</time></trkpt><trkpt lat="45.356115" lon="9.77661"><ele>73.0</ele><time>2026-04-04T15:05:42.962Z</time></trkpt><trkpt lat="45.356065" lon="9.776715"><ele>73.0</ele><time>2026-04-04T15:05:44.962Z</time></trkpt><trkpt lat="45.3560083" lon="9.7768283"><ele>73.0</ele><time>2026-04-04T15:05:46.961Z</time></trkpt><trkpt lat="45.3559417" lon="9.77694"><ele>73.0</ele><time>2026-04-04T15:05:48.962Z</time></trkpt><trkpt lat="45.3558833" lon="9.7770533"><ele>73.0</ele><time>2026-04-04T15:05:50.962Z</time></trkpt><trkpt lat="45.3558267" lon="9.7771633"><ele>73.0</ele><time>2026-04-04T15:05:52.962Z</time></trkpt><trkpt lat="45.3557683" lon="9.7772717"><ele>73.0</ele><time>2026-04-04T15:05:54.962Z</time></trkpt><trkpt lat="45.3557167" lon="9.7773783"><ele>73.0</ele><time>2026-04-04T15:05:56.962Z</time></trkpt><trkpt lat="45.3556617" lon="9.777485"><ele>73.0</ele><time>2026-04-04T15:05:58.961Z</time></trkpt><trkpt lat="45.3555817" lon="9.7775667"><ele>73.0</ele><time>2026-04-04T15:06:00.962Z</time></trkpt><trkpt lat="45.355485" lon="9.7776133"><ele>73.0</ele><time>2026-04-04T15:06:02.962Z</time></trkpt><trkpt lat="45.3553967" lon="9.7776833"><ele>73.0</ele><time>2026-04-04T15:06:04.962Z</time></trkpt><trkpt lat="45.3553417" lon="9.7777933"><ele>73.0</ele><time>2026-04-04T15:06:06.961Z</time></trkpt><trkpt lat="45.355335" lon="9.777925"><ele>73.0</ele><time>2026-04-04T15:06:08.961Z</time></trkpt><trkpt lat="45.3553633" lon="9.7780483"><ele>73.0</ele><time>2026-04-04T15:06:10.962Z</time></trkpt><trkpt lat="45.355375" lon="9.7781783"><ele>73.0</ele><time>2026-04-04T15:06:12.962Z</time></trkpt><trkpt lat="45.355375" lon="9.7783083"><ele>73.0</ele><time>2026-04-04T15:06:14.962Z</time></trkpt><trkpt lat="45.3553633" lon="9.7784333"><ele>73.0</ele><time>2026-04-04T15:06:16.962Z</time></trkpt><trkpt lat="45.3553567" lon="9.7785633"><ele>73.0</ele><time>2026-04-04T15:06:18.962Z</time></trkpt><trkpt lat="45.35536" lon="9.7786767"><ele>73.0</ele><time>2026-04-04T15:06:20.962Z</time></trkpt><trkpt lat="45.3553717" lon="9.7787883"><ele>73.0</ele><time>2026-04-04T15:06:22.962Z</time></trkpt><trkpt lat="45.35538" lon="9.7789017"><ele>73.0</ele><time>2026-04-04T15:06:24.962Z</time></trkpt><trkpt lat="45.3553867" lon="9.7790133"><ele>73.0</ele><time>2026-04-04T15:06:26.962Z</time></trkpt><trkpt lat="45.3554" lon="9.7791217"><ele>73.0</ele><time>2026-04-04T15:06:28.962Z</time></trkpt><trkpt lat="45.35542" lon="9.7792133"><ele>73.0</ele><time>2026-04-04T15:06:30.962Z</time></trkpt><trkpt lat="45.3554417" lon="9.7793067"><ele>73.0</ele><time>2026-04-04T15:06:35.962Z</time></trkpt><trkpt lat="45.3554533" lon="9.779395"><ele>73.0</ele><time>2026-04-04T15:06:37.962Z</time></trkpt><trkpt lat="45.3554683" lon="9.7795017"><ele>73.0</ele><time>2026-04-04T15:06:39.962Z</time></trkpt><trkpt lat="45.35548" lon="9.7796083"><ele>73.0</ele><time>2026-04-04T15:06:41.962Z</time></trkpt><trkpt lat="45.35551" lon="9.7797183"><ele>73.0</ele><time>2026-04-04T15:06:43.962Z</time></trkpt><trkpt lat="45.355525" lon="9.77985"><ele>73.0</ele><time>2026-04-04T15:06:45.962Z</time></trkpt><trkpt lat="45.3555367" lon="9.7799733"><ele>73.0</ele><time>2026-04-04T15:06:47.962Z</time></trkpt><trkpt lat="45.3555517" lon="9.7800833"><ele>73.0</ele><time>2026-04-04T15:06:49.962Z</time></trkpt><trkpt lat="45.3555617" lon="9.7801783"><ele>73.0</ele><time>2026-04-04T15:06:51.962Z</time></trkpt><trkpt lat="45.3555983" lon="9.7802767"><ele>73.0</ele><time>2026-04-04T15:06:55.962Z</time></trkpt><trkpt lat="45.355635" lon="9.780405"><ele>73.0</ele><time>2026-04-04T15:06:58.962Z</time></trkpt><trkpt lat="45.355665" lon="9.7805183"><ele>73.0</ele><time>2026-04-04T15:07:00.962Z</time></trkpt><trkpt lat="45.3556817" lon="9.7806367"><ele>73.0</ele><time>2026-04-04T15:07:02.962Z</time></trkpt><trkpt lat="45.3556967" lon="9.7807633"><ele>73.0</ele><time>2026-04-04T15:07:04.962Z</time></trkpt><trkpt lat="45.35573" lon="9.7808833"><ele>73.0</ele><time>2026-04-04T15:07:06.962Z</time></trkpt><trkpt lat="45.3557483" lon="9.7810267"><ele>73.0</ele><time>2026-04-04T15:07:08.962Z</time></trkpt><trkpt lat="45.3557617" lon="9.781175"><ele>73.0</ele><time>2026-04-04T15:07:10.962Z</time></trkpt><trkpt lat="45.3557817" lon="9.781325"><ele>73.0</ele><time>2026-04-04T15:07:12.962Z</time></trkpt><trkpt lat="45.3557967" lon="9.7814767"><ele>73.0</ele><time>2026-04-04T15:07:14.962Z</time></trkpt><trkpt lat="45.35581" lon="9.7816117"><ele>73.0</ele><time>2026-04-04T15:07:16.962Z</time></trkpt><trkpt lat="45.3558183" lon="9.7817517"><ele>73.0</ele><time>2026-04-04T15:07:18.962Z</time></trkpt><trkpt lat="45.35584" lon="9.7818767"><ele>73.0</ele><time>2026-04-04T15:07:20.962Z</time></trkpt><trkpt lat="45.3558633" lon="9.7820167"><ele>73.0</ele><time>2026-04-04T15:07:22.962Z</time></trkpt><trkpt lat="45.3558817" lon="9.7821633"><ele>73.0</ele><time>2026-04-04T15:07:24.962Z</time></trkpt><trkpt lat="45.3559" lon="9.782305"><ele>73.0</ele><time>2026-04-04T15:07:26.961Z</time></trkpt><trkpt lat="45.35592" lon="9.7824483"><ele>73.0</ele><time>2026-04-04T15:07:28.962Z</time></trkpt><trkpt lat="45.3559383" lon="9.7825833"><ele>73.0</ele><time>2026-04-04T15:07:30.962Z</time></trkpt><trkpt lat="45.355955" lon="9.7827133"><ele>73.0</ele><time>2026-04-04T15:07:32.962Z</time></trkpt><trkpt lat="45.35597" lon="9.782835"><ele>73.0</ele><time>2026-04-04T15:07:34.962Z</time></trkpt><trkpt lat="45.355985" lon="9.7829467"><ele>73.0</ele><time>2026-04-04T15:07:36.962Z</time></trkpt><trkpt lat="45.3560083" lon="9.78305"><ele>73.0</ele><time>2026-04-04T15:07:38.962Z</time></trkpt><trkpt lat="45.35606" lon="9.7831367"><ele>73.0</ele><time>2026-04-04T15:07:40.962Z</time></trkpt><trkpt lat="45.3561467" lon="9.7831317"><ele>73.0</ele><time>2026-04-04T15:07:42.962Z</time></trkpt><trkpt lat="45.3562233" lon="9.7831017"><ele>73.0</ele><time>2026-04-04T15:07:44.962Z</time></trkpt><trkpt lat="45.3563117" lon="9.78309"><ele>73.0</ele><time>2026-04-04T15:07:46.962Z</time></trkpt><trkpt lat="45.3563883" lon="9.78307"><ele>73.0</ele><time>2026-04-04T15:07:48.962Z</time></trkpt><trkpt lat="45.3564867" lon="9.7830583"><ele>73.0</ele><time>2026-04-04T15:07:50.962Z</time></trkpt><trkpt lat="45.35658" lon="9.78304"><ele>73.0</ele><time>2026-04-04T15:07:52.962Z</time></trkpt><trkpt lat="45.356675" lon="9.7830267"><ele>73.0</ele><time>2026-04-04T15:07:54.962Z</time></trkpt><trkpt lat="45.356765" lon="9.7830133"><ele>73.0</ele><time>2026-04-04T15:07:56.962Z</time></trkpt><trkpt lat="45.35685" lon="9.7829983"><ele>73.0</ele><time>2026-04-04T15:07:58.962Z</time></trkpt><trkpt lat="45.35695" lon="9.7829717"><ele>73.0</ele><time>2026-04-04T15:08:00.962Z</time></trkpt><trkpt lat="45.3570467" lon="9.782955"><ele>73.0</ele><time>2026-04-04T15:08:02.962Z</time></trkpt><trkpt lat="45.35714" lon="9.7829433"><ele>73.0</ele><time>2026-04-04T15:08:04.962Z</time></trkpt><trkpt lat="45.35723" lon="9.78293"><ele>74.0</ele><time>2026-04-04T15:08:06.961Z</time></trkpt><trkpt lat="45.3573133" lon="9.7829133"><ele>74.0</ele><time>2026-04-04T15:08:08.962Z</time></trkpt><trkpt lat="45.3573933" lon="9.7829017"><ele>74.0</ele><time>2026-04-04T15:08:10.962Z</time></trkpt><trkpt lat="45.3574683" lon="9.782925"><ele>74.0</ele><time>2026-04-04T15:08:12.961Z</time></trkpt></trkseg></trk></gpx>